<?xml version="1.0" encoding="UTF-8"?>
<gpx xmlns="http://www.topografix.com/GPX/1/1" xmlns:gpsies="https://www.gpsies.com/GPX/1/0" creator="AllTrails https://www.alltrails.com/ - UMITO-2668254_course" version="1.1" xmlns:xsi="http://www.w3.org/2001/XMLSchema-instance" xsi:schemaLocation="http://www.topografix.com/GPX/1/1 http://www.topografix.com/GPX/1/1/gpx.xsd https://www.gpsies.com/GPX/1/0 https://www.gpsies.com/gpsies.xsd">
  <metadata>
    <name>UMITO-2668254_course</name>
    <link href="https://www.gpsies.com/">
      <text>UMITO-2668254_course on AllTrails</text>
    </link>
    <time>2024-05-14T08:57:03Z</time>
  </metadata>
  <trk>
    <name>UMITO-2668254_course on AllTrails</name>
    <trkseg>
      <trkpt lat="42.86138992" lon="13.56614992">
        <ele>179.00000</ele>
        <time>2024-05-13T12:19:14Z</time>
      </trkpt>
      <trkpt lat="42.86137995" lon="13.56610994">
        <ele>179.00000</ele>
        <time>2024-05-13T12:19:14Z</time>
      </trkpt>
      <trkpt lat="42.86129973" lon="13.56585446">
        <ele>178.00000</ele>
        <time>2024-05-13T12:19:17Z</time>
      </trkpt>
      <trkpt lat="42.86121994" lon="13.56559999">
        <ele>177.00000</ele>
        <time>2024-05-13T12:19:21Z</time>
      </trkpt>
      <trkpt lat="42.86111994" lon="13.56530997">
        <ele>174.00000</ele>
        <time>2024-05-13T12:19:24Z</time>
      </trkpt>
      <trkpt lat="42.86108993" lon="13.56521995">
        <ele>172.00000</ele>
        <time>2024-05-13T12:19:25Z</time>
      </trkpt>
      <trkpt lat="42.86096999" lon="13.56492994">
        <ele>169.00000</ele>
        <time>2024-05-13T12:19:29Z</time>
      </trkpt>
      <trkpt lat="42.86095993" lon="13.56489993">
        <ele>169.00000</ele>
        <time>2024-05-13T12:19:30Z</time>
      </trkpt>
      <trkpt lat="42.86091995" lon="13.56483992">
        <ele>169.00000</ele>
        <time>2024-05-13T12:19:31Z</time>
      </trkpt>
      <trkpt lat="42.86085993" lon="13.56476993">
        <ele>168.00000</ele>
        <time>2024-05-13T12:19:32Z</time>
      </trkpt>
      <trkpt lat="42.86079992" lon="13.56469994">
        <ele>168.00000</ele>
        <time>2024-05-13T12:19:33Z</time>
      </trkpt>
      <trkpt lat="42.86058995" lon="13.56450992">
        <ele>167.00000</ele>
        <time>2024-05-13T12:19:37Z</time>
      </trkpt>
      <trkpt lat="42.86038996" lon="13.56428998">
        <ele>167.00000</ele>
        <time>2024-05-13T12:19:41Z</time>
      </trkpt>
      <trkpt lat="42.86034998" lon="13.56425997">
        <ele>167.00000</ele>
        <time>2024-05-13T12:19:42Z</time>
      </trkpt>
      <trkpt lat="42.86032995" lon="13.56424991">
        <ele>167.00000</ele>
        <time>2024-05-13T12:19:42Z</time>
      </trkpt>
      <trkpt lat="42.86028997" lon="13.56423994">
        <ele>167.00000</ele>
        <time>2024-05-13T12:19:43Z</time>
      </trkpt>
      <trkpt lat="42.86027999" lon="13.56423994">
        <ele>167.00000</ele>
        <time>2024-05-13T12:19:43Z</time>
      </trkpt>
      <trkpt lat="42.86026993" lon="13.56423994">
        <ele>167.00000</ele>
        <time>2024-05-13T12:19:43Z</time>
      </trkpt>
      <trkpt lat="42.86025996" lon="13.56423994">
        <ele>167.00000</ele>
        <time>2024-05-13T12:19:44Z</time>
      </trkpt>
      <trkpt lat="42.86023993" lon="13.56424991">
        <ele>167.00000</ele>
        <time>2024-05-13T12:19:44Z</time>
      </trkpt>
      <trkpt lat="42.86022995" lon="13.56426995">
        <ele>167.00000</ele>
        <time>2024-05-13T12:19:44Z</time>
      </trkpt>
      <trkpt lat="42.86007991" lon="13.56441998">
        <ele>166.00000</ele>
        <time>2024-05-13T12:19:47Z</time>
      </trkpt>
      <trkpt lat="42.86000993" lon="13.56431999">
        <ele>166.00000</ele>
        <time>2024-05-13T12:19:49Z</time>
      </trkpt>
      <trkpt lat="42.85992996" lon="13.56416995">
        <ele>166.00000</ele>
        <time>2024-05-13T12:19:51Z</time>
      </trkpt>
      <trkpt lat="42.85972997" lon="13.56386996">
        <ele>167.00000</ele>
        <time>2024-05-13T12:19:56Z</time>
      </trkpt>
      <trkpt lat="42.85955999" lon="13.56358992">
        <ele>168.00000</ele>
        <time>2024-05-13T12:20:00Z</time>
      </trkpt>
      <trkpt lat="42.85942990" lon="13.56340980">
        <ele>166.00000</ele>
        <time>2024-05-13T12:20:03Z</time>
      </trkpt>
      <trkpt lat="42.85929998" lon="13.56322992">
        <ele>166.00000</ele>
        <time>2024-05-13T12:20:06Z</time>
      </trkpt>
      <trkpt lat="42.85926997" lon="13.56318994">
        <ele>166.00000</ele>
        <time>2024-05-13T12:20:07Z</time>
      </trkpt>
      <trkpt lat="42.85913997" lon="13.56300998">
        <ele>166.00000</ele>
        <time>2024-05-13T12:20:10Z</time>
      </trkpt>
      <trkpt lat="42.85908993" lon="13.56293999">
        <ele>166.00000</ele>
        <time>2024-05-13T12:20:11Z</time>
      </trkpt>
      <trkpt lat="42.85889999" lon="13.56274997">
        <ele>166.00000</ele>
        <time>2024-05-13T12:20:15Z</time>
      </trkpt>
      <trkpt lat="42.85873001" lon="13.56260991">
        <ele>164.00000</ele>
        <time>2024-05-13T12:20:18Z</time>
      </trkpt>
      <trkpt lat="42.85855994" lon="13.56246993">
        <ele>162.00000</ele>
        <time>2024-05-13T12:20:21Z</time>
      </trkpt>
      <trkpt lat="42.85850998" lon="13.56242995">
        <ele>162.00000</ele>
        <time>2024-05-13T12:20:22Z</time>
      </trkpt>
      <trkpt lat="42.85844997" lon="13.56233993">
        <ele>161.00000</ele>
        <time>2024-05-13T12:20:23Z</time>
      </trkpt>
      <trkpt lat="42.85817999" lon="13.56213994">
        <ele>159.00000</ele>
        <time>2024-05-13T12:20:28Z</time>
      </trkpt>
      <trkpt lat="42.85799508" lon="13.56205000">
        <ele>159.00000</ele>
        <time>2024-05-13T12:20:31Z</time>
      </trkpt>
      <trkpt lat="42.85780993" lon="13.56195998">
        <ele>159.00000</ele>
        <time>2024-05-13T12:20:34Z</time>
      </trkpt>
      <trkpt lat="42.85772996" lon="13.56195998">
        <ele>158.00000</ele>
        <time>2024-05-13T12:20:36Z</time>
      </trkpt>
      <trkpt lat="42.85747013" lon="13.56183752">
        <ele>159.00000</ele>
        <time>2024-05-13T12:20:40Z</time>
      </trkpt>
      <trkpt lat="42.85721037" lon="13.56171514">
        <ele>158.00000</ele>
        <time>2024-05-13T12:20:45Z</time>
      </trkpt>
      <trkpt lat="42.85695053" lon="13.56159277">
        <ele>156.00000</ele>
        <time>2024-05-13T12:20:49Z</time>
      </trkpt>
      <trkpt lat="42.85668994" lon="13.56146997">
        <ele>156.00000</ele>
        <time>2024-05-13T12:20:53Z</time>
      </trkpt>
      <trkpt lat="42.85661995" lon="13.56142999">
        <ele>155.00000</ele>
        <time>2024-05-13T12:20:55Z</time>
      </trkpt>
      <trkpt lat="42.85655993" lon="13.56140996">
        <ele>154.00000</ele>
        <time>2024-05-13T12:20:56Z</time>
      </trkpt>
      <trkpt lat="42.85627210" lon="13.56127602">
        <ele>148.00000</ele>
        <time>2024-05-13T12:21:00Z</time>
      </trkpt>
      <trkpt lat="42.85598435" lon="13.56114216">
        <ele>143.00000</ele>
        <time>2024-05-13T12:21:05Z</time>
      </trkpt>
      <trkpt lat="42.85569660" lon="13.56100830">
        <ele>144.00000</ele>
        <time>2024-05-13T12:21:10Z</time>
      </trkpt>
      <trkpt lat="42.85540885" lon="13.56087435">
        <ele>149.00000</ele>
        <time>2024-05-13T12:21:15Z</time>
      </trkpt>
      <trkpt lat="42.85511992" lon="13.56073999">
        <ele>155.00000</ele>
        <time>2024-05-13T12:21:20Z</time>
      </trkpt>
      <trkpt lat="42.85488515" lon="13.56064000">
        <ele>157.00000</ele>
        <time>2024-05-13T12:21:24Z</time>
      </trkpt>
      <trkpt lat="42.85464995" lon="13.56053992">
        <ele>159.00000</ele>
        <time>2024-05-13T12:21:28Z</time>
      </trkpt>
      <trkpt lat="42.85454995" lon="13.56047999">
        <ele>159.00000</ele>
        <time>2024-05-13T12:21:30Z</time>
      </trkpt>
      <trkpt lat="42.85445993" lon="13.56039994">
        <ele>159.00000</ele>
        <time>2024-05-13T12:21:31Z</time>
      </trkpt>
      <trkpt lat="42.85426991" lon="13.56022492">
        <ele>161.00000</ele>
        <time>2024-05-13T12:21:35Z</time>
      </trkpt>
      <trkpt lat="42.85407998" lon="13.56004999">
        <ele>165.00000</ele>
        <time>2024-05-13T12:21:39Z</time>
      </trkpt>
      <trkpt lat="42.85388971" lon="13.55972964">
        <ele>167.00000</ele>
        <time>2024-05-13T12:21:43Z</time>
      </trkpt>
      <trkpt lat="42.85369995" lon="13.55940995">
        <ele>166.00000</ele>
        <time>2024-05-13T12:21:48Z</time>
      </trkpt>
      <trkpt lat="42.85361998" lon="13.55914995">
        <ele>167.00000</ele>
        <time>2024-05-13T12:21:52Z</time>
      </trkpt>
      <trkpt lat="42.85356986" lon="13.55888432">
        <ele>167.00000</ele>
        <time>2024-05-13T12:21:55Z</time>
      </trkpt>
      <trkpt lat="42.85351999" lon="13.55861996">
        <ele>166.00000</ele>
        <time>2024-05-13T12:21:58Z</time>
      </trkpt>
      <trkpt lat="42.85349995" lon="13.55833992">
        <ele>168.00000</ele>
        <time>2024-05-13T12:22:01Z</time>
      </trkpt>
      <trkpt lat="42.85348998" lon="13.55825996">
        <ele>168.00000</ele>
        <time>2024-05-13T12:22:02Z</time>
      </trkpt>
      <trkpt lat="42.85343994" lon="13.55785997">
        <ele>170.00000</ele>
        <time>2024-05-13T12:22:07Z</time>
      </trkpt>
      <trkpt lat="42.85340993" lon="13.55752998">
        <ele>172.00000</ele>
        <time>2024-05-13T12:22:11Z</time>
      </trkpt>
      <trkpt lat="42.85336995" lon="13.55736996">
        <ele>175.00000</ele>
        <time>2024-05-13T12:22:13Z</time>
      </trkpt>
      <trkpt lat="42.85330994" lon="13.55712999">
        <ele>178.00000</ele>
        <time>2024-05-13T12:22:16Z</time>
      </trkpt>
      <trkpt lat="42.85326995" lon="13.55702999">
        <ele>178.00000</ele>
        <time>2024-05-13T12:22:17Z</time>
      </trkpt>
      <trkpt lat="42.85312972" lon="13.55672447">
        <ele>176.00000</ele>
        <time>2024-05-13T12:22:21Z</time>
      </trkpt>
      <trkpt lat="42.85298991" lon="13.55641996">
        <ele>175.00000</ele>
        <time>2024-05-13T12:22:26Z</time>
      </trkpt>
      <trkpt lat="42.85282965" lon="13.55606272">
        <ele>175.00000</ele>
        <time>2024-05-13T12:22:31Z</time>
      </trkpt>
      <trkpt lat="42.85266947" lon="13.55570557">
        <ele>175.00000</ele>
        <time>2024-05-13T12:22:36Z</time>
      </trkpt>
      <trkpt lat="42.85250997" lon="13.55534993">
        <ele>174.00000</ele>
        <time>2024-05-13T12:22:40Z</time>
      </trkpt>
      <trkpt lat="42.85237309" lon="13.55507290">
        <ele>176.00000</ele>
        <time>2024-05-13T12:22:44Z</time>
      </trkpt>
      <trkpt lat="42.85223621" lon="13.55479588">
        <ele>179.00000</ele>
        <time>2024-05-13T12:22:48Z</time>
      </trkpt>
      <trkpt lat="42.85209992" lon="13.55451995">
        <ele>180.00000</ele>
        <time>2024-05-13T12:22:52Z</time>
      </trkpt>
      <trkpt lat="42.85198476" lon="13.55425450">
        <ele>179.00000</ele>
        <time>2024-05-13T12:22:56Z</time>
      </trkpt>
      <trkpt lat="42.85186992" lon="13.55398996">
        <ele>179.00000</ele>
        <time>2024-05-13T12:22:59Z</time>
      </trkpt>
      <trkpt lat="42.85182994" lon="13.55386993">
        <ele>180.00000</ele>
        <time>2024-05-13T12:23:01Z</time>
      </trkpt>
      <trkpt lat="42.85178996" lon="13.55367992">
        <ele>181.00000</ele>
        <time>2024-05-13T12:23:03Z</time>
      </trkpt>
      <trkpt lat="42.85176993" lon="13.55342997">
        <ele>182.00000</ele>
        <time>2024-05-13T12:23:06Z</time>
      </trkpt>
      <trkpt lat="42.85176993" lon="13.55315999">
        <ele>180.00000</ele>
        <time>2024-05-13T12:23:09Z</time>
      </trkpt>
      <trkpt lat="42.85176993" lon="13.55286997">
        <ele>176.00000</ele>
        <time>2024-05-13T12:23:13Z</time>
      </trkpt>
      <trkpt lat="42.85174998" lon="13.55268993">
        <ele>175.00000</ele>
        <time>2024-05-13T12:23:15Z</time>
      </trkpt>
      <trkpt lat="42.85170991" lon="13.55255993">
        <ele>174.00000</ele>
        <time>2024-05-13T12:23:17Z</time>
      </trkpt>
      <trkpt lat="42.85165996" lon="13.55246999">
        <ele>174.00000</ele>
        <time>2024-05-13T12:23:18Z</time>
      </trkpt>
      <trkpt lat="42.85155996" lon="13.55231995">
        <ele>177.00000</ele>
        <time>2024-05-13T12:23:20Z</time>
      </trkpt>
      <trkpt lat="42.85146994" lon="13.55222993">
        <ele>178.00000</ele>
        <time>2024-05-13T12:23:22Z</time>
      </trkpt>
      <trkpt lat="42.85137992" lon="13.55210999">
        <ele>178.00000</ele>
        <time>2024-05-13T12:23:24Z</time>
      </trkpt>
      <trkpt lat="42.85134991" lon="13.55206992">
        <ele>179.00000</ele>
        <time>2024-05-13T12:23:25Z</time>
      </trkpt>
      <trkpt lat="42.85132996" lon="13.55201996">
        <ele>179.00000</ele>
        <time>2024-05-13T12:23:26Z</time>
      </trkpt>
      <trkpt lat="42.85128998" lon="13.55190999">
        <ele>178.00000</ele>
        <time>2024-05-13T12:23:27Z</time>
      </trkpt>
      <trkpt lat="42.85119996" lon="13.55157991">
        <ele>176.00000</ele>
        <time>2024-05-13T12:23:31Z</time>
      </trkpt>
      <trkpt lat="42.85115998" lon="13.55141999">
        <ele>175.00000</ele>
        <time>2024-05-13T12:23:33Z</time>
      </trkpt>
      <trkpt lat="42.85107976" lon="13.55105923">
        <ele>174.00000</ele>
        <time>2024-05-13T12:23:38Z</time>
      </trkpt>
      <trkpt lat="42.85099997" lon="13.55069998">
        <ele>175.00000</ele>
        <time>2024-05-13T12:23:42Z</time>
      </trkpt>
      <trkpt lat="42.85094984" lon="13.55046445">
        <ele>177.00000</ele>
        <time>2024-05-13T12:23:45Z</time>
      </trkpt>
      <trkpt lat="42.85089997" lon="13.55022992">
        <ele>178.00000</ele>
        <time>2024-05-13T12:23:48Z</time>
      </trkpt>
      <trkpt lat="42.85082981" lon="13.54987914">
        <ele>176.00000</ele>
        <time>2024-05-13T12:23:52Z</time>
      </trkpt>
      <trkpt lat="42.85075999" lon="13.54952995">
        <ele>173.00000</ele>
        <time>2024-05-13T12:23:56Z</time>
      </trkpt>
      <trkpt lat="42.85072999" lon="13.54941998">
        <ele>172.00000</ele>
        <time>2024-05-13T12:23:58Z</time>
      </trkpt>
      <trkpt lat="42.85066997" lon="13.54928998">
        <ele>172.00000</ele>
        <time>2024-05-13T12:23:59Z</time>
      </trkpt>
      <trkpt lat="42.85055992" lon="13.54912997">
        <ele>173.00000</ele>
        <time>2024-05-13T12:24:02Z</time>
      </trkpt>
      <trkpt lat="42.85041994" lon="13.54897993">
        <ele>172.00000</ele>
        <time>2024-05-13T12:24:05Z</time>
      </trkpt>
      <trkpt lat="42.85025993" lon="13.54881992">
        <ele>171.00000</ele>
        <time>2024-05-13T12:24:08Z</time>
      </trkpt>
      <trkpt lat="42.85002993" lon="13.54860995">
        <ele>172.00000</ele>
        <time>2024-05-13T12:24:13Z</time>
      </trkpt>
      <trkpt lat="42.84994997" lon="13.54848993">
        <ele>172.00000</ele>
        <time>2024-05-13T12:24:14Z</time>
      </trkpt>
      <trkpt lat="42.84990998" lon="13.54839999">
        <ele>172.00000</ele>
        <time>2024-05-13T12:24:16Z</time>
      </trkpt>
      <trkpt lat="42.84986992" lon="13.54832991">
        <ele>173.00000</ele>
        <time>2024-05-13T12:24:17Z</time>
      </trkpt>
      <trkpt lat="42.84984997" lon="13.54824995">
        <ele>173.00000</ele>
        <time>2024-05-13T12:24:18Z</time>
      </trkpt>
      <trkpt lat="42.84983991" lon="13.54814996">
        <ele>172.00000</ele>
        <time>2024-05-13T12:24:19Z</time>
      </trkpt>
      <trkpt lat="42.84981485" lon="13.54784418">
        <ele>170.00000</ele>
        <time>2024-05-13T12:24:22Z</time>
      </trkpt>
      <trkpt lat="42.84978996" lon="13.54753992">
        <ele>169.00000</ele>
        <time>2024-05-13T12:24:26Z</time>
      </trkpt>
      <trkpt lat="42.84975316" lon="13.54713566">
        <ele>166.00000</ele>
        <time>2024-05-13T12:24:31Z</time>
      </trkpt>
      <trkpt lat="42.84971645" lon="13.54673140">
        <ele>167.00000</ele>
        <time>2024-05-13T12:24:36Z</time>
      </trkpt>
      <trkpt lat="42.84967998" lon="13.54632999">
        <ele>169.00000</ele>
        <time>2024-05-13T12:24:40Z</time>
      </trkpt>
      <trkpt lat="42.84965995" lon="13.54620996">
        <ele>170.00000</ele>
        <time>2024-05-13T12:24:42Z</time>
      </trkpt>
      <trkpt lat="42.84963992" lon="13.54599991">
        <ele>170.00000</ele>
        <time>2024-05-13T12:24:44Z</time>
      </trkpt>
      <trkpt lat="42.84959994" lon="13.54573999">
        <ele>170.00000</ele>
        <time>2024-05-13T12:24:48Z</time>
      </trkpt>
      <trkpt lat="42.84953992" lon="13.54551997">
        <ele>169.00000</ele>
        <time>2024-05-13T12:24:50Z</time>
      </trkpt>
      <trkpt lat="42.84945996" lon="13.54523993">
        <ele>169.00000</ele>
        <time>2024-05-13T12:24:54Z</time>
      </trkpt>
      <trkpt lat="42.84935477" lon="13.54492435">
        <ele>169.00000</ele>
        <time>2024-05-13T12:24:58Z</time>
      </trkpt>
      <trkpt lat="42.84924999" lon="13.54460994">
        <ele>168.00000</ele>
        <time>2024-05-13T12:25:02Z</time>
      </trkpt>
      <trkpt lat="42.84916995" lon="13.54427995">
        <ele>167.00000</ele>
        <time>2024-05-13T12:25:06Z</time>
      </trkpt>
      <trkpt lat="42.84915997" lon="13.54408993">
        <ele>167.00000</ele>
        <time>2024-05-13T12:25:08Z</time>
      </trkpt>
      <trkpt lat="42.84913994" lon="13.54403997">
        <ele>167.00000</ele>
        <time>2024-05-13T12:25:09Z</time>
      </trkpt>
      <trkpt lat="42.84906475" lon="13.54375432">
        <ele>169.00000</ele>
        <time>2024-05-13T12:25:13Z</time>
      </trkpt>
      <trkpt lat="42.84898999" lon="13.54346992">
        <ele>172.00000</ele>
        <time>2024-05-13T12:25:16Z</time>
      </trkpt>
      <trkpt lat="42.84895998" lon="13.54336992">
        <ele>174.00000</ele>
        <time>2024-05-13T12:25:17Z</time>
      </trkpt>
      <trkpt lat="42.84891991" lon="13.54307999">
        <ele>176.00000</ele>
        <time>2024-05-13T12:25:21Z</time>
      </trkpt>
      <trkpt lat="42.84889996" lon="13.54288998">
        <ele>177.00000</ele>
        <time>2024-05-13T12:25:23Z</time>
      </trkpt>
      <trkpt lat="42.84891991" lon="13.54271999">
        <ele>178.00000</ele>
        <time>2024-05-13T12:25:25Z</time>
      </trkpt>
      <trkpt lat="42.84893995" lon="13.54257993">
        <ele>179.00000</ele>
        <time>2024-05-13T12:25:27Z</time>
      </trkpt>
      <trkpt lat="42.84896995" lon="13.54235999">
        <ele>180.00000</ele>
        <time>2024-05-13T12:25:29Z</time>
      </trkpt>
      <trkpt lat="42.84900994" lon="13.54219998">
        <ele>181.00000</ele>
        <time>2024-05-13T12:25:31Z</time>
      </trkpt>
      <trkpt lat="42.84906995" lon="13.54200996">
        <ele>182.00000</ele>
        <time>2024-05-13T12:25:34Z</time>
      </trkpt>
      <trkpt lat="42.84910993" lon="13.54185992">
        <ele>182.00000</ele>
        <time>2024-05-13T12:25:36Z</time>
      </trkpt>
      <trkpt lat="42.84915997" lon="13.54172992">
        <ele>181.00000</ele>
        <time>2024-05-13T12:25:37Z</time>
      </trkpt>
      <trkpt lat="42.84923004" lon="13.54150948">
        <ele>182.00000</ele>
        <time>2024-05-13T12:25:40Z</time>
      </trkpt>
      <trkpt lat="42.84929995" lon="13.54128995">
        <ele>181.00000</ele>
        <time>2024-05-13T12:25:43Z</time>
      </trkpt>
      <trkpt lat="42.84933993" lon="13.54113992">
        <ele>181.00000</ele>
        <time>2024-05-13T12:25:45Z</time>
      </trkpt>
      <trkpt lat="42.84935996" lon="13.54097999">
        <ele>182.00000</ele>
        <time>2024-05-13T12:25:47Z</time>
      </trkpt>
      <trkpt lat="42.84937991" lon="13.54085996">
        <ele>183.00000</ele>
        <time>2024-05-13T12:25:48Z</time>
      </trkpt>
      <trkpt lat="42.84939995" lon="13.54080992">
        <ele>183.00000</ele>
        <time>2024-05-13T12:25:49Z</time>
      </trkpt>
      <trkpt lat="42.84940992" lon="13.54071998">
        <ele>183.00000</ele>
        <time>2024-05-13T12:25:50Z</time>
      </trkpt>
      <trkpt lat="42.84940992" lon="13.54038999">
        <ele>184.00000</ele>
        <time>2024-05-13T12:25:54Z</time>
      </trkpt>
      <trkpt lat="42.84939995" lon="13.54009998">
        <ele>184.00000</ele>
        <time>2024-05-13T12:25:57Z</time>
      </trkpt>
      <trkpt lat="42.84938989" lon="13.53984433">
        <ele>185.00000</ele>
        <time>2024-05-13T12:26:00Z</time>
      </trkpt>
      <trkpt lat="42.84937991" lon="13.53958994">
        <ele>186.00000</ele>
        <time>2024-05-13T12:26:03Z</time>
      </trkpt>
      <trkpt lat="42.84937991" lon="13.53948994">
        <ele>186.00000</ele>
        <time>2024-05-13T12:26:05Z</time>
      </trkpt>
      <trkpt lat="42.84938494" lon="13.53927436">
        <ele>184.00000</ele>
        <time>2024-05-13T12:26:07Z</time>
      </trkpt>
      <trkpt lat="42.84938997" lon="13.53905995">
        <ele>183.00000</ele>
        <time>2024-05-13T12:26:10Z</time>
      </trkpt>
      <trkpt lat="42.84943004" lon="13.53865393">
        <ele>182.00000</ele>
        <time>2024-05-13T12:26:14Z</time>
      </trkpt>
      <trkpt lat="42.84946993" lon="13.53824992">
        <ele>183.00000</ele>
        <time>2024-05-13T12:26:19Z</time>
      </trkpt>
      <trkpt lat="42.84945996" lon="13.53813995">
        <ele>184.00000</ele>
        <time>2024-05-13T12:26:21Z</time>
      </trkpt>
      <trkpt lat="42.84949994" lon="13.53788992">
        <ele>187.00000</ele>
        <time>2024-05-13T12:26:24Z</time>
      </trkpt>
      <trkpt lat="42.84954998" lon="13.53761432">
        <ele>187.00000</ele>
        <time>2024-05-13T12:26:27Z</time>
      </trkpt>
      <trkpt lat="42.84959994" lon="13.53733998">
        <ele>187.00000</ele>
        <time>2024-05-13T12:26:30Z</time>
      </trkpt>
      <trkpt lat="42.84966004" lon="13.53696414">
        <ele>185.00000</ele>
        <time>2024-05-13T12:26:35Z</time>
      </trkpt>
      <trkpt lat="42.84971997" lon="13.53658997">
        <ele>185.00000</ele>
        <time>2024-05-13T12:26:39Z</time>
      </trkpt>
      <trkpt lat="42.84975333" lon="13.53627917">
        <ele>188.00000</ele>
        <time>2024-05-13T12:26:43Z</time>
      </trkpt>
      <trkpt lat="42.84978677" lon="13.53596845">
        <ele>190.00000</ele>
        <time>2024-05-13T12:26:47Z</time>
      </trkpt>
      <trkpt lat="42.84981996" lon="13.53565991">
        <ele>189.00000</ele>
        <time>2024-05-13T12:26:50Z</time>
      </trkpt>
      <trkpt lat="42.84984000" lon="13.53532573">
        <ele>186.00000</ele>
        <time>2024-05-13T12:26:54Z</time>
      </trkpt>
      <trkpt lat="42.84986003" lon="13.53499162">
        <ele>183.00000</ele>
        <time>2024-05-13T12:26:58Z</time>
      </trkpt>
      <trkpt lat="42.84987998" lon="13.53465995">
        <ele>183.00000</ele>
        <time>2024-05-13T12:27:02Z</time>
      </trkpt>
      <trkpt lat="42.84988660" lon="13.53436583">
        <ele>183.00000</ele>
        <time>2024-05-13T12:27:06Z</time>
      </trkpt>
      <trkpt lat="42.84989330" lon="13.53407179">
        <ele>184.00000</ele>
        <time>2024-05-13T12:27:09Z</time>
      </trkpt>
      <trkpt lat="42.84989993" lon="13.53377994">
        <ele>187.00000</ele>
        <time>2024-05-13T12:27:12Z</time>
      </trkpt>
      <trkpt lat="42.84990998" lon="13.53336998">
        <ele>191.00000</ele>
        <time>2024-05-13T12:27:17Z</time>
      </trkpt>
      <trkpt lat="42.84990487" lon="13.53303411">
        <ele>196.00000</ele>
        <time>2024-05-13T12:27:21Z</time>
      </trkpt>
      <trkpt lat="42.84989993" lon="13.53269993">
        <ele>197.00000</ele>
        <time>2024-05-13T12:27:25Z</time>
      </trkpt>
      <trkpt lat="42.84987998" lon="13.53242995">
        <ele>196.00000</ele>
        <time>2024-05-13T12:27:28Z</time>
      </trkpt>
      <trkpt lat="42.84983991" lon="13.53218997">
        <ele>195.00000</ele>
        <time>2024-05-13T12:27:31Z</time>
      </trkpt>
      <trkpt lat="42.84978996" lon="13.53190993">
        <ele>195.00000</ele>
        <time>2024-05-13T12:27:35Z</time>
      </trkpt>
      <trkpt lat="42.84973992" lon="13.53169997">
        <ele>198.00000</ele>
        <time>2024-05-13T12:27:37Z</time>
      </trkpt>
      <trkpt lat="42.84967998" lon="13.53141993">
        <ele>198.00000</ele>
        <time>2024-05-13T12:27:41Z</time>
      </trkpt>
      <trkpt lat="42.84958996" lon="13.53115992">
        <ele>199.00000</ele>
        <time>2024-05-13T12:27:44Z</time>
      </trkpt>
      <trkpt lat="42.84948997" lon="13.53086999">
        <ele>196.00000</ele>
        <time>2024-05-13T12:27:48Z</time>
      </trkpt>
      <trkpt lat="42.84941998" lon="13.53070998">
        <ele>193.00000</ele>
        <time>2024-05-13T12:27:50Z</time>
      </trkpt>
      <trkpt lat="42.84935996" lon="13.53058995">
        <ele>192.00000</ele>
        <time>2024-05-13T12:27:52Z</time>
      </trkpt>
      <trkpt lat="42.84926994" lon="13.53048996">
        <ele>192.00000</ele>
        <time>2024-05-13T12:27:54Z</time>
      </trkpt>
      <trkpt lat="42.84918998" lon="13.53039993">
        <ele>193.00000</ele>
        <time>2024-05-13T12:27:55Z</time>
      </trkpt>
      <trkpt lat="42.84907992" lon="13.53030991">
        <ele>194.00000</ele>
        <time>2024-05-13T12:27:57Z</time>
      </trkpt>
      <trkpt lat="42.84894992" lon="13.53023992">
        <ele>195.00000</ele>
        <time>2024-05-13T12:28:00Z</time>
      </trkpt>
      <trkpt lat="42.84869997" lon="13.53012995">
        <ele>194.00000</ele>
        <time>2024-05-13T12:28:04Z</time>
      </trkpt>
      <trkpt lat="42.84846997" lon="13.53002996">
        <ele>192.00000</ele>
        <time>2024-05-13T12:28:08Z</time>
      </trkpt>
      <trkpt lat="42.84827509" lon="13.52995494">
        <ele>191.00000</ele>
        <time>2024-05-13T12:28:11Z</time>
      </trkpt>
      <trkpt lat="42.84807996" lon="13.52987992">
        <ele>190.00000</ele>
        <time>2024-05-13T12:28:14Z</time>
      </trkpt>
      <trkpt lat="42.84789003" lon="13.52974992">
        <ele>191.00000</ele>
        <time>2024-05-13T12:28:17Z</time>
      </trkpt>
      <trkpt lat="42.84769993" lon="13.52961991">
        <ele>190.00000</ele>
        <time>2024-05-13T12:28:21Z</time>
      </trkpt>
      <trkpt lat="42.84744998" lon="13.52941992">
        <ele>187.00000</ele>
        <time>2024-05-13T12:28:26Z</time>
      </trkpt>
      <trkpt lat="42.84722995" lon="13.52923493">
        <ele>187.00000</ele>
        <time>2024-05-13T12:28:30Z</time>
      </trkpt>
      <trkpt lat="42.84700993" lon="13.52904994">
        <ele>186.00000</ele>
        <time>2024-05-13T12:28:34Z</time>
      </trkpt>
      <trkpt lat="42.84678999" lon="13.52885993">
        <ele>184.00000</ele>
        <time>2024-05-13T12:28:38Z</time>
      </trkpt>
      <trkpt lat="42.84673995" lon="13.52881995">
        <ele>184.00000</ele>
        <time>2024-05-13T12:28:39Z</time>
      </trkpt>
      <trkpt lat="42.84655999" lon="13.52867997">
        <ele>184.00000</ele>
        <time>2024-05-13T12:28:42Z</time>
      </trkpt>
      <trkpt lat="42.84642999" lon="13.52856991">
        <ele>184.00000</ele>
        <time>2024-05-13T12:28:45Z</time>
      </trkpt>
      <trkpt lat="42.84622496" lon="13.52838995">
        <ele>185.00000</ele>
        <time>2024-05-13T12:28:49Z</time>
      </trkpt>
      <trkpt lat="42.84601994" lon="13.52820999">
        <ele>186.00000</ele>
        <time>2024-05-13T12:28:52Z</time>
      </trkpt>
      <trkpt lat="42.84583998" lon="13.52803993">
        <ele>184.00000</ele>
        <time>2024-05-13T12:28:56Z</time>
      </trkpt>
      <trkpt lat="42.84576999" lon="13.52793993">
        <ele>186.00000</ele>
        <time>2024-05-13T12:28:58Z</time>
      </trkpt>
      <trkpt lat="42.84566991" lon="13.52779995">
        <ele>188.00000</ele>
        <time>2024-05-13T12:29:00Z</time>
      </trkpt>
      <trkpt lat="42.84554997" lon="13.52755998">
        <ele>189.00000</ele>
        <time>2024-05-13T12:29:03Z</time>
      </trkpt>
      <trkpt lat="42.84543992" lon="13.52735999">
        <ele>189.00000</ele>
        <time>2024-05-13T12:29:06Z</time>
      </trkpt>
      <trkpt lat="42.84531997" lon="13.52717994">
        <ele>189.00000</ele>
        <time>2024-05-13T12:29:09Z</time>
      </trkpt>
      <trkpt lat="42.84509995" lon="13.52697995">
        <ele>189.00000</ele>
        <time>2024-05-13T12:29:13Z</time>
      </trkpt>
      <trkpt lat="42.84488000" lon="13.52681499">
        <ele>190.00000</ele>
        <time>2024-05-13T12:29:17Z</time>
      </trkpt>
      <trkpt lat="42.84465998" lon="13.52664995">
        <ele>191.00000</ele>
        <time>2024-05-13T12:29:21Z</time>
      </trkpt>
      <trkpt lat="42.84441992" lon="13.52647997">
        <ele>191.00000</ele>
        <time>2024-05-13T12:29:26Z</time>
      </trkpt>
      <trkpt lat="42.84419998" lon="13.52630998">
        <ele>194.00000</ele>
        <time>2024-05-13T12:29:30Z</time>
      </trkpt>
      <trkpt lat="42.84397996" lon="13.52613992">
        <ele>193.00000</ele>
        <time>2024-05-13T12:29:34Z</time>
      </trkpt>
      <trkpt lat="42.84383000" lon="13.52601989">
        <ele>191.00000</ele>
        <time>2024-05-13T12:29:37Z</time>
      </trkpt>
      <trkpt lat="42.84367997" lon="13.52589994">
        <ele>190.00000</ele>
        <time>2024-05-13T12:29:39Z</time>
      </trkpt>
      <trkpt lat="42.84351996" lon="13.52575996">
        <ele>190.00000</ele>
        <time>2024-05-13T12:29:42Z</time>
      </trkpt>
      <trkpt lat="42.84337989" lon="13.52562996">
        <ele>192.00000</ele>
        <time>2024-05-13T12:29:45Z</time>
      </trkpt>
      <trkpt lat="42.84323992" lon="13.52549996">
        <ele>196.00000</ele>
        <time>2024-05-13T12:29:48Z</time>
      </trkpt>
      <trkpt lat="42.84310991" lon="13.52536492">
        <ele>199.00000</ele>
        <time>2024-05-13T12:29:50Z</time>
      </trkpt>
      <trkpt lat="42.84297999" lon="13.52522998">
        <ele>199.00000</ele>
        <time>2024-05-13T12:29:53Z</time>
      </trkpt>
      <trkpt lat="42.84287991" lon="13.52513995">
        <ele>198.00000</ele>
        <time>2024-05-13T12:29:55Z</time>
      </trkpt>
      <trkpt lat="42.84276994" lon="13.52501993">
        <ele>195.00000</ele>
        <time>2024-05-13T12:29:57Z</time>
      </trkpt>
      <trkpt lat="42.84266995" lon="13.52491993">
        <ele>193.00000</ele>
        <time>2024-05-13T12:29:59Z</time>
      </trkpt>
      <trkpt lat="42.84255998" lon="13.52483997">
        <ele>192.00000</ele>
        <time>2024-05-13T12:30:01Z</time>
      </trkpt>
      <trkpt lat="42.84234993" lon="13.52475992">
        <ele>195.00000</ele>
        <time>2024-05-13T12:30:05Z</time>
      </trkpt>
      <trkpt lat="42.84219997" lon="13.52468498">
        <ele>198.00000</ele>
        <time>2024-05-13T12:30:07Z</time>
      </trkpt>
      <trkpt lat="42.84204994" lon="13.52460997">
        <ele>201.00000</ele>
        <time>2024-05-13T12:30:10Z</time>
      </trkpt>
      <trkpt lat="42.84191993" lon="13.52450997">
        <ele>201.00000</ele>
        <time>2024-05-13T12:30:12Z</time>
      </trkpt>
      <trkpt lat="42.84189999" lon="13.52447996">
        <ele>201.00000</ele>
        <time>2024-05-13T12:30:13Z</time>
      </trkpt>
      <trkpt lat="42.84186998" lon="13.52443998">
        <ele>200.00000</ele>
        <time>2024-05-13T12:30:13Z</time>
      </trkpt>
      <trkpt lat="42.84178993" lon="13.52430998">
        <ele>199.00000</ele>
        <time>2024-05-13T12:30:15Z</time>
      </trkpt>
      <trkpt lat="42.84172992" lon="13.52415994">
        <ele>198.00000</ele>
        <time>2024-05-13T12:30:17Z</time>
      </trkpt>
      <trkpt lat="42.84162472" lon="13.52391452">
        <ele>197.00000</ele>
        <time>2024-05-13T12:30:21Z</time>
      </trkpt>
      <trkpt lat="42.84151995" lon="13.52366994">
        <ele>197.00000</ele>
        <time>2024-05-13T12:30:24Z</time>
      </trkpt>
      <trkpt lat="42.84144996" lon="13.52350993">
        <ele>198.00000</ele>
        <time>2024-05-13T12:30:26Z</time>
      </trkpt>
      <trkpt lat="42.84137997" lon="13.52338998">
        <ele>199.00000</ele>
        <time>2024-05-13T12:30:28Z</time>
      </trkpt>
      <trkpt lat="42.84125994" lon="13.52324992">
        <ele>200.00000</ele>
        <time>2024-05-13T12:30:31Z</time>
      </trkpt>
      <trkpt lat="42.84119993" lon="13.52320994">
        <ele>200.00000</ele>
        <time>2024-05-13T12:30:32Z</time>
      </trkpt>
      <trkpt lat="42.84111997" lon="13.52314992">
        <ele>199.00000</ele>
        <time>2024-05-13T12:30:33Z</time>
      </trkpt>
      <trkpt lat="42.84103992" lon="13.52309997">
        <ele>199.00000</ele>
        <time>2024-05-13T12:30:35Z</time>
      </trkpt>
      <trkpt lat="42.84093992" lon="13.52306996">
        <ele>200.00000</ele>
        <time>2024-05-13T12:30:36Z</time>
      </trkpt>
      <trkpt lat="42.84066525" lon="13.52304490">
        <ele>200.00000</ele>
        <time>2024-05-13T12:30:41Z</time>
      </trkpt>
      <trkpt lat="42.84038999" lon="13.52301992">
        <ele>199.00000</ele>
        <time>2024-05-13T12:30:45Z</time>
      </trkpt>
      <trkpt lat="42.84010525" lon="13.52301992">
        <ele>197.00000</ele>
        <time>2024-05-13T12:30:50Z</time>
      </trkpt>
      <trkpt lat="42.83981993" lon="13.52301992">
        <ele>199.00000</ele>
        <time>2024-05-13T12:30:54Z</time>
      </trkpt>
      <trkpt lat="42.83977995" lon="13.52301992">
        <ele>199.00000</ele>
        <time>2024-05-13T12:30:55Z</time>
      </trkpt>
      <trkpt lat="42.83956018" lon="13.52300492">
        <ele>202.00000</ele>
        <time>2024-05-13T12:30:58Z</time>
      </trkpt>
      <trkpt lat="42.83933999" lon="13.52298991">
        <ele>204.00000</ele>
        <time>2024-05-13T12:31:02Z</time>
      </trkpt>
      <trkpt lat="42.83919992" lon="13.52293996">
        <ele>205.00000</ele>
        <time>2024-05-13T12:31:04Z</time>
      </trkpt>
      <trkpt lat="42.83907998" lon="13.52284993">
        <ele>206.00000</ele>
        <time>2024-05-13T12:31:06Z</time>
      </trkpt>
      <trkpt lat="42.83887479" lon="13.52259479">
        <ele>206.00000</ele>
        <time>2024-05-13T12:31:11Z</time>
      </trkpt>
      <trkpt lat="42.83866994" lon="13.52233998">
        <ele>206.00000</ele>
        <time>2024-05-13T12:31:15Z</time>
      </trkpt>
      <trkpt lat="42.83854982" lon="13.52216480">
        <ele>206.00000</ele>
        <time>2024-05-13T12:31:18Z</time>
      </trkpt>
      <trkpt lat="42.83842996" lon="13.52198995">
        <ele>206.00000</ele>
        <time>2024-05-13T12:31:21Z</time>
      </trkpt>
      <trkpt lat="42.83833994" lon="13.52185995">
        <ele>205.00000</ele>
        <time>2024-05-13T12:31:23Z</time>
      </trkpt>
      <trkpt lat="42.83824992" lon="13.52168996">
        <ele>206.00000</ele>
        <time>2024-05-13T12:31:25Z</time>
      </trkpt>
      <trkpt lat="42.83819996" lon="13.52158997">
        <ele>207.00000</ele>
        <time>2024-05-13T12:31:27Z</time>
      </trkpt>
      <trkpt lat="42.83812997" lon="13.52138997">
        <ele>209.00000</ele>
        <time>2024-05-13T12:31:29Z</time>
      </trkpt>
      <trkpt lat="42.83807993" lon="13.52116995">
        <ele>210.00000</ele>
        <time>2024-05-13T12:31:32Z</time>
      </trkpt>
      <trkpt lat="42.83802998" lon="13.52095998">
        <ele>211.00000</ele>
        <time>2024-05-13T12:31:35Z</time>
      </trkpt>
      <trkpt lat="42.83799997" lon="13.52081992">
        <ele>212.00000</ele>
        <time>2024-05-13T12:31:36Z</time>
      </trkpt>
      <trkpt lat="42.83796996" lon="13.52075999">
        <ele>213.00000</ele>
        <time>2024-05-13T12:31:37Z</time>
      </trkpt>
      <trkpt lat="42.83789997" lon="13.52068992">
        <ele>214.00000</ele>
        <time>2024-05-13T12:31:39Z</time>
      </trkpt>
      <trkpt lat="42.83782999" lon="13.52062999">
        <ele>216.00000</ele>
        <time>2024-05-13T12:31:40Z</time>
      </trkpt>
      <trkpt lat="42.83763997" lon="13.52054994">
        <ele>218.00000</ele>
        <time>2024-05-13T12:31:43Z</time>
      </trkpt>
      <trkpt lat="42.83743998" lon="13.52048993">
        <ele>220.00000</ele>
        <time>2024-05-13T12:31:46Z</time>
      </trkpt>
      <trkpt lat="42.83730997" lon="13.52042991">
        <ele>221.00000</ele>
        <time>2024-05-13T12:31:49Z</time>
      </trkpt>
      <trkpt lat="42.83717997" lon="13.52030997">
        <ele>221.00000</ele>
        <time>2024-05-13T12:31:51Z</time>
      </trkpt>
      <trkpt lat="42.83704997" lon="13.52013998">
        <ele>220.00000</ele>
        <time>2024-05-13T12:31:54Z</time>
      </trkpt>
      <trkpt lat="42.83689993" lon="13.51993999">
        <ele>219.00000</ele>
        <time>2024-05-13T12:31:57Z</time>
      </trkpt>
      <trkpt lat="42.83674998" lon="13.51978995">
        <ele>217.00000</ele>
        <time>2024-05-13T12:32:00Z</time>
      </trkpt>
      <trkpt lat="42.83663992" lon="13.51970999">
        <ele>217.00000</ele>
        <time>2024-05-13T12:32:02Z</time>
      </trkpt>
      <trkpt lat="42.83645996" lon="13.51965995">
        <ele>218.00000</ele>
        <time>2024-05-13T12:32:05Z</time>
      </trkpt>
      <trkpt lat="42.83630993" lon="13.51963992">
        <ele>219.00000</ele>
        <time>2024-05-13T12:32:08Z</time>
      </trkpt>
      <trkpt lat="42.83615997" lon="13.51963992">
        <ele>220.00000</ele>
        <time>2024-05-13T12:32:10Z</time>
      </trkpt>
      <trkpt lat="42.83600994" lon="13.51964998">
        <ele>222.00000</ele>
        <time>2024-05-13T12:32:13Z</time>
      </trkpt>
      <trkpt lat="42.83584993" lon="13.51963992">
        <ele>224.00000</ele>
        <time>2024-05-13T12:32:15Z</time>
      </trkpt>
      <trkpt lat="42.83571993" lon="13.51960999">
        <ele>226.00000</ele>
        <time>2024-05-13T12:32:17Z</time>
      </trkpt>
      <trkpt lat="42.83557995" lon="13.51953992">
        <ele>226.00000</ele>
        <time>2024-05-13T12:32:20Z</time>
      </trkpt>
      <trkpt lat="42.83536998" lon="13.51939994">
        <ele>226.00000</ele>
        <time>2024-05-13T12:32:23Z</time>
      </trkpt>
      <trkpt lat="42.83525993" lon="13.51929995">
        <ele>225.00000</ele>
        <time>2024-05-13T12:32:25Z</time>
      </trkpt>
      <trkpt lat="42.83516999" lon="13.51919995">
        <ele>224.00000</ele>
        <time>2024-05-13T12:32:27Z</time>
      </trkpt>
      <trkpt lat="42.83498995" lon="13.51894992">
        <ele>222.00000</ele>
        <time>2024-05-13T12:32:31Z</time>
      </trkpt>
      <trkpt lat="42.83484485" lon="13.51876476">
        <ele>221.00000</ele>
        <time>2024-05-13T12:32:35Z</time>
      </trkpt>
      <trkpt lat="42.83469993" lon="13.51857994">
        <ele>221.00000</ele>
        <time>2024-05-13T12:32:38Z</time>
      </trkpt>
      <trkpt lat="42.83468996" lon="13.51854993">
        <ele>220.00000</ele>
        <time>2024-05-13T12:32:38Z</time>
      </trkpt>
      <trkpt lat="42.83459994" lon="13.51840996">
        <ele>220.00000</ele>
        <time>2024-05-13T12:32:40Z</time>
      </trkpt>
      <trkpt lat="42.83450991" lon="13.51829999">
        <ele>220.00000</ele>
        <time>2024-05-13T12:32:42Z</time>
      </trkpt>
      <trkpt lat="42.83441998" lon="13.51819999">
        <ele>220.00000</ele>
        <time>2024-05-13T12:32:44Z</time>
      </trkpt>
      <trkpt lat="42.83429995" lon="13.51810997">
        <ele>220.00000</ele>
        <time>2024-05-13T12:32:46Z</time>
      </trkpt>
      <trkpt lat="42.83421998" lon="13.51804995">
        <ele>219.00000</ele>
        <time>2024-05-13T12:32:48Z</time>
      </trkpt>
      <trkpt lat="42.83401999" lon="13.51794996">
        <ele>219.00000</ele>
        <time>2024-05-13T12:32:51Z</time>
      </trkpt>
      <trkpt lat="42.83383995" lon="13.51784996">
        <ele>217.00000</ele>
        <time>2024-05-13T12:32:54Z</time>
      </trkpt>
      <trkpt lat="42.83365001" lon="13.51774494">
        <ele>216.00000</ele>
        <time>2024-05-13T12:32:58Z</time>
      </trkpt>
      <trkpt lat="42.83345991" lon="13.51763991">
        <ele>216.00000</ele>
        <time>2024-05-13T12:33:01Z</time>
      </trkpt>
      <trkpt lat="42.83317510" lon="13.51748996">
        <ele>218.00000</ele>
        <time>2024-05-13T12:33:06Z</time>
      </trkpt>
      <trkpt lat="42.83288994" lon="13.51733992">
        <ele>219.00000</ele>
        <time>2024-05-13T12:33:11Z</time>
      </trkpt>
      <trkpt lat="42.83264997" lon="13.51714999">
        <ele>216.00000</ele>
        <time>2024-05-13T12:33:15Z</time>
      </trkpt>
      <trkpt lat="42.83242492" lon="13.51693332">
        <ele>215.00000</ele>
        <time>2024-05-13T12:33:20Z</time>
      </trkpt>
      <trkpt lat="42.83219994" lon="13.51671664">
        <ele>213.00000</ele>
        <time>2024-05-13T12:33:24Z</time>
      </trkpt>
      <trkpt lat="42.83197497" lon="13.51649997">
        <ele>209.00000</ele>
        <time>2024-05-13T12:33:28Z</time>
      </trkpt>
      <trkpt lat="42.83174992" lon="13.51628330">
        <ele>206.00000</ele>
        <time>2024-05-13T12:33:33Z</time>
      </trkpt>
      <trkpt lat="42.83152495" lon="13.51606663">
        <ele>204.00000</ele>
        <time>2024-05-13T12:33:37Z</time>
      </trkpt>
      <trkpt lat="42.83129998" lon="13.51584996">
        <ele>206.00000</ele>
        <time>2024-05-13T12:33:42Z</time>
      </trkpt>
      <trkpt lat="42.83111994" lon="13.51558995">
        <ele>208.00000</ele>
        <time>2024-05-13T12:33:46Z</time>
      </trkpt>
      <trkpt lat="42.83107995" lon="13.51551996">
        <ele>208.00000</ele>
        <time>2024-05-13T12:33:47Z</time>
      </trkpt>
      <trkpt lat="42.83105992" lon="13.51548995">
        <ele>208.00000</ele>
        <time>2024-05-13T12:33:47Z</time>
      </trkpt>
      <trkpt lat="42.83091994" lon="13.51512995">
        <ele>207.00000</ele>
        <time>2024-05-13T12:33:52Z</time>
      </trkpt>
      <trkpt lat="42.83081718" lon="13.51478680">
        <ele>207.00000</ele>
        <time>2024-05-13T12:33:56Z</time>
      </trkpt>
      <trkpt lat="42.83071450" lon="13.51444364">
        <ele>207.00000</ele>
        <time>2024-05-13T12:34:01Z</time>
      </trkpt>
      <trkpt lat="42.83061183" lon="13.51410049">
        <ele>205.00000</ele>
        <time>2024-05-13T12:34:05Z</time>
      </trkpt>
      <trkpt lat="42.83050999" lon="13.51375993">
        <ele>204.00000</ele>
        <time>2024-05-13T12:34:10Z</time>
      </trkpt>
      <trkpt lat="42.83049993" lon="13.51373998">
        <ele>204.00000</ele>
        <time>2024-05-13T12:34:10Z</time>
      </trkpt>
      <trkpt lat="42.83043472" lon="13.51343924">
        <ele>203.00000</ele>
        <time>2024-05-13T12:34:13Z</time>
      </trkpt>
      <trkpt lat="42.83036992" lon="13.51313992">
        <ele>202.00000</ele>
        <time>2024-05-13T12:34:17Z</time>
      </trkpt>
      <trkpt lat="42.83034997" lon="13.51303992">
        <ele>202.00000</ele>
        <time>2024-05-13T12:34:18Z</time>
      </trkpt>
      <trkpt lat="42.83028996" lon="13.51277992">
        <ele>201.00000</ele>
        <time>2024-05-13T12:34:22Z</time>
      </trkpt>
      <trkpt lat="42.83024981" lon="13.51245914">
        <ele>200.00000</ele>
        <time>2024-05-13T12:34:25Z</time>
      </trkpt>
      <trkpt lat="42.83020991" lon="13.51213996">
        <ele>198.00000</ele>
        <time>2024-05-13T12:34:29Z</time>
      </trkpt>
      <trkpt lat="42.83018996" lon="13.51190996">
        <ele>195.00000</ele>
        <time>2024-05-13T12:34:32Z</time>
      </trkpt>
      <trkpt lat="42.83016985" lon="13.51163922">
        <ele>193.00000</ele>
        <time>2024-05-13T12:34:35Z</time>
      </trkpt>
      <trkpt lat="42.83014998" lon="13.51136991">
        <ele>193.00000</ele>
        <time>2024-05-13T12:34:38Z</time>
      </trkpt>
      <trkpt lat="42.83011998" lon="13.51116992">
        <ele>197.00000</ele>
        <time>2024-05-13T12:34:41Z</time>
      </trkpt>
      <trkpt lat="42.83010992" lon="13.51108996">
        <ele>199.00000</ele>
        <time>2024-05-13T12:34:42Z</time>
      </trkpt>
      <trkpt lat="42.83008997" lon="13.51101997">
        <ele>200.00000</ele>
        <time>2024-05-13T12:34:43Z</time>
      </trkpt>
      <trkpt lat="42.83005996" lon="13.51090991">
        <ele>202.00000</ele>
        <time>2024-05-13T12:34:44Z</time>
      </trkpt>
      <trkpt lat="42.82987992" lon="13.51080992">
        <ele>201.00000</ele>
        <time>2024-05-13T12:34:47Z</time>
      </trkpt>
      <trkpt lat="42.82966006" lon="13.51071001">
        <ele>200.00000</ele>
        <time>2024-05-13T12:34:51Z</time>
      </trkpt>
      <trkpt lat="42.82943995" lon="13.51060993">
        <ele>201.00000</ele>
        <time>2024-05-13T12:34:54Z</time>
      </trkpt>
      <trkpt lat="42.82916016" lon="13.51051504">
        <ele>200.00000</ele>
        <time>2024-05-13T12:34:59Z</time>
      </trkpt>
      <trkpt lat="42.82887996" lon="13.51041999">
        <ele>200.00000</ele>
        <time>2024-05-13T12:35:04Z</time>
      </trkpt>
      <trkpt lat="42.82864015" lon="13.51034665">
        <ele>202.00000</ele>
        <time>2024-05-13T12:35:08Z</time>
      </trkpt>
      <trkpt lat="42.82840043" lon="13.51027339">
        <ele>202.00000</ele>
        <time>2024-05-13T12:35:12Z</time>
      </trkpt>
      <trkpt lat="42.82815995" lon="13.51019997">
        <ele>204.00000</ele>
        <time>2024-05-13T12:35:16Z</time>
      </trkpt>
      <trkpt lat="42.82790221" lon="13.51011003">
        <ele>204.00000</ele>
        <time>2024-05-13T12:35:20Z</time>
      </trkpt>
      <trkpt lat="42.82764446" lon="13.51002009">
        <ele>203.00000</ele>
        <time>2024-05-13T12:35:24Z</time>
      </trkpt>
      <trkpt lat="42.82738672" lon="13.50993015">
        <ele>203.00000</ele>
        <time>2024-05-13T12:35:28Z</time>
      </trkpt>
      <trkpt lat="42.82712898" lon="13.50984030">
        <ele>204.00000</ele>
        <time>2024-05-13T12:35:33Z</time>
      </trkpt>
      <trkpt lat="42.82686998" lon="13.50974994">
        <ele>207.00000</ele>
        <time>2024-05-13T12:35:37Z</time>
      </trkpt>
      <trkpt lat="42.82677995" lon="13.50971993">
        <ele>207.00000</ele>
        <time>2024-05-13T12:35:38Z</time>
      </trkpt>
      <trkpt lat="42.82647594" lon="13.50960996">
        <ele>207.00000</ele>
        <time>2024-05-13T12:35:43Z</time>
      </trkpt>
      <trkpt lat="42.82617193" lon="13.50950008">
        <ele>205.00000</ele>
        <time>2024-05-13T12:35:48Z</time>
      </trkpt>
      <trkpt lat="42.82586792" lon="13.50939019">
        <ele>209.00000</ele>
        <time>2024-05-13T12:35:53Z</time>
      </trkpt>
      <trkpt lat="42.82556399" lon="13.50928030">
        <ele>213.00000</ele>
        <time>2024-05-13T12:35:58Z</time>
      </trkpt>
      <trkpt lat="42.82525998" lon="13.50917042">
        <ele>211.00000</ele>
        <time>2024-05-13T12:36:04Z</time>
      </trkpt>
      <trkpt lat="42.82495597" lon="13.50906053">
        <ele>207.00000</ele>
        <time>2024-05-13T12:36:09Z</time>
      </trkpt>
      <trkpt lat="42.82464995" lon="13.50894997">
        <ele>207.00000</ele>
        <time>2024-05-13T12:36:14Z</time>
      </trkpt>
      <trkpt lat="42.82456998" lon="13.50889993">
        <ele>208.00000</ele>
        <time>2024-05-13T12:36:15Z</time>
      </trkpt>
      <trkpt lat="42.82446999" lon="13.50885995">
        <ele>208.00000</ele>
        <time>2024-05-13T12:36:17Z</time>
      </trkpt>
      <trkpt lat="42.82430998" lon="13.50881997">
        <ele>208.00000</ele>
        <time>2024-05-13T12:36:19Z</time>
      </trkpt>
      <trkpt lat="42.82413010" lon="13.50872500">
        <ele>208.00000</ele>
        <time>2024-05-13T12:36:22Z</time>
      </trkpt>
      <trkpt lat="42.82394997" lon="13.50862995">
        <ele>208.00000</ele>
        <time>2024-05-13T12:36:25Z</time>
      </trkpt>
      <trkpt lat="42.82370271" lon="13.50855996">
        <ele>206.00000</ele>
        <time>2024-05-13T12:36:29Z</time>
      </trkpt>
      <trkpt lat="42.82345544" lon="13.50849006">
        <ele>205.00000</ele>
        <time>2024-05-13T12:36:34Z</time>
      </trkpt>
      <trkpt lat="42.82320826" lon="13.50842007">
        <ele>206.00000</ele>
        <time>2024-05-13T12:36:38Z</time>
      </trkpt>
      <trkpt lat="42.82295999" lon="13.50834991">
        <ele>206.00000</ele>
        <time>2024-05-13T12:36:42Z</time>
      </trkpt>
      <trkpt lat="42.82279511" lon="13.50829493">
        <ele>207.00000</ele>
        <time>2024-05-13T12:36:44Z</time>
      </trkpt>
      <trkpt lat="42.82262999" lon="13.50823994">
        <ele>207.00000</ele>
        <time>2024-05-13T12:36:47Z</time>
      </trkpt>
      <trkpt lat="42.82246009" lon="13.50817993">
        <ele>208.00000</ele>
        <time>2024-05-13T12:36:50Z</time>
      </trkpt>
      <trkpt lat="42.82228994" lon="13.50811991">
        <ele>209.00000</ele>
        <time>2024-05-13T12:36:53Z</time>
      </trkpt>
      <trkpt lat="42.82219992" lon="13.50804992">
        <ele>209.00000</ele>
        <time>2024-05-13T12:36:54Z</time>
      </trkpt>
      <trkpt lat="42.82218994" lon="13.50803995">
        <ele>209.00000</ele>
        <time>2024-05-13T12:36:55Z</time>
      </trkpt>
      <trkpt lat="42.82210998" lon="13.50793995">
        <ele>209.00000</ele>
        <time>2024-05-13T12:36:56Z</time>
      </trkpt>
      <trkpt lat="42.82204996" lon="13.50781993">
        <ele>209.00000</ele>
        <time>2024-05-13T12:36:58Z</time>
      </trkpt>
      <trkpt lat="42.82203999" lon="13.50779998">
        <ele>209.00000</ele>
        <time>2024-05-13T12:36:58Z</time>
      </trkpt>
      <trkpt lat="42.82197997" lon="13.50759998">
        <ele>208.00000</ele>
        <time>2024-05-13T12:37:01Z</time>
      </trkpt>
      <trkpt lat="42.82197997" lon="13.50757995">
        <ele>208.00000</ele>
        <time>2024-05-13T12:37:01Z</time>
      </trkpt>
      <trkpt lat="42.82194997" lon="13.50743997">
        <ele>207.00000</ele>
        <time>2024-05-13T12:37:03Z</time>
      </trkpt>
      <trkpt lat="42.82194997" lon="13.50725993">
        <ele>207.00000</ele>
        <time>2024-05-13T12:37:05Z</time>
      </trkpt>
      <trkpt lat="42.82192993" lon="13.50718994">
        <ele>207.00000</ele>
        <time>2024-05-13T12:37:06Z</time>
      </trkpt>
      <trkpt lat="42.82187478" lon="13.50694946">
        <ele>208.00000</ele>
        <time>2024-05-13T12:37:09Z</time>
      </trkpt>
      <trkpt lat="42.82181996" lon="13.50670999">
        <ele>210.00000</ele>
        <time>2024-05-13T12:37:12Z</time>
      </trkpt>
      <trkpt lat="42.82175978" lon="13.50645443">
        <ele>212.00000</ele>
        <time>2024-05-13T12:37:15Z</time>
      </trkpt>
      <trkpt lat="42.82169993" lon="13.50619995">
        <ele>214.00000</ele>
        <time>2024-05-13T12:37:18Z</time>
      </trkpt>
      <trkpt lat="42.82165995" lon="13.50604992">
        <ele>215.00000</ele>
        <time>2024-05-13T12:37:20Z</time>
      </trkpt>
      <trkpt lat="42.82162995" lon="13.50593995">
        <ele>216.00000</ele>
        <time>2024-05-13T12:37:21Z</time>
      </trkpt>
      <trkpt lat="42.82158996" lon="13.50580994">
        <ele>217.00000</ele>
        <time>2024-05-13T12:37:23Z</time>
      </trkpt>
      <trkpt lat="42.82154998" lon="13.50571992">
        <ele>218.00000</ele>
        <time>2024-05-13T12:37:24Z</time>
      </trkpt>
      <trkpt lat="42.82144999" lon="13.50552999">
        <ele>219.00000</ele>
        <time>2024-05-13T12:37:27Z</time>
      </trkpt>
      <trkpt lat="42.82139995" lon="13.50546997">
        <ele>220.00000</ele>
        <time>2024-05-13T12:37:28Z</time>
      </trkpt>
      <trkpt lat="42.82122996" lon="13.50526998">
        <ele>222.00000</ele>
        <time>2024-05-13T12:37:32Z</time>
      </trkpt>
      <trkpt lat="42.82099661" lon="13.50506664">
        <ele>228.00000</ele>
        <time>2024-05-13T12:37:36Z</time>
      </trkpt>
      <trkpt lat="42.82076334" lon="13.50486329">
        <ele>230.00000</ele>
        <time>2024-05-13T12:37:40Z</time>
      </trkpt>
      <trkpt lat="42.82052999" lon="13.50465995">
        <ele>232.00000</ele>
        <time>2024-05-13T12:37:45Z</time>
      </trkpt>
      <trkpt lat="42.82040996" lon="13.50463991">
        <ele>229.00000</ele>
        <time>2024-05-13T12:37:47Z</time>
      </trkpt>
      <trkpt lat="42.82018499" lon="13.50447999">
        <ele>225.00000</ele>
        <time>2024-05-13T12:37:51Z</time>
      </trkpt>
      <trkpt lat="42.81995994" lon="13.50431998">
        <ele>222.00000</ele>
        <time>2024-05-13T12:37:55Z</time>
      </trkpt>
      <trkpt lat="42.81972516" lon="13.50422501">
        <ele>221.00000</ele>
        <time>2024-05-13T12:37:59Z</time>
      </trkpt>
      <trkpt lat="42.81948996" lon="13.50412996">
        <ele>221.00000</ele>
        <time>2024-05-13T12:38:03Z</time>
      </trkpt>
      <trkpt lat="42.81920598" lon="13.50407137">
        <ele>222.00000</ele>
        <time>2024-05-13T12:38:07Z</time>
      </trkpt>
      <trkpt lat="42.81892200" lon="13.50401286">
        <ele>223.00000</ele>
        <time>2024-05-13T12:38:12Z</time>
      </trkpt>
      <trkpt lat="42.81863803" lon="13.50395436">
        <ele>228.00000</ele>
        <time>2024-05-13T12:38:17Z</time>
      </trkpt>
      <trkpt lat="42.81835405" lon="13.50389585">
        <ele>228.00000</ele>
        <time>2024-05-13T12:38:21Z</time>
      </trkpt>
      <trkpt lat="42.81807007" lon="13.50383735">
        <ele>225.00000</ele>
        <time>2024-05-13T12:38:26Z</time>
      </trkpt>
      <trkpt lat="42.81778617" lon="13.50377884">
        <ele>223.00000</ele>
        <time>2024-05-13T12:38:30Z</time>
      </trkpt>
      <trkpt lat="42.81749993" lon="13.50371992">
        <ele>225.00000</ele>
        <time>2024-05-13T12:38:35Z</time>
      </trkpt>
      <trkpt lat="42.81719223" lon="13.50366393">
        <ele>223.00000</ele>
        <time>2024-05-13T12:38:40Z</time>
      </trkpt>
      <trkpt lat="42.81688462" lon="13.50360802">
        <ele>222.00000</ele>
        <time>2024-05-13T12:38:45Z</time>
      </trkpt>
      <trkpt lat="42.81657700" lon="13.50355211">
        <ele>224.00000</ele>
        <time>2024-05-13T12:38:50Z</time>
      </trkpt>
      <trkpt lat="42.81626930" lon="13.50349620">
        <ele>226.00000</ele>
        <time>2024-05-13T12:38:55Z</time>
      </trkpt>
      <trkpt lat="42.81595992" lon="13.50343996">
        <ele>228.00000</ele>
        <time>2024-05-13T12:39:00Z</time>
      </trkpt>
      <trkpt lat="42.81565030" lon="13.50340333">
        <ele>228.00000</ele>
        <time>2024-05-13T12:39:05Z</time>
      </trkpt>
      <trkpt lat="42.81534067" lon="13.50336670">
        <ele>230.00000</ele>
        <time>2024-05-13T12:39:10Z</time>
      </trkpt>
      <trkpt lat="42.81502995" lon="13.50332999">
        <ele>227.00000</ele>
        <time>2024-05-13T12:39:15Z</time>
      </trkpt>
      <trkpt lat="42.81476357" lon="13.50331993">
        <ele>227.00000</ele>
        <time>2024-05-13T12:39:19Z</time>
      </trkpt>
      <trkpt lat="42.81449728" lon="13.50330996">
        <ele>230.00000</ele>
        <time>2024-05-13T12:39:23Z</time>
      </trkpt>
      <trkpt lat="42.81422998" lon="13.50329998">
        <ele>229.00000</ele>
        <time>2024-05-13T12:39:28Z</time>
      </trkpt>
      <trkpt lat="42.81398523" lon="13.50328741">
        <ele>228.00000</ele>
        <time>2024-05-13T12:39:31Z</time>
      </trkpt>
      <trkpt lat="42.81374056" lon="13.50327492">
        <ele>230.00000</ele>
        <time>2024-05-13T12:39:35Z</time>
      </trkpt>
      <trkpt lat="42.81349581" lon="13.50326243">
        <ele>233.00000</ele>
        <time>2024-05-13T12:39:39Z</time>
      </trkpt>
      <trkpt lat="42.81324997" lon="13.50324994">
        <ele>235.00000</ele>
        <time>2024-05-13T12:39:43Z</time>
      </trkpt>
      <trkpt lat="42.81299994" lon="13.50319999">
        <ele>236.00000</ele>
        <time>2024-05-13T12:39:47Z</time>
      </trkpt>
      <trkpt lat="42.81283507" lon="13.50313997">
        <ele>237.00000</ele>
        <time>2024-05-13T12:39:50Z</time>
      </trkpt>
      <trkpt lat="42.81266994" lon="13.50307996">
        <ele>236.00000</ele>
        <time>2024-05-13T12:39:53Z</time>
      </trkpt>
      <trkpt lat="42.81243994" lon="13.50296999">
        <ele>235.00000</ele>
        <time>2024-05-13T12:39:57Z</time>
      </trkpt>
      <trkpt lat="42.81227004" lon="13.50287997">
        <ele>235.00000</ele>
        <time>2024-05-13T12:40:00Z</time>
      </trkpt>
      <trkpt lat="42.81209997" lon="13.50278994">
        <ele>235.00000</ele>
        <time>2024-05-13T12:40:02Z</time>
      </trkpt>
      <trkpt lat="42.81191993" lon="13.50266992">
        <ele>235.00000</ele>
        <time>2024-05-13T12:40:06Z</time>
      </trkpt>
      <trkpt lat="42.81172002" lon="13.50254000">
        <ele>236.00000</ele>
        <time>2024-05-13T12:40:09Z</time>
      </trkpt>
      <trkpt lat="42.81151995" lon="13.50240999">
        <ele>237.00000</ele>
        <time>2024-05-13T12:40:13Z</time>
      </trkpt>
      <trkpt lat="42.81131006" lon="13.50229499">
        <ele>237.00000</ele>
        <time>2024-05-13T12:40:16Z</time>
      </trkpt>
      <trkpt lat="42.81109993" lon="13.50217999">
        <ele>235.00000</ele>
        <time>2024-05-13T12:40:20Z</time>
      </trkpt>
      <trkpt lat="42.81103991" lon="13.50212995">
        <ele>236.00000</ele>
        <time>2024-05-13T12:40:21Z</time>
      </trkpt>
      <trkpt lat="42.81084998" lon="13.50200993">
        <ele>236.00000</ele>
        <time>2024-05-13T12:40:24Z</time>
      </trkpt>
      <trkpt lat="42.81061998" lon="13.50183994">
        <ele>235.00000</ele>
        <time>2024-05-13T12:40:29Z</time>
      </trkpt>
      <trkpt lat="42.81044991" lon="13.50171991">
        <ele>235.00000</ele>
        <time>2024-05-13T12:40:32Z</time>
      </trkpt>
      <trkpt lat="42.81022997" lon="13.50150994">
        <ele>234.00000</ele>
        <time>2024-05-13T12:40:36Z</time>
      </trkpt>
      <trkpt lat="42.81009997" lon="13.50135999">
        <ele>234.00000</ele>
        <time>2024-05-13T12:40:39Z</time>
      </trkpt>
      <trkpt lat="42.80996485" lon="13.50119990">
        <ele>235.00000</ele>
        <time>2024-05-13T12:40:42Z</time>
      </trkpt>
      <trkpt lat="42.80982999" lon="13.50103997">
        <ele>237.00000</ele>
        <time>2024-05-13T12:40:44Z</time>
      </trkpt>
      <trkpt lat="42.80970484" lon="13.50086479">
        <ele>240.00000</ele>
        <time>2024-05-13T12:40:47Z</time>
      </trkpt>
      <trkpt lat="42.80957995" lon="13.50068994">
        <ele>243.00000</ele>
        <time>2024-05-13T12:40:50Z</time>
      </trkpt>
      <trkpt lat="42.80940997" lon="13.50039993">
        <ele>242.00000</ele>
        <time>2024-05-13T12:40:55Z</time>
      </trkpt>
      <trkpt lat="42.80924996" lon="13.50009994">
        <ele>238.00000</ele>
        <time>2024-05-13T12:40:59Z</time>
      </trkpt>
      <trkpt lat="42.80914996" lon="13.49987992">
        <ele>234.00000</ele>
        <time>2024-05-13T12:41:02Z</time>
      </trkpt>
      <trkpt lat="42.80901996" lon="13.49953995">
        <ele>233.00000</ele>
        <time>2024-05-13T12:41:07Z</time>
      </trkpt>
      <trkpt lat="42.80890999" lon="13.49921992">
        <ele>233.00000</ele>
        <time>2024-05-13T12:41:11Z</time>
      </trkpt>
      <trkpt lat="42.80880999" lon="13.49890996">
        <ele>230.00000</ele>
        <time>2024-05-13T12:41:15Z</time>
      </trkpt>
      <trkpt lat="42.80874487" lon="13.49868449">
        <ele>228.00000</ele>
        <time>2024-05-13T12:41:18Z</time>
      </trkpt>
      <trkpt lat="42.80867999" lon="13.49845994">
        <ele>225.00000</ele>
        <time>2024-05-13T12:41:20Z</time>
      </trkpt>
      <trkpt lat="42.80864998" lon="13.49836992">
        <ele>223.00000</ele>
        <time>2024-05-13T12:41:22Z</time>
      </trkpt>
      <trkpt lat="42.80857480" lon="13.49811938">
        <ele>221.00000</ele>
        <time>2024-05-13T12:41:25Z</time>
      </trkpt>
      <trkpt lat="42.80849995" lon="13.49786994">
        <ele>221.00000</ele>
        <time>2024-05-13T12:41:28Z</time>
      </trkpt>
      <trkpt lat="42.80839970" lon="13.49752427">
        <ele>224.00000</ele>
        <time>2024-05-13T12:41:32Z</time>
      </trkpt>
      <trkpt lat="42.80829953" lon="13.49717860">
        <ele>228.00000</ele>
        <time>2024-05-13T12:41:37Z</time>
      </trkpt>
      <trkpt lat="42.80819937" lon="13.49683293">
        <ele>232.00000</ele>
        <time>2024-05-13T12:41:41Z</time>
      </trkpt>
      <trkpt lat="42.80809921" lon="13.49648726">
        <ele>236.00000</ele>
        <time>2024-05-13T12:41:45Z</time>
      </trkpt>
      <trkpt lat="42.80799896" lon="13.49614159">
        <ele>241.00000</ele>
        <time>2024-05-13T12:41:50Z</time>
      </trkpt>
      <trkpt lat="42.80789997" lon="13.49579994">
        <ele>242.00000</ele>
        <time>2024-05-13T12:41:54Z</time>
      </trkpt>
      <trkpt lat="42.80781975" lon="13.49550934">
        <ele>239.00000</ele>
        <time>2024-05-13T12:41:58Z</time>
      </trkpt>
      <trkpt lat="42.80773996" lon="13.49521991">
        <ele>239.00000</ele>
        <time>2024-05-13T12:42:01Z</time>
      </trkpt>
      <trkpt lat="42.80765480" lon="13.49497952">
        <ele>239.00000</ele>
        <time>2024-05-13T12:42:04Z</time>
      </trkpt>
      <trkpt lat="42.80756997" lon="13.49473997">
        <ele>242.00000</ele>
        <time>2024-05-13T12:42:08Z</time>
      </trkpt>
      <trkpt lat="42.80747476" lon="13.49445439">
        <ele>242.00000</ele>
        <time>2024-05-13T12:42:11Z</time>
      </trkpt>
      <trkpt lat="42.80737996" lon="13.49416991">
        <ele>242.00000</ele>
        <time>2024-05-13T12:42:15Z</time>
      </trkpt>
      <trkpt lat="42.80731994" lon="13.49400999">
        <ele>242.00000</ele>
        <time>2024-05-13T12:42:17Z</time>
      </trkpt>
      <trkpt lat="42.80731994" lon="13.49398995">
        <ele>242.00000</ele>
        <time>2024-05-13T12:42:17Z</time>
      </trkpt>
      <trkpt lat="42.80718466" lon="13.49364940">
        <ele>242.00000</ele>
        <time>2024-05-13T12:42:22Z</time>
      </trkpt>
      <trkpt lat="42.80704996" lon="13.49330993">
        <ele>241.00000</ele>
        <time>2024-05-13T12:42:26Z</time>
      </trkpt>
      <trkpt lat="42.80700998" lon="13.49319996">
        <ele>240.00000</ele>
        <time>2024-05-13T12:42:28Z</time>
      </trkpt>
      <trkpt lat="42.80684972" lon="13.49285949">
        <ele>242.00000</ele>
        <time>2024-05-13T12:42:33Z</time>
      </trkpt>
      <trkpt lat="42.80668996" lon="13.49251993">
        <ele>244.00000</ele>
        <time>2024-05-13T12:42:37Z</time>
      </trkpt>
      <trkpt lat="42.80656473" lon="13.49224450">
        <ele>245.00000</ele>
        <time>2024-05-13T12:42:41Z</time>
      </trkpt>
      <trkpt lat="42.80643959" lon="13.49196916">
        <ele>243.00000</ele>
        <time>2024-05-13T12:42:45Z</time>
      </trkpt>
      <trkpt lat="42.80631445" lon="13.49169381">
        <ele>241.00000</ele>
        <time>2024-05-13T12:42:49Z</time>
      </trkpt>
      <trkpt lat="42.80618998" lon="13.49141998">
        <ele>239.00000</ele>
        <time>2024-05-13T12:42:53Z</time>
      </trkpt>
      <trkpt lat="42.80602770" lon="13.49107146">
        <ele>238.00000</ele>
        <time>2024-05-13T12:42:57Z</time>
      </trkpt>
      <trkpt lat="42.80586551" lon="13.49072302">
        <ele>238.00000</ele>
        <time>2024-05-13T12:43:02Z</time>
      </trkpt>
      <trkpt lat="42.80570324" lon="13.49037450">
        <ele>237.00000</ele>
        <time>2024-05-13T12:43:07Z</time>
      </trkpt>
      <trkpt lat="42.80554105" lon="13.49002607">
        <ele>239.00000</ele>
        <time>2024-05-13T12:43:12Z</time>
      </trkpt>
      <trkpt lat="42.80537995" lon="13.48967998">
        <ele>246.00000</ele>
        <time>2024-05-13T12:43:17Z</time>
      </trkpt>
      <trkpt lat="42.80521969" lon="13.48932542">
        <ele>243.00000</ele>
        <time>2024-05-13T12:43:22Z</time>
      </trkpt>
      <trkpt lat="42.80505951" lon="13.48897095">
        <ele>242.00000</ele>
        <time>2024-05-13T12:43:27Z</time>
      </trkpt>
      <trkpt lat="42.80489925" lon="13.48861648">
        <ele>238.00000</ele>
        <time>2024-05-13T12:43:32Z</time>
      </trkpt>
      <trkpt lat="42.80473907" lon="13.48826193">
        <ele>236.00000</ele>
        <time>2024-05-13T12:43:36Z</time>
      </trkpt>
      <trkpt lat="42.80457998" lon="13.48790997">
        <ele>235.00000</ele>
        <time>2024-05-13T12:43:41Z</time>
      </trkpt>
      <trkpt lat="42.80445224" lon="13.48762205">
        <ele>235.00000</ele>
        <time>2024-05-13T12:43:45Z</time>
      </trkpt>
      <trkpt lat="42.80432458" lon="13.48733413">
        <ele>237.00000</ele>
        <time>2024-05-13T12:43:49Z</time>
      </trkpt>
      <trkpt lat="42.80419684" lon="13.48704622">
        <ele>238.00000</ele>
        <time>2024-05-13T12:43:53Z</time>
      </trkpt>
      <trkpt lat="42.80406994" lon="13.48675997">
        <ele>239.00000</ele>
        <time>2024-05-13T12:43:57Z</time>
      </trkpt>
      <trkpt lat="42.80394472" lon="13.48638430">
        <ele>241.00000</ele>
        <time>2024-05-13T12:44:02Z</time>
      </trkpt>
      <trkpt lat="42.80381999" lon="13.48600996">
        <ele>240.00000</ele>
        <time>2024-05-13T12:44:07Z</time>
      </trkpt>
      <trkpt lat="42.80374648" lon="13.48573939">
        <ele>238.00000</ele>
        <time>2024-05-13T12:44:10Z</time>
      </trkpt>
      <trkpt lat="42.80367298" lon="13.48546883">
        <ele>238.00000</ele>
        <time>2024-05-13T12:44:14Z</time>
      </trkpt>
      <trkpt lat="42.80359997" lon="13.48519993">
        <ele>237.00000</ele>
        <time>2024-05-13T12:44:17Z</time>
      </trkpt>
      <trkpt lat="42.80354733" lon="13.48485410">
        <ele>237.00000</ele>
        <time>2024-05-13T12:44:21Z</time>
      </trkpt>
      <trkpt lat="42.80349469" lon="13.48450834">
        <ele>238.00000</ele>
        <time>2024-05-13T12:44:25Z</time>
      </trkpt>
      <trkpt lat="42.80344205" lon="13.48416259">
        <ele>239.00000</ele>
        <time>2024-05-13T12:44:29Z</time>
      </trkpt>
      <trkpt lat="42.80338992" lon="13.48381994">
        <ele>237.00000</ele>
        <time>2024-05-13T12:44:34Z</time>
      </trkpt>
      <trkpt lat="42.80333376" lon="13.48345910">
        <ele>239.00000</ele>
        <time>2024-05-13T12:44:38Z</time>
      </trkpt>
      <trkpt lat="42.80327768" lon="13.48309826">
        <ele>242.00000</ele>
        <time>2024-05-13T12:44:42Z</time>
      </trkpt>
      <trkpt lat="42.80322153" lon="13.48273750">
        <ele>244.00000</ele>
        <time>2024-05-13T12:44:47Z</time>
      </trkpt>
      <trkpt lat="42.80316545" lon="13.48237666">
        <ele>244.00000</ele>
        <time>2024-05-13T12:44:51Z</time>
      </trkpt>
      <trkpt lat="42.80310996" lon="13.48201992">
        <ele>245.00000</ele>
        <time>2024-05-13T12:44:55Z</time>
      </trkpt>
      <trkpt lat="42.80303972" lon="13.48164408">
        <ele>247.00000</ele>
        <time>2024-05-13T12:45:00Z</time>
      </trkpt>
      <trkpt lat="42.80296957" lon="13.48126832">
        <ele>247.00000</ele>
        <time>2024-05-13T12:45:04Z</time>
      </trkpt>
      <trkpt lat="42.80289941" lon="13.48089247">
        <ele>246.00000</ele>
        <time>2024-05-13T12:45:09Z</time>
      </trkpt>
      <trkpt lat="42.80282992" lon="13.48051998">
        <ele>249.00000</ele>
        <time>2024-05-13T12:45:13Z</time>
      </trkpt>
      <trkpt lat="42.80277980" lon="13.48014405">
        <ele>251.00000</ele>
        <time>2024-05-13T12:45:18Z</time>
      </trkpt>
      <trkpt lat="42.80272968" lon="13.47976821">
        <ele>253.00000</ele>
        <time>2024-05-13T12:45:22Z</time>
      </trkpt>
      <trkpt lat="42.80267955" lon="13.47939237">
        <ele>256.00000</ele>
        <time>2024-05-13T12:45:27Z</time>
      </trkpt>
      <trkpt lat="42.80262993" lon="13.47901996">
        <ele>257.00000</ele>
        <time>2024-05-13T12:45:31Z</time>
      </trkpt>
      <trkpt lat="42.80257226" lon="13.47863908">
        <ele>254.00000</ele>
        <time>2024-05-13T12:45:36Z</time>
      </trkpt>
      <trkpt lat="42.80251460" lon="13.47825821">
        <ele>250.00000</ele>
        <time>2024-05-13T12:45:41Z</time>
      </trkpt>
      <trkpt lat="42.80245701" lon="13.47787734">
        <ele>247.00000</ele>
        <time>2024-05-13T12:45:45Z</time>
      </trkpt>
      <trkpt lat="42.80239993" lon="13.47749998">
        <ele>247.00000</ele>
        <time>2024-05-13T12:45:50Z</time>
      </trkpt>
      <trkpt lat="42.80234981" lon="13.47714166">
        <ele>247.00000</ele>
        <time>2024-05-13T12:45:54Z</time>
      </trkpt>
      <trkpt lat="42.80229968" lon="13.47678333">
        <ele>248.00000</ele>
        <time>2024-05-13T12:45:58Z</time>
      </trkpt>
      <trkpt lat="42.80224956" lon="13.47642500">
        <ele>247.00000</ele>
        <time>2024-05-13T12:46:03Z</time>
      </trkpt>
      <trkpt lat="42.80219994" lon="13.47606995">
        <ele>248.00000</ele>
        <time>2024-05-13T12:46:07Z</time>
      </trkpt>
      <trkpt lat="42.80214982" lon="13.47572411">
        <ele>248.00000</ele>
        <time>2024-05-13T12:46:11Z</time>
      </trkpt>
      <trkpt lat="42.80209994" lon="13.47537995">
        <ele>247.00000</ele>
        <time>2024-05-13T12:46:15Z</time>
      </trkpt>
      <trkpt lat="42.80206482" lon="13.47516445">
        <ele>247.00000</ele>
        <time>2024-05-13T12:46:18Z</time>
      </trkpt>
      <trkpt lat="42.80202995" lon="13.47494996">
        <ele>248.00000</ele>
        <time>2024-05-13T12:46:20Z</time>
      </trkpt>
      <trkpt lat="42.80200992" lon="13.47475994">
        <ele>250.00000</ele>
        <time>2024-05-13T12:46:23Z</time>
      </trkpt>
      <trkpt lat="42.80196994" lon="13.47450999">
        <ele>254.00000</ele>
        <time>2024-05-13T12:46:26Z</time>
      </trkpt>
      <trkpt lat="42.80191982" lon="13.47417421">
        <ele>256.00000</ele>
        <time>2024-05-13T12:46:30Z</time>
      </trkpt>
      <trkpt lat="42.80186994" lon="13.47383994">
        <ele>255.00000</ele>
        <time>2024-05-13T12:46:34Z</time>
      </trkpt>
      <trkpt lat="42.80182996" lon="13.47345999">
        <ele>256.00000</ele>
        <time>2024-05-13T12:46:38Z</time>
      </trkpt>
      <trkpt lat="42.80180658" lon="13.47317257">
        <ele>257.00000</ele>
        <time>2024-05-13T12:46:42Z</time>
      </trkpt>
      <trkpt lat="42.80178319" lon="13.47288524">
        <ele>257.00000</ele>
        <time>2024-05-13T12:46:45Z</time>
      </trkpt>
      <trkpt lat="42.80175997" lon="13.47259992">
        <ele>257.00000</ele>
        <time>2024-05-13T12:46:48Z</time>
      </trkpt>
      <trkpt lat="42.80175997" lon="13.47223992">
        <ele>258.00000</ele>
        <time>2024-05-13T12:46:53Z</time>
      </trkpt>
      <trkpt lat="42.80179501" lon="13.47189408">
        <ele>259.00000</ele>
        <time>2024-05-13T12:46:57Z</time>
      </trkpt>
      <trkpt lat="42.80182996" lon="13.47154992">
        <ele>259.00000</ele>
        <time>2024-05-13T12:47:01Z</time>
      </trkpt>
      <trkpt lat="42.80189006" lon="13.47118908">
        <ele>260.00000</ele>
        <time>2024-05-13T12:47:05Z</time>
      </trkpt>
      <trkpt lat="42.80194999" lon="13.47082992">
        <ele>261.00000</ele>
        <time>2024-05-13T12:47:10Z</time>
      </trkpt>
      <trkpt lat="42.80194999" lon="13.47081994">
        <ele>260.00000</ele>
        <time>2024-05-13T12:47:10Z</time>
      </trkpt>
      <trkpt lat="42.80199006" lon="13.47060444">
        <ele>258.00000</ele>
        <time>2024-05-13T12:47:12Z</time>
      </trkpt>
      <trkpt lat="42.80202995" lon="13.47038995">
        <ele>258.00000</ele>
        <time>2024-05-13T12:47:15Z</time>
      </trkpt>
      <trkpt lat="42.80210992" lon="13.46998997">
        <ele>257.00000</ele>
        <time>2024-05-13T12:47:20Z</time>
      </trkpt>
      <trkpt lat="42.80217999" lon="13.46967992">
        <ele>256.00000</ele>
        <time>2024-05-13T12:47:24Z</time>
      </trkpt>
      <trkpt lat="42.80221997" lon="13.46948998">
        <ele>256.00000</ele>
        <time>2024-05-13T12:47:26Z</time>
      </trkpt>
      <trkpt lat="42.80228996" lon="13.46914993">
        <ele>260.00000</ele>
        <time>2024-05-13T12:47:30Z</time>
      </trkpt>
      <trkpt lat="42.80237009" lon="13.46873905">
        <ele>262.00000</ele>
        <time>2024-05-13T12:47:35Z</time>
      </trkpt>
      <trkpt lat="42.80244997" lon="13.46832993">
        <ele>267.00000</ele>
        <time>2024-05-13T12:47:40Z</time>
      </trkpt>
      <trkpt lat="42.80249004" lon="13.46810940">
        <ele>268.00000</ele>
        <time>2024-05-13T12:47:43Z</time>
      </trkpt>
      <trkpt lat="42.80252994" lon="13.46788996">
        <ele>268.00000</ele>
        <time>2024-05-13T12:47:45Z</time>
      </trkpt>
      <trkpt lat="42.80255994" lon="13.46761931">
        <ele>267.00000</ele>
        <time>2024-05-13T12:47:49Z</time>
      </trkpt>
      <trkpt lat="42.80258995" lon="13.46734992">
        <ele>268.00000</ele>
        <time>2024-05-13T12:47:52Z</time>
      </trkpt>
      <trkpt lat="42.80258492" lon="13.46695899">
        <ele>268.00000</ele>
        <time>2024-05-13T12:47:56Z</time>
      </trkpt>
      <trkpt lat="42.80257998" lon="13.46656998">
        <ele>265.00000</ele>
        <time>2024-05-13T12:48:01Z</time>
      </trkpt>
      <trkpt lat="42.80260998" lon="13.46627427">
        <ele>262.00000</ele>
        <time>2024-05-13T12:48:04Z</time>
      </trkpt>
      <trkpt lat="42.80263999" lon="13.46597998">
        <ele>260.00000</ele>
        <time>2024-05-13T12:48:08Z</time>
      </trkpt>
      <trkpt lat="42.80264996" lon="13.46575995">
        <ele>261.00000</ele>
        <time>2024-05-13T12:48:11Z</time>
      </trkpt>
      <trkpt lat="42.80263999" lon="13.46552995">
        <ele>262.00000</ele>
        <time>2024-05-13T12:48:13Z</time>
      </trkpt>
      <trkpt lat="42.80260998" lon="13.46528998">
        <ele>265.00000</ele>
        <time>2024-05-13T12:48:16Z</time>
      </trkpt>
      <trkpt lat="42.80254997" lon="13.46505998">
        <ele>267.00000</ele>
        <time>2024-05-13T12:48:19Z</time>
      </trkpt>
      <trkpt lat="42.80246975" lon="13.46479947">
        <ele>269.00000</ele>
        <time>2024-05-13T12:48:22Z</time>
      </trkpt>
      <trkpt lat="42.80238996" lon="13.46453997">
        <ele>271.00000</ele>
        <time>2024-05-13T12:48:26Z</time>
      </trkpt>
      <trkpt lat="42.80226993" lon="13.46420997">
        <ele>273.00000</ele>
        <time>2024-05-13T12:48:30Z</time>
      </trkpt>
      <trkpt lat="42.80223992" lon="13.46412993">
        <ele>273.00000</ele>
        <time>2024-05-13T12:48:31Z</time>
      </trkpt>
      <trkpt lat="42.80216993" lon="13.46399992">
        <ele>273.00000</ele>
        <time>2024-05-13T12:48:33Z</time>
      </trkpt>
      <trkpt lat="42.80208997" lon="13.46389993">
        <ele>272.00000</ele>
        <time>2024-05-13T12:48:35Z</time>
      </trkpt>
      <trkpt lat="42.80202995" lon="13.46383991">
        <ele>271.00000</ele>
        <time>2024-05-13T12:48:36Z</time>
      </trkpt>
      <trkpt lat="42.80177992" lon="13.46357999">
        <ele>272.00000</ele>
        <time>2024-05-13T12:48:41Z</time>
      </trkpt>
      <trkpt lat="42.80162997" lon="13.46341998">
        <ele>273.00000</ele>
        <time>2024-05-13T12:48:44Z</time>
      </trkpt>
      <trkpt lat="42.80157993" lon="13.46335996">
        <ele>273.00000</ele>
        <time>2024-05-13T12:48:45Z</time>
      </trkpt>
      <trkpt lat="42.80152997" lon="13.46330992">
        <ele>273.00000</ele>
        <time>2024-05-13T12:48:46Z</time>
      </trkpt>
      <trkpt lat="42.80145999" lon="13.46323993">
        <ele>273.00000</ele>
        <time>2024-05-13T12:48:47Z</time>
      </trkpt>
      <trkpt lat="42.80130995" lon="13.46308998">
        <ele>271.00000</ele>
        <time>2024-05-13T12:48:50Z</time>
      </trkpt>
      <trkpt lat="42.80116997" lon="13.46299996">
        <ele>270.00000</ele>
        <time>2024-05-13T12:48:53Z</time>
      </trkpt>
      <trkpt lat="42.80106998" lon="13.46294992">
        <ele>270.00000</ele>
        <time>2024-05-13T12:48:55Z</time>
      </trkpt>
      <trkpt lat="42.80096998" lon="13.46294992">
        <ele>271.00000</ele>
        <time>2024-05-13T12:48:56Z</time>
      </trkpt>
      <trkpt lat="42.80071995" lon="13.46297993">
        <ele>273.00000</ele>
        <time>2024-05-13T12:49:00Z</time>
      </trkpt>
      <trkpt lat="42.80055994" lon="13.46302997">
        <ele>274.00000</ele>
        <time>2024-05-13T12:49:03Z</time>
      </trkpt>
      <trkpt lat="42.80040998" lon="13.46305998">
        <ele>276.00000</ele>
        <time>2024-05-13T12:49:05Z</time>
      </trkpt>
      <trkpt lat="42.80021016" lon="13.46311488">
        <ele>279.00000</ele>
        <time>2024-05-13T12:49:09Z</time>
      </trkpt>
      <trkpt lat="42.80000992" lon="13.46316995">
        <ele>280.00000</ele>
        <time>2024-05-13T12:49:12Z</time>
      </trkpt>
      <trkpt lat="42.79985007" lon="13.46323482">
        <ele>281.00000</ele>
        <time>2024-05-13T12:49:14Z</time>
      </trkpt>
      <trkpt lat="42.79968998" lon="13.46329995">
        <ele>281.00000</ele>
        <time>2024-05-13T12:49:17Z</time>
      </trkpt>
      <trkpt lat="42.79949996" lon="13.46344999">
        <ele>279.00000</ele>
        <time>2024-05-13T12:49:21Z</time>
      </trkpt>
      <trkpt lat="42.79936996" lon="13.46358996">
        <ele>277.00000</ele>
        <time>2024-05-13T12:49:23Z</time>
      </trkpt>
      <trkpt lat="42.79919997" lon="13.46377998">
        <ele>278.00000</ele>
        <time>2024-05-13T12:49:27Z</time>
      </trkpt>
      <trkpt lat="42.79899990" lon="13.46402507">
        <ele>276.00000</ele>
        <time>2024-05-13T12:49:31Z</time>
      </trkpt>
      <trkpt lat="42.79879999" lon="13.46426999">
        <ele>273.00000</ele>
        <time>2024-05-13T12:49:35Z</time>
      </trkpt>
      <trkpt lat="42.79858994" lon="13.46450996">
        <ele>272.00000</ele>
        <time>2024-05-13T12:49:40Z</time>
      </trkpt>
      <trkpt lat="42.79844996" lon="13.46465991">
        <ele>273.00000</ele>
        <time>2024-05-13T12:49:43Z</time>
      </trkpt>
      <trkpt lat="42.79830998" lon="13.46482998">
        <ele>273.00000</ele>
        <time>2024-05-13T12:49:46Z</time>
      </trkpt>
      <trkpt lat="42.79823999" lon="13.46491992">
        <ele>272.00000</ele>
        <time>2024-05-13T12:49:47Z</time>
      </trkpt>
      <trkpt lat="42.79815995" lon="13.46500994">
        <ele>271.00000</ele>
        <time>2024-05-13T12:49:49Z</time>
      </trkpt>
      <trkpt lat="42.79810999" lon="13.46503995">
        <ele>271.00000</ele>
        <time>2024-05-13T12:49:50Z</time>
      </trkpt>
      <trkpt lat="42.79802994" lon="13.46506996">
        <ele>270.00000</ele>
        <time>2024-05-13T12:49:51Z</time>
      </trkpt>
      <trkpt lat="42.79792995" lon="13.46505998">
        <ele>270.00000</ele>
        <time>2024-05-13T12:49:53Z</time>
      </trkpt>
      <trkpt lat="42.79788997" lon="13.46502997">
        <ele>270.00000</ele>
        <time>2024-05-13T12:49:53Z</time>
      </trkpt>
      <trkpt lat="42.79783993" lon="13.46497993">
        <ele>270.00000</ele>
        <time>2024-05-13T12:49:54Z</time>
      </trkpt>
      <trkpt lat="42.79779994" lon="13.46491992">
        <ele>270.00000</ele>
        <time>2024-05-13T12:49:55Z</time>
      </trkpt>
      <trkpt lat="42.79776994" lon="13.46484993">
        <ele>270.00000</ele>
        <time>2024-05-13T12:49:56Z</time>
      </trkpt>
      <trkpt lat="42.79773993" lon="13.46475999">
        <ele>270.00000</ele>
        <time>2024-05-13T12:49:58Z</time>
      </trkpt>
      <trkpt lat="42.79773993" lon="13.46464994">
        <ele>270.00000</ele>
        <time>2024-05-13T12:49:59Z</time>
      </trkpt>
      <trkpt lat="42.79774999" lon="13.46453997">
        <ele>269.00000</ele>
        <time>2024-05-13T12:50:00Z</time>
      </trkpt>
      <trkpt lat="42.79783674" lon="13.46419924">
        <ele>270.00000</ele>
        <time>2024-05-13T12:50:04Z</time>
      </trkpt>
      <trkpt lat="42.79792358" lon="13.46385860">
        <ele>271.00000</ele>
        <time>2024-05-13T12:50:09Z</time>
      </trkpt>
      <trkpt lat="42.79801041" lon="13.46351788">
        <ele>271.00000</ele>
        <time>2024-05-13T12:50:13Z</time>
      </trkpt>
      <trkpt lat="42.79809725" lon="13.46317724">
        <ele>273.00000</ele>
        <time>2024-05-13T12:50:17Z</time>
      </trkpt>
      <trkpt lat="42.79818409" lon="13.46283651">
        <ele>272.00000</ele>
        <time>2024-05-13T12:50:21Z</time>
      </trkpt>
      <trkpt lat="42.79826992" lon="13.46249998">
        <ele>269.00000</ele>
        <time>2024-05-13T12:50:26Z</time>
      </trkpt>
      <trkpt lat="42.79834502" lon="13.46215423">
        <ele>269.00000</ele>
        <time>2024-05-13T12:50:30Z</time>
      </trkpt>
      <trkpt lat="42.79841995" lon="13.46180998">
        <ele>273.00000</ele>
        <time>2024-05-13T12:50:34Z</time>
      </trkpt>
      <trkpt lat="42.79843999" lon="13.46173999">
        <ele>274.00000</ele>
        <time>2024-05-13T12:50:35Z</time>
      </trkpt>
      <trkpt lat="42.79844996" lon="13.46165995">
        <ele>275.00000</ele>
        <time>2024-05-13T12:50:36Z</time>
      </trkpt>
      <trkpt lat="42.79842993" lon="13.46153992">
        <ele>275.00000</ele>
        <time>2024-05-13T12:50:37Z</time>
      </trkpt>
      <trkpt lat="42.79826992" lon="13.46135996">
        <ele>271.00000</ele>
        <time>2024-05-13T12:50:41Z</time>
      </trkpt>
      <trkpt lat="42.79812994" lon="13.46123993">
        <ele>269.00000</ele>
        <time>2024-05-13T12:50:43Z</time>
      </trkpt>
      <trkpt lat="42.79798996" lon="13.46111998">
        <ele>270.00000</ele>
        <time>2024-05-13T12:50:46Z</time>
      </trkpt>
      <trkpt lat="42.79786993" lon="13.46102996">
        <ele>272.00000</ele>
        <time>2024-05-13T12:50:48Z</time>
      </trkpt>
      <trkpt lat="42.79778997" lon="13.46089996">
        <ele>273.00000</ele>
        <time>2024-05-13T12:50:50Z</time>
      </trkpt>
      <trkpt lat="42.79769995" lon="13.46074992">
        <ele>275.00000</ele>
        <time>2024-05-13T12:50:52Z</time>
      </trkpt>
      <trkpt lat="42.79767991" lon="13.46070994">
        <ele>276.00000</ele>
        <time>2024-05-13T12:50:53Z</time>
      </trkpt>
      <trkpt lat="42.79762996" lon="13.46052998">
        <ele>277.00000</ele>
        <time>2024-05-13T12:50:55Z</time>
      </trkpt>
      <trkpt lat="42.79757992" lon="13.46024994">
        <ele>278.00000</ele>
        <time>2024-05-13T12:50:59Z</time>
      </trkpt>
      <trkpt lat="42.79756986" lon="13.45988407">
        <ele>277.00000</ele>
        <time>2024-05-13T12:51:03Z</time>
      </trkpt>
      <trkpt lat="42.79755997" lon="13.45951996">
        <ele>279.00000</ele>
        <time>2024-05-13T12:51:07Z</time>
      </trkpt>
      <trkpt lat="42.79757497" lon="13.45923925">
        <ele>281.00000</ele>
        <time>2024-05-13T12:51:11Z</time>
      </trkpt>
      <trkpt lat="42.79758998" lon="13.45895997">
        <ele>282.00000</ele>
        <time>2024-05-13T12:51:14Z</time>
      </trkpt>
      <trkpt lat="42.79759995" lon="13.45862243">
        <ele>284.00000</ele>
        <time>2024-05-13T12:51:18Z</time>
      </trkpt>
      <trkpt lat="42.79761001" lon="13.45828497">
        <ele>285.00000</ele>
        <time>2024-05-13T12:51:22Z</time>
      </trkpt>
      <trkpt lat="42.79761998" lon="13.45794995">
        <ele>283.00000</ele>
        <time>2024-05-13T12:51:26Z</time>
      </trkpt>
      <trkpt lat="42.79764999" lon="13.45753999">
        <ele>280.00000</ele>
        <time>2024-05-13T12:51:31Z</time>
      </trkpt>
      <trkpt lat="42.79767497" lon="13.45728937">
        <ele>278.00000</ele>
        <time>2024-05-13T12:51:34Z</time>
      </trkpt>
      <trkpt lat="42.79769995" lon="13.45703992">
        <ele>277.00000</ele>
        <time>2024-05-13T12:51:37Z</time>
      </trkpt>
      <trkpt lat="42.79768997" lon="13.45668998">
        <ele>277.00000</ele>
        <time>2024-05-13T12:51:41Z</time>
      </trkpt>
      <trkpt lat="42.79765485" lon="13.45647448">
        <ele>278.00000</ele>
        <time>2024-05-13T12:51:43Z</time>
      </trkpt>
      <trkpt lat="42.79761998" lon="13.45625999">
        <ele>279.00000</ele>
        <time>2024-05-13T12:51:46Z</time>
      </trkpt>
      <trkpt lat="42.79751999" lon="13.45599998">
        <ele>279.00000</ele>
        <time>2024-05-13T12:51:49Z</time>
      </trkpt>
      <trkpt lat="42.79738998" lon="13.45561995">
        <ele>280.00000</ele>
        <time>2024-05-13T12:51:54Z</time>
      </trkpt>
      <trkpt lat="42.79727993" lon="13.45534997">
        <ele>282.00000</ele>
        <time>2024-05-13T12:51:58Z</time>
      </trkpt>
      <trkpt lat="42.79717993" lon="13.45519993">
        <ele>284.00000</ele>
        <time>2024-05-13T12:52:00Z</time>
      </trkpt>
      <trkpt lat="42.79699997" lon="13.45493992">
        <ele>283.00000</ele>
        <time>2024-05-13T12:52:04Z</time>
      </trkpt>
      <trkpt lat="42.79683996" lon="13.45470992">
        <ele>279.00000</ele>
        <time>2024-05-13T12:52:08Z</time>
      </trkpt>
      <trkpt lat="42.79666990" lon="13.45450482">
        <ele>279.00000</ele>
        <time>2024-05-13T12:52:12Z</time>
      </trkpt>
      <trkpt lat="42.79649999" lon="13.45429996">
        <ele>282.00000</ele>
        <time>2024-05-13T12:52:15Z</time>
      </trkpt>
      <trkpt lat="42.79634485" lon="13.45410986">
        <ele>284.00000</ele>
        <time>2024-05-13T12:52:19Z</time>
      </trkpt>
      <trkpt lat="42.79618995" lon="13.45391993">
        <ele>284.00000</ele>
        <time>2024-05-13T12:52:22Z</time>
      </trkpt>
      <trkpt lat="42.79598996" lon="13.45366998">
        <ele>285.00000</ele>
        <time>2024-05-13T12:52:26Z</time>
      </trkpt>
      <trkpt lat="42.79589993" lon="13.45350997">
        <ele>284.00000</ele>
        <time>2024-05-13T12:52:29Z</time>
      </trkpt>
      <trkpt lat="42.79574998" lon="13.45327997">
        <ele>286.00000</ele>
        <time>2024-05-13T12:52:32Z</time>
      </trkpt>
      <trkpt lat="42.79563993" lon="13.45305995">
        <ele>290.00000</ele>
        <time>2024-05-13T12:52:36Z</time>
      </trkpt>
      <trkpt lat="42.79557991" lon="13.45288996">
        <ele>292.00000</ele>
        <time>2024-05-13T12:52:38Z</time>
      </trkpt>
      <trkpt lat="42.79549995" lon="13.45262995">
        <ele>292.00000</ele>
        <time>2024-05-13T12:52:41Z</time>
      </trkpt>
      <trkpt lat="42.79547992" lon="13.45246994">
        <ele>289.00000</ele>
        <time>2024-05-13T12:52:43Z</time>
      </trkpt>
      <trkpt lat="42.79543725" lon="13.45205144">
        <ele>284.00000</ele>
        <time>2024-05-13T12:52:48Z</time>
      </trkpt>
      <trkpt lat="42.79539467" lon="13.45163293">
        <ele>282.00000</ele>
        <time>2024-05-13T12:52:53Z</time>
      </trkpt>
      <trkpt lat="42.79535209" lon="13.45121450">
        <ele>282.00000</ele>
        <time>2024-05-13T12:52:58Z</time>
      </trkpt>
      <trkpt lat="42.79530993" lon="13.45079993">
        <ele>286.00000</ele>
        <time>2024-05-13T12:53:03Z</time>
      </trkpt>
      <trkpt lat="42.79526995" lon="13.45048997">
        <ele>286.00000</ele>
        <time>2024-05-13T12:53:07Z</time>
      </trkpt>
      <trkpt lat="42.79526995" lon="13.45046994">
        <ele>286.00000</ele>
        <time>2024-05-13T12:53:07Z</time>
      </trkpt>
      <trkpt lat="42.79524992" lon="13.45028998">
        <ele>286.00000</ele>
        <time>2024-05-13T12:53:09Z</time>
      </trkpt>
      <trkpt lat="42.79521999" lon="13.45003995">
        <ele>287.00000</ele>
        <time>2024-05-13T12:53:12Z</time>
      </trkpt>
      <trkpt lat="42.79517993" lon="13.44975999">
        <ele>288.00000</ele>
        <time>2024-05-13T12:53:15Z</time>
      </trkpt>
      <trkpt lat="42.79509996" lon="13.44953997">
        <ele>288.00000</ele>
        <time>2024-05-13T12:53:18Z</time>
      </trkpt>
      <trkpt lat="42.79495999" lon="13.44935992">
        <ele>287.00000</ele>
        <time>2024-05-13T12:53:21Z</time>
      </trkpt>
      <trkpt lat="42.79474994" lon="13.44923998">
        <ele>285.00000</ele>
        <time>2024-05-13T12:53:25Z</time>
      </trkpt>
      <trkpt lat="42.79463997" lon="13.44920997">
        <ele>285.00000</ele>
        <time>2024-05-13T12:53:27Z</time>
      </trkpt>
      <trkpt lat="42.79442681" lon="13.44916328">
        <ele>284.00000</ele>
        <time>2024-05-13T12:53:30Z</time>
      </trkpt>
      <trkpt lat="42.79421375" lon="13.44911668">
        <ele>283.00000</ele>
        <time>2024-05-13T12:53:34Z</time>
      </trkpt>
      <trkpt lat="42.79399992" lon="13.44906999">
        <ele>284.00000</ele>
        <time>2024-05-13T12:53:37Z</time>
      </trkpt>
      <trkpt lat="42.79371351" lon="13.44898005">
        <ele>287.00000</ele>
        <time>2024-05-13T12:53:42Z</time>
      </trkpt>
      <trkpt lat="42.79342719" lon="13.44889012">
        <ele>290.00000</ele>
        <time>2024-05-13T12:53:47Z</time>
      </trkpt>
      <trkpt lat="42.79313994" lon="13.44879993">
        <ele>293.00000</ele>
        <time>2024-05-13T12:53:51Z</time>
      </trkpt>
      <trkpt lat="42.79291673" lon="13.44868996">
        <ele>294.00000</ele>
        <time>2024-05-13T12:53:55Z</time>
      </trkpt>
      <trkpt lat="42.79269360" lon="13.44858007">
        <ele>296.00000</ele>
        <time>2024-05-13T12:53:59Z</time>
      </trkpt>
      <trkpt lat="42.79246998" lon="13.44846993">
        <ele>299.00000</ele>
        <time>2024-05-13T12:54:03Z</time>
      </trkpt>
      <trkpt lat="42.79227493" lon="13.44829995">
        <ele>300.00000</ele>
        <time>2024-05-13T12:54:06Z</time>
      </trkpt>
      <trkpt lat="42.79207997" lon="13.44812996">
        <ele>301.00000</ele>
        <time>2024-05-13T12:54:10Z</time>
      </trkpt>
      <trkpt lat="42.79196983" lon="13.44795478">
        <ele>300.00000</ele>
        <time>2024-05-13T12:54:13Z</time>
      </trkpt>
      <trkpt lat="42.79185994" lon="13.44777993">
        <ele>298.00000</ele>
        <time>2024-05-13T12:54:15Z</time>
      </trkpt>
      <trkpt lat="42.79177973" lon="13.44755454">
        <ele>298.00000</ele>
        <time>2024-05-13T12:54:18Z</time>
      </trkpt>
      <trkpt lat="42.79169993" lon="13.44732999">
        <ele>298.00000</ele>
        <time>2024-05-13T12:54:21Z</time>
      </trkpt>
      <trkpt lat="42.79164997" lon="13.44706999">
        <ele>298.00000</ele>
        <time>2024-05-13T12:54:25Z</time>
      </trkpt>
      <trkpt lat="42.79159993" lon="13.44677997">
        <ele>301.00000</ele>
        <time>2024-05-13T12:54:28Z</time>
      </trkpt>
      <trkpt lat="42.79155995" lon="13.44660999">
        <ele>305.00000</ele>
        <time>2024-05-13T12:54:30Z</time>
      </trkpt>
      <trkpt lat="42.79152994" lon="13.44635996">
        <ele>308.00000</ele>
        <time>2024-05-13T12:54:33Z</time>
      </trkpt>
      <trkpt lat="42.79153992" lon="13.44604999">
        <ele>308.00000</ele>
        <time>2024-05-13T12:54:37Z</time>
      </trkpt>
      <trkpt lat="42.79157998" lon="13.44570994">
        <ele>310.00000</ele>
        <time>2024-05-13T12:54:41Z</time>
      </trkpt>
      <trkpt lat="42.79165995" lon="13.44537994">
        <ele>313.00000</ele>
        <time>2024-05-13T12:54:45Z</time>
      </trkpt>
      <trkpt lat="42.79177512" lon="13.44505942">
        <ele>314.00000</ele>
        <time>2024-05-13T12:54:49Z</time>
      </trkpt>
      <trkpt lat="42.79188995" lon="13.44473998">
        <ele>316.00000</ele>
        <time>2024-05-13T12:54:53Z</time>
      </trkpt>
      <trkpt lat="42.79201006" lon="13.44442944">
        <ele>316.00000</ele>
        <time>2024-05-13T12:54:57Z</time>
      </trkpt>
      <trkpt lat="42.79212992" lon="13.44411998">
        <ele>317.00000</ele>
        <time>2024-05-13T12:55:02Z</time>
      </trkpt>
      <trkpt lat="42.79222506" lon="13.44387958">
        <ele>319.00000</ele>
        <time>2024-05-13T12:55:05Z</time>
      </trkpt>
      <trkpt lat="42.79231994" lon="13.44363994">
        <ele>319.00000</ele>
        <time>2024-05-13T12:55:08Z</time>
      </trkpt>
      <trkpt lat="42.79239001" lon="13.44342956">
        <ele>319.00000</ele>
        <time>2024-05-13T12:55:11Z</time>
      </trkpt>
      <trkpt lat="42.79245992" lon="13.44321993">
        <ele>318.00000</ele>
        <time>2024-05-13T12:55:13Z</time>
      </trkpt>
      <trkpt lat="42.79250996" lon="13.44293997">
        <ele>319.00000</ele>
        <time>2024-05-13T12:55:17Z</time>
      </trkpt>
      <trkpt lat="42.79254994" lon="13.44253999">
        <ele>325.00000</ele>
        <time>2024-05-13T12:55:22Z</time>
      </trkpt>
      <trkpt lat="42.79256997" lon="13.44220999">
        <ele>326.00000</ele>
        <time>2024-05-13T12:55:25Z</time>
      </trkpt>
      <trkpt lat="42.79256486" lon="13.44193926">
        <ele>326.00000</ele>
        <time>2024-05-13T12:55:29Z</time>
      </trkpt>
      <trkpt lat="42.79255991" lon="13.44166995">
        <ele>324.00000</ele>
        <time>2024-05-13T12:55:32Z</time>
      </trkpt>
      <trkpt lat="42.79253996" lon="13.44134992">
        <ele>326.00000</ele>
        <time>2024-05-13T12:55:36Z</time>
      </trkpt>
      <trkpt lat="42.79259998" lon="13.44100995">
        <ele>325.00000</ele>
        <time>2024-05-13T12:55:40Z</time>
      </trkpt>
      <trkpt lat="42.79264993" lon="13.44080996">
        <ele>325.00000</ele>
        <time>2024-05-13T12:55:42Z</time>
      </trkpt>
      <trkpt lat="42.79272998" lon="13.44063998">
        <ele>325.00000</ele>
        <time>2024-05-13T12:55:45Z</time>
      </trkpt>
      <trkpt lat="42.79282009" lon="13.44041459">
        <ele>326.00000</ele>
        <time>2024-05-13T12:55:48Z</time>
      </trkpt>
      <trkpt lat="42.79290994" lon="13.44018995">
        <ele>328.00000</ele>
        <time>2024-05-13T12:55:51Z</time>
      </trkpt>
      <trkpt lat="42.79309996" lon="13.43986993">
        <ele>329.00000</ele>
        <time>2024-05-13T12:55:55Z</time>
      </trkpt>
      <trkpt lat="42.79318998" lon="13.43974999">
        <ele>328.00000</ele>
        <time>2024-05-13T12:55:57Z</time>
      </trkpt>
      <trkpt lat="42.79329995" lon="13.43966994">
        <ele>326.00000</ele>
        <time>2024-05-13T12:55:59Z</time>
      </trkpt>
      <trkpt lat="42.79343993" lon="13.43959995">
        <ele>324.00000</ele>
        <time>2024-05-13T12:56:02Z</time>
      </trkpt>
      <trkpt lat="42.79363992" lon="13.43952996">
        <ele>321.00000</ele>
        <time>2024-05-13T12:56:05Z</time>
      </trkpt>
      <trkpt lat="42.79385995" lon="13.43939996">
        <ele>321.00000</ele>
        <time>2024-05-13T12:56:09Z</time>
      </trkpt>
      <trkpt lat="42.79405994" lon="13.43921991">
        <ele>323.00000</ele>
        <time>2024-05-13T12:56:13Z</time>
      </trkpt>
      <trkpt lat="42.79418500" lon="13.43905982">
        <ele>325.00000</ele>
        <time>2024-05-13T12:56:16Z</time>
      </trkpt>
      <trkpt lat="42.79430997" lon="13.43889998">
        <ele>327.00000</ele>
        <time>2024-05-13T12:56:18Z</time>
      </trkpt>
      <trkpt lat="42.79443997" lon="13.43871993">
        <ele>328.00000</ele>
        <time>2024-05-13T12:56:21Z</time>
      </trkpt>
      <trkpt lat="42.79448993" lon="13.43861994">
        <ele>327.00000</ele>
        <time>2024-05-13T12:56:23Z</time>
      </trkpt>
      <trkpt lat="42.79451994" lon="13.43853997">
        <ele>326.00000</ele>
        <time>2024-05-13T12:56:24Z</time>
      </trkpt>
      <trkpt lat="42.79451994" lon="13.43844995">
        <ele>325.00000</ele>
        <time>2024-05-13T12:56:25Z</time>
      </trkpt>
      <trkpt lat="42.79451994" lon="13.43836999">
        <ele>325.00000</ele>
        <time>2024-05-13T12:56:26Z</time>
      </trkpt>
      <trkpt lat="42.79449999" lon="13.43827997">
        <ele>325.00000</ele>
        <time>2024-05-13T12:56:27Z</time>
      </trkpt>
      <trkpt lat="42.79446998" lon="13.43820998">
        <ele>325.00000</ele>
        <time>2024-05-13T12:56:28Z</time>
      </trkpt>
      <trkpt lat="42.79441994" lon="13.43812993">
        <ele>325.00000</ele>
        <time>2024-05-13T12:56:29Z</time>
      </trkpt>
      <trkpt lat="42.79425993" lon="13.43797998">
        <ele>327.00000</ele>
        <time>2024-05-13T12:56:32Z</time>
      </trkpt>
      <trkpt lat="42.79411484" lon="13.43780983">
        <ele>327.00000</ele>
        <time>2024-05-13T12:56:35Z</time>
      </trkpt>
      <trkpt lat="42.79396992" lon="13.43763993">
        <ele>328.00000</ele>
        <time>2024-05-13T12:56:38Z</time>
      </trkpt>
      <trkpt lat="42.79381485" lon="13.43748486">
        <ele>328.00000</ele>
        <time>2024-05-13T12:56:41Z</time>
      </trkpt>
      <trkpt lat="42.79365995" lon="13.43732996">
        <ele>327.00000</ele>
        <time>2024-05-13T12:56:44Z</time>
      </trkpt>
      <trkpt lat="42.79362995" lon="13.43729996">
        <ele>327.00000</ele>
        <time>2024-05-13T12:56:45Z</time>
      </trkpt>
      <trkpt lat="42.79342995" lon="13.43712997">
        <ele>327.00000</ele>
        <time>2024-05-13T12:56:49Z</time>
      </trkpt>
      <trkpt lat="42.79328998" lon="13.43704992">
        <ele>327.00000</ele>
        <time>2024-05-13T12:56:51Z</time>
      </trkpt>
      <trkpt lat="42.79317992" lon="13.43703995">
        <ele>327.00000</ele>
        <time>2024-05-13T12:56:53Z</time>
      </trkpt>
      <trkpt lat="42.79298010" lon="13.43713316">
        <ele>330.00000</ele>
        <time>2024-05-13T12:56:56Z</time>
      </trkpt>
      <trkpt lat="42.79278027" lon="13.43722645">
        <ele>331.00000</ele>
        <time>2024-05-13T12:57:00Z</time>
      </trkpt>
      <trkpt lat="42.79257995" lon="13.43731999">
        <ele>331.00000</ele>
        <time>2024-05-13T12:57:03Z</time>
      </trkpt>
      <trkpt lat="42.79231994" lon="13.43746994">
        <ele>333.00000</ele>
        <time>2024-05-13T12:57:08Z</time>
      </trkpt>
      <trkpt lat="42.79227996" lon="13.43748997">
        <ele>333.00000</ele>
        <time>2024-05-13T12:57:08Z</time>
      </trkpt>
      <trkpt lat="42.79199992" lon="13.43764998">
        <ele>335.00000</ele>
        <time>2024-05-13T12:57:13Z</time>
      </trkpt>
      <trkpt lat="42.79176011" lon="13.43777479">
        <ele>335.00000</ele>
        <time>2024-05-13T12:57:17Z</time>
      </trkpt>
      <trkpt lat="42.79151997" lon="13.43789993">
        <ele>336.00000</ele>
        <time>2024-05-13T12:57:21Z</time>
      </trkpt>
      <trkpt lat="42.79139994" lon="13.43790999">
        <ele>335.00000</ele>
        <time>2024-05-13T12:57:23Z</time>
      </trkpt>
      <trkpt lat="42.79137999" lon="13.43790999">
        <ele>335.00000</ele>
        <time>2024-05-13T12:57:24Z</time>
      </trkpt>
      <trkpt lat="42.79132995" lon="13.43791997">
        <ele>336.00000</ele>
        <time>2024-05-13T12:57:25Z</time>
      </trkpt>
      <trkpt lat="42.79123993" lon="13.43791997">
        <ele>337.00000</ele>
        <time>2024-05-13T12:57:26Z</time>
      </trkpt>
      <trkpt lat="42.79120992" lon="13.43791997">
        <ele>337.00000</ele>
        <time>2024-05-13T12:57:26Z</time>
      </trkpt>
      <trkpt lat="42.79106995" lon="13.43789993">
        <ele>338.00000</ele>
        <time>2024-05-13T12:57:29Z</time>
      </trkpt>
      <trkpt lat="42.79080994" lon="13.43780991">
        <ele>340.00000</ele>
        <time>2024-05-13T12:57:33Z</time>
      </trkpt>
      <trkpt lat="42.79059997" lon="13.43762995">
        <ele>344.00000</ele>
        <time>2024-05-13T12:57:37Z</time>
      </trkpt>
      <trkpt lat="42.79049998" lon="13.43745997">
        <ele>345.00000</ele>
        <time>2024-05-13T12:57:40Z</time>
      </trkpt>
      <trkpt lat="42.79044994" lon="13.43727992">
        <ele>345.00000</ele>
        <time>2024-05-13T12:57:42Z</time>
      </trkpt>
      <trkpt lat="42.79044994" lon="13.43710994">
        <ele>344.00000</ele>
        <time>2024-05-13T12:57:44Z</time>
      </trkpt>
      <trkpt lat="42.79047994" lon="13.43682998">
        <ele>343.00000</ele>
        <time>2024-05-13T12:57:47Z</time>
      </trkpt>
      <trkpt lat="42.79052998" lon="13.43657936">
        <ele>343.00000</ele>
        <time>2024-05-13T12:57:50Z</time>
      </trkpt>
      <trkpt lat="42.79057994" lon="13.43632992">
        <ele>344.00000</ele>
        <time>2024-05-13T12:57:53Z</time>
      </trkpt>
      <trkpt lat="42.79063995" lon="13.43603999">
        <ele>345.00000</ele>
        <time>2024-05-13T12:57:57Z</time>
      </trkpt>
      <trkpt lat="42.79069997" lon="13.43575995">
        <ele>344.00000</ele>
        <time>2024-05-13T12:58:00Z</time>
      </trkpt>
      <trkpt lat="42.79077004" lon="13.43539416">
        <ele>343.00000</ele>
        <time>2024-05-13T12:58:05Z</time>
      </trkpt>
      <trkpt lat="42.79083995" lon="13.43502997">
        <ele>343.00000</ele>
        <time>2024-05-13T12:58:09Z</time>
      </trkpt>
      <trkpt lat="42.79090759" lon="13.43467667">
        <ele>345.00000</ele>
        <time>2024-05-13T12:58:13Z</time>
      </trkpt>
      <trkpt lat="42.79097523" lon="13.43432337">
        <ele>346.00000</ele>
        <time>2024-05-13T12:58:18Z</time>
      </trkpt>
      <trkpt lat="42.79104287" lon="13.43397016">
        <ele>347.00000</ele>
        <time>2024-05-13T12:58:22Z</time>
      </trkpt>
      <trkpt lat="42.79110993" lon="13.43361997">
        <ele>347.00000</ele>
        <time>2024-05-13T12:58:26Z</time>
      </trkpt>
      <trkpt lat="42.79123012" lon="13.43325929">
        <ele>345.00000</ele>
        <time>2024-05-13T12:58:31Z</time>
      </trkpt>
      <trkpt lat="42.79134999" lon="13.43289996">
        <ele>343.00000</ele>
        <time>2024-05-13T12:58:36Z</time>
      </trkpt>
      <trkpt lat="42.79148510" lon="13.43258447">
        <ele>344.00000</ele>
        <time>2024-05-13T12:58:40Z</time>
      </trkpt>
      <trkpt lat="42.79161997" lon="13.43226998">
        <ele>345.00000</ele>
        <time>2024-05-13T12:58:44Z</time>
      </trkpt>
      <trkpt lat="42.79175994" lon="13.43199991">
        <ele>345.00000</ele>
        <time>2024-05-13T12:58:48Z</time>
      </trkpt>
      <trkpt lat="42.79183999" lon="13.43180461">
        <ele>345.00000</ele>
        <time>2024-05-13T12:58:51Z</time>
      </trkpt>
      <trkpt lat="42.79191995" lon="13.43160999">
        <ele>345.00000</ele>
        <time>2024-05-13T12:58:53Z</time>
      </trkpt>
      <trkpt lat="42.79198994" lon="13.43139993">
        <ele>346.00000</ele>
        <time>2024-05-13T12:58:56Z</time>
      </trkpt>
      <trkpt lat="42.79202993" lon="13.43120992">
        <ele>347.00000</ele>
        <time>2024-05-13T12:58:58Z</time>
      </trkpt>
      <trkpt lat="42.79204996" lon="13.43078998">
        <ele>348.00000</ele>
        <time>2024-05-13T12:59:03Z</time>
      </trkpt>
      <trkpt lat="42.79203998" lon="13.43043996">
        <ele>351.00000</ele>
        <time>2024-05-13T12:59:07Z</time>
      </trkpt>
      <trkpt lat="42.79203998" lon="13.43018992">
        <ele>352.00000</ele>
        <time>2024-05-13T12:59:10Z</time>
      </trkpt>
      <trkpt lat="42.79201987" lon="13.42986412">
        <ele>353.00000</ele>
        <time>2024-05-13T12:59:14Z</time>
      </trkpt>
      <trkpt lat="42.79199992" lon="13.42953999">
        <ele>354.00000</ele>
        <time>2024-05-13T12:59:18Z</time>
      </trkpt>
      <trkpt lat="42.79198651" lon="13.42917571">
        <ele>354.00000</ele>
        <time>2024-05-13T12:59:22Z</time>
      </trkpt>
      <trkpt lat="42.79197318" lon="13.42881152">
        <ele>354.00000</ele>
        <time>2024-05-13T12:59:27Z</time>
      </trkpt>
      <trkpt lat="42.79195994" lon="13.42844992">
        <ele>354.00000</ele>
        <time>2024-05-13T12:59:31Z</time>
      </trkpt>
      <trkpt lat="42.79195491" lon="13.42823434">
        <ele>354.00000</ele>
        <time>2024-05-13T12:59:33Z</time>
      </trkpt>
      <trkpt lat="42.79194996" lon="13.42801993">
        <ele>354.00000</ele>
        <time>2024-05-13T12:59:36Z</time>
      </trkpt>
      <trkpt lat="42.79194996" lon="13.42790996">
        <ele>355.00000</ele>
        <time>2024-05-13T12:59:37Z</time>
      </trkpt>
      <trkpt lat="42.79190998" lon="13.42758994">
        <ele>356.00000</ele>
        <time>2024-05-13T12:59:41Z</time>
      </trkpt>
      <trkpt lat="42.79184997" lon="13.42734997">
        <ele>356.00000</ele>
        <time>2024-05-13T12:59:44Z</time>
      </trkpt>
      <trkpt lat="42.79179993" lon="13.42724997">
        <ele>356.00000</ele>
        <time>2024-05-13T12:59:46Z</time>
      </trkpt>
      <trkpt lat="42.79169993" lon="13.42709993">
        <ele>355.00000</ele>
        <time>2024-05-13T12:59:48Z</time>
      </trkpt>
      <trkpt lat="42.79157998" lon="13.42698996">
        <ele>354.00000</ele>
        <time>2024-05-13T12:59:50Z</time>
      </trkpt>
      <trkpt lat="42.79148996" lon="13.42688997">
        <ele>353.00000</ele>
        <time>2024-05-13T12:59:52Z</time>
      </trkpt>
      <trkpt lat="42.79135996" lon="13.42677991">
        <ele>351.00000</ele>
        <time>2024-05-13T12:59:55Z</time>
      </trkpt>
      <trkpt lat="42.79109995" lon="13.42656995">
        <ele>351.00000</ele>
        <time>2024-05-13T12:59:59Z</time>
      </trkpt>
      <trkpt lat="42.79099996" lon="13.42649996">
        <ele>352.00000</ele>
        <time>2024-05-13T13:00:01Z</time>
      </trkpt>
      <trkpt lat="42.79090994" lon="13.42646995">
        <ele>353.00000</ele>
        <time>2024-05-13T13:00:03Z</time>
      </trkpt>
      <trkpt lat="42.79081991" lon="13.42644992">
        <ele>354.00000</ele>
        <time>2024-05-13T13:00:04Z</time>
      </trkpt>
      <trkpt lat="42.79065999" lon="13.42643994">
        <ele>356.00000</ele>
        <time>2024-05-13T13:00:07Z</time>
      </trkpt>
      <trkpt lat="42.79039998" lon="13.42640994">
        <ele>358.00000</ele>
        <time>2024-05-13T13:00:11Z</time>
      </trkpt>
      <trkpt lat="42.79017996" lon="13.42637993">
        <ele>359.00000</ele>
        <time>2024-05-13T13:00:14Z</time>
      </trkpt>
      <trkpt lat="42.79006998" lon="13.42639996">
        <ele>361.00000</ele>
        <time>2024-05-13T13:00:16Z</time>
      </trkpt>
      <trkpt lat="42.78989514" lon="13.42644983">
        <ele>363.00000</ele>
        <time>2024-05-13T13:00:19Z</time>
      </trkpt>
      <trkpt lat="42.78971996" lon="13.42649996">
        <ele>365.00000</ele>
        <time>2024-05-13T13:00:22Z</time>
      </trkpt>
      <trkpt lat="42.78954511" lon="13.42655486">
        <ele>365.00000</ele>
        <time>2024-05-13T13:00:25Z</time>
      </trkpt>
      <trkpt lat="42.78936993" lon="13.42660993">
        <ele>365.00000</ele>
        <time>2024-05-13T13:00:28Z</time>
      </trkpt>
      <trkpt lat="42.78918997" lon="13.42665997">
        <ele>365.00000</ele>
        <time>2024-05-13T13:00:31Z</time>
      </trkpt>
      <trkpt lat="42.78888772" lon="13.42675737">
        <ele>365.00000</ele>
        <time>2024-05-13T13:00:36Z</time>
      </trkpt>
      <trkpt lat="42.78858555" lon="13.42685476">
        <ele>367.00000</ele>
        <time>2024-05-13T13:00:40Z</time>
      </trkpt>
      <trkpt lat="42.78828338" lon="13.42695216">
        <ele>370.00000</ele>
        <time>2024-05-13T13:00:45Z</time>
      </trkpt>
      <trkpt lat="42.78797996" lon="13.42704998">
        <ele>371.00000</ele>
        <time>2024-05-13T13:00:50Z</time>
      </trkpt>
      <trkpt lat="42.78777016" lon="13.42711988">
        <ele>372.00000</ele>
        <time>2024-05-13T13:00:54Z</time>
      </trkpt>
      <trkpt lat="42.78756036" lon="13.42718979">
        <ele>374.00000</ele>
        <time>2024-05-13T13:00:57Z</time>
      </trkpt>
      <trkpt lat="42.78734997" lon="13.42725994">
        <ele>375.00000</ele>
        <time>2024-05-13T13:01:01Z</time>
      </trkpt>
      <trkpt lat="42.78722994" lon="13.42729993">
        <ele>375.00000</ele>
        <time>2024-05-13T13:01:03Z</time>
      </trkpt>
      <trkpt lat="42.78707999" lon="13.42733999">
        <ele>376.00000</ele>
        <time>2024-05-13T13:01:05Z</time>
      </trkpt>
      <trkpt lat="42.78692996" lon="13.42734997">
        <ele>376.00000</ele>
        <time>2024-05-13T13:01:08Z</time>
      </trkpt>
      <trkpt lat="42.78680993" lon="13.42730998">
        <ele>376.00000</ele>
        <time>2024-05-13T13:01:10Z</time>
      </trkpt>
      <trkpt lat="42.78669996" lon="13.42725994">
        <ele>376.00000</ele>
        <time>2024-05-13T13:01:11Z</time>
      </trkpt>
      <trkpt lat="42.78647993" lon="13.42702986">
        <ele>376.00000</ele>
        <time>2024-05-13T13:01:16Z</time>
      </trkpt>
      <trkpt lat="42.78625991" lon="13.42679986">
        <ele>376.00000</ele>
        <time>2024-05-13T13:01:20Z</time>
      </trkpt>
      <trkpt lat="42.78603997" lon="13.42656995">
        <ele>377.00000</ele>
        <time>2024-05-13T13:01:25Z</time>
      </trkpt>
      <trkpt lat="42.78584651" lon="13.42635990">
        <ele>378.00000</ele>
        <time>2024-05-13T13:01:29Z</time>
      </trkpt>
      <trkpt lat="42.78565314" lon="13.42614985">
        <ele>378.00000</ele>
        <time>2024-05-13T13:01:33Z</time>
      </trkpt>
      <trkpt lat="42.78545994" lon="13.42593996">
        <ele>379.00000</ele>
        <time>2024-05-13T13:01:37Z</time>
      </trkpt>
      <trkpt lat="42.78521996" lon="13.42568993">
        <ele>379.00000</ele>
        <time>2024-05-13T13:01:42Z</time>
      </trkpt>
      <trkpt lat="42.78516992" lon="13.42563997">
        <ele>379.00000</ele>
        <time>2024-05-13T13:01:43Z</time>
      </trkpt>
      <trkpt lat="42.78491998" lon="13.42540998">
        <ele>381.00000</ele>
        <time>2024-05-13T13:01:47Z</time>
      </trkpt>
      <trkpt lat="42.78480992" lon="13.42534996">
        <ele>382.00000</ele>
        <time>2024-05-13T13:01:49Z</time>
      </trkpt>
      <trkpt lat="42.78468998" lon="13.42531995">
        <ele>384.00000</ele>
        <time>2024-05-13T13:01:51Z</time>
      </trkpt>
      <trkpt lat="42.78455997" lon="13.42528995">
        <ele>384.00000</ele>
        <time>2024-05-13T13:01:53Z</time>
      </trkpt>
      <trkpt lat="42.78439996" lon="13.42529992">
        <ele>384.00000</ele>
        <time>2024-05-13T13:01:56Z</time>
      </trkpt>
      <trkpt lat="42.78418991" lon="13.42532993">
        <ele>384.00000</ele>
        <time>2024-05-13T13:01:59Z</time>
      </trkpt>
      <trkpt lat="42.78413996" lon="13.42533999">
        <ele>384.00000</ele>
        <time>2024-05-13T13:02:00Z</time>
      </trkpt>
      <trkpt lat="42.78393996" lon="13.42535994">
        <ele>384.00000</ele>
        <time>2024-05-13T13:02:03Z</time>
      </trkpt>
      <trkpt lat="42.78376998" lon="13.42535994">
        <ele>384.00000</ele>
        <time>2024-05-13T13:02:06Z</time>
      </trkpt>
      <trkpt lat="42.78357996" lon="13.42534996">
        <ele>385.00000</ele>
        <time>2024-05-13T13:02:09Z</time>
      </trkpt>
      <trkpt lat="42.78353998" lon="13.42532993">
        <ele>385.00000</ele>
        <time>2024-05-13T13:02:10Z</time>
      </trkpt>
      <trkpt lat="42.78341995" lon="13.42528995">
        <ele>385.00000</ele>
        <time>2024-05-13T13:02:12Z</time>
      </trkpt>
      <trkpt lat="42.78327997" lon="13.42520998">
        <ele>384.00000</ele>
        <time>2024-05-13T13:02:14Z</time>
      </trkpt>
      <trkpt lat="42.78318995" lon="13.42515994">
        <ele>384.00000</ele>
        <time>2024-05-13T13:02:16Z</time>
      </trkpt>
      <trkpt lat="42.78309993" lon="13.42506992">
        <ele>384.00000</ele>
        <time>2024-05-13T13:02:17Z</time>
      </trkpt>
      <trkpt lat="42.78308995" lon="13.42505995">
        <ele>384.00000</ele>
        <time>2024-05-13T13:02:18Z</time>
      </trkpt>
      <trkpt lat="42.78292994" lon="13.42486993">
        <ele>384.00000</ele>
        <time>2024-05-13T13:02:21Z</time>
      </trkpt>
      <trkpt lat="42.78278997" lon="13.42466994">
        <ele>384.00000</ele>
        <time>2024-05-13T13:02:24Z</time>
      </trkpt>
      <trkpt lat="42.78259995" lon="13.42437992">
        <ele>386.00000</ele>
        <time>2024-05-13T13:02:29Z</time>
      </trkpt>
      <trkpt lat="42.78254999" lon="13.42431999">
        <ele>386.00000</ele>
        <time>2024-05-13T13:02:30Z</time>
      </trkpt>
      <trkpt lat="42.78240482" lon="13.42404959">
        <ele>388.00000</ele>
        <time>2024-05-13T13:02:34Z</time>
      </trkpt>
      <trkpt lat="42.78225998" lon="13.42377995">
        <ele>392.00000</ele>
        <time>2024-05-13T13:02:38Z</time>
      </trkpt>
      <trkpt lat="42.78223995" lon="13.42371993">
        <ele>393.00000</ele>
        <time>2024-05-13T13:02:39Z</time>
      </trkpt>
      <trkpt lat="42.78223995" lon="13.42370996">
        <ele>393.00000</ele>
        <time>2024-05-13T13:02:39Z</time>
      </trkpt>
      <trkpt lat="42.78222997" lon="13.42352991">
        <ele>394.00000</ele>
        <time>2024-05-13T13:02:41Z</time>
      </trkpt>
      <trkpt lat="42.78225998" lon="13.42343998">
        <ele>393.00000</ele>
        <time>2024-05-13T13:02:42Z</time>
      </trkpt>
      <trkpt lat="42.78229996" lon="13.42334995">
        <ele>391.00000</ele>
        <time>2024-05-13T13:02:43Z</time>
      </trkpt>
      <trkpt lat="42.78233994" lon="13.42326999">
        <ele>390.00000</ele>
        <time>2024-05-13T13:02:44Z</time>
      </trkpt>
      <trkpt lat="42.78235998" lon="13.42321995">
        <ele>390.00000</ele>
        <time>2024-05-13T13:02:45Z</time>
      </trkpt>
      <trkpt lat="42.78243994" lon="13.42304997">
        <ele>389.00000</ele>
        <time>2024-05-13T13:02:47Z</time>
      </trkpt>
      <trkpt lat="42.78255008" lon="13.42280454">
        <ele>389.00000</ele>
        <time>2024-05-13T13:02:51Z</time>
      </trkpt>
      <trkpt lat="42.78265996" lon="13.42255996">
        <ele>388.00000</ele>
        <time>2024-05-13T13:02:54Z</time>
      </trkpt>
      <trkpt lat="42.78269995" lon="13.42249995">
        <ele>387.00000</ele>
        <time>2024-05-13T13:02:55Z</time>
      </trkpt>
      <trkpt lat="42.78277999" lon="13.42233994">
        <ele>383.00000</ele>
        <time>2024-05-13T13:02:57Z</time>
      </trkpt>
      <trkpt lat="42.78287999" lon="13.42215998">
        <ele>380.00000</ele>
        <time>2024-05-13T13:03:00Z</time>
      </trkpt>
      <trkpt lat="42.78290991" lon="13.42208999">
        <ele>379.00000</ele>
        <time>2024-05-13T13:03:01Z</time>
      </trkpt>
      <trkpt lat="42.78281997" lon="13.42187994">
        <ele>382.00000</ele>
        <time>2024-05-13T13:03:04Z</time>
      </trkpt>
      <trkpt lat="42.78269978" lon="13.42157609">
        <ele>386.00000</ele>
        <time>2024-05-13T13:03:08Z</time>
      </trkpt>
      <trkpt lat="42.78257958" lon="13.42127225">
        <ele>389.00000</ele>
        <time>2024-05-13T13:03:12Z</time>
      </trkpt>
      <trkpt lat="42.78245997" lon="13.42096991">
        <ele>391.00000</ele>
        <time>2024-05-13T13:03:16Z</time>
      </trkpt>
      <trkpt lat="42.78233223" lon="13.42063430">
        <ele>392.00000</ele>
        <time>2024-05-13T13:03:20Z</time>
      </trkpt>
      <trkpt lat="42.78220449" lon="13.42029877">
        <ele>392.00000</ele>
        <time>2024-05-13T13:03:25Z</time>
      </trkpt>
      <trkpt lat="42.78207675" lon="13.41996333">
        <ele>393.00000</ele>
        <time>2024-05-13T13:03:29Z</time>
      </trkpt>
      <trkpt lat="42.78194993" lon="13.41962998">
        <ele>395.00000</ele>
        <time>2024-05-13T13:03:34Z</time>
      </trkpt>
      <trkpt lat="42.78190995" lon="13.41950995">
        <ele>395.00000</ele>
        <time>2024-05-13T13:03:35Z</time>
      </trkpt>
      <trkpt lat="42.78177995" lon="13.41921994">
        <ele>396.00000</ele>
        <time>2024-05-13T13:03:39Z</time>
      </trkpt>
      <trkpt lat="42.78170996" lon="13.41909999">
        <ele>397.00000</ele>
        <time>2024-05-13T13:03:41Z</time>
      </trkpt>
      <trkpt lat="42.78167995" lon="13.41904995">
        <ele>397.00000</ele>
        <time>2024-05-13T13:03:42Z</time>
      </trkpt>
      <trkpt lat="42.78166998" lon="13.41901995">
        <ele>397.00000</ele>
        <time>2024-05-13T13:03:42Z</time>
      </trkpt>
      <trkpt lat="42.78163997" lon="13.41900997">
        <ele>396.00000</ele>
        <time>2024-05-13T13:03:43Z</time>
      </trkpt>
      <trkpt lat="42.78160996" lon="13.41899991">
        <ele>396.00000</ele>
        <time>2024-05-13T13:03:43Z</time>
      </trkpt>
      <trkpt lat="42.78155992" lon="13.41901995">
        <ele>396.00000</ele>
        <time>2024-05-13T13:03:44Z</time>
      </trkpt>
      <trkpt lat="42.78144995" lon="13.41911994">
        <ele>395.00000</ele>
        <time>2024-05-13T13:03:46Z</time>
      </trkpt>
      <trkpt lat="42.78142992" lon="13.41913998">
        <ele>395.00000</ele>
        <time>2024-05-13T13:03:47Z</time>
      </trkpt>
      <trkpt lat="42.78138994" lon="13.41918993">
        <ele>395.00000</ele>
        <time>2024-05-13T13:03:48Z</time>
      </trkpt>
      <trkpt lat="42.78134996" lon="13.41926998">
        <ele>395.00000</ele>
        <time>2024-05-13T13:03:49Z</time>
      </trkpt>
      <trkpt lat="42.78131995" lon="13.41933997">
        <ele>395.00000</ele>
        <time>2024-05-13T13:03:50Z</time>
      </trkpt>
      <trkpt lat="42.78129992" lon="13.41936998">
        <ele>395.00000</ele>
        <time>2024-05-13T13:03:50Z</time>
      </trkpt>
      <trkpt lat="42.78125993" lon="13.41944994">
        <ele>396.00000</ele>
        <time>2024-05-13T13:03:51Z</time>
      </trkpt>
      <trkpt lat="42.78121995" lon="13.41948992">
        <ele>397.00000</ele>
        <time>2024-05-13T13:03:52Z</time>
      </trkpt>
      <trkpt lat="42.78116991" lon="13.41953996">
        <ele>398.00000</ele>
        <time>2024-05-13T13:03:53Z</time>
      </trkpt>
      <trkpt lat="42.78113999" lon="13.41955999">
        <ele>399.00000</ele>
        <time>2024-05-13T13:03:54Z</time>
      </trkpt>
      <trkpt lat="42.78109992" lon="13.41957994">
        <ele>400.00000</ele>
        <time>2024-05-13T13:03:54Z</time>
      </trkpt>
      <trkpt lat="42.78104997" lon="13.41958992">
        <ele>402.00000</ele>
        <time>2024-05-13T13:03:55Z</time>
      </trkpt>
      <trkpt lat="42.78099993" lon="13.41949998">
        <ele>401.00000</ele>
        <time>2024-05-13T13:03:56Z</time>
      </trkpt>
      <trkpt lat="42.78095995" lon="13.41939998">
        <ele>401.00000</ele>
        <time>2024-05-13T13:03:58Z</time>
      </trkpt>
      <trkpt lat="42.78087998" lon="13.41922991">
        <ele>399.00000</ele>
        <time>2024-05-13T13:04:00Z</time>
      </trkpt>
      <trkpt lat="42.78071997" lon="13.41903998">
        <ele>399.00000</ele>
        <time>2024-05-13T13:04:03Z</time>
      </trkpt>
      <trkpt lat="42.78051998" lon="13.41885994">
        <ele>398.00000</ele>
        <time>2024-05-13T13:04:07Z</time>
      </trkpt>
      <trkpt lat="42.78043993" lon="13.41880998">
        <ele>399.00000</ele>
        <time>2024-05-13T13:04:09Z</time>
      </trkpt>
      <trkpt lat="42.78034999" lon="13.41876992">
        <ele>399.00000</ele>
        <time>2024-05-13T13:04:10Z</time>
      </trkpt>
      <trkpt lat="42.78027992" lon="13.41873999">
        <ele>399.00000</ele>
        <time>2024-05-13T13:04:11Z</time>
      </trkpt>
      <trkpt lat="42.78007993" lon="13.41865994">
        <ele>403.00000</ele>
        <time>2024-05-13T13:04:15Z</time>
      </trkpt>
      <trkpt lat="42.77991992" lon="13.41855995">
        <ele>405.00000</ele>
        <time>2024-05-13T13:04:18Z</time>
      </trkpt>
      <trkpt lat="42.77975496" lon="13.41843497">
        <ele>405.00000</ele>
        <time>2024-05-13T13:04:21Z</time>
      </trkpt>
      <trkpt lat="42.77958992" lon="13.41830992">
        <ele>405.00000</ele>
        <time>2024-05-13T13:04:24Z</time>
      </trkpt>
      <trkpt lat="42.77940996" lon="13.41814999">
        <ele>404.00000</ele>
        <time>2024-05-13T13:04:27Z</time>
      </trkpt>
      <trkpt lat="42.77921995" lon="13.41793994">
        <ele>404.00000</ele>
        <time>2024-05-13T13:04:31Z</time>
      </trkpt>
      <trkpt lat="42.77904979" lon="13.41768974">
        <ele>403.00000</ele>
        <time>2024-05-13T13:04:35Z</time>
      </trkpt>
      <trkpt lat="42.77887998" lon="13.41743996">
        <ele>404.00000</ele>
        <time>2024-05-13T13:04:39Z</time>
      </trkpt>
      <trkpt lat="42.77869993" lon="13.41709999">
        <ele>403.00000</ele>
        <time>2024-05-13T13:04:44Z</time>
      </trkpt>
      <trkpt lat="42.77855996" lon="13.41684996">
        <ele>405.00000</ele>
        <time>2024-05-13T13:04:48Z</time>
      </trkpt>
      <trkpt lat="42.77844982" lon="13.41669481">
        <ele>408.00000</ele>
        <time>2024-05-13T13:04:50Z</time>
      </trkpt>
      <trkpt lat="42.77833993" lon="13.41653999">
        <ele>410.00000</ele>
        <time>2024-05-13T13:04:53Z</time>
      </trkpt>
      <trkpt lat="42.77812996" lon="13.41623992">
        <ele>410.00000</ele>
        <time>2024-05-13T13:04:58Z</time>
      </trkpt>
      <trkpt lat="42.77799996" lon="13.41611998">
        <ele>410.00000</ele>
        <time>2024-05-13T13:05:00Z</time>
      </trkpt>
      <trkpt lat="42.77784490" lon="13.41596994">
        <ele>408.00000</ele>
        <time>2024-05-13T13:05:03Z</time>
      </trkpt>
      <trkpt lat="42.77768991" lon="13.41581999">
        <ele>406.00000</ele>
        <time>2024-05-13T13:05:06Z</time>
      </trkpt>
      <trkpt lat="42.77749998" lon="13.41561991">
        <ele>406.00000</ele>
        <time>2024-05-13T13:05:10Z</time>
      </trkpt>
      <trkpt lat="42.77729999" lon="13.41545999">
        <ele>408.00000</ele>
        <time>2024-05-13T13:05:14Z</time>
      </trkpt>
      <trkpt lat="42.77705993" lon="13.41533996">
        <ele>410.00000</ele>
        <time>2024-05-13T13:05:18Z</time>
      </trkpt>
      <trkpt lat="42.77691995" lon="13.41528992">
        <ele>411.00000</ele>
        <time>2024-05-13T13:05:20Z</time>
      </trkpt>
      <trkpt lat="42.77674008" lon="13.41521498">
        <ele>410.00000</ele>
        <time>2024-05-13T13:05:23Z</time>
      </trkpt>
      <trkpt lat="42.77655995" lon="13.41513996">
        <ele>410.00000</ele>
        <time>2024-05-13T13:05:26Z</time>
      </trkpt>
      <trkpt lat="42.77637010" lon="13.41507500">
        <ele>410.00000</ele>
        <time>2024-05-13T13:05:29Z</time>
      </trkpt>
      <trkpt lat="42.77617991" lon="13.41500996">
        <ele>414.00000</ele>
        <time>2024-05-13T13:05:32Z</time>
      </trkpt>
      <trkpt lat="42.77591999" lon="13.41491994">
        <ele>419.00000</ele>
        <time>2024-05-13T13:05:37Z</time>
      </trkpt>
      <trkpt lat="42.77570994" lon="13.41483998">
        <ele>417.00000</ele>
        <time>2024-05-13T13:05:40Z</time>
      </trkpt>
      <trkpt lat="42.77554993" lon="13.41476999">
        <ele>418.00000</ele>
        <time>2024-05-13T13:05:43Z</time>
      </trkpt>
      <trkpt lat="42.77541993" lon="13.41466999">
        <ele>416.00000</ele>
        <time>2024-05-13T13:05:45Z</time>
      </trkpt>
      <trkpt lat="42.77530996" lon="13.41457997">
        <ele>414.00000</ele>
        <time>2024-05-13T13:05:47Z</time>
      </trkpt>
      <trkpt lat="42.77512991" lon="13.41441996">
        <ele>413.00000</ele>
        <time>2024-05-13T13:05:51Z</time>
      </trkpt>
      <trkpt lat="42.77495993" lon="13.41425995">
        <ele>417.00000</ele>
        <time>2024-05-13T13:05:54Z</time>
      </trkpt>
      <trkpt lat="42.77476999" lon="13.41398997">
        <ele>421.00000</ele>
        <time>2024-05-13T13:05:58Z</time>
      </trkpt>
      <trkpt lat="42.77467478" lon="13.41378461">
        <ele>421.00000</ele>
        <time>2024-05-13T13:06:01Z</time>
      </trkpt>
      <trkpt lat="42.77457998" lon="13.41357992">
        <ele>421.00000</ele>
        <time>2024-05-13T13:06:04Z</time>
      </trkpt>
      <trkpt lat="42.77447998" lon="13.41327994">
        <ele>417.00000</ele>
        <time>2024-05-13T13:06:08Z</time>
      </trkpt>
      <trkpt lat="42.77442994" lon="13.41311993">
        <ele>412.00000</ele>
        <time>2024-05-13T13:06:10Z</time>
      </trkpt>
      <trkpt lat="42.77434998" lon="13.41290996">
        <ele>405.00000</ele>
        <time>2024-05-13T13:06:13Z</time>
      </trkpt>
      <trkpt lat="42.77423992" lon="13.41272992">
        <ele>405.00000</ele>
        <time>2024-05-13T13:06:16Z</time>
      </trkpt>
      <trkpt lat="42.77407991" lon="13.41255993">
        <ele>408.00000</ele>
        <time>2024-05-13T13:06:19Z</time>
      </trkpt>
      <trkpt lat="42.77382996" lon="13.41241995">
        <ele>415.00000</ele>
        <time>2024-05-13T13:06:23Z</time>
      </trkpt>
      <trkpt lat="42.77365998" lon="13.41234996">
        <ele>418.00000</ele>
        <time>2024-05-13T13:06:26Z</time>
      </trkpt>
      <trkpt lat="42.77356996" lon="13.41231996">
        <ele>418.00000</ele>
        <time>2024-05-13T13:06:28Z</time>
      </trkpt>
      <trkpt lat="42.77344993" lon="13.41225994">
        <ele>416.00000</ele>
        <time>2024-05-13T13:06:30Z</time>
      </trkpt>
      <trkpt lat="42.77337994" lon="13.41219993">
        <ele>414.00000</ele>
        <time>2024-05-13T13:06:31Z</time>
      </trkpt>
      <trkpt lat="42.77334993" lon="13.41215995">
        <ele>413.00000</ele>
        <time>2024-05-13T13:06:32Z</time>
      </trkpt>
      <trkpt lat="42.77331992" lon="13.41210999">
        <ele>411.00000</ele>
        <time>2024-05-13T13:06:32Z</time>
      </trkpt>
      <trkpt lat="42.77326997" lon="13.41201997">
        <ele>409.00000</ele>
        <time>2024-05-13T13:06:34Z</time>
      </trkpt>
      <trkpt lat="42.77320995" lon="13.41190991">
        <ele>406.00000</ele>
        <time>2024-05-13T13:06:35Z</time>
      </trkpt>
      <trkpt lat="42.77313997" lon="13.41177999">
        <ele>405.00000</ele>
        <time>2024-05-13T13:06:37Z</time>
      </trkpt>
      <trkpt lat="42.77307995" lon="13.41168997">
        <ele>404.00000</ele>
        <time>2024-05-13T13:06:39Z</time>
      </trkpt>
      <trkpt lat="42.77300996" lon="13.41160993">
        <ele>403.00000</ele>
        <time>2024-05-13T13:06:40Z</time>
      </trkpt>
      <trkpt lat="42.77295992" lon="13.41157992">
        <ele>402.00000</ele>
        <time>2024-05-13T13:06:41Z</time>
      </trkpt>
      <trkpt lat="42.77290997" lon="13.41155997">
        <ele>402.00000</ele>
        <time>2024-05-13T13:06:42Z</time>
      </trkpt>
      <trkpt lat="42.77285993" lon="13.41155997">
        <ele>403.00000</ele>
        <time>2024-05-13T13:06:43Z</time>
      </trkpt>
      <trkpt lat="42.77278994" lon="13.41156994">
        <ele>403.00000</ele>
        <time>2024-05-13T13:06:44Z</time>
      </trkpt>
      <trkpt lat="42.77268994" lon="13.41158998">
        <ele>404.00000</ele>
        <time>2024-05-13T13:06:45Z</time>
      </trkpt>
      <trkpt lat="42.77258994" lon="13.41161998">
        <ele>404.00000</ele>
        <time>2024-05-13T13:06:47Z</time>
      </trkpt>
      <trkpt lat="42.77247997" lon="13.41166994">
        <ele>406.00000</ele>
        <time>2024-05-13T13:06:49Z</time>
      </trkpt>
      <trkpt lat="42.77236992" lon="13.41173993">
        <ele>407.00000</ele>
        <time>2024-05-13T13:06:51Z</time>
      </trkpt>
      <trkpt lat="42.77213506" lon="13.41186976">
        <ele>410.00000</ele>
        <time>2024-05-13T13:06:55Z</time>
      </trkpt>
      <trkpt lat="42.77189995" lon="13.41199994">
        <ele>413.00000</ele>
        <time>2024-05-13T13:06:59Z</time>
      </trkpt>
      <trkpt lat="42.77182996" lon="13.41204998">
        <ele>414.00000</ele>
        <time>2024-05-13T13:07:00Z</time>
      </trkpt>
      <trkpt lat="42.77181998" lon="13.41204998">
        <ele>414.00000</ele>
        <time>2024-05-13T13:07:00Z</time>
      </trkpt>
      <trkpt lat="42.77172996" lon="13.41210999">
        <ele>416.00000</ele>
        <time>2024-05-13T13:07:02Z</time>
      </trkpt>
      <trkpt lat="42.77166995" lon="13.41212994">
        <ele>417.00000</ele>
        <time>2024-05-13T13:07:03Z</time>
      </trkpt>
      <trkpt lat="42.77162997" lon="13.41213991">
        <ele>417.00000</ele>
        <time>2024-05-13T13:07:04Z</time>
      </trkpt>
      <trkpt lat="42.77156995" lon="13.41214997">
        <ele>418.00000</ele>
        <time>2024-05-13T13:07:05Z</time>
      </trkpt>
      <trkpt lat="42.77138010" lon="13.41214989">
        <ele>418.00000</ele>
        <time>2024-05-13T13:07:08Z</time>
      </trkpt>
      <trkpt lat="42.77118992" lon="13.41214997">
        <ele>423.00000</ele>
        <time>2024-05-13T13:07:11Z</time>
      </trkpt>
      <trkpt lat="42.77102010" lon="13.41213497">
        <ele>424.00000</ele>
        <time>2024-05-13T13:07:13Z</time>
      </trkpt>
      <trkpt lat="42.77084995" lon="13.41211996">
        <ele>423.00000</ele>
        <time>2024-05-13T13:07:16Z</time>
      </trkpt>
      <trkpt lat="42.77065012" lon="13.41210496">
        <ele>427.00000</ele>
        <time>2024-05-13T13:07:19Z</time>
      </trkpt>
      <trkpt lat="42.77044996" lon="13.41208996">
        <ele>431.00000</ele>
        <time>2024-05-13T13:07:22Z</time>
      </trkpt>
      <trkpt lat="42.77022994" lon="13.41205995">
        <ele>434.00000</ele>
        <time>2024-05-13T13:07:26Z</time>
      </trkpt>
      <trkpt lat="42.77011997" lon="13.41200999">
        <ele>433.00000</ele>
        <time>2024-05-13T13:07:28Z</time>
      </trkpt>
      <trkpt lat="42.76997999" lon="13.41192995">
        <ele>432.00000</ele>
        <time>2024-05-13T13:07:30Z</time>
      </trkpt>
      <trkpt lat="42.76988997" lon="13.41189994">
        <ele>433.00000</ele>
        <time>2024-05-13T13:07:32Z</time>
      </trkpt>
      <trkpt lat="42.76981998" lon="13.41189994">
        <ele>434.00000</ele>
        <time>2024-05-13T13:07:33Z</time>
      </trkpt>
      <trkpt lat="42.76972996" lon="13.41189994">
        <ele>435.00000</ele>
        <time>2024-05-13T13:07:34Z</time>
      </trkpt>
      <trkpt lat="42.76963993" lon="13.41191997">
        <ele>437.00000</ele>
        <time>2024-05-13T13:07:36Z</time>
      </trkpt>
      <trkpt lat="42.76950993" lon="13.41193992">
        <ele>438.00000</ele>
        <time>2024-05-13T13:07:38Z</time>
      </trkpt>
      <trkpt lat="42.76941999" lon="13.41193992">
        <ele>438.00000</ele>
        <time>2024-05-13T13:07:39Z</time>
      </trkpt>
      <trkpt lat="42.76930994" lon="13.41193992">
        <ele>439.00000</ele>
        <time>2024-05-13T13:07:41Z</time>
      </trkpt>
      <trkpt lat="42.76916996" lon="13.41190991">
        <ele>439.00000</ele>
        <time>2024-05-13T13:07:43Z</time>
      </trkpt>
      <trkpt lat="42.76896997" lon="13.41187999">
        <ele>440.00000</ele>
        <time>2024-05-13T13:07:47Z</time>
      </trkpt>
      <trkpt lat="42.76879998" lon="13.41184998">
        <ele>438.00000</ele>
        <time>2024-05-13T13:07:49Z</time>
      </trkpt>
      <trkpt lat="42.76868993" lon="13.41183993">
        <ele>434.00000</ele>
        <time>2024-05-13T13:07:51Z</time>
      </trkpt>
      <trkpt lat="42.76859999" lon="13.41181998">
        <ele>432.00000</ele>
        <time>2024-05-13T13:07:53Z</time>
      </trkpt>
      <trkpt lat="42.76850997" lon="13.41182995">
        <ele>428.00000</ele>
        <time>2024-05-13T13:07:54Z</time>
      </trkpt>
      <trkpt lat="42.76842992" lon="13.41186993">
        <ele>426.00000</ele>
        <time>2024-05-13T13:07:55Z</time>
      </trkpt>
      <trkpt lat="42.76838994" lon="13.41190991">
        <ele>425.00000</ele>
        <time>2024-05-13T13:07:56Z</time>
      </trkpt>
      <trkpt lat="42.76835993" lon="13.41196993">
        <ele>425.00000</ele>
        <time>2024-05-13T13:07:57Z</time>
      </trkpt>
      <trkpt lat="42.76834996" lon="13.41204998">
        <ele>426.00000</ele>
        <time>2024-05-13T13:07:58Z</time>
      </trkpt>
      <trkpt lat="42.76836999" lon="13.41215995">
        <ele>430.00000</ele>
        <time>2024-05-13T13:07:59Z</time>
      </trkpt>
      <trkpt lat="42.76837997" lon="13.41225994">
        <ele>433.00000</ele>
        <time>2024-05-13T13:08:00Z</time>
      </trkpt>
      <trkpt lat="42.76841995" lon="13.41237997">
        <ele>437.00000</ele>
        <time>2024-05-13T13:08:02Z</time>
      </trkpt>
      <trkpt lat="42.76846999" lon="13.41248994">
        <ele>441.00000</ele>
        <time>2024-05-13T13:08:04Z</time>
      </trkpt>
      <trkpt lat="42.76855993" lon="13.41264995">
        <ele>445.00000</ele>
        <time>2024-05-13T13:08:06Z</time>
      </trkpt>
      <trkpt lat="42.76864995" lon="13.41281994">
        <ele>449.00000</ele>
        <time>2024-05-13T13:08:08Z</time>
      </trkpt>
      <trkpt lat="42.76873997" lon="13.41302999">
        <ele>451.00000</ele>
        <time>2024-05-13T13:08:11Z</time>
      </trkpt>
      <trkpt lat="42.76876998" lon="13.41316997">
        <ele>452.00000</ele>
        <time>2024-05-13T13:08:13Z</time>
      </trkpt>
      <trkpt lat="42.76876998" lon="13.41317994">
        <ele>452.00000</ele>
        <time>2024-05-13T13:08:13Z</time>
      </trkpt>
      <trkpt lat="42.76877995" lon="13.41325999">
        <ele>452.00000</ele>
        <time>2024-05-13T13:08:14Z</time>
      </trkpt>
      <trkpt lat="42.76875992" lon="13.41342997">
        <ele>452.00000</ele>
        <time>2024-05-13T13:08:16Z</time>
      </trkpt>
      <trkpt lat="42.76872999" lon="13.41359996">
        <ele>452.00000</ele>
        <time>2024-05-13T13:08:18Z</time>
      </trkpt>
      <trkpt lat="42.76865975" lon="13.41397572">
        <ele>452.00000</ele>
        <time>2024-05-13T13:08:23Z</time>
      </trkpt>
      <trkpt lat="42.76858993" lon="13.41434997">
        <ele>450.00000</ele>
        <time>2024-05-13T13:08:27Z</time>
      </trkpt>
      <trkpt lat="42.76855993" lon="13.41452993">
        <ele>450.00000</ele>
        <time>2024-05-13T13:08:29Z</time>
      </trkpt>
      <trkpt lat="42.76848994" lon="13.41475993">
        <ele>449.00000</ele>
        <time>2024-05-13T13:08:32Z</time>
      </trkpt>
      <trkpt lat="42.76842992" lon="13.41490997">
        <ele>449.00000</ele>
        <time>2024-05-13T13:08:34Z</time>
      </trkpt>
      <trkpt lat="42.76837997" lon="13.41503997">
        <ele>450.00000</ele>
        <time>2024-05-13T13:08:36Z</time>
      </trkpt>
      <trkpt lat="42.76830998" lon="13.41515991">
        <ele>451.00000</ele>
        <time>2024-05-13T13:08:38Z</time>
      </trkpt>
      <trkpt lat="42.76823999" lon="13.41523996">
        <ele>451.00000</ele>
        <time>2024-05-13T13:08:39Z</time>
      </trkpt>
      <trkpt lat="42.76814997" lon="13.41532998">
        <ele>451.00000</ele>
        <time>2024-05-13T13:08:41Z</time>
      </trkpt>
      <trkpt lat="42.76807998" lon="13.41538991">
        <ele>451.00000</ele>
        <time>2024-05-13T13:08:42Z</time>
      </trkpt>
      <trkpt lat="42.76802994" lon="13.41545999">
        <ele>452.00000</ele>
        <time>2024-05-13T13:08:44Z</time>
      </trkpt>
      <trkpt lat="42.76798996" lon="13.41551992">
        <ele>453.00000</ele>
        <time>2024-05-13T13:08:45Z</time>
      </trkpt>
      <trkpt lat="42.76794997" lon="13.41557993">
        <ele>454.00000</ele>
        <time>2024-05-13T13:08:46Z</time>
      </trkpt>
      <trkpt lat="42.76788996" lon="13.41565998">
        <ele>454.00000</ele>
        <time>2024-05-13T13:08:47Z</time>
      </trkpt>
      <trkpt lat="42.76783992" lon="13.41575997">
        <ele>454.00000</ele>
        <time>2024-05-13T13:08:48Z</time>
      </trkpt>
      <trkpt lat="42.76777999" lon="13.41583994">
        <ele>453.00000</ele>
        <time>2024-05-13T13:08:50Z</time>
      </trkpt>
      <trkpt lat="42.76770992" lon="13.41592996">
        <ele>454.00000</ele>
        <time>2024-05-13T13:08:51Z</time>
      </trkpt>
      <trkpt lat="42.76761998" lon="13.41600992">
        <ele>454.00000</ele>
        <time>2024-05-13T13:08:53Z</time>
      </trkpt>
      <trkpt lat="42.76754999" lon="13.41606994">
        <ele>454.00000</ele>
        <time>2024-05-13T13:08:54Z</time>
      </trkpt>
      <trkpt lat="42.76746994" lon="13.41613993">
        <ele>454.00000</ele>
        <time>2024-05-13T13:08:56Z</time>
      </trkpt>
      <trkpt lat="42.76740993" lon="13.41619994">
        <ele>455.00000</ele>
        <time>2024-05-13T13:08:57Z</time>
      </trkpt>
      <trkpt lat="42.76733994" lon="13.41630999">
        <ele>457.00000</ele>
        <time>2024-05-13T13:08:59Z</time>
      </trkpt>
      <trkpt lat="42.76726995" lon="13.41637998">
        <ele>457.00000</ele>
        <time>2024-05-13T13:09:00Z</time>
      </trkpt>
      <trkpt lat="42.76723994" lon="13.41642994">
        <ele>457.00000</ele>
        <time>2024-05-13T13:09:01Z</time>
      </trkpt>
      <trkpt lat="42.76720994" lon="13.41644997">
        <ele>458.00000</ele>
        <time>2024-05-13T13:09:01Z</time>
      </trkpt>
      <trkpt lat="42.76716995" lon="13.41646992">
        <ele>459.00000</ele>
        <time>2024-05-13T13:09:02Z</time>
      </trkpt>
      <trkpt lat="42.76711991" lon="13.41646992">
        <ele>460.00000</ele>
        <time>2024-05-13T13:09:03Z</time>
      </trkpt>
      <trkpt lat="42.76708999" lon="13.41645995">
        <ele>461.00000</ele>
        <time>2024-05-13T13:09:03Z</time>
      </trkpt>
      <trkpt lat="42.76705998" lon="13.41643991">
        <ele>462.00000</ele>
        <time>2024-05-13T13:09:04Z</time>
      </trkpt>
      <trkpt lat="42.76703995" lon="13.41640999">
        <ele>462.00000</ele>
        <time>2024-05-13T13:09:04Z</time>
      </trkpt>
      <trkpt lat="42.76701992" lon="13.41637998">
        <ele>463.00000</ele>
        <time>2024-05-13T13:09:05Z</time>
      </trkpt>
      <trkpt lat="42.76701992" lon="13.41632994">
        <ele>464.00000</ele>
        <time>2024-05-13T13:09:05Z</time>
      </trkpt>
      <trkpt lat="42.76703995" lon="13.41623992">
        <ele>465.00000</ele>
        <time>2024-05-13T13:09:06Z</time>
      </trkpt>
      <trkpt lat="42.76708999" lon="13.41612995">
        <ele>465.00000</ele>
        <time>2024-05-13T13:09:08Z</time>
      </trkpt>
      <trkpt lat="42.76711991" lon="13.41603993">
        <ele>464.00000</ele>
        <time>2024-05-13T13:09:09Z</time>
      </trkpt>
      <trkpt lat="42.76717993" lon="13.41589995">
        <ele>462.00000</ele>
        <time>2024-05-13T13:09:11Z</time>
      </trkpt>
      <trkpt lat="42.76721999" lon="13.41576995">
        <ele>462.00000</ele>
        <time>2024-05-13T13:09:13Z</time>
      </trkpt>
      <trkpt lat="42.76725998" lon="13.41565998">
        <ele>461.00000</ele>
        <time>2024-05-13T13:09:14Z</time>
      </trkpt>
      <trkpt lat="42.76728998" lon="13.41560994">
        <ele>461.00000</ele>
        <time>2024-05-13T13:09:15Z</time>
      </trkpt>
      <trkpt lat="42.76731999" lon="13.41555998">
        <ele>460.00000</ele>
        <time>2024-05-13T13:09:16Z</time>
      </trkpt>
      <trkpt lat="42.76734991" lon="13.41550994">
        <ele>459.00000</ele>
        <time>2024-05-13T13:09:16Z</time>
      </trkpt>
      <trkpt lat="42.76740993" lon="13.41542998">
        <ele>457.00000</ele>
        <time>2024-05-13T13:09:18Z</time>
      </trkpt>
      <trkpt lat="42.76746994" lon="13.41531992">
        <ele>456.00000</ele>
        <time>2024-05-13T13:09:19Z</time>
      </trkpt>
      <trkpt lat="42.76749995" lon="13.41523996">
        <ele>455.00000</ele>
        <time>2024-05-13T13:09:20Z</time>
      </trkpt>
      <trkpt lat="42.76752996" lon="13.41516997">
        <ele>455.00000</ele>
        <time>2024-05-13T13:09:21Z</time>
      </trkpt>
      <trkpt lat="42.76753993" lon="13.41512999">
        <ele>455.00000</ele>
        <time>2024-05-13T13:09:22Z</time>
      </trkpt>
      <trkpt lat="42.76753993" lon="13.41506998">
        <ele>456.00000</ele>
        <time>2024-05-13T13:09:23Z</time>
      </trkpt>
      <trkpt lat="42.76753993" lon="13.41501994">
        <ele>457.00000</ele>
        <time>2024-05-13T13:09:23Z</time>
      </trkpt>
      <trkpt lat="42.76754999" lon="13.41496998">
        <ele>457.00000</ele>
        <time>2024-05-13T13:09:24Z</time>
      </trkpt>
      <trkpt lat="42.76754999" lon="13.41489999">
        <ele>459.00000</ele>
        <time>2024-05-13T13:09:25Z</time>
      </trkpt>
      <trkpt lat="42.76755996" lon="13.41483998">
        <ele>460.00000</ele>
        <time>2024-05-13T13:09:25Z</time>
      </trkpt>
      <trkpt lat="42.76756994" lon="13.41477996">
        <ele>461.00000</ele>
        <time>2024-05-13T13:09:26Z</time>
      </trkpt>
      <trkpt lat="42.76757991" lon="13.41470997">
        <ele>462.00000</ele>
        <time>2024-05-13T13:09:27Z</time>
      </trkpt>
      <trkpt lat="42.76759995" lon="13.41464996">
        <ele>461.00000</ele>
        <time>2024-05-13T13:09:28Z</time>
      </trkpt>
      <trkpt lat="42.76762995" lon="13.41454996">
        <ele>460.00000</ele>
        <time>2024-05-13T13:09:29Z</time>
      </trkpt>
      <trkpt lat="42.76764999" lon="13.41437998">
        <ele>459.00000</ele>
        <time>2024-05-13T13:09:31Z</time>
      </trkpt>
      <trkpt lat="42.76766994" lon="13.41421997">
        <ele>458.00000</ele>
        <time>2024-05-13T13:09:33Z</time>
      </trkpt>
      <trkpt lat="42.76767999" lon="13.41406993">
        <ele>456.00000</ele>
        <time>2024-05-13T13:09:35Z</time>
      </trkpt>
      <trkpt lat="42.76767999" lon="13.41395996">
        <ele>455.00000</ele>
        <time>2024-05-13T13:09:36Z</time>
      </trkpt>
      <trkpt lat="42.76767999" lon="13.41378998">
        <ele>454.00000</ele>
        <time>2024-05-13T13:09:38Z</time>
      </trkpt>
      <trkpt lat="42.76765996" lon="13.41368998">
        <ele>457.00000</ele>
        <time>2024-05-13T13:09:39Z</time>
      </trkpt>
      <trkpt lat="42.76762995" lon="13.41358998">
        <ele>460.00000</ele>
        <time>2024-05-13T13:09:41Z</time>
      </trkpt>
      <trkpt lat="42.76755996" lon="13.41345998">
        <ele>468.00000</ele>
        <time>2024-05-13T13:09:42Z</time>
      </trkpt>
      <trkpt lat="42.76748998" lon="13.41334993">
        <ele>476.00000</ele>
        <time>2024-05-13T13:09:44Z</time>
      </trkpt>
      <trkpt lat="42.76739995" lon="13.41322998">
        <ele>475.00000</ele>
        <time>2024-05-13T13:09:46Z</time>
      </trkpt>
      <trkpt lat="42.76730993" lon="13.41311993">
        <ele>475.00000</ele>
        <time>2024-05-13T13:09:48Z</time>
      </trkpt>
      <trkpt lat="42.76720994" lon="13.41301993">
        <ele>475.00000</ele>
        <time>2024-05-13T13:09:50Z</time>
      </trkpt>
      <trkpt lat="42.76708999" lon="13.41289998">
        <ele>474.00000</ele>
        <time>2024-05-13T13:09:52Z</time>
      </trkpt>
      <trkpt lat="42.76698991" lon="13.41281994">
        <ele>475.00000</ele>
        <time>2024-05-13T13:09:54Z</time>
      </trkpt>
      <trkpt lat="42.76688992" lon="13.41273997">
        <ele>478.00000</ele>
        <time>2024-05-13T13:09:56Z</time>
      </trkpt>
      <trkpt lat="42.76682998" lon="13.41268993">
        <ele>481.00000</ele>
        <time>2024-05-13T13:09:57Z</time>
      </trkpt>
      <trkpt lat="42.76676997" lon="13.41263998">
        <ele>483.00000</ele>
        <time>2024-05-13T13:09:58Z</time>
      </trkpt>
      <trkpt lat="42.76671993" lon="13.41257996">
        <ele>485.00000</ele>
        <time>2024-05-13T13:09:59Z</time>
      </trkpt>
      <trkpt lat="42.76669998" lon="13.41254996">
        <ele>486.00000</ele>
        <time>2024-05-13T13:10:00Z</time>
      </trkpt>
      <trkpt lat="42.76667995" lon="13.41251995">
        <ele>487.00000</ele>
        <time>2024-05-13T13:10:00Z</time>
      </trkpt>
      <trkpt lat="42.76666997" lon="13.41247997">
        <ele>487.00000</ele>
        <time>2024-05-13T13:10:01Z</time>
      </trkpt>
      <trkpt lat="42.76665992" lon="13.41241995">
        <ele>489.00000</ele>
        <time>2024-05-13T13:10:02Z</time>
      </trkpt>
      <trkpt lat="42.76664994" lon="13.41235994">
        <ele>490.00000</ele>
        <time>2024-05-13T13:10:02Z</time>
      </trkpt>
      <trkpt lat="42.76664994" lon="13.41227998">
        <ele>490.00000</ele>
        <time>2024-05-13T13:10:03Z</time>
      </trkpt>
      <trkpt lat="42.76665992" lon="13.41219993">
        <ele>489.00000</ele>
        <time>2024-05-13T13:10:04Z</time>
      </trkpt>
      <trkpt lat="42.76666997" lon="13.41210999">
        <ele>488.00000</ele>
        <time>2024-05-13T13:10:05Z</time>
      </trkpt>
      <trkpt lat="42.76666997" lon="13.41201997">
        <ele>488.00000</ele>
        <time>2024-05-13T13:10:06Z</time>
      </trkpt>
      <trkpt lat="42.76667995" lon="13.41194998">
        <ele>487.00000</ele>
        <time>2024-05-13T13:10:07Z</time>
      </trkpt>
      <trkpt lat="42.76667995" lon="13.41186993">
        <ele>486.00000</ele>
        <time>2024-05-13T13:10:08Z</time>
      </trkpt>
      <trkpt lat="42.76669998" lon="13.41178997">
        <ele>484.00000</ele>
        <time>2024-05-13T13:10:09Z</time>
      </trkpt>
      <trkpt lat="42.76669998" lon="13.41169995">
        <ele>483.00000</ele>
        <time>2024-05-13T13:10:10Z</time>
      </trkpt>
      <trkpt lat="42.76669998" lon="13.41157992">
        <ele>483.00000</ele>
        <time>2024-05-13T13:10:12Z</time>
      </trkpt>
      <trkpt lat="42.76669998" lon="13.41148998">
        <ele>483.00000</ele>
        <time>2024-05-13T13:10:13Z</time>
      </trkpt>
      <trkpt lat="42.76668992" lon="13.41138998">
        <ele>484.00000</ele>
        <time>2024-05-13T13:10:14Z</time>
      </trkpt>
      <trkpt lat="42.76666997" lon="13.41129996">
        <ele>485.00000</ele>
        <time>2024-05-13T13:10:15Z</time>
      </trkpt>
      <trkpt lat="42.76665992" lon="13.41123995">
        <ele>485.00000</ele>
        <time>2024-05-13T13:10:16Z</time>
      </trkpt>
      <trkpt lat="42.76664994" lon="13.41117993">
        <ele>485.00000</ele>
        <time>2024-05-13T13:10:16Z</time>
      </trkpt>
      <trkpt lat="42.76662999" lon="13.41107994">
        <ele>486.00000</ele>
        <time>2024-05-13T13:10:18Z</time>
      </trkpt>
      <trkpt lat="42.76658993" lon="13.41088992">
        <ele>488.00000</ele>
        <time>2024-05-13T13:10:20Z</time>
      </trkpt>
      <trkpt lat="42.76657995" lon="13.41081993">
        <ele>488.00000</ele>
        <time>2024-05-13T13:10:21Z</time>
      </trkpt>
      <trkpt lat="42.76657995" lon="13.41075992">
        <ele>488.00000</ele>
        <time>2024-05-13T13:10:22Z</time>
      </trkpt>
      <trkpt lat="42.76657995" lon="13.41067995">
        <ele>487.00000</ele>
        <time>2024-05-13T13:10:22Z</time>
      </trkpt>
      <trkpt lat="42.76657995" lon="13.41061994">
        <ele>486.00000</ele>
        <time>2024-05-13T13:10:23Z</time>
      </trkpt>
      <trkpt lat="42.76657995" lon="13.41056998">
        <ele>485.00000</ele>
        <time>2024-05-13T13:10:24Z</time>
      </trkpt>
      <trkpt lat="42.76658993" lon="13.41049999">
        <ele>484.00000</ele>
        <time>2024-05-13T13:10:25Z</time>
      </trkpt>
      <trkpt lat="42.76657995" lon="13.41042992">
        <ele>483.00000</ele>
        <time>2024-05-13T13:10:25Z</time>
      </trkpt>
      <trkpt lat="42.76655992" lon="13.41030998">
        <ele>483.00000</ele>
        <time>2024-05-13T13:10:27Z</time>
      </trkpt>
      <trkpt lat="42.76653997" lon="13.41024996">
        <ele>483.00000</ele>
        <time>2024-05-13T13:10:28Z</time>
      </trkpt>
      <trkpt lat="42.76651994" lon="13.41019992">
        <ele>483.00000</ele>
        <time>2024-05-13T13:10:28Z</time>
      </trkpt>
      <trkpt lat="42.76648993" lon="13.41016991">
        <ele>484.00000</ele>
        <time>2024-05-13T13:10:29Z</time>
      </trkpt>
      <trkpt lat="42.76645992" lon="13.41012993">
        <ele>484.00000</ele>
        <time>2024-05-13T13:10:30Z</time>
      </trkpt>
      <trkpt lat="42.76641994" lon="13.41008995">
        <ele>485.00000</ele>
        <time>2024-05-13T13:10:30Z</time>
      </trkpt>
      <trkpt lat="42.76633998" lon="13.41001996">
        <ele>487.00000</ele>
        <time>2024-05-13T13:10:32Z</time>
      </trkpt>
      <trkpt lat="42.76623998" lon="13.40994997">
        <ele>488.00000</ele>
        <time>2024-05-13T13:10:34Z</time>
      </trkpt>
      <trkpt lat="42.76615994" lon="13.40986993">
        <ele>489.00000</ele>
        <time>2024-05-13T13:10:35Z</time>
      </trkpt>
      <trkpt lat="42.76607997" lon="13.40978996">
        <ele>490.00000</ele>
        <time>2024-05-13T13:10:37Z</time>
      </trkpt>
      <trkpt lat="42.76598995" lon="13.40969994">
        <ele>491.00000</ele>
        <time>2024-05-13T13:10:39Z</time>
      </trkpt>
      <trkpt lat="42.76589993" lon="13.40958997">
        <ele>491.00000</ele>
        <time>2024-05-13T13:10:41Z</time>
      </trkpt>
      <trkpt lat="42.76580999" lon="13.40949995">
        <ele>492.00000</ele>
        <time>2024-05-13T13:10:42Z</time>
      </trkpt>
      <trkpt lat="42.76572994" lon="13.40941999">
        <ele>492.00000</ele>
        <time>2024-05-13T13:10:44Z</time>
      </trkpt>
      <trkpt lat="42.76564998" lon="13.40934991">
        <ele>490.00000</ele>
        <time>2024-05-13T13:10:46Z</time>
      </trkpt>
      <trkpt lat="42.76557999" lon="13.40930993">
        <ele>490.00000</ele>
        <time>2024-05-13T13:10:47Z</time>
      </trkpt>
      <trkpt lat="42.76549994" lon="13.40927992">
        <ele>489.00000</ele>
        <time>2024-05-13T13:10:48Z</time>
      </trkpt>
      <trkpt lat="42.76533993" lon="13.40926995">
        <ele>490.00000</ele>
        <time>2024-05-13T13:10:51Z</time>
      </trkpt>
      <trkpt lat="42.76515997" lon="13.40928998">
        <ele>491.00000</ele>
        <time>2024-05-13T13:10:54Z</time>
      </trkpt>
      <trkpt lat="42.76495998" lon="13.40930993">
        <ele>492.00000</ele>
        <time>2024-05-13T13:10:57Z</time>
      </trkpt>
      <trkpt lat="42.76473996" lon="13.40931999">
        <ele>492.00000</ele>
        <time>2024-05-13T13:11:00Z</time>
      </trkpt>
      <trkpt lat="42.76461993" lon="13.40934991">
        <ele>493.00000</ele>
        <time>2024-05-13T13:11:02Z</time>
      </trkpt>
      <trkpt lat="42.76446998" lon="13.40939995">
        <ele>495.00000</ele>
        <time>2024-05-13T13:11:05Z</time>
      </trkpt>
      <trkpt lat="42.76431994" lon="13.40947992">
        <ele>497.00000</ele>
        <time>2024-05-13T13:11:07Z</time>
      </trkpt>
      <trkpt lat="42.76419991" lon="13.40955996">
        <ele>499.00000</ele>
        <time>2024-05-13T13:11:09Z</time>
      </trkpt>
      <trkpt lat="42.76408994" lon="13.40963993">
        <ele>501.00000</ele>
        <time>2024-05-13T13:11:11Z</time>
      </trkpt>
      <trkpt lat="42.76399992" lon="13.40972995">
        <ele>504.00000</ele>
        <time>2024-05-13T13:11:13Z</time>
      </trkpt>
      <trkpt lat="42.76384997" lon="13.40988996">
        <ele>509.00000</ele>
        <time>2024-05-13T13:11:16Z</time>
      </trkpt>
      <trkpt lat="42.76375995" lon="13.40998996">
        <ele>511.00000</ele>
        <time>2024-05-13T13:11:18Z</time>
      </trkpt>
      <trkpt lat="42.76362994" lon="13.41008995">
        <ele>512.00000</ele>
        <time>2024-05-13T13:11:20Z</time>
      </trkpt>
      <trkpt lat="42.76356993" lon="13.41011996">
        <ele>512.00000</ele>
        <time>2024-05-13T13:11:22Z</time>
      </trkpt>
      <trkpt lat="42.76348996" lon="13.41013999">
        <ele>512.00000</ele>
        <time>2024-05-13T13:11:23Z</time>
      </trkpt>
      <trkpt lat="42.76337999" lon="13.41016991">
        <ele>511.00000</ele>
        <time>2024-05-13T13:11:25Z</time>
      </trkpt>
      <trkpt lat="42.76321998" lon="13.41019992">
        <ele>511.00000</ele>
        <time>2024-05-13T13:11:27Z</time>
      </trkpt>
      <trkpt lat="42.76302997" lon="13.41022993">
        <ele>512.00000</ele>
        <time>2024-05-13T13:11:30Z</time>
      </trkpt>
      <trkpt lat="42.76287993" lon="13.41024996">
        <ele>513.00000</ele>
        <time>2024-05-13T13:11:33Z</time>
      </trkpt>
      <trkpt lat="42.76267994" lon="13.41023999">
        <ele>515.00000</ele>
        <time>2024-05-13T13:11:36Z</time>
      </trkpt>
      <trkpt lat="42.76245991" lon="13.41021995">
        <ele>518.00000</ele>
        <time>2024-05-13T13:11:39Z</time>
      </trkpt>
      <trkpt lat="42.76226998" lon="13.41017997">
        <ele>520.00000</ele>
        <time>2024-05-13T13:11:42Z</time>
      </trkpt>
      <trkpt lat="42.76206999" lon="13.41016991">
        <ele>521.00000</ele>
        <time>2024-05-13T13:11:46Z</time>
      </trkpt>
      <trkpt lat="42.76188994" lon="13.41015994">
        <ele>523.00000</ele>
        <time>2024-05-13T13:11:49Z</time>
      </trkpt>
      <trkpt lat="42.76172993" lon="13.41015994">
        <ele>525.00000</ele>
        <time>2024-05-13T13:11:51Z</time>
      </trkpt>
      <trkpt lat="42.76154997" lon="13.41016991">
        <ele>528.00000</ele>
        <time>2024-05-13T13:11:54Z</time>
      </trkpt>
      <trkpt lat="42.76142994" lon="13.41018995">
        <ele>529.00000</ele>
        <time>2024-05-13T13:11:56Z</time>
      </trkpt>
      <trkpt lat="42.76134998" lon="13.41019992">
        <ele>529.00000</ele>
        <time>2024-05-13T13:11:57Z</time>
      </trkpt>
      <trkpt lat="42.76129994" lon="13.41022993">
        <ele>528.00000</ele>
        <time>2024-05-13T13:11:58Z</time>
      </trkpt>
      <trkpt lat="42.76123993" lon="13.41026999">
        <ele>528.00000</ele>
        <time>2024-05-13T13:11:59Z</time>
      </trkpt>
      <trkpt lat="42.76117991" lon="13.41035993">
        <ele>528.00000</ele>
        <time>2024-05-13T13:12:01Z</time>
      </trkpt>
      <trkpt lat="42.76110992" lon="13.41043998">
        <ele>527.00000</ele>
        <time>2024-05-13T13:12:02Z</time>
      </trkpt>
      <trkpt lat="42.76102996" lon="13.41053998">
        <ele>527.00000</ele>
        <time>2024-05-13T13:12:04Z</time>
      </trkpt>
      <trkpt lat="42.76094991" lon="13.41061994">
        <ele>528.00000</ele>
        <time>2024-05-13T13:12:05Z</time>
      </trkpt>
      <trkpt lat="42.76088998" lon="13.41069999">
        <ele>531.00000</ele>
        <time>2024-05-13T13:12:07Z</time>
      </trkpt>
      <trkpt lat="42.76080993" lon="13.41076998">
        <ele>532.00000</ele>
        <time>2024-05-13T13:12:08Z</time>
      </trkpt>
      <trkpt lat="42.76069996" lon="13.41085991">
        <ele>533.00000</ele>
        <time>2024-05-13T13:12:10Z</time>
      </trkpt>
      <trkpt lat="42.76059997" lon="13.41093996">
        <ele>534.00000</ele>
        <time>2024-05-13T13:12:12Z</time>
      </trkpt>
      <trkpt lat="42.76049997" lon="13.41100995">
        <ele>536.00000</ele>
        <time>2024-05-13T13:12:14Z</time>
      </trkpt>
      <trkpt lat="42.76037994" lon="13.41108991">
        <ele>537.00000</ele>
        <time>2024-05-13T13:12:16Z</time>
      </trkpt>
      <trkpt lat="42.76027995" lon="13.41112998">
        <ele>537.00000</ele>
        <time>2024-05-13T13:12:18Z</time>
      </trkpt>
      <trkpt lat="42.76015992" lon="13.41114993">
        <ele>537.00000</ele>
        <time>2024-05-13T13:12:20Z</time>
      </trkpt>
      <trkpt lat="42.75999999" lon="13.41114993">
        <ele>535.00000</ele>
        <time>2024-05-13T13:12:22Z</time>
      </trkpt>
      <trkpt lat="42.75984995" lon="13.41113995">
        <ele>536.00000</ele>
        <time>2024-05-13T13:12:25Z</time>
      </trkpt>
      <trkpt lat="42.75970998" lon="13.41110995">
        <ele>536.00000</ele>
        <time>2024-05-13T13:12:27Z</time>
      </trkpt>
      <trkpt lat="42.75956992" lon="13.41107994">
        <ele>536.00000</ele>
        <time>2024-05-13T13:12:29Z</time>
      </trkpt>
      <trkpt lat="42.75938996" lon="13.41102998">
        <ele>535.00000</ele>
        <time>2024-05-13T13:12:32Z</time>
      </trkpt>
      <trkpt lat="42.75924998" lon="13.41100995">
        <ele>533.00000</ele>
        <time>2024-05-13T13:12:34Z</time>
      </trkpt>
      <trkpt lat="42.75911998" lon="13.41098992">
        <ele>532.00000</ele>
        <time>2024-05-13T13:12:36Z</time>
      </trkpt>
      <trkpt lat="42.75896994" lon="13.41097994">
        <ele>534.00000</ele>
        <time>2024-05-13T13:12:39Z</time>
      </trkpt>
      <trkpt lat="42.75883994" lon="13.41097994">
        <ele>536.00000</ele>
        <time>2024-05-13T13:12:41Z</time>
      </trkpt>
      <trkpt lat="42.75867993" lon="13.41099997">
        <ele>538.00000</ele>
        <time>2024-05-13T13:12:44Z</time>
      </trkpt>
      <trkpt lat="42.75854992" lon="13.41102998">
        <ele>538.00000</ele>
        <time>2024-05-13T13:12:46Z</time>
      </trkpt>
      <trkpt lat="42.75838991" lon="13.41109997">
        <ele>538.00000</ele>
        <time>2024-05-13T13:12:48Z</time>
      </trkpt>
      <trkpt lat="42.75821993" lon="13.41117993">
        <ele>537.00000</ele>
        <time>2024-05-13T13:12:51Z</time>
      </trkpt>
      <trkpt lat="42.75800996" lon="13.41132997">
        <ele>537.00000</ele>
        <time>2024-05-13T13:12:55Z</time>
      </trkpt>
      <trkpt lat="42.75773998" lon="13.41153994">
        <ele>540.00000</ele>
        <time>2024-05-13T13:13:00Z</time>
      </trkpt>
      <trkpt lat="42.75758994" lon="13.41167991">
        <ele>543.00000</ele>
        <time>2024-05-13T13:13:03Z</time>
      </trkpt>
      <trkpt lat="42.75751995" lon="13.41171998">
        <ele>543.00000</ele>
        <time>2024-05-13T13:13:04Z</time>
      </trkpt>
      <trkpt lat="42.75744996" lon="13.41174999">
        <ele>542.00000</ele>
        <time>2024-05-13T13:13:05Z</time>
      </trkpt>
      <trkpt lat="42.75735994" lon="13.41176994">
        <ele>541.00000</ele>
        <time>2024-05-13T13:13:07Z</time>
      </trkpt>
      <trkpt lat="42.75724997" lon="13.41179994">
        <ele>539.00000</ele>
        <time>2024-05-13T13:13:09Z</time>
      </trkpt>
      <trkpt lat="42.75714998" lon="13.41182995">
        <ele>538.00000</ele>
        <time>2024-05-13T13:13:10Z</time>
      </trkpt>
      <trkpt lat="42.75704998" lon="13.41187999">
        <ele>537.00000</ele>
        <time>2024-05-13T13:13:12Z</time>
      </trkpt>
      <trkpt lat="42.75694998" lon="13.41191997">
        <ele>536.00000</ele>
        <time>2024-05-13T13:13:14Z</time>
      </trkpt>
      <trkpt lat="42.75687991" lon="13.41196993">
        <ele>535.00000</ele>
        <time>2024-05-13T13:13:15Z</time>
      </trkpt>
      <trkpt lat="42.75681998" lon="13.41201997">
        <ele>535.00000</ele>
        <time>2024-05-13T13:13:16Z</time>
      </trkpt>
      <trkpt lat="42.75676994" lon="13.41205995">
        <ele>535.00000</ele>
        <time>2024-05-13T13:13:17Z</time>
      </trkpt>
      <trkpt lat="42.75671998" lon="13.41210999">
        <ele>536.00000</ele>
        <time>2024-05-13T13:13:18Z</time>
      </trkpt>
      <trkpt lat="42.75664991" lon="13.41215995">
        <ele>537.00000</ele>
        <time>2024-05-13T13:13:19Z</time>
      </trkpt>
      <trkpt lat="42.75657992" lon="13.41218995">
        <ele>539.00000</ele>
        <time>2024-05-13T13:13:20Z</time>
      </trkpt>
      <trkpt lat="42.75647993" lon="13.41222994">
        <ele>540.00000</ele>
        <time>2024-05-13T13:13:22Z</time>
      </trkpt>
      <trkpt lat="42.75639996" lon="13.41224997">
        <ele>541.00000</ele>
        <time>2024-05-13T13:13:23Z</time>
      </trkpt>
      <trkpt lat="42.75627993" lon="13.41225994">
        <ele>542.00000</ele>
        <time>2024-05-13T13:13:25Z</time>
      </trkpt>
      <trkpt lat="42.75617994" lon="13.41225994">
        <ele>543.00000</ele>
        <time>2024-05-13T13:13:27Z</time>
      </trkpt>
      <trkpt lat="42.75606997" lon="13.41224997">
        <ele>544.00000</ele>
        <time>2024-05-13T13:13:29Z</time>
      </trkpt>
      <trkpt lat="42.75594994" lon="13.41222994">
        <ele>544.00000</ele>
        <time>2024-05-13T13:13:30Z</time>
      </trkpt>
      <trkpt lat="42.75581994" lon="13.41221996">
        <ele>544.00000</ele>
        <time>2024-05-13T13:13:33Z</time>
      </trkpt>
      <trkpt lat="42.75569999" lon="13.41222994">
        <ele>543.00000</ele>
        <time>2024-05-13T13:13:34Z</time>
      </trkpt>
      <trkpt lat="42.75558994" lon="13.41226992">
        <ele>543.00000</ele>
        <time>2024-05-13T13:13:36Z</time>
      </trkpt>
      <trkpt lat="42.75542993" lon="13.41231996">
        <ele>542.00000</ele>
        <time>2024-05-13T13:13:39Z</time>
      </trkpt>
      <trkpt lat="42.75528995" lon="13.41237997">
        <ele>542.00000</ele>
        <time>2024-05-13T13:13:41Z</time>
      </trkpt>
      <trkpt lat="42.75514997" lon="13.41243999">
        <ele>543.00000</ele>
        <time>2024-05-13T13:13:44Z</time>
      </trkpt>
      <trkpt lat="42.75508996" lon="13.41243999">
        <ele>542.00000</ele>
        <time>2024-05-13T13:13:45Z</time>
      </trkpt>
      <trkpt lat="42.75498996" lon="13.41243999">
        <ele>540.00000</ele>
        <time>2024-05-13T13:13:46Z</time>
      </trkpt>
      <trkpt lat="42.75488996" lon="13.41241995">
        <ele>539.00000</ele>
        <time>2024-05-13T13:13:48Z</time>
      </trkpt>
      <trkpt lat="42.75480992" lon="13.41240998">
        <ele>538.00000</ele>
        <time>2024-05-13T13:13:49Z</time>
      </trkpt>
      <trkpt lat="42.75473993" lon="13.41240998">
        <ele>538.00000</ele>
        <time>2024-05-13T13:13:50Z</time>
      </trkpt>
      <trkpt lat="42.75467991" lon="13.41240998">
        <ele>537.00000</ele>
        <time>2024-05-13T13:13:51Z</time>
      </trkpt>
      <trkpt lat="42.75462996" lon="13.41242993">
        <ele>536.00000</ele>
        <time>2024-05-13T13:13:52Z</time>
      </trkpt>
      <trkpt lat="42.75460992" lon="13.41244996">
        <ele>536.00000</ele>
        <time>2024-05-13T13:13:52Z</time>
      </trkpt>
      <trkpt lat="42.75458998" lon="13.41246999">
        <ele>536.00000</ele>
        <time>2024-05-13T13:13:53Z</time>
      </trkpt>
      <trkpt lat="42.75456994" lon="13.41249992">
        <ele>536.00000</ele>
        <time>2024-05-13T13:13:53Z</time>
      </trkpt>
      <trkpt lat="42.75454999" lon="13.41253998">
        <ele>536.00000</ele>
        <time>2024-05-13T13:13:54Z</time>
      </trkpt>
      <trkpt lat="42.75452996" lon="13.41261995">
        <ele>536.00000</ele>
        <time>2024-05-13T13:13:55Z</time>
      </trkpt>
      <trkpt lat="42.75450993" lon="13.41269999">
        <ele>537.00000</ele>
        <time>2024-05-13T13:13:56Z</time>
      </trkpt>
      <trkpt lat="42.75449995" lon="13.41278993">
        <ele>538.00000</ele>
        <time>2024-05-13T13:13:57Z</time>
      </trkpt>
      <trkpt lat="42.75449995" lon="13.41290996">
        <ele>540.00000</ele>
        <time>2024-05-13T13:13:58Z</time>
      </trkpt>
      <trkpt lat="42.75449995" lon="13.41302999">
        <ele>542.00000</ele>
        <time>2024-05-13T13:14:00Z</time>
      </trkpt>
      <trkpt lat="42.75449995" lon="13.41311993">
        <ele>543.00000</ele>
        <time>2024-05-13T13:14:01Z</time>
      </trkpt>
      <trkpt lat="42.75447992" lon="13.41320995">
        <ele>543.00000</ele>
        <time>2024-05-13T13:14:02Z</time>
      </trkpt>
      <trkpt lat="42.75446995" lon="13.41325999">
        <ele>543.00000</ele>
        <time>2024-05-13T13:14:02Z</time>
      </trkpt>
      <trkpt lat="42.75443994" lon="13.41331992">
        <ele>542.00000</ele>
        <time>2024-05-13T13:14:03Z</time>
      </trkpt>
      <trkpt lat="42.75439996" lon="13.41338999">
        <ele>543.00000</ele>
        <time>2024-05-13T13:14:04Z</time>
      </trkpt>
      <trkpt lat="42.75433994" lon="13.41346995">
        <ele>544.00000</ele>
        <time>2024-05-13T13:14:06Z</time>
      </trkpt>
      <trkpt lat="42.75429996" lon="13.41351999">
        <ele>544.00000</ele>
        <time>2024-05-13T13:14:07Z</time>
      </trkpt>
      <trkpt lat="42.75427993" lon="13.41356995">
        <ele>544.00000</ele>
        <time>2024-05-13T13:14:07Z</time>
      </trkpt>
      <trkpt lat="42.75426995" lon="13.41361999">
        <ele>544.00000</ele>
        <time>2024-05-13T13:14:08Z</time>
      </trkpt>
      <trkpt lat="42.75425998" lon="13.41365997">
        <ele>545.00000</ele>
        <time>2024-05-13T13:14:08Z</time>
      </trkpt>
      <trkpt lat="42.75425998" lon="13.41369995">
        <ele>545.00000</ele>
        <time>2024-05-13T13:14:09Z</time>
      </trkpt>
      <trkpt lat="42.75426995" lon="13.41373994">
        <ele>546.00000</ele>
        <time>2024-05-13T13:14:09Z</time>
      </trkpt>
      <trkpt lat="42.75427993" lon="13.41377992">
        <ele>546.00000</ele>
        <time>2024-05-13T13:14:10Z</time>
      </trkpt>
      <trkpt lat="42.75429996" lon="13.41381998">
        <ele>547.00000</ele>
        <time>2024-05-13T13:14:10Z</time>
      </trkpt>
      <trkpt lat="42.75432997" lon="13.41385996">
        <ele>548.00000</ele>
        <time>2024-05-13T13:14:11Z</time>
      </trkpt>
      <trkpt lat="42.75437992" lon="13.41389995">
        <ele>549.00000</ele>
        <time>2024-05-13T13:14:12Z</time>
      </trkpt>
      <trkpt lat="42.75441999" lon="13.41393993">
        <ele>550.00000</ele>
        <time>2024-05-13T13:14:13Z</time>
      </trkpt>
      <trkpt lat="42.75446995" lon="13.41397999">
        <ele>552.00000</ele>
        <time>2024-05-13T13:14:14Z</time>
      </trkpt>
      <trkpt lat="42.75450993" lon="13.41400992">
        <ele>553.00000</ele>
        <time>2024-05-13T13:14:14Z</time>
      </trkpt>
      <trkpt lat="42.75453994" lon="13.41403992">
        <ele>554.00000</ele>
        <time>2024-05-13T13:14:15Z</time>
      </trkpt>
      <trkpt lat="42.75456994" lon="13.41406993">
        <ele>556.00000</ele>
        <time>2024-05-13T13:14:16Z</time>
      </trkpt>
      <trkpt lat="42.75458998" lon="13.41409994">
        <ele>556.00000</ele>
        <time>2024-05-13T13:14:16Z</time>
      </trkpt>
      <trkpt lat="42.75460992" lon="13.41413992">
        <ele>557.00000</ele>
        <time>2024-05-13T13:14:17Z</time>
      </trkpt>
      <trkpt lat="42.75462996" lon="13.41417999">
        <ele>558.00000</ele>
        <time>2024-05-13T13:14:17Z</time>
      </trkpt>
      <trkpt lat="42.75463993" lon="13.41421997">
        <ele>558.00000</ele>
        <time>2024-05-13T13:14:18Z</time>
      </trkpt>
      <trkpt lat="42.75464999" lon="13.41427998">
        <ele>559.00000</ele>
        <time>2024-05-13T13:14:19Z</time>
      </trkpt>
      <trkpt lat="42.75464999" lon="13.41432994">
        <ele>559.00000</ele>
        <time>2024-05-13T13:14:19Z</time>
      </trkpt>
      <trkpt lat="42.75463993" lon="13.41438995">
        <ele>559.00000</ele>
        <time>2024-05-13T13:14:20Z</time>
      </trkpt>
      <trkpt lat="42.75461998" lon="13.41444997">
        <ele>559.00000</ele>
        <time>2024-05-13T13:14:21Z</time>
      </trkpt>
      <trkpt lat="42.75459995" lon="13.41449992">
        <ele>560.00000</ele>
        <time>2024-05-13T13:14:21Z</time>
      </trkpt>
      <trkpt lat="42.75455997" lon="13.41454996">
        <ele>559.00000</ele>
        <time>2024-05-13T13:14:22Z</time>
      </trkpt>
      <trkpt lat="42.75451999" lon="13.41457997">
        <ele>559.00000</ele>
        <time>2024-05-13T13:14:23Z</time>
      </trkpt>
      <trkpt lat="42.75447992" lon="13.41458994">
        <ele>559.00000</ele>
        <time>2024-05-13T13:14:24Z</time>
      </trkpt>
      <trkpt lat="42.75441999" lon="13.41458994">
        <ele>558.00000</ele>
        <time>2024-05-13T13:14:24Z</time>
      </trkpt>
      <trkpt lat="42.75435998" lon="13.41457997">
        <ele>557.00000</ele>
        <time>2024-05-13T13:14:25Z</time>
      </trkpt>
      <trkpt lat="42.75429996" lon="13.41455994">
        <ele>557.00000</ele>
        <time>2024-05-13T13:14:26Z</time>
      </trkpt>
      <trkpt lat="42.75423995" lon="13.41452993">
        <ele>556.00000</ele>
        <time>2024-05-13T13:14:27Z</time>
      </trkpt>
      <trkpt lat="42.75403995" lon="13.41437998">
        <ele>554.00000</ele>
        <time>2024-05-13T13:14:31Z</time>
      </trkpt>
      <trkpt lat="42.75389998" lon="13.41426992">
        <ele>554.00000</ele>
        <time>2024-05-13T13:14:34Z</time>
      </trkpt>
      <trkpt lat="42.75381993" lon="13.41418996">
        <ele>556.00000</ele>
        <time>2024-05-13T13:14:35Z</time>
      </trkpt>
      <trkpt lat="42.75376997" lon="13.41413992">
        <ele>557.00000</ele>
        <time>2024-05-13T13:14:36Z</time>
      </trkpt>
      <trkpt lat="42.75374994" lon="13.41409994">
        <ele>557.00000</ele>
        <time>2024-05-13T13:14:37Z</time>
      </trkpt>
      <trkpt lat="42.75372999" lon="13.41404998">
        <ele>558.00000</ele>
        <time>2024-05-13T13:14:38Z</time>
      </trkpt>
      <trkpt lat="42.75371993" lon="13.41398997">
        <ele>557.00000</ele>
        <time>2024-05-13T13:14:38Z</time>
      </trkpt>
      <trkpt lat="42.75371993" lon="13.41392995">
        <ele>557.00000</ele>
        <time>2024-05-13T13:14:39Z</time>
      </trkpt>
      <trkpt lat="42.75372999" lon="13.41386994">
        <ele>556.00000</ele>
        <time>2024-05-13T13:14:40Z</time>
      </trkpt>
      <trkpt lat="42.75372999" lon="13.41376994">
        <ele>555.00000</ele>
        <time>2024-05-13T13:14:41Z</time>
      </trkpt>
      <trkpt lat="42.75371993" lon="13.41368998">
        <ele>555.00000</ele>
        <time>2024-05-13T13:14:42Z</time>
      </trkpt>
      <trkpt lat="42.75370996" lon="13.41362996">
        <ele>555.00000</ele>
        <time>2024-05-13T13:14:43Z</time>
      </trkpt>
      <trkpt lat="42.75368993" lon="13.41354992">
        <ele>555.00000</ele>
        <time>2024-05-13T13:14:44Z</time>
      </trkpt>
      <trkpt lat="42.75366998" lon="13.41348999">
        <ele>556.00000</ele>
        <time>2024-05-13T13:14:44Z</time>
      </trkpt>
      <trkpt lat="42.75363997" lon="13.41343995">
        <ele>557.00000</ele>
        <time>2024-05-13T13:14:45Z</time>
      </trkpt>
      <trkpt lat="42.75359999" lon="13.41337993">
        <ele>559.00000</ele>
        <time>2024-05-13T13:14:46Z</time>
      </trkpt>
      <trkpt lat="42.75357996" lon="13.41333995">
        <ele>560.00000</ele>
        <time>2024-05-13T13:14:47Z</time>
      </trkpt>
      <trkpt lat="42.75356998" lon="13.41328999">
        <ele>560.00000</ele>
        <time>2024-05-13T13:14:47Z</time>
      </trkpt>
      <trkpt lat="42.75354995" lon="13.41319997">
        <ele>560.00000</ele>
        <time>2024-05-13T13:14:48Z</time>
      </trkpt>
      <trkpt lat="42.75352992" lon="13.41312998">
        <ele>560.00000</ele>
        <time>2024-05-13T13:14:49Z</time>
      </trkpt>
      <trkpt lat="42.75350997" lon="13.41301993">
        <ele>560.00000</ele>
        <time>2024-05-13T13:14:51Z</time>
      </trkpt>
      <trkpt lat="42.75345993" lon="13.41284994">
        <ele>559.00000</ele>
        <time>2024-05-13T13:14:53Z</time>
      </trkpt>
      <trkpt lat="42.75341995" lon="13.41276998">
        <ele>559.00000</ele>
        <time>2024-05-13T13:14:54Z</time>
      </trkpt>
      <trkpt lat="42.75336999" lon="13.41267996">
        <ele>558.00000</ele>
        <time>2024-05-13T13:14:55Z</time>
      </trkpt>
      <trkpt lat="42.75331995" lon="13.41260997">
        <ele>557.00000</ele>
        <time>2024-05-13T13:14:56Z</time>
      </trkpt>
      <trkpt lat="42.75326999" lon="13.41256999">
        <ele>557.00000</ele>
        <time>2024-05-13T13:14:57Z</time>
      </trkpt>
      <trkpt lat="42.75320998" lon="13.41251995">
        <ele>557.00000</ele>
        <time>2024-05-13T13:14:58Z</time>
      </trkpt>
      <trkpt lat="42.75310998" lon="13.41247997">
        <ele>559.00000</ele>
        <time>2024-05-13T13:15:00Z</time>
      </trkpt>
      <trkpt lat="42.75300999" lon="13.41245993">
        <ele>561.00000</ele>
        <time>2024-05-13T13:15:02Z</time>
      </trkpt>
      <trkpt lat="42.75272525" lon="13.41243990">
        <ele>566.00000</ele>
        <time>2024-05-13T13:15:06Z</time>
      </trkpt>
      <trkpt lat="42.75243993" lon="13.41241995">
        <ele>567.00000</ele>
        <time>2024-05-13T13:15:11Z</time>
      </trkpt>
      <trkpt lat="42.75219996" lon="13.41240998">
        <ele>569.00000</ele>
        <time>2024-05-13T13:15:15Z</time>
      </trkpt>
      <trkpt lat="42.75196996" lon="13.41237997">
        <ele>573.00000</ele>
        <time>2024-05-13T13:15:18Z</time>
      </trkpt>
      <trkpt lat="42.75190995" lon="13.41236991">
        <ele>573.00000</ele>
        <time>2024-05-13T13:15:19Z</time>
      </trkpt>
      <trkpt lat="42.75184993" lon="13.41233999">
        <ele>574.00000</ele>
        <time>2024-05-13T13:15:20Z</time>
      </trkpt>
      <trkpt lat="42.75176997" lon="13.41228995">
        <ele>574.00000</ele>
        <time>2024-05-13T13:15:22Z</time>
      </trkpt>
      <trkpt lat="42.75169998" lon="13.41223999">
        <ele>575.00000</ele>
        <time>2024-05-13T13:15:23Z</time>
      </trkpt>
      <trkpt lat="42.75157995" lon="13.41213991">
        <ele>579.00000</ele>
        <time>2024-05-13T13:15:25Z</time>
      </trkpt>
      <trkpt lat="42.75140997" lon="13.41192995">
        <ele>585.00000</ele>
        <time>2024-05-13T13:15:29Z</time>
      </trkpt>
      <trkpt lat="42.75127996" lon="13.41176994">
        <ele>581.00000</ele>
        <time>2024-05-13T13:15:32Z</time>
      </trkpt>
      <trkpt lat="42.75117997" lon="13.41166994">
        <ele>578.00000</ele>
        <time>2024-05-13T13:15:34Z</time>
      </trkpt>
      <trkpt lat="42.75104996" lon="13.41157992">
        <ele>574.00000</ele>
        <time>2024-05-13T13:15:36Z</time>
      </trkpt>
      <trkpt lat="42.75093999" lon="13.41155997">
        <ele>574.00000</ele>
        <time>2024-05-13T13:15:38Z</time>
      </trkpt>
      <trkpt lat="42.75083991" lon="13.41155997">
        <ele>575.00000</ele>
        <time>2024-05-13T13:15:39Z</time>
      </trkpt>
      <trkpt lat="42.75072994" lon="13.41155997">
        <ele>570.00000</ele>
        <time>2024-05-13T13:15:41Z</time>
      </trkpt>
      <trkpt lat="42.75068996" lon="13.41157992">
        <ele>569.00000</ele>
        <time>2024-05-13T13:15:42Z</time>
      </trkpt>
      <trkpt lat="42.75064998" lon="13.41159995">
        <ele>568.00000</ele>
        <time>2024-05-13T13:15:43Z</time>
      </trkpt>
      <trkpt lat="42.75060991" lon="13.41163993">
        <ele>567.00000</ele>
        <time>2024-05-13T13:15:43Z</time>
      </trkpt>
      <trkpt lat="42.75057999" lon="13.41169995">
        <ele>568.00000</ele>
        <time>2024-05-13T13:15:44Z</time>
      </trkpt>
      <trkpt lat="42.75054998" lon="13.41179994">
        <ele>570.00000</ele>
        <time>2024-05-13T13:15:45Z</time>
      </trkpt>
      <trkpt lat="42.75052995" lon="13.41189994">
        <ele>572.00000</ele>
        <time>2024-05-13T13:15:47Z</time>
      </trkpt>
      <trkpt lat="42.75046993" lon="13.41227998">
        <ele>582.00000</ele>
        <time>2024-05-13T13:15:51Z</time>
      </trkpt>
      <trkpt lat="42.75043993" lon="13.41237997">
        <ele>583.00000</ele>
        <time>2024-05-13T13:15:53Z</time>
      </trkpt>
      <trkpt lat="42.75038997" lon="13.41247997">
        <ele>584.00000</ele>
        <time>2024-05-13T13:15:54Z</time>
      </trkpt>
      <trkpt lat="42.75032996" lon="13.41255993">
        <ele>583.00000</ele>
        <time>2024-05-13T13:15:55Z</time>
      </trkpt>
      <trkpt lat="42.75026994" lon="13.41260997">
        <ele>581.00000</ele>
        <time>2024-05-13T13:15:56Z</time>
      </trkpt>
      <trkpt lat="42.75018998" lon="13.41263998">
        <ele>579.00000</ele>
        <time>2024-05-13T13:15:58Z</time>
      </trkpt>
      <trkpt lat="42.75009996" lon="13.41266999">
        <ele>578.00000</ele>
        <time>2024-05-13T13:15:59Z</time>
      </trkpt>
      <trkpt lat="42.74998999" lon="13.41271994">
        <ele>576.00000</ele>
        <time>2024-05-13T13:16:01Z</time>
      </trkpt>
      <trkpt lat="42.74991991" lon="13.41276998">
        <ele>574.00000</ele>
        <time>2024-05-13T13:16:02Z</time>
      </trkpt>
      <trkpt lat="42.74987993" lon="13.41280996">
        <ele>573.00000</ele>
        <time>2024-05-13T13:16:03Z</time>
      </trkpt>
      <trkpt lat="42.74984993" lon="13.41285992">
        <ele>573.00000</ele>
        <time>2024-05-13T13:16:04Z</time>
      </trkpt>
      <trkpt lat="42.74983995" lon="13.41293997">
        <ele>575.00000</ele>
        <time>2024-05-13T13:16:05Z</time>
      </trkpt>
      <trkpt lat="42.74983995" lon="13.41302999">
        <ele>579.00000</ele>
        <time>2024-05-13T13:16:06Z</time>
      </trkpt>
      <trkpt lat="42.74985998" lon="13.41311993">
        <ele>582.00000</ele>
        <time>2024-05-13T13:16:07Z</time>
      </trkpt>
      <trkpt lat="42.74991991" lon="13.41330994">
        <ele>587.00000</ele>
        <time>2024-05-13T13:16:09Z</time>
      </trkpt>
      <trkpt lat="42.74994992" lon="13.41345998">
        <ele>590.00000</ele>
        <time>2024-05-13T13:16:11Z</time>
      </trkpt>
      <trkpt lat="42.74995998" lon="13.41353994">
        <ele>592.00000</ele>
        <time>2024-05-13T13:16:12Z</time>
      </trkpt>
      <trkpt lat="42.74995998" lon="13.41357992">
        <ele>593.00000</ele>
        <time>2024-05-13T13:16:13Z</time>
      </trkpt>
      <trkpt lat="42.74994992" lon="13.41363994">
        <ele>593.00000</ele>
        <time>2024-05-13T13:16:13Z</time>
      </trkpt>
      <trkpt lat="42.74992997" lon="13.41371999">
        <ele>595.00000</ele>
        <time>2024-05-13T13:16:14Z</time>
      </trkpt>
      <trkpt lat="42.74991991" lon="13.41375997">
        <ele>595.00000</ele>
        <time>2024-05-13T13:16:15Z</time>
      </trkpt>
      <trkpt lat="42.74988999" lon="13.41380992">
        <ele>596.00000</ele>
        <time>2024-05-13T13:16:16Z</time>
      </trkpt>
      <trkpt lat="42.74985998" lon="13.41383993">
        <ele>596.00000</ele>
        <time>2024-05-13T13:16:16Z</time>
      </trkpt>
      <trkpt lat="42.74982998" lon="13.41386994">
        <ele>596.00000</ele>
        <time>2024-05-13T13:16:17Z</time>
      </trkpt>
      <trkpt lat="42.74978999" lon="13.41387991">
        <ele>596.00000</ele>
        <time>2024-05-13T13:16:18Z</time>
      </trkpt>
      <trkpt lat="42.74972998" lon="13.41387991">
        <ele>595.00000</ele>
        <time>2024-05-13T13:16:18Z</time>
      </trkpt>
      <trkpt lat="42.74960995" lon="13.41385996">
        <ele>593.00000</ele>
        <time>2024-05-13T13:16:20Z</time>
      </trkpt>
      <trkpt lat="42.74951993" lon="13.41385996">
        <ele>592.00000</ele>
        <time>2024-05-13T13:16:22Z</time>
      </trkpt>
      <trkpt lat="42.74944994" lon="13.41387991">
        <ele>591.00000</ele>
        <time>2024-05-13T13:16:23Z</time>
      </trkpt>
      <trkpt lat="42.74935992" lon="13.41390992">
        <ele>588.00000</ele>
        <time>2024-05-13T13:16:24Z</time>
      </trkpt>
      <trkpt lat="42.74926998" lon="13.41396993">
        <ele>586.00000</ele>
        <time>2024-05-13T13:16:26Z</time>
      </trkpt>
      <trkpt lat="42.74917996" lon="13.41403992">
        <ele>584.00000</ele>
        <time>2024-05-13T13:16:28Z</time>
      </trkpt>
      <trkpt lat="42.74911995" lon="13.41410991">
        <ele>584.00000</ele>
        <time>2024-05-13T13:16:29Z</time>
      </trkpt>
      <trkpt lat="42.74906999" lon="13.41416993">
        <ele>585.00000</ele>
        <time>2024-05-13T13:16:30Z</time>
      </trkpt>
      <trkpt lat="42.74898994" lon="13.41427998">
        <ele>584.00000</ele>
        <time>2024-05-13T13:16:32Z</time>
      </trkpt>
      <trkpt lat="42.74894996" lon="13.41436992">
        <ele>584.00000</ele>
        <time>2024-05-13T13:16:33Z</time>
      </trkpt>
      <trkpt lat="42.74890998" lon="13.41443999">
        <ele>583.00000</ele>
        <time>2024-05-13T13:16:34Z</time>
      </trkpt>
      <trkpt lat="42.74888995" lon="13.41453999">
        <ele>582.00000</ele>
        <time>2024-05-13T13:16:35Z</time>
      </trkpt>
      <trkpt lat="42.74887997" lon="13.41461995">
        <ele>582.00000</ele>
        <time>2024-05-13T13:16:36Z</time>
      </trkpt>
      <trkpt lat="42.74887997" lon="13.41468994">
        <ele>583.00000</ele>
        <time>2024-05-13T13:16:37Z</time>
      </trkpt>
      <trkpt lat="42.74889992" lon="13.41475993">
        <ele>586.00000</ele>
        <time>2024-05-13T13:16:38Z</time>
      </trkpt>
      <trkpt lat="42.74891995" lon="13.41486998">
        <ele>590.00000</ele>
        <time>2024-05-13T13:16:39Z</time>
      </trkpt>
      <trkpt lat="42.74895993" lon="13.41501994">
        <ele>598.00000</ele>
        <time>2024-05-13T13:16:41Z</time>
      </trkpt>
      <trkpt lat="42.74896999" lon="13.41507995">
        <ele>602.00000</ele>
        <time>2024-05-13T13:16:42Z</time>
      </trkpt>
      <trkpt lat="42.74897997" lon="13.41515991">
        <ele>606.00000</ele>
        <time>2024-05-13T13:16:43Z</time>
      </trkpt>
      <trkpt lat="42.74897997" lon="13.41519998">
        <ele>607.00000</ele>
        <time>2024-05-13T13:16:43Z</time>
      </trkpt>
      <trkpt lat="42.74897997" lon="13.41521993">
        <ele>608.00000</ele>
        <time>2024-05-13T13:16:44Z</time>
      </trkpt>
      <trkpt lat="42.74895993" lon="13.41525999">
        <ele>607.00000</ele>
        <time>2024-05-13T13:16:44Z</time>
      </trkpt>
      <trkpt lat="42.74893999" lon="13.41530995">
        <ele>607.00000</ele>
        <time>2024-05-13T13:16:45Z</time>
      </trkpt>
      <trkpt lat="42.74889992" lon="13.41535999">
        <ele>604.00000</ele>
        <time>2024-05-13T13:16:46Z</time>
      </trkpt>
      <trkpt lat="42.74883999" lon="13.41540995">
        <ele>601.00000</ele>
        <time>2024-05-13T13:16:47Z</time>
      </trkpt>
      <trkpt lat="42.74876992" lon="13.41545999">
        <ele>597.00000</ele>
        <time>2024-05-13T13:16:48Z</time>
      </trkpt>
      <trkpt lat="42.74871996" lon="13.41551992">
        <ele>595.00000</ele>
        <time>2024-05-13T13:16:49Z</time>
      </trkpt>
      <trkpt lat="42.74866992" lon="13.41559996">
        <ele>591.00000</ele>
        <time>2024-05-13T13:16:50Z</time>
      </trkpt>
      <trkpt lat="42.74862994" lon="13.41569996">
        <ele>587.00000</ele>
        <time>2024-05-13T13:16:52Z</time>
      </trkpt>
      <trkpt lat="42.74861996" lon="13.41575997">
        <ele>585.00000</ele>
        <time>2024-05-13T13:16:53Z</time>
      </trkpt>
      <trkpt lat="42.74860999" lon="13.41580993">
        <ele>584.00000</ele>
        <time>2024-05-13T13:16:53Z</time>
      </trkpt>
      <trkpt lat="42.74859993" lon="13.41584991">
        <ele>583.00000</ele>
        <time>2024-05-13T13:16:54Z</time>
      </trkpt>
      <trkpt lat="42.74860999" lon="13.41588998">
        <ele>586.00000</ele>
        <time>2024-05-13T13:16:54Z</time>
      </trkpt>
      <trkpt lat="42.74864997" lon="13.41596994">
        <ele>593.00000</ele>
        <time>2024-05-13T13:16:55Z</time>
      </trkpt>
      <trkpt lat="42.74867998" lon="13.41600992">
        <ele>597.00000</ele>
        <time>2024-05-13T13:16:56Z</time>
      </trkpt>
      <trkpt lat="42.74881996" lon="13.41619994">
        <ele>613.00000</ele>
        <time>2024-05-13T13:16:59Z</time>
      </trkpt>
      <trkpt lat="42.74888995" lon="13.41629994">
        <ele>618.00000</ele>
        <time>2024-05-13T13:17:01Z</time>
      </trkpt>
      <trkpt lat="42.74892993" lon="13.41636992">
        <ele>619.00000</ele>
        <time>2024-05-13T13:17:02Z</time>
      </trkpt>
      <trkpt lat="42.74894996" lon="13.41642994">
        <ele>620.00000</ele>
        <time>2024-05-13T13:17:03Z</time>
      </trkpt>
      <trkpt lat="42.74896999" lon="13.41647998">
        <ele>620.00000</ele>
        <time>2024-05-13T13:17:03Z</time>
      </trkpt>
      <trkpt lat="42.74898994" lon="13.41655994">
        <ele>620.00000</ele>
        <time>2024-05-13T13:17:04Z</time>
      </trkpt>
      <trkpt lat="42.74900997" lon="13.41665994">
        <ele>620.00000</ele>
        <time>2024-05-13T13:17:05Z</time>
      </trkpt>
      <trkpt lat="42.74901995" lon="13.41672993">
        <ele>618.00000</ele>
        <time>2024-05-13T13:17:06Z</time>
      </trkpt>
      <trkpt lat="42.74901995" lon="13.41677997">
        <ele>617.00000</ele>
        <time>2024-05-13T13:17:07Z</time>
      </trkpt>
      <trkpt lat="42.74903998" lon="13.41683998">
        <ele>616.00000</ele>
        <time>2024-05-13T13:17:08Z</time>
      </trkpt>
      <trkpt lat="42.74906999" lon="13.41685993">
        <ele>617.00000</ele>
        <time>2024-05-13T13:17:08Z</time>
      </trkpt>
      <trkpt lat="42.74913998" lon="13.41692992">
        <ele>617.00000</ele>
        <time>2024-05-13T13:17:10Z</time>
      </trkpt>
      <trkpt lat="42.74917996" lon="13.41696999">
        <ele>618.00000</ele>
        <time>2024-05-13T13:17:10Z</time>
      </trkpt>
      <trkpt lat="42.74922992" lon="13.41700997">
        <ele>620.00000</ele>
        <time>2024-05-13T13:17:11Z</time>
      </trkpt>
      <trkpt lat="42.74928993" lon="13.41705992">
        <ele>623.00000</ele>
        <time>2024-05-13T13:17:12Z</time>
      </trkpt>
      <trkpt lat="42.74933997" lon="13.41711994">
        <ele>624.00000</ele>
        <time>2024-05-13T13:17:14Z</time>
      </trkpt>
      <trkpt lat="42.74937995" lon="13.41719998">
        <ele>624.00000</ele>
        <time>2024-05-13T13:17:15Z</time>
      </trkpt>
      <trkpt lat="42.74939998" lon="13.41724994">
        <ele>624.00000</ele>
        <time>2024-05-13T13:17:15Z</time>
      </trkpt>
      <trkpt lat="42.74939998" lon="13.41730996">
        <ele>623.00000</ele>
        <time>2024-05-13T13:17:16Z</time>
      </trkpt>
      <trkpt lat="42.74938993" lon="13.41736997">
        <ele>621.00000</ele>
        <time>2024-05-13T13:17:17Z</time>
      </trkpt>
      <trkpt lat="42.74937995" lon="13.41742998">
        <ele>620.00000</ele>
        <time>2024-05-13T13:17:17Z</time>
      </trkpt>
      <trkpt lat="42.74935992" lon="13.41751992">
        <ele>618.00000</ele>
        <time>2024-05-13T13:17:19Z</time>
      </trkpt>
      <trkpt lat="42.74933997" lon="13.41761992">
        <ele>618.00000</ele>
        <time>2024-05-13T13:17:20Z</time>
      </trkpt>
      <trkpt lat="42.74932991" lon="13.41768999">
        <ele>618.00000</ele>
        <time>2024-05-13T13:17:21Z</time>
      </trkpt>
      <trkpt lat="42.74931994" lon="13.41772997">
        <ele>618.00000</ele>
        <time>2024-05-13T13:17:21Z</time>
      </trkpt>
      <trkpt lat="42.74931994" lon="13.41777993">
        <ele>619.00000</ele>
        <time>2024-05-13T13:17:22Z</time>
      </trkpt>
      <trkpt lat="42.74932991" lon="13.41783994">
        <ele>620.00000</ele>
        <time>2024-05-13T13:17:22Z</time>
      </trkpt>
      <trkpt lat="42.74932991" lon="13.41792996">
        <ele>621.00000</ele>
        <time>2024-05-13T13:17:24Z</time>
      </trkpt>
      <trkpt lat="42.74931994" lon="13.41806994">
        <ele>622.00000</ele>
        <time>2024-05-13T13:17:25Z</time>
      </trkpt>
      <trkpt lat="42.74928993" lon="13.41824999">
        <ele>624.00000</ele>
        <time>2024-05-13T13:17:27Z</time>
      </trkpt>
      <trkpt lat="42.74925992" lon="13.41835996">
        <ele>625.00000</ele>
        <time>2024-05-13T13:17:29Z</time>
      </trkpt>
      <trkpt lat="42.74920997" lon="13.41850999">
        <ele>627.00000</ele>
        <time>2024-05-13T13:17:31Z</time>
      </trkpt>
      <trkpt lat="42.74916999" lon="13.41856992">
        <ele>627.00000</ele>
        <time>2024-05-13T13:17:32Z</time>
      </trkpt>
      <trkpt lat="42.74912992" lon="13.41861996">
        <ele>627.00000</ele>
        <time>2024-05-13T13:17:32Z</time>
      </trkpt>
      <trkpt lat="42.74908994" lon="13.41865994">
        <ele>627.00000</ele>
        <time>2024-05-13T13:17:33Z</time>
      </trkpt>
      <trkpt lat="42.74901995" lon="13.41868995">
        <ele>626.00000</ele>
        <time>2024-05-13T13:17:34Z</time>
      </trkpt>
      <trkpt lat="42.74892993" lon="13.41872993">
        <ele>625.00000</ele>
        <time>2024-05-13T13:17:36Z</time>
      </trkpt>
      <trkpt lat="42.74885994" lon="13.41873999">
        <ele>623.00000</ele>
        <time>2024-05-13T13:17:37Z</time>
      </trkpt>
      <trkpt lat="42.74878995" lon="13.41874997">
        <ele>621.00000</ele>
        <time>2024-05-13T13:17:38Z</time>
      </trkpt>
      <trkpt lat="42.74870999" lon="13.41874997">
        <ele>619.00000</ele>
        <time>2024-05-13T13:17:40Z</time>
      </trkpt>
      <trkpt lat="42.74845995" lon="13.41873999">
        <ele>611.00000</ele>
        <time>2024-05-13T13:17:44Z</time>
      </trkpt>
      <trkpt lat="42.74840991" lon="13.41874997">
        <ele>609.00000</ele>
        <time>2024-05-13T13:17:44Z</time>
      </trkpt>
      <trkpt lat="42.74837999" lon="13.41875994">
        <ele>608.00000</ele>
        <time>2024-05-13T13:17:45Z</time>
      </trkpt>
      <trkpt lat="42.74834998" lon="13.41877997">
        <ele>608.00000</ele>
        <time>2024-05-13T13:17:45Z</time>
      </trkpt>
      <trkpt lat="42.74832995" lon="13.41879992">
        <ele>607.00000</ele>
        <time>2024-05-13T13:17:46Z</time>
      </trkpt>
      <trkpt lat="42.74831998" lon="13.41882993">
        <ele>608.00000</ele>
        <time>2024-05-13T13:17:46Z</time>
      </trkpt>
      <trkpt lat="42.74831998" lon="13.41886991">
        <ele>609.00000</ele>
        <time>2024-05-13T13:17:47Z</time>
      </trkpt>
      <trkpt lat="42.74831998" lon="13.41890998">
        <ele>609.00000</ele>
        <time>2024-05-13T13:17:47Z</time>
      </trkpt>
      <trkpt lat="42.74835996" lon="13.41895993">
        <ele>611.00000</ele>
        <time>2024-05-13T13:17:48Z</time>
      </trkpt>
      <trkpt lat="42.74839994" lon="13.41898994">
        <ele>613.00000</ele>
        <time>2024-05-13T13:17:49Z</time>
      </trkpt>
      <trkpt lat="42.74842995" lon="13.41899991">
        <ele>613.00000</ele>
        <time>2024-05-13T13:17:49Z</time>
      </trkpt>
      <trkpt lat="42.74847999" lon="13.41903998">
        <ele>615.00000</ele>
        <time>2024-05-13T13:17:50Z</time>
      </trkpt>
      <trkpt lat="42.74851997" lon="13.41908994">
        <ele>617.00000</ele>
        <time>2024-05-13T13:17:51Z</time>
      </trkpt>
      <trkpt lat="42.74857998" lon="13.41917996">
        <ele>620.00000</ele>
        <time>2024-05-13T13:17:52Z</time>
      </trkpt>
      <trkpt lat="42.74861996" lon="13.41924995">
        <ele>623.00000</ele>
        <time>2024-05-13T13:17:53Z</time>
      </trkpt>
      <trkpt lat="42.74864997" lon="13.41932999">
        <ele>627.00000</ele>
        <time>2024-05-13T13:17:54Z</time>
      </trkpt>
      <trkpt lat="42.74867998" lon="13.41940996">
        <ele>630.00000</ele>
        <time>2024-05-13T13:17:56Z</time>
      </trkpt>
      <trkpt lat="42.74869993" lon="13.41947995">
        <ele>633.00000</ele>
        <time>2024-05-13T13:17:56Z</time>
      </trkpt>
      <trkpt lat="42.74869993" lon="13.41954994">
        <ele>634.00000</ele>
        <time>2024-05-13T13:17:57Z</time>
      </trkpt>
      <trkpt lat="42.74868995" lon="13.41961992">
        <ele>635.00000</ele>
        <time>2024-05-13T13:17:58Z</time>
      </trkpt>
      <trkpt lat="42.74867998" lon="13.41968991">
        <ele>636.00000</ele>
        <time>2024-05-13T13:17:59Z</time>
      </trkpt>
      <trkpt lat="42.74863991" lon="13.41979997">
        <ele>637.00000</ele>
        <time>2024-05-13T13:18:00Z</time>
      </trkpt>
      <trkpt lat="42.74857998" lon="13.41992997">
        <ele>637.00000</ele>
        <time>2024-05-13T13:18:02Z</time>
      </trkpt>
      <trkpt lat="42.74851997" lon="13.42001999">
        <ele>637.00000</ele>
        <time>2024-05-13T13:18:04Z</time>
      </trkpt>
      <trkpt lat="42.74842995" lon="13.42010993">
        <ele>636.00000</ele>
        <time>2024-05-13T13:18:05Z</time>
      </trkpt>
      <trkpt lat="42.74833993" lon="13.42018998">
        <ele>635.00000</ele>
        <time>2024-05-13T13:18:07Z</time>
      </trkpt>
      <trkpt lat="42.74822995" lon="13.42026994">
        <ele>632.00000</ele>
        <time>2024-05-13T13:18:09Z</time>
      </trkpt>
      <trkpt lat="42.74813993" lon="13.42034999">
        <ele>630.00000</ele>
        <time>2024-05-13T13:18:11Z</time>
      </trkpt>
      <trkpt lat="42.74809995" lon="13.42038997">
        <ele>629.00000</ele>
        <time>2024-05-13T13:18:12Z</time>
      </trkpt>
      <trkpt lat="42.74807992" lon="13.42042995">
        <ele>629.00000</ele>
        <time>2024-05-13T13:18:12Z</time>
      </trkpt>
      <trkpt lat="42.74806994" lon="13.42048997">
        <ele>630.00000</ele>
        <time>2024-05-13T13:18:13Z</time>
      </trkpt>
      <trkpt lat="42.74806994" lon="13.42053992">
        <ele>631.00000</ele>
        <time>2024-05-13T13:18:14Z</time>
      </trkpt>
      <trkpt lat="42.74806994" lon="13.42058996">
        <ele>631.00000</ele>
        <time>2024-05-13T13:18:14Z</time>
      </trkpt>
      <trkpt lat="42.74807992" lon="13.42062994">
        <ele>632.00000</ele>
        <time>2024-05-13T13:18:15Z</time>
      </trkpt>
      <trkpt lat="42.74809995" lon="13.42067998">
        <ele>633.00000</ele>
        <time>2024-05-13T13:18:15Z</time>
      </trkpt>
      <trkpt lat="42.74814999" lon="13.42075995">
        <ele>635.00000</ele>
        <time>2024-05-13T13:18:17Z</time>
      </trkpt>
      <trkpt lat="42.74825996" lon="13.42092993">
        <ele>639.00000</ele>
        <time>2024-05-13T13:18:19Z</time>
      </trkpt>
      <trkpt lat="42.74839994" lon="13.42112992">
        <ele>643.00000</ele>
        <time>2024-05-13T13:18:22Z</time>
      </trkpt>
      <trkpt lat="42.74852994" lon="13.42131994">
        <ele>645.00000</ele>
        <time>2024-05-13T13:18:25Z</time>
      </trkpt>
      <trkpt lat="42.74858996" lon="13.42141994">
        <ele>646.00000</ele>
        <time>2024-05-13T13:18:27Z</time>
      </trkpt>
      <trkpt lat="42.74862994" lon="13.42147995">
        <ele>646.00000</ele>
        <time>2024-05-13T13:18:28Z</time>
      </trkpt>
      <trkpt lat="42.74865995" lon="13.42152999">
        <ele>647.00000</ele>
        <time>2024-05-13T13:18:29Z</time>
      </trkpt>
      <trkpt lat="42.74867998" lon="13.42158992">
        <ele>647.00000</ele>
        <time>2024-05-13T13:18:29Z</time>
      </trkpt>
      <trkpt lat="42.74869993" lon="13.42162999">
        <ele>647.00000</ele>
        <time>2024-05-13T13:18:30Z</time>
      </trkpt>
      <trkpt lat="42.74869993" lon="13.42167994">
        <ele>647.00000</ele>
        <time>2024-05-13T13:18:31Z</time>
      </trkpt>
      <trkpt lat="42.74869993" lon="13.42171993">
        <ele>647.00000</ele>
        <time>2024-05-13T13:18:31Z</time>
      </trkpt>
      <trkpt lat="42.74868995" lon="13.42176997">
        <ele>646.00000</ele>
        <time>2024-05-13T13:18:32Z</time>
      </trkpt>
      <trkpt lat="42.74867998" lon="13.42180995">
        <ele>646.00000</ele>
        <time>2024-05-13T13:18:32Z</time>
      </trkpt>
      <trkpt lat="42.74865995" lon="13.42184993">
        <ele>645.00000</ele>
        <time>2024-05-13T13:18:33Z</time>
      </trkpt>
      <trkpt lat="42.74862994" lon="13.42189997">
        <ele>644.00000</ele>
        <time>2024-05-13T13:18:34Z</time>
      </trkpt>
      <trkpt lat="42.74858996" lon="13.42194993">
        <ele>643.00000</ele>
        <time>2024-05-13T13:18:34Z</time>
      </trkpt>
      <trkpt lat="42.74853992" lon="13.42199997">
        <ele>642.00000</ele>
        <time>2024-05-13T13:18:35Z</time>
      </trkpt>
      <trkpt lat="42.74846993" lon="13.42203995">
        <ele>641.00000</ele>
        <time>2024-05-13T13:18:37Z</time>
      </trkpt>
      <trkpt lat="42.74837999" lon="13.42208999">
        <ele>639.00000</ele>
        <time>2024-05-13T13:18:38Z</time>
      </trkpt>
      <trkpt lat="42.74828997" lon="13.42211999">
        <ele>638.00000</ele>
        <time>2024-05-13T13:18:40Z</time>
      </trkpt>
      <trkpt lat="42.74816994" lon="13.42215998">
        <ele>638.00000</ele>
        <time>2024-05-13T13:18:42Z</time>
      </trkpt>
      <trkpt lat="42.74811998" lon="13.42218998">
        <ele>638.00000</ele>
        <time>2024-05-13T13:18:43Z</time>
      </trkpt>
      <trkpt lat="42.74807992" lon="13.42222996">
        <ele>638.00000</ele>
        <time>2024-05-13T13:18:43Z</time>
      </trkpt>
      <trkpt lat="42.74805997" lon="13.42224991">
        <ele>638.00000</ele>
        <time>2024-05-13T13:18:44Z</time>
      </trkpt>
      <trkpt lat="42.74803994" lon="13.42230993">
        <ele>638.00000</ele>
        <time>2024-05-13T13:18:44Z</time>
      </trkpt>
      <trkpt lat="42.74803994" lon="13.42236994">
        <ele>639.00000</ele>
        <time>2024-05-13T13:18:45Z</time>
      </trkpt>
      <trkpt lat="42.74803994" lon="13.42245996">
        <ele>640.00000</ele>
        <time>2024-05-13T13:18:46Z</time>
      </trkpt>
      <trkpt lat="42.74805997" lon="13.42260992">
        <ele>641.00000</ele>
        <time>2024-05-13T13:18:48Z</time>
      </trkpt>
      <trkpt lat="42.74807992" lon="13.42272995">
        <ele>642.00000</ele>
        <time>2024-05-13T13:18:50Z</time>
      </trkpt>
      <trkpt lat="42.74808998" lon="13.42279993">
        <ele>642.00000</ele>
        <time>2024-05-13T13:18:50Z</time>
      </trkpt>
      <trkpt lat="42.74808998" lon="13.42284997">
        <ele>642.00000</ele>
        <time>2024-05-13T13:18:51Z</time>
      </trkpt>
      <trkpt lat="42.74808998" lon="13.42290999">
        <ele>642.00000</ele>
        <time>2024-05-13T13:18:52Z</time>
      </trkpt>
      <trkpt lat="42.74807992" lon="13.42295994">
        <ele>641.00000</ele>
        <time>2024-05-13T13:18:52Z</time>
      </trkpt>
      <trkpt lat="42.74806994" lon="13.42301996">
        <ele>641.00000</ele>
        <time>2024-05-13T13:18:53Z</time>
      </trkpt>
      <trkpt lat="42.74801999" lon="13.42311996">
        <ele>640.00000</ele>
        <time>2024-05-13T13:18:54Z</time>
      </trkpt>
      <trkpt lat="42.74798998" lon="13.42317997">
        <ele>640.00000</ele>
        <time>2024-05-13T13:18:55Z</time>
      </trkpt>
      <trkpt lat="42.74794992" lon="13.42323998">
        <ele>640.00000</ele>
        <time>2024-05-13T13:18:56Z</time>
      </trkpt>
      <trkpt lat="42.74792997" lon="13.42329991">
        <ele>639.00000</ele>
        <time>2024-05-13T13:18:57Z</time>
      </trkpt>
      <trkpt lat="42.74790993" lon="13.42335993">
        <ele>639.00000</ele>
        <time>2024-05-13T13:18:58Z</time>
      </trkpt>
      <trkpt lat="42.74790993" lon="13.42339999">
        <ele>639.00000</ele>
        <time>2024-05-13T13:18:58Z</time>
      </trkpt>
      <trkpt lat="42.74790993" lon="13.42345993">
        <ele>640.00000</ele>
        <time>2024-05-13T13:18:59Z</time>
      </trkpt>
      <trkpt lat="42.74790993" lon="13.42355992">
        <ele>640.00000</ele>
        <time>2024-05-13T13:19:00Z</time>
      </trkpt>
      <trkpt lat="42.74789996" lon="13.42363997">
        <ele>640.00000</ele>
        <time>2024-05-13T13:19:01Z</time>
      </trkpt>
      <trkpt lat="42.74788998" lon="13.42371993">
        <ele>640.00000</ele>
        <time>2024-05-13T13:19:02Z</time>
      </trkpt>
      <trkpt lat="42.74785998" lon="13.42382999">
        <ele>640.00000</ele>
        <time>2024-05-13T13:19:03Z</time>
      </trkpt>
      <trkpt lat="42.74781991" lon="13.42397994">
        <ele>640.00000</ele>
        <time>2024-05-13T13:19:05Z</time>
      </trkpt>
      <trkpt lat="42.74775998" lon="13.42411992">
        <ele>639.00000</ele>
        <time>2024-05-13T13:19:07Z</time>
      </trkpt>
      <trkpt lat="42.74766996" lon="13.42426995">
        <ele>639.00000</ele>
        <time>2024-05-13T13:19:09Z</time>
      </trkpt>
      <trkpt lat="42.74758991" lon="13.42440993">
        <ele>639.00000</ele>
        <time>2024-05-13T13:19:12Z</time>
      </trkpt>
      <trkpt lat="42.74748992" lon="13.42454999">
        <ele>638.00000</ele>
        <time>2024-05-13T13:19:14Z</time>
      </trkpt>
      <trkpt lat="42.74740995" lon="13.42465996">
        <ele>638.00000</ele>
        <time>2024-05-13T13:19:16Z</time>
      </trkpt>
      <trkpt lat="42.74733996" lon="13.42474998">
        <ele>638.00000</ele>
        <time>2024-05-13T13:19:17Z</time>
      </trkpt>
      <trkpt lat="42.74724994" lon="13.42481997">
        <ele>639.00000</ele>
        <time>2024-05-13T13:19:19Z</time>
      </trkpt>
      <trkpt lat="42.74720996" lon="13.42482995">
        <ele>639.00000</ele>
        <time>2024-05-13T13:19:20Z</time>
      </trkpt>
      <trkpt lat="42.74714995" lon="13.42481997">
        <ele>640.00000</ele>
        <time>2024-05-13T13:19:21Z</time>
      </trkpt>
      <trkpt lat="42.74707996" lon="13.42478997">
        <ele>640.00000</ele>
        <time>2024-05-13T13:19:22Z</time>
      </trkpt>
      <trkpt lat="42.74701994" lon="13.42473993">
        <ele>641.00000</ele>
        <time>2024-05-13T13:19:23Z</time>
      </trkpt>
      <trkpt lat="42.74695993" lon="13.42467991">
        <ele>642.00000</ele>
        <time>2024-05-13T13:19:24Z</time>
      </trkpt>
      <trkpt lat="42.74692992" lon="13.42462996">
        <ele>643.00000</ele>
        <time>2024-05-13T13:19:25Z</time>
      </trkpt>
      <trkpt lat="42.74691995" lon="13.42459995">
        <ele>643.00000</ele>
        <time>2024-05-13T13:19:25Z</time>
      </trkpt>
      <trkpt lat="42.74690997" lon="13.42455997">
        <ele>644.00000</ele>
        <time>2024-05-13T13:19:26Z</time>
      </trkpt>
      <trkpt lat="42.74689991" lon="13.42444991">
        <ele>645.00000</ele>
        <time>2024-05-13T13:19:27Z</time>
      </trkpt>
      <trkpt lat="42.74690997" lon="13.42435997">
        <ele>646.00000</ele>
        <time>2024-05-13T13:19:28Z</time>
      </trkpt>
      <trkpt lat="42.74693998" lon="13.42415998">
        <ele>647.00000</ele>
        <time>2024-05-13T13:19:30Z</time>
      </trkpt>
      <trkpt lat="42.74697996" lon="13.42391992">
        <ele>649.00000</ele>
        <time>2024-05-13T13:19:33Z</time>
      </trkpt>
      <trkpt lat="42.74701500" lon="13.42369940">
        <ele>651.00000</ele>
        <time>2024-05-13T13:19:36Z</time>
      </trkpt>
      <trkpt lat="42.74704995" lon="13.42347996">
        <ele>652.00000</ele>
        <time>2024-05-13T13:19:39Z</time>
      </trkpt>
      <trkpt lat="42.74707996" lon="13.42328994">
        <ele>651.00000</ele>
        <time>2024-05-13T13:19:41Z</time>
      </trkpt>
      <trkpt lat="42.74708993" lon="13.42310998">
        <ele>650.00000</ele>
        <time>2024-05-13T13:19:43Z</time>
      </trkpt>
      <trkpt lat="42.74707996" lon="13.42298995">
        <ele>650.00000</ele>
        <time>2024-05-13T13:19:44Z</time>
      </trkpt>
      <trkpt lat="42.74706998" lon="13.42291996">
        <ele>650.00000</ele>
        <time>2024-05-13T13:19:45Z</time>
      </trkpt>
      <trkpt lat="42.74703998" lon="13.42282994">
        <ele>650.00000</ele>
        <time>2024-05-13T13:19:46Z</time>
      </trkpt>
      <trkpt lat="42.74698994" lon="13.42272995">
        <ele>650.00000</ele>
        <time>2024-05-13T13:19:48Z</time>
      </trkpt>
      <trkpt lat="42.74689991" lon="13.42254999">
        <ele>651.00000</ele>
        <time>2024-05-13T13:19:50Z</time>
      </trkpt>
      <trkpt lat="42.74683998" lon="13.42241998">
        <ele>652.00000</ele>
        <time>2024-05-13T13:19:52Z</time>
      </trkpt>
      <trkpt lat="42.74677997" lon="13.42224991">
        <ele>653.00000</ele>
        <time>2024-05-13T13:19:54Z</time>
      </trkpt>
      <trkpt lat="42.74674996" lon="13.42214992">
        <ele>655.00000</ele>
        <time>2024-05-13T13:19:56Z</time>
      </trkpt>
      <trkpt lat="42.74670998" lon="13.42202997">
        <ele>657.00000</ele>
        <time>2024-05-13T13:19:57Z</time>
      </trkpt>
      <trkpt lat="42.74669992" lon="13.42196996">
        <ele>657.00000</ele>
        <time>2024-05-13T13:19:58Z</time>
      </trkpt>
      <trkpt lat="42.74669992" lon="13.42187994">
        <ele>657.00000</ele>
        <time>2024-05-13T13:19:59Z</time>
      </trkpt>
      <trkpt lat="42.74669992" lon="13.42181992">
        <ele>657.00000</ele>
        <time>2024-05-13T13:20:00Z</time>
      </trkpt>
      <trkpt lat="42.74670998" lon="13.42175999">
        <ele>656.00000</ele>
        <time>2024-05-13T13:20:01Z</time>
      </trkpt>
      <trkpt lat="42.74670998" lon="13.42165991">
        <ele>656.00000</ele>
        <time>2024-05-13T13:20:02Z</time>
      </trkpt>
      <trkpt lat="42.74671996" lon="13.42153997">
        <ele>656.00000</ele>
        <time>2024-05-13T13:20:03Z</time>
      </trkpt>
      <trkpt lat="42.74670998" lon="13.42141994">
        <ele>657.00000</ele>
        <time>2024-05-13T13:20:05Z</time>
      </trkpt>
      <trkpt lat="42.74668995" lon="13.42128993">
        <ele>659.00000</ele>
        <time>2024-05-13T13:20:06Z</time>
      </trkpt>
      <trkpt lat="42.74664997" lon="13.42111995">
        <ele>664.00000</ele>
        <time>2024-05-13T13:20:08Z</time>
      </trkpt>
      <trkpt lat="42.74662993" lon="13.42105994">
        <ele>665.00000</ele>
        <time>2024-05-13T13:20:09Z</time>
      </trkpt>
      <trkpt lat="42.74662993" lon="13.42099992">
        <ele>665.00000</ele>
        <time>2024-05-13T13:20:10Z</time>
      </trkpt>
      <trkpt lat="42.74663999" lon="13.42093999">
        <ele>665.00000</ele>
        <time>2024-05-13T13:20:10Z</time>
      </trkpt>
      <trkpt lat="42.74664997" lon="13.42087998">
        <ele>664.00000</ele>
        <time>2024-05-13T13:20:11Z</time>
      </trkpt>
      <trkpt lat="42.74668995" lon="13.42081996">
        <ele>661.00000</ele>
        <time>2024-05-13T13:20:12Z</time>
      </trkpt>
      <trkpt lat="42.74672993" lon="13.42069993">
        <ele>661.00000</ele>
        <time>2024-05-13T13:20:14Z</time>
      </trkpt>
      <trkpt lat="42.74676991" lon="13.42054998">
        <ele>660.00000</ele>
        <time>2024-05-13T13:20:16Z</time>
      </trkpt>
      <trkpt lat="42.74678994" lon="13.42044998">
        <ele>658.00000</ele>
        <time>2024-05-13T13:20:17Z</time>
      </trkpt>
      <trkpt lat="42.74678994" lon="13.42035996">
        <ele>658.00000</ele>
        <time>2024-05-13T13:20:18Z</time>
      </trkpt>
      <trkpt lat="42.74679992" lon="13.42022996">
        <ele>657.00000</ele>
        <time>2024-05-13T13:20:19Z</time>
      </trkpt>
      <trkpt lat="42.74678994" lon="13.42012996">
        <ele>657.00000</ele>
        <time>2024-05-13T13:20:21Z</time>
      </trkpt>
      <trkpt lat="42.74676991" lon="13.41997993">
        <ele>658.00000</ele>
        <time>2024-05-13T13:20:22Z</time>
      </trkpt>
      <trkpt lat="42.74672993" lon="13.41981992">
        <ele>658.00000</ele>
        <time>2024-05-13T13:20:24Z</time>
      </trkpt>
      <trkpt lat="42.74661996" lon="13.41948992">
        <ele>660.00000</ele>
        <time>2024-05-13T13:20:29Z</time>
      </trkpt>
      <trkpt lat="42.74657998" lon="13.41938992">
        <ele>660.00000</ele>
        <time>2024-05-13T13:20:30Z</time>
      </trkpt>
      <trkpt lat="42.74654997" lon="13.41928993">
        <ele>657.00000</ele>
        <time>2024-05-13T13:20:31Z</time>
      </trkpt>
      <trkpt lat="42.74649993" lon="13.41918993">
        <ele>656.00000</ele>
        <time>2024-05-13T13:20:33Z</time>
      </trkpt>
      <trkpt lat="42.74645995" lon="13.41912992">
        <ele>655.00000</ele>
        <time>2024-05-13T13:20:34Z</time>
      </trkpt>
      <trkpt lat="42.74639993" lon="13.41907996">
        <ele>655.00000</ele>
        <time>2024-05-13T13:20:35Z</time>
      </trkpt>
      <trkpt lat="42.74629994" lon="13.41902992">
        <ele>657.00000</ele>
        <time>2024-05-13T13:20:36Z</time>
      </trkpt>
      <trkpt lat="42.74618997" lon="13.41897997">
        <ele>660.00000</ele>
        <time>2024-05-13T13:20:38Z</time>
      </trkpt>
      <trkpt lat="42.74609995" lon="13.41894996">
        <ele>662.00000</ele>
        <time>2024-05-13T13:20:40Z</time>
      </trkpt>
      <trkpt lat="42.74598998" lon="13.41889992">
        <ele>667.00000</ele>
        <time>2024-05-13T13:20:42Z</time>
      </trkpt>
      <trkpt lat="42.74590993" lon="13.41881996">
        <ele>671.00000</ele>
        <time>2024-05-13T13:20:43Z</time>
      </trkpt>
      <trkpt lat="42.74585997" lon="13.41876992">
        <ele>673.00000</ele>
        <time>2024-05-13T13:20:44Z</time>
      </trkpt>
      <trkpt lat="42.74581999" lon="13.41869993">
        <ele>676.00000</ele>
        <time>2024-05-13T13:20:45Z</time>
      </trkpt>
      <trkpt lat="42.74579996" lon="13.41858996">
        <ele>678.00000</ele>
        <time>2024-05-13T13:20:47Z</time>
      </trkpt>
      <trkpt lat="42.74577992" lon="13.41851997">
        <ele>680.00000</ele>
        <time>2024-05-13T13:20:47Z</time>
      </trkpt>
      <trkpt lat="42.74576995" lon="13.41843992">
        <ele>681.00000</ele>
        <time>2024-05-13T13:20:48Z</time>
      </trkpt>
      <trkpt lat="42.74575998" lon="13.41835996">
        <ele>681.00000</ele>
        <time>2024-05-13T13:20:49Z</time>
      </trkpt>
      <trkpt lat="42.74575998" lon="13.41828997">
        <ele>681.00000</ele>
        <time>2024-05-13T13:20:50Z</time>
      </trkpt>
      <trkpt lat="42.74576995" lon="13.41817991">
        <ele>680.00000</ele>
        <time>2024-05-13T13:20:52Z</time>
      </trkpt>
      <trkpt lat="42.74576995" lon="13.41804999">
        <ele>681.00000</ele>
        <time>2024-05-13T13:20:53Z</time>
      </trkpt>
      <trkpt lat="42.74577992" lon="13.41777993">
        <ele>683.00000</ele>
        <time>2024-05-13T13:20:56Z</time>
      </trkpt>
      <trkpt lat="42.74578998" lon="13.41760994">
        <ele>683.00000</ele>
        <time>2024-05-13T13:20:58Z</time>
      </trkpt>
      <trkpt lat="42.74579996" lon="13.41743996">
        <ele>682.00000</ele>
        <time>2024-05-13T13:21:00Z</time>
      </trkpt>
      <trkpt lat="42.74580993" lon="13.41720996">
        <ele>680.00000</ele>
        <time>2024-05-13T13:21:03Z</time>
      </trkpt>
      <trkpt lat="42.74579996" lon="13.41691995">
        <ele>673.00000</ele>
        <time>2024-05-13T13:21:06Z</time>
      </trkpt>
      <trkpt lat="42.74579996" lon="13.41675993">
        <ele>669.00000</ele>
        <time>2024-05-13T13:21:08Z</time>
      </trkpt>
      <trkpt lat="42.74578998" lon="13.41668995">
        <ele>668.00000</ele>
        <time>2024-05-13T13:21:09Z</time>
      </trkpt>
      <trkpt lat="42.74576995" lon="13.41661996">
        <ele>667.00000</ele>
        <time>2024-05-13T13:21:10Z</time>
      </trkpt>
      <trkpt lat="42.74572997" lon="13.41651996">
        <ele>666.00000</ele>
        <time>2024-05-13T13:21:11Z</time>
      </trkpt>
      <trkpt lat="42.74565998" lon="13.41647998">
        <ele>666.00000</ele>
        <time>2024-05-13T13:21:13Z</time>
      </trkpt>
      <trkpt lat="42.74557993" lon="13.41648995">
        <ele>667.00000</ele>
        <time>2024-05-13T13:21:14Z</time>
      </trkpt>
      <trkpt lat="42.74547994" lon="13.41651996">
        <ele>669.00000</ele>
        <time>2024-05-13T13:21:15Z</time>
      </trkpt>
      <trkpt lat="42.74535999" lon="13.41653999">
        <ele>669.00000</ele>
        <time>2024-05-13T13:21:17Z</time>
      </trkpt>
      <trkpt lat="42.74522999" lon="13.41652994">
        <ele>670.00000</ele>
        <time>2024-05-13T13:21:20Z</time>
      </trkpt>
      <trkpt lat="42.74510996" lon="13.41645995">
        <ele>670.00000</ele>
        <time>2024-05-13T13:21:22Z</time>
      </trkpt>
      <trkpt lat="42.74496998" lon="13.41638996">
        <ele>669.00000</ele>
        <time>2024-05-13T13:21:24Z</time>
      </trkpt>
      <trkpt lat="42.74477996" lon="13.41625995">
        <ele>667.00000</ele>
        <time>2024-05-13T13:21:27Z</time>
      </trkpt>
      <trkpt lat="42.74463999" lon="13.41615996">
        <ele>665.00000</ele>
        <time>2024-05-13T13:21:30Z</time>
      </trkpt>
      <trkpt lat="42.74441996" lon="13.41596994">
        <ele>664.00000</ele>
        <time>2024-05-13T13:21:34Z</time>
      </trkpt>
      <trkpt lat="42.74433991" lon="13.41590993">
        <ele>664.00000</ele>
        <time>2024-05-13T13:21:36Z</time>
      </trkpt>
      <trkpt lat="42.74420999" lon="13.41576995">
        <ele>663.00000</ele>
        <time>2024-05-13T13:21:38Z</time>
      </trkpt>
      <trkpt lat="42.74410991" lon="13.41567993">
        <ele>663.00000</ele>
        <time>2024-05-13T13:21:40Z</time>
      </trkpt>
      <trkpt lat="42.74404998" lon="13.41563994">
        <ele>663.00000</ele>
        <time>2024-05-13T13:21:41Z</time>
      </trkpt>
      <trkpt lat="42.74396994" lon="13.41557993">
        <ele>664.00000</ele>
        <time>2024-05-13T13:21:43Z</time>
      </trkpt>
      <trkpt lat="42.74388997" lon="13.41553995">
        <ele>664.00000</ele>
        <time>2024-05-13T13:21:44Z</time>
      </trkpt>
      <trkpt lat="42.74384999" lon="13.41551992">
        <ele>664.00000</ele>
        <time>2024-05-13T13:21:45Z</time>
      </trkpt>
      <trkpt lat="42.74376994" lon="13.41548999">
        <ele>663.00000</ele>
        <time>2024-05-13T13:21:46Z</time>
      </trkpt>
      <trkpt lat="42.74369996" lon="13.41548999">
        <ele>662.00000</ele>
        <time>2024-05-13T13:21:47Z</time>
      </trkpt>
      <trkpt lat="42.74361999" lon="13.41549997">
        <ele>662.00000</ele>
        <time>2024-05-13T13:21:48Z</time>
      </trkpt>
      <trkpt lat="42.74350994" lon="13.41553995">
        <ele>662.00000</ele>
        <time>2024-05-13T13:21:50Z</time>
      </trkpt>
      <trkpt lat="42.74343995" lon="13.41555998">
        <ele>661.00000</ele>
        <time>2024-05-13T13:21:51Z</time>
      </trkpt>
      <trkpt lat="42.74338999" lon="13.41558999">
        <ele>661.00000</ele>
        <time>2024-05-13T13:21:52Z</time>
      </trkpt>
      <trkpt lat="42.74333995" lon="13.41561991">
        <ele>661.00000</ele>
        <time>2024-05-13T13:21:53Z</time>
      </trkpt>
      <trkpt lat="42.74328991" lon="13.41563994">
        <ele>660.00000</ele>
        <time>2024-05-13T13:21:54Z</time>
      </trkpt>
      <trkpt lat="42.74325999" lon="13.41566995">
        <ele>660.00000</ele>
        <time>2024-05-13T13:21:55Z</time>
      </trkpt>
      <trkpt lat="42.74321992" lon="13.41570993">
        <ele>660.00000</ele>
        <time>2024-05-13T13:21:55Z</time>
      </trkpt>
      <trkpt lat="42.74319997" lon="13.41573994">
        <ele>660.00000</ele>
        <time>2024-05-13T13:21:56Z</time>
      </trkpt>
      <trkpt lat="42.74316997" lon="13.41577992">
        <ele>660.00000</ele>
        <time>2024-05-13T13:21:57Z</time>
      </trkpt>
      <trkpt lat="42.74314993" lon="13.41581999">
        <ele>660.00000</ele>
        <time>2024-05-13T13:21:57Z</time>
      </trkpt>
      <trkpt lat="42.74312999" lon="13.41586994">
        <ele>661.00000</ele>
        <time>2024-05-13T13:21:58Z</time>
      </trkpt>
      <trkpt lat="42.74311993" lon="13.41590993">
        <ele>661.00000</ele>
        <time>2024-05-13T13:21:58Z</time>
      </trkpt>
      <trkpt lat="42.74310995" lon="13.41594999">
        <ele>662.00000</ele>
        <time>2024-05-13T13:21:59Z</time>
      </trkpt>
      <trkpt lat="42.74309998" lon="13.41600992">
        <ele>662.00000</ele>
        <time>2024-05-13T13:21:59Z</time>
      </trkpt>
      <trkpt lat="42.74307995" lon="13.41607999">
        <ele>663.00000</ele>
        <time>2024-05-13T13:22:00Z</time>
      </trkpt>
      <trkpt lat="42.74306997" lon="13.41615996">
        <ele>664.00000</ele>
        <time>2024-05-13T13:22:01Z</time>
      </trkpt>
      <trkpt lat="42.74305991" lon="13.41622995">
        <ele>665.00000</ele>
        <time>2024-05-13T13:22:02Z</time>
      </trkpt>
      <trkpt lat="42.74302999" lon="13.41628996">
        <ele>666.00000</ele>
        <time>2024-05-13T13:22:03Z</time>
      </trkpt>
      <trkpt lat="42.74300996" lon="13.41634998">
        <ele>666.00000</ele>
        <time>2024-05-13T13:22:04Z</time>
      </trkpt>
      <trkpt lat="42.74298992" lon="13.41638996">
        <ele>666.00000</ele>
        <time>2024-05-13T13:22:04Z</time>
      </trkpt>
      <trkpt lat="42.74295992" lon="13.41641996">
        <ele>666.00000</ele>
        <time>2024-05-13T13:22:05Z</time>
      </trkpt>
      <trkpt lat="42.74290996" lon="13.41643991">
        <ele>665.00000</ele>
        <time>2024-05-13T13:22:06Z</time>
      </trkpt>
      <trkpt lat="42.74286998" lon="13.41645995">
        <ele>664.00000</ele>
        <time>2024-05-13T13:22:06Z</time>
      </trkpt>
      <trkpt lat="42.74282991" lon="13.41646992">
        <ele>663.00000</ele>
        <time>2024-05-13T13:22:07Z</time>
      </trkpt>
      <trkpt lat="42.74277996" lon="13.41647998">
        <ele>662.00000</ele>
        <time>2024-05-13T13:22:08Z</time>
      </trkpt>
      <trkpt lat="42.74273998" lon="13.41648995">
        <ele>661.00000</ele>
        <time>2024-05-13T13:22:09Z</time>
      </trkpt>
      <trkpt lat="42.74267996" lon="13.41649993">
        <ele>659.00000</ele>
        <time>2024-05-13T13:22:10Z</time>
      </trkpt>
      <trkpt lat="42.74260997" lon="13.41651996">
        <ele>657.00000</ele>
        <time>2024-05-13T13:22:11Z</time>
      </trkpt>
      <trkpt lat="42.74256999" lon="13.41654997">
        <ele>657.00000</ele>
        <time>2024-05-13T13:22:11Z</time>
      </trkpt>
      <trkpt lat="42.74250998" lon="13.41659992">
        <ele>655.00000</ele>
        <time>2024-05-13T13:22:13Z</time>
      </trkpt>
      <trkpt lat="42.74242993" lon="13.41666991">
        <ele>654.00000</ele>
        <time>2024-05-13T13:22:14Z</time>
      </trkpt>
      <trkpt lat="42.74233999" lon="13.41675993">
        <ele>654.00000</ele>
        <time>2024-05-13T13:22:16Z</time>
      </trkpt>
      <trkpt lat="42.74225994" lon="13.41683998">
        <ele>654.00000</ele>
        <time>2024-05-13T13:22:17Z</time>
      </trkpt>
      <trkpt lat="42.74217998" lon="13.41689991">
        <ele>653.00000</ele>
        <time>2024-05-13T13:22:19Z</time>
      </trkpt>
      <trkpt lat="42.74212994" lon="13.41694995">
        <ele>653.00000</ele>
        <time>2024-05-13T13:22:20Z</time>
      </trkpt>
      <trkpt lat="42.74209993" lon="13.41698993">
        <ele>655.00000</ele>
        <time>2024-05-13T13:22:21Z</time>
      </trkpt>
      <trkpt lat="42.74206993" lon="13.41702992">
        <ele>656.00000</ele>
        <time>2024-05-13T13:22:21Z</time>
      </trkpt>
      <trkpt lat="42.74204998" lon="13.41708993">
        <ele>658.00000</ele>
        <time>2024-05-13T13:22:22Z</time>
      </trkpt>
      <trkpt lat="42.74202995" lon="13.41712991">
        <ele>659.00000</ele>
        <time>2024-05-13T13:22:23Z</time>
      </trkpt>
      <trkpt lat="42.74201997" lon="13.41718993">
        <ele>660.00000</ele>
        <time>2024-05-13T13:22:23Z</time>
      </trkpt>
      <trkpt lat="42.74200991" lon="13.41722999">
        <ele>662.00000</ele>
        <time>2024-05-13T13:22:24Z</time>
      </trkpt>
      <trkpt lat="42.74199994" lon="13.41726997">
        <ele>663.00000</ele>
        <time>2024-05-13T13:22:24Z</time>
      </trkpt>
      <trkpt lat="42.74196993" lon="13.41731993">
        <ele>663.00000</ele>
        <time>2024-05-13T13:22:25Z</time>
      </trkpt>
      <trkpt lat="42.74191997" lon="13.41740995">
        <ele>662.00000</ele>
        <time>2024-05-13T13:22:26Z</time>
      </trkpt>
      <trkpt lat="42.74180992" lon="13.41758999">
        <ele>662.00000</ele>
        <time>2024-05-13T13:22:29Z</time>
      </trkpt>
      <trkpt lat="42.74172996" lon="13.41771991">
        <ele>663.00000</ele>
        <time>2024-05-13T13:22:31Z</time>
      </trkpt>
      <trkpt lat="42.74166994" lon="13.41777993">
        <ele>661.00000</ele>
        <time>2024-05-13T13:22:32Z</time>
      </trkpt>
      <trkpt lat="42.74160993" lon="13.41779996">
        <ele>661.00000</ele>
        <time>2024-05-13T13:22:33Z</time>
      </trkpt>
      <trkpt lat="42.74149996" lon="13.41780994">
        <ele>659.00000</ele>
        <time>2024-05-13T13:22:35Z</time>
      </trkpt>
      <trkpt lat="42.74138999" lon="13.41779996">
        <ele>656.00000</ele>
        <time>2024-05-13T13:22:37Z</time>
      </trkpt>
      <trkpt lat="42.74131991" lon="13.41778999">
        <ele>657.00000</ele>
        <time>2024-05-13T13:22:38Z</time>
      </trkpt>
      <trkpt lat="42.74124993" lon="13.41777993">
        <ele>658.00000</ele>
        <time>2024-05-13T13:22:39Z</time>
      </trkpt>
      <trkpt lat="42.74119997" lon="13.41778999">
        <ele>659.00000</ele>
        <time>2024-05-13T13:22:40Z</time>
      </trkpt>
      <trkpt lat="42.74115999" lon="13.41779996">
        <ele>660.00000</ele>
        <time>2024-05-13T13:22:41Z</time>
      </trkpt>
      <trkpt lat="42.74107994" lon="13.41782997">
        <ele>662.00000</ele>
        <time>2024-05-13T13:22:42Z</time>
      </trkpt>
      <trkpt lat="42.74100995" lon="13.41784992">
        <ele>664.00000</ele>
        <time>2024-05-13T13:22:43Z</time>
      </trkpt>
      <trkpt lat="42.74095991" lon="13.41783994">
        <ele>665.00000</ele>
        <time>2024-05-13T13:22:44Z</time>
      </trkpt>
      <trkpt lat="42.74089998" lon="13.41780994">
        <ele>667.00000</ele>
        <time>2024-05-13T13:22:45Z</time>
      </trkpt>
      <trkpt lat="42.74084994" lon="13.41770994">
        <ele>668.00000</ele>
        <time>2024-05-13T13:22:46Z</time>
      </trkpt>
      <trkpt lat="42.74081993" lon="13.41760994">
        <ele>669.00000</ele>
        <time>2024-05-13T13:22:48Z</time>
      </trkpt>
      <trkpt lat="42.74079998" lon="13.41745999">
        <ele>669.00000</ele>
        <time>2024-05-13T13:22:49Z</time>
      </trkpt>
      <trkpt lat="42.74080996" lon="13.41726997">
        <ele>668.00000</ele>
        <time>2024-05-13T13:22:52Z</time>
      </trkpt>
      <trkpt lat="42.74082999" lon="13.41711994">
        <ele>665.00000</ele>
        <time>2024-05-13T13:22:53Z</time>
      </trkpt>
      <trkpt lat="42.74084994" lon="13.41700997">
        <ele>663.00000</ele>
        <time>2024-05-13T13:22:55Z</time>
      </trkpt>
      <trkpt lat="42.74089998" lon="13.41679992">
        <ele>659.00000</ele>
        <time>2024-05-13T13:22:57Z</time>
      </trkpt>
      <trkpt lat="42.74097994" lon="13.41646992">
        <ele>655.00000</ele>
        <time>2024-05-13T13:23:01Z</time>
      </trkpt>
      <trkpt lat="42.74103996" lon="13.41614998">
        <ele>653.00000</ele>
        <time>2024-05-13T13:23:05Z</time>
      </trkpt>
      <trkpt lat="42.74106997" lon="13.41600992">
        <ele>654.00000</ele>
        <time>2024-05-13T13:23:07Z</time>
      </trkpt>
      <trkpt lat="42.74108991" lon="13.41589995">
        <ele>655.00000</ele>
        <time>2024-05-13T13:23:08Z</time>
      </trkpt>
      <trkpt lat="42.74113995" lon="13.41577992">
        <ele>655.00000</ele>
        <time>2024-05-13T13:23:10Z</time>
      </trkpt>
      <trkpt lat="42.74118999" lon="13.41568998">
        <ele>655.00000</ele>
        <time>2024-05-13T13:23:11Z</time>
      </trkpt>
      <trkpt lat="42.74123995" lon="13.41560994">
        <ele>655.00000</ele>
        <time>2024-05-13T13:23:13Z</time>
      </trkpt>
      <trkpt lat="42.74131991" lon="13.41551992">
        <ele>653.00000</ele>
        <time>2024-05-13T13:23:14Z</time>
      </trkpt>
      <trkpt lat="42.74138999" lon="13.41542998">
        <ele>651.00000</ele>
        <time>2024-05-13T13:23:16Z</time>
      </trkpt>
      <trkpt lat="42.74142997" lon="13.41536996">
        <ele>649.00000</ele>
        <time>2024-05-13T13:23:17Z</time>
      </trkpt>
      <trkpt lat="42.74145998" lon="13.41530995">
        <ele>648.00000</ele>
        <time>2024-05-13T13:23:18Z</time>
      </trkpt>
      <trkpt lat="42.74145998" lon="13.41527994">
        <ele>648.00000</ele>
        <time>2024-05-13T13:23:18Z</time>
      </trkpt>
      <trkpt lat="42.74146995" lon="13.41519998">
        <ele>647.00000</ele>
        <time>2024-05-13T13:23:19Z</time>
      </trkpt>
      <trkpt lat="42.74146995" lon="13.41513996">
        <ele>646.00000</ele>
        <time>2024-05-13T13:23:20Z</time>
      </trkpt>
      <trkpt lat="42.74145998" lon="13.41509998">
        <ele>647.00000</ele>
        <time>2024-05-13T13:23:20Z</time>
      </trkpt>
      <trkpt lat="42.74143994" lon="13.41508992">
        <ele>648.00000</ele>
        <time>2024-05-13T13:23:20Z</time>
      </trkpt>
      <trkpt lat="42.74136995" lon="13.41505992">
        <ele>650.00000</ele>
        <time>2024-05-13T13:23:22Z</time>
      </trkpt>
      <trkpt lat="42.74129997" lon="13.41503997">
        <ele>651.00000</ele>
        <time>2024-05-13T13:23:23Z</time>
      </trkpt>
      <trkpt lat="42.74126996" lon="13.41503997">
        <ele>652.00000</ele>
        <time>2024-05-13T13:23:23Z</time>
      </trkpt>
      <trkpt lat="42.74125998" lon="13.41502999">
        <ele>652.00000</ele>
        <time>2024-05-13T13:23:23Z</time>
      </trkpt>
      <trkpt lat="42.74122998" lon="13.41499999">
        <ele>652.00000</ele>
        <time>2024-05-13T13:23:24Z</time>
      </trkpt>
      <trkpt lat="42.74119997" lon="13.41493997">
        <ele>651.00000</ele>
        <time>2024-05-13T13:23:25Z</time>
      </trkpt>
      <trkpt lat="42.74114993" lon="13.41488993">
        <ele>651.00000</ele>
        <time>2024-05-13T13:23:26Z</time>
      </trkpt>
      <trkpt lat="42.74108991" lon="13.41485993">
        <ele>652.00000</ele>
        <time>2024-05-13T13:23:27Z</time>
      </trkpt>
      <trkpt lat="42.74103996" lon="13.41480997">
        <ele>651.00000</ele>
        <time>2024-05-13T13:23:28Z</time>
      </trkpt>
      <trkpt lat="42.74092999" lon="13.41466999">
        <ele>650.00000</ele>
        <time>2024-05-13T13:23:30Z</time>
      </trkpt>
      <trkpt lat="42.74077995" lon="13.41455994">
        <ele>648.00000</ele>
        <time>2024-05-13T13:23:33Z</time>
      </trkpt>
      <trkpt lat="42.74059999" lon="13.41440998">
        <ele>643.00000</ele>
        <time>2024-05-13T13:23:36Z</time>
      </trkpt>
      <trkpt lat="42.74049991" lon="13.41436992">
        <ele>642.00000</ele>
        <time>2024-05-13T13:23:38Z</time>
      </trkpt>
      <trkpt lat="42.74039992" lon="13.41436992">
        <ele>642.00000</ele>
        <time>2024-05-13T13:23:40Z</time>
      </trkpt>
      <trkpt lat="42.74031995" lon="13.41439993">
        <ele>643.00000</ele>
        <time>2024-05-13T13:23:41Z</time>
      </trkpt>
      <trkpt lat="42.74020998" lon="13.41443999">
        <ele>645.00000</ele>
        <time>2024-05-13T13:23:43Z</time>
      </trkpt>
      <trkpt lat="42.74011996" lon="13.41443999">
        <ele>646.00000</ele>
        <time>2024-05-13T13:23:44Z</time>
      </trkpt>
      <trkpt lat="42.74003991" lon="13.41442993">
        <ele>646.00000</ele>
        <time>2024-05-13T13:23:46Z</time>
      </trkpt>
      <trkpt lat="42.73995995" lon="13.41440998">
        <ele>646.00000</ele>
        <time>2024-05-13T13:23:47Z</time>
      </trkpt>
      <trkpt lat="42.73986993" lon="13.41435994">
        <ele>647.00000</ele>
        <time>2024-05-13T13:23:48Z</time>
      </trkpt>
      <trkpt lat="42.73973993" lon="13.41427998">
        <ele>648.00000</ele>
        <time>2024-05-13T13:23:51Z</time>
      </trkpt>
      <trkpt lat="42.73965996" lon="13.41419993">
        <ele>648.00000</ele>
        <time>2024-05-13T13:23:52Z</time>
      </trkpt>
      <trkpt lat="42.73956994" lon="13.41411997">
        <ele>648.00000</ele>
        <time>2024-05-13T13:23:54Z</time>
      </trkpt>
      <trkpt lat="42.73947992" lon="13.41404998">
        <ele>647.00000</ele>
        <time>2024-05-13T13:23:56Z</time>
      </trkpt>
      <trkpt lat="42.73939996" lon="13.41399994">
        <ele>646.00000</ele>
        <time>2024-05-13T13:23:57Z</time>
      </trkpt>
      <trkpt lat="42.73923994" lon="13.41392995">
        <ele>643.00000</ele>
        <time>2024-05-13T13:24:00Z</time>
      </trkpt>
      <trkpt lat="42.73905999" lon="13.41383993">
        <ele>641.00000</ele>
        <time>2024-05-13T13:24:03Z</time>
      </trkpt>
      <trkpt lat="42.73891992" lon="13.41377992">
        <ele>642.00000</ele>
        <time>2024-05-13T13:24:05Z</time>
      </trkpt>
      <trkpt lat="42.73877995" lon="13.41374999">
        <ele>644.00000</ele>
        <time>2024-05-13T13:24:07Z</time>
      </trkpt>
      <trkpt lat="42.73859999" lon="13.41371999">
        <ele>647.00000</ele>
        <time>2024-05-13T13:24:10Z</time>
      </trkpt>
      <trkpt lat="42.73849999" lon="13.41368998">
        <ele>649.00000</ele>
        <time>2024-05-13T13:24:12Z</time>
      </trkpt>
      <trkpt lat="42.73841994" lon="13.41365997">
        <ele>649.00000</ele>
        <time>2024-05-13T13:24:13Z</time>
      </trkpt>
      <trkpt lat="42.73827997" lon="13.41355998">
        <ele>647.00000</ele>
        <time>2024-05-13T13:24:16Z</time>
      </trkpt>
      <trkpt lat="42.73807997" lon="13.41342997">
        <ele>646.00000</ele>
        <time>2024-05-13T13:24:19Z</time>
      </trkpt>
      <trkpt lat="42.73794997" lon="13.41332998">
        <ele>645.00000</ele>
        <time>2024-05-13T13:24:22Z</time>
      </trkpt>
      <trkpt lat="42.73788996" lon="13.41324993">
        <ele>645.00000</ele>
        <time>2024-05-13T13:24:23Z</time>
      </trkpt>
      <trkpt lat="42.73781997" lon="13.41317994">
        <ele>646.00000</ele>
        <time>2024-05-13T13:24:25Z</time>
      </trkpt>
      <trkpt lat="42.73776993" lon="13.41309998">
        <ele>646.00000</ele>
        <time>2024-05-13T13:24:26Z</time>
      </trkpt>
      <trkpt lat="42.73767999" lon="13.41293997">
        <ele>644.00000</ele>
        <time>2024-05-13T13:24:28Z</time>
      </trkpt>
      <trkpt lat="42.73760992" lon="13.41282991">
        <ele>642.00000</ele>
        <time>2024-05-13T13:24:30Z</time>
      </trkpt>
      <trkpt lat="42.73752995" lon="13.41274995">
        <ele>642.00000</ele>
        <time>2024-05-13T13:24:31Z</time>
      </trkpt>
      <trkpt lat="42.73745996" lon="13.41269999">
        <ele>643.00000</ele>
        <time>2024-05-13T13:24:33Z</time>
      </trkpt>
      <trkpt lat="42.73729995" lon="13.41256999">
        <ele>645.00000</ele>
        <time>2024-05-13T13:24:36Z</time>
      </trkpt>
      <trkpt lat="42.73704992" lon="13.41236991">
        <ele>645.00000</ele>
        <time>2024-05-13T13:24:40Z</time>
      </trkpt>
      <trkpt lat="42.73683995" lon="13.41218995">
        <ele>645.00000</ele>
        <time>2024-05-13T13:24:44Z</time>
      </trkpt>
      <trkpt lat="42.73662999" lon="13.41200999">
        <ele>644.00000</ele>
        <time>2024-05-13T13:24:48Z</time>
      </trkpt>
      <trkpt lat="42.73641005" lon="13.41186499">
        <ele>643.00000</ele>
        <time>2024-05-13T13:24:52Z</time>
      </trkpt>
      <trkpt lat="42.73618994" lon="13.41171998">
        <ele>641.00000</ele>
        <time>2024-05-13T13:24:56Z</time>
      </trkpt>
      <trkpt lat="42.73599506" lon="13.41161001">
        <ele>641.00000</ele>
        <time>2024-05-13T13:24:59Z</time>
      </trkpt>
      <trkpt lat="42.73579993" lon="13.41149996">
        <ele>641.00000</ele>
        <time>2024-05-13T13:25:03Z</time>
      </trkpt>
      <trkpt lat="42.73560337" lon="13.41138663">
        <ele>642.00000</ele>
        <time>2024-05-13T13:25:06Z</time>
      </trkpt>
      <trkpt lat="42.73540682" lon="13.41127339">
        <ele>641.00000</ele>
        <time>2024-05-13T13:25:10Z</time>
      </trkpt>
      <trkpt lat="42.73520993" lon="13.41115999">
        <ele>641.00000</ele>
        <time>2024-05-13T13:25:13Z</time>
      </trkpt>
      <trkpt lat="42.73508998" lon="13.41108991">
        <ele>644.00000</ele>
        <time>2024-05-13T13:25:15Z</time>
      </trkpt>
      <trkpt lat="42.73501999" lon="13.41103996">
        <ele>644.00000</ele>
        <time>2024-05-13T13:25:16Z</time>
      </trkpt>
      <trkpt lat="42.73497993" lon="13.41100995">
        <ele>645.00000</ele>
        <time>2024-05-13T13:25:17Z</time>
      </trkpt>
      <trkpt lat="42.73494992" lon="13.41096997">
        <ele>645.00000</ele>
        <time>2024-05-13T13:25:18Z</time>
      </trkpt>
      <trkpt lat="42.73489996" lon="13.41088992">
        <ele>645.00000</ele>
        <time>2024-05-13T13:25:19Z</time>
      </trkpt>
      <trkpt lat="42.73482997" lon="13.41074994">
        <ele>644.00000</ele>
        <time>2024-05-13T13:25:21Z</time>
      </trkpt>
      <trkpt lat="42.73475999" lon="13.41060996">
        <ele>642.00000</ele>
        <time>2024-05-13T13:25:23Z</time>
      </trkpt>
      <trkpt lat="42.73462998" lon="13.41042992">
        <ele>644.00000</ele>
        <time>2024-05-13T13:25:26Z</time>
      </trkpt>
      <trkpt lat="42.73457994" lon="13.41035993">
        <ele>645.00000</ele>
        <time>2024-05-13T13:25:27Z</time>
      </trkpt>
      <trkpt lat="42.73455999" lon="13.41030998">
        <ele>645.00000</ele>
        <time>2024-05-13T13:25:28Z</time>
      </trkpt>
      <trkpt lat="42.73455999" lon="13.41024996">
        <ele>645.00000</ele>
        <time>2024-05-13T13:25:29Z</time>
      </trkpt>
      <trkpt lat="42.73456997" lon="13.41018995">
        <ele>646.00000</ele>
        <time>2024-05-13T13:25:29Z</time>
      </trkpt>
      <trkpt lat="42.73458992" lon="13.41013999">
        <ele>646.00000</ele>
        <time>2024-05-13T13:25:30Z</time>
      </trkpt>
      <trkpt lat="42.73463996" lon="13.41008995">
        <ele>646.00000</ele>
        <time>2024-05-13T13:25:31Z</time>
      </trkpt>
      <trkpt lat="42.73471992" lon="13.41005994">
        <ele>645.00000</ele>
        <time>2024-05-13T13:25:32Z</time>
      </trkpt>
      <trkpt lat="42.73495998" lon="13.40994997">
        <ele>641.00000</ele>
        <time>2024-05-13T13:25:36Z</time>
      </trkpt>
      <trkpt lat="42.73520993" lon="13.40983992">
        <ele>639.00000</ele>
        <time>2024-05-13T13:25:41Z</time>
      </trkpt>
      <trkpt lat="42.73537471" lon="13.40975493">
        <ele>639.00000</ele>
        <time>2024-05-13T13:25:43Z</time>
      </trkpt>
      <trkpt lat="42.73553992" lon="13.40966993">
        <ele>640.00000</ele>
        <time>2024-05-13T13:25:46Z</time>
      </trkpt>
      <trkpt lat="42.73568996" lon="13.40959995">
        <ele>641.00000</ele>
        <time>2024-05-13T13:25:49Z</time>
      </trkpt>
      <trkpt lat="42.73586992" lon="13.40953993">
        <ele>640.00000</ele>
        <time>2024-05-13T13:25:52Z</time>
      </trkpt>
      <trkpt lat="42.73602993" lon="13.40947992">
        <ele>638.00000</ele>
        <time>2024-05-13T13:25:54Z</time>
      </trkpt>
      <trkpt lat="42.73619991" lon="13.40943994">
        <ele>635.00000</ele>
        <time>2024-05-13T13:25:57Z</time>
      </trkpt>
      <trkpt lat="42.73631994" lon="13.40938998">
        <ele>636.00000</ele>
        <time>2024-05-13T13:25:59Z</time>
      </trkpt>
      <trkpt lat="42.73638993" lon="13.40935997">
        <ele>636.00000</ele>
        <time>2024-05-13T13:26:00Z</time>
      </trkpt>
      <trkpt lat="42.73646998" lon="13.40928998">
        <ele>636.00000</ele>
        <time>2024-05-13T13:26:02Z</time>
      </trkpt>
      <trkpt lat="42.73659998" lon="13.40916995">
        <ele>638.00000</ele>
        <time>2024-05-13T13:26:04Z</time>
      </trkpt>
      <trkpt lat="42.73672998" lon="13.40903995">
        <ele>638.00000</ele>
        <time>2024-05-13T13:26:07Z</time>
      </trkpt>
      <trkpt lat="42.73686996" lon="13.40889997">
        <ele>637.00000</ele>
        <time>2024-05-13T13:26:10Z</time>
      </trkpt>
      <trkpt lat="42.73693995" lon="13.40875991">
        <ele>637.00000</ele>
        <time>2024-05-13T13:26:12Z</time>
      </trkpt>
      <trkpt lat="42.73702997" lon="13.40853997">
        <ele>639.00000</ele>
        <time>2024-05-13T13:26:15Z</time>
      </trkpt>
      <trkpt lat="42.73709996" lon="13.40832992">
        <ele>642.00000</ele>
        <time>2024-05-13T13:26:17Z</time>
      </trkpt>
      <trkpt lat="42.73715998" lon="13.40810998">
        <ele>643.00000</ele>
        <time>2024-05-13T13:26:20Z</time>
      </trkpt>
      <trkpt lat="42.73721999" lon="13.40791996">
        <ele>644.00000</ele>
        <time>2024-05-13T13:26:23Z</time>
      </trkpt>
      <trkpt lat="42.73725997" lon="13.40780999">
        <ele>644.00000</ele>
        <time>2024-05-13T13:26:24Z</time>
      </trkpt>
      <trkpt lat="42.73734999" lon="13.40762995">
        <ele>643.00000</ele>
        <time>2024-05-13T13:26:27Z</time>
      </trkpt>
      <trkpt lat="42.73742996" lon="13.40743993">
        <ele>643.00000</ele>
        <time>2024-05-13T13:26:29Z</time>
      </trkpt>
      <trkpt lat="42.73751998" lon="13.40721999">
        <ele>642.00000</ele>
        <time>2024-05-13T13:26:32Z</time>
      </trkpt>
      <trkpt lat="42.73755996" lon="13.40708998">
        <ele>642.00000</ele>
        <time>2024-05-13T13:26:34Z</time>
      </trkpt>
      <trkpt lat="42.73756993" lon="13.40705998">
        <ele>641.00000</ele>
        <time>2024-05-13T13:26:34Z</time>
      </trkpt>
      <trkpt lat="42.73756993" lon="13.40702997">
        <ele>641.00000</ele>
        <time>2024-05-13T13:26:35Z</time>
      </trkpt>
      <trkpt lat="42.73757999" lon="13.40691992">
        <ele>642.00000</ele>
        <time>2024-05-13T13:26:36Z</time>
      </trkpt>
      <trkpt lat="42.73755996" lon="13.40667994">
        <ele>643.00000</ele>
        <time>2024-05-13T13:26:39Z</time>
      </trkpt>
      <trkpt lat="42.73749995" lon="13.40632991">
        <ele>645.00000</ele>
        <time>2024-05-13T13:26:43Z</time>
      </trkpt>
      <trkpt lat="42.73747991" lon="13.40615993">
        <ele>648.00000</ele>
        <time>2024-05-13T13:26:45Z</time>
      </trkpt>
      <trkpt lat="42.73742996" lon="13.40596999">
        <ele>648.00000</ele>
        <time>2024-05-13T13:26:47Z</time>
      </trkpt>
      <trkpt lat="42.73737992" lon="13.40583999">
        <ele>647.00000</ele>
        <time>2024-05-13T13:26:49Z</time>
      </trkpt>
      <trkpt lat="42.73726995" lon="13.40564997">
        <ele>648.00000</ele>
        <time>2024-05-13T13:26:52Z</time>
      </trkpt>
      <trkpt lat="42.73714992" lon="13.40548996">
        <ele>648.00000</ele>
        <time>2024-05-13T13:26:55Z</time>
      </trkpt>
      <trkpt lat="42.73705998" lon="13.40535996">
        <ele>649.00000</ele>
        <time>2024-05-13T13:26:57Z</time>
      </trkpt>
      <trkpt lat="42.73697993" lon="13.40527991">
        <ele>650.00000</ele>
        <time>2024-05-13T13:26:58Z</time>
      </trkpt>
      <trkpt lat="42.73692998" lon="13.40525996">
        <ele>652.00000</ele>
        <time>2024-05-13T13:26:59Z</time>
      </trkpt>
      <trkpt lat="42.73690994" lon="13.40525996">
        <ele>652.00000</ele>
        <time>2024-05-13T13:26:59Z</time>
      </trkpt>
      <trkpt lat="42.73688999" lon="13.40525996">
        <ele>653.00000</ele>
        <time>2024-05-13T13:27:00Z</time>
      </trkpt>
      <trkpt lat="42.73684993" lon="13.40527991">
        <ele>655.00000</ele>
        <time>2024-05-13T13:27:00Z</time>
      </trkpt>
      <trkpt lat="42.73681992" lon="13.40530992">
        <ele>656.00000</ele>
        <time>2024-05-13T13:27:01Z</time>
      </trkpt>
      <trkpt lat="42.73679997" lon="13.40534999">
        <ele>657.00000</ele>
        <time>2024-05-13T13:27:02Z</time>
      </trkpt>
      <trkpt lat="42.73677994" lon="13.40541997">
        <ele>660.00000</ele>
        <time>2024-05-13T13:27:02Z</time>
      </trkpt>
      <trkpt lat="42.73677994" lon="13.40545996">
        <ele>660.00000</ele>
        <time>2024-05-13T13:27:03Z</time>
      </trkpt>
      <trkpt lat="42.73677994" lon="13.40550991">
        <ele>661.00000</ele>
        <time>2024-05-13T13:27:04Z</time>
      </trkpt>
      <trkpt lat="42.73677994" lon="13.40555995">
        <ele>662.00000</ele>
        <time>2024-05-13T13:27:04Z</time>
      </trkpt>
      <trkpt lat="42.73678991" lon="13.40564997">
        <ele>664.00000</ele>
        <time>2024-05-13T13:27:05Z</time>
      </trkpt>
      <trkpt lat="42.73680995" lon="13.40578995">
        <ele>666.00000</ele>
        <time>2024-05-13T13:27:07Z</time>
      </trkpt>
      <trkpt lat="42.73682998" lon="13.40590998">
        <ele>667.00000</ele>
        <time>2024-05-13T13:27:08Z</time>
      </trkpt>
      <trkpt lat="42.73683995" lon="13.40598994">
        <ele>668.00000</ele>
        <time>2024-05-13T13:27:09Z</time>
      </trkpt>
      <trkpt lat="42.73684993" lon="13.40605993">
        <ele>668.00000</ele>
        <time>2024-05-13T13:27:10Z</time>
      </trkpt>
      <trkpt lat="42.73687994" lon="13.40609991">
        <ele>668.00000</ele>
        <time>2024-05-13T13:27:11Z</time>
      </trkpt>
      <trkpt lat="42.73689997" lon="13.40613998">
        <ele>668.00000</ele>
        <time>2024-05-13T13:27:11Z</time>
      </trkpt>
      <trkpt lat="42.73695998" lon="13.40618994">
        <ele>666.00000</ele>
        <time>2024-05-13T13:27:13Z</time>
      </trkpt>
      <trkpt lat="42.73698999" lon="13.40624995">
        <ele>665.00000</ele>
        <time>2024-05-13T13:27:13Z</time>
      </trkpt>
      <trkpt lat="42.73700994" lon="13.40629999">
        <ele>665.00000</ele>
        <time>2024-05-13T13:27:14Z</time>
      </trkpt>
      <trkpt lat="42.73700994" lon="13.40633997">
        <ele>665.00000</ele>
        <time>2024-05-13T13:27:14Z</time>
      </trkpt>
      <trkpt lat="42.73698999" lon="13.40639999">
        <ele>666.00000</ele>
        <time>2024-05-13T13:27:15Z</time>
      </trkpt>
      <trkpt lat="42.73697993" lon="13.40643997">
        <ele>666.00000</ele>
        <time>2024-05-13T13:27:16Z</time>
      </trkpt>
      <trkpt lat="42.73693995" lon="13.40654994">
        <ele>666.00000</ele>
        <time>2024-05-13T13:27:17Z</time>
      </trkpt>
      <trkpt lat="42.73687994" lon="13.40666997">
        <ele>666.00000</ele>
        <time>2024-05-13T13:27:19Z</time>
      </trkpt>
      <trkpt lat="42.73679997" lon="13.40681992">
        <ele>666.00000</ele>
        <time>2024-05-13T13:27:21Z</time>
      </trkpt>
      <trkpt lat="42.73662479" lon="13.40705000">
        <ele>666.00000</ele>
        <time>2024-05-13T13:27:25Z</time>
      </trkpt>
      <trkpt lat="42.73644994" lon="13.40727992">
        <ele>672.00000</ele>
        <time>2024-05-13T13:27:29Z</time>
      </trkpt>
      <trkpt lat="42.73642991" lon="13.40731998">
        <ele>673.00000</ele>
        <time>2024-05-13T13:27:29Z</time>
      </trkpt>
      <trkpt lat="42.73639999" lon="13.40732996">
        <ele>675.00000</ele>
        <time>2024-05-13T13:27:30Z</time>
      </trkpt>
      <trkpt lat="42.73636998" lon="13.40732996">
        <ele>677.00000</ele>
        <time>2024-05-13T13:27:30Z</time>
      </trkpt>
      <trkpt lat="42.73635992" lon="13.40731998">
        <ele>678.00000</ele>
        <time>2024-05-13T13:27:31Z</time>
      </trkpt>
      <trkpt lat="42.73634995" lon="13.40729995">
        <ele>678.00000</ele>
        <time>2024-05-13T13:27:31Z</time>
      </trkpt>
      <trkpt lat="42.73633997" lon="13.40725997">
        <ele>679.00000</ele>
        <time>2024-05-13T13:27:31Z</time>
      </trkpt>
      <trkpt lat="42.73632992" lon="13.40717992">
        <ele>679.00000</ele>
        <time>2024-05-13T13:27:32Z</time>
      </trkpt>
      <trkpt lat="42.73634492" lon="13.40692427">
        <ele>676.00000</ele>
        <time>2024-05-13T13:27:35Z</time>
      </trkpt>
      <trkpt lat="42.73635992" lon="13.40666997">
        <ele>676.00000</ele>
        <time>2024-05-13T13:27:38Z</time>
      </trkpt>
      <trkpt lat="42.73637996" lon="13.40650996">
        <ele>678.00000</ele>
        <time>2024-05-13T13:27:40Z</time>
      </trkpt>
      <trkpt lat="42.73638993" lon="13.40643997">
        <ele>679.00000</ele>
        <time>2024-05-13T13:27:41Z</time>
      </trkpt>
      <trkpt lat="42.73638993" lon="13.40638993">
        <ele>680.00000</ele>
        <time>2024-05-13T13:27:42Z</time>
      </trkpt>
      <trkpt lat="42.73635992" lon="13.40636998">
        <ele>681.00000</ele>
        <time>2024-05-13T13:27:42Z</time>
      </trkpt>
      <trkpt lat="42.73632992" lon="13.40636998">
        <ele>682.00000</ele>
        <time>2024-05-13T13:27:43Z</time>
      </trkpt>
      <trkpt lat="42.73630997" lon="13.40641994">
        <ele>682.00000</ele>
        <time>2024-05-13T13:27:43Z</time>
      </trkpt>
      <trkpt lat="42.73629999" lon="13.40649998">
        <ele>681.00000</ele>
        <time>2024-05-13T13:27:44Z</time>
      </trkpt>
      <trkpt lat="42.73628993" lon="13.40658992">
        <ele>680.00000</ele>
        <time>2024-05-13T13:27:45Z</time>
      </trkpt>
      <trkpt lat="42.73625993" lon="13.40666997">
        <ele>680.00000</ele>
        <time>2024-05-13T13:27:47Z</time>
      </trkpt>
      <trkpt lat="42.73619991" lon="13.40668992">
        <ele>683.00000</ele>
        <time>2024-05-13T13:27:48Z</time>
      </trkpt>
      <trkpt lat="42.73614996" lon="13.40666997">
        <ele>685.00000</ele>
        <time>2024-05-13T13:27:48Z</time>
      </trkpt>
      <trkpt lat="42.73613998" lon="13.40661993">
        <ele>685.00000</ele>
        <time>2024-05-13T13:27:49Z</time>
      </trkpt>
      <trkpt lat="42.73612992" lon="13.40652999">
        <ele>686.00000</ele>
        <time>2024-05-13T13:27:50Z</time>
      </trkpt>
      <trkpt lat="42.73614996" lon="13.40644994">
        <ele>686.00000</ele>
        <time>2024-05-13T13:27:51Z</time>
      </trkpt>
      <trkpt lat="42.73616999" lon="13.40637995">
        <ele>686.00000</ele>
        <time>2024-05-13T13:27:52Z</time>
      </trkpt>
      <trkpt lat="42.73619991" lon="13.40629999">
        <ele>686.00000</ele>
        <time>2024-05-13T13:27:53Z</time>
      </trkpt>
      <trkpt lat="42.73616999" lon="13.40637995">
        <ele>686.00000</ele>
        <time>2024-05-13T13:27:54Z</time>
      </trkpt>
      <trkpt lat="42.73614996" lon="13.40644994">
        <ele>686.00000</ele>
        <time>2024-05-13T13:27:55Z</time>
      </trkpt>
      <trkpt lat="42.73612992" lon="13.40652999">
        <ele>686.00000</ele>
        <time>2024-05-13T13:27:56Z</time>
      </trkpt>
      <trkpt lat="42.73613998" lon="13.40661993">
        <ele>685.00000</ele>
        <time>2024-05-13T13:27:57Z</time>
      </trkpt>
      <trkpt lat="42.73614996" lon="13.40666997">
        <ele>685.00000</ele>
        <time>2024-05-13T13:27:58Z</time>
      </trkpt>
      <trkpt lat="42.73619991" lon="13.40668992">
        <ele>683.00000</ele>
        <time>2024-05-13T13:27:58Z</time>
      </trkpt>
      <trkpt lat="42.73625993" lon="13.40666997">
        <ele>680.00000</ele>
        <time>2024-05-13T13:27:59Z</time>
      </trkpt>
      <trkpt lat="42.73628993" lon="13.40658992">
        <ele>680.00000</ele>
        <time>2024-05-13T13:28:00Z</time>
      </trkpt>
      <trkpt lat="42.73629999" lon="13.40649998">
        <ele>681.00000</ele>
        <time>2024-05-13T13:28:02Z</time>
      </trkpt>
      <trkpt lat="42.73630997" lon="13.40641994">
        <ele>682.00000</ele>
        <time>2024-05-13T13:28:02Z</time>
      </trkpt>
      <trkpt lat="42.73632992" lon="13.40636998">
        <ele>682.00000</ele>
        <time>2024-05-13T13:28:03Z</time>
      </trkpt>
      <trkpt lat="42.73635992" lon="13.40636998">
        <ele>681.00000</ele>
        <time>2024-05-13T13:28:04Z</time>
      </trkpt>
      <trkpt lat="42.73638993" lon="13.40638993">
        <ele>680.00000</ele>
        <time>2024-05-13T13:28:04Z</time>
      </trkpt>
      <trkpt lat="42.73638993" lon="13.40643997">
        <ele>679.00000</ele>
        <time>2024-05-13T13:28:05Z</time>
      </trkpt>
      <trkpt lat="42.73637996" lon="13.40650996">
        <ele>678.00000</ele>
        <time>2024-05-13T13:28:06Z</time>
      </trkpt>
      <trkpt lat="42.73635992" lon="13.40666997">
        <ele>676.00000</ele>
        <time>2024-05-13T13:28:08Z</time>
      </trkpt>
      <trkpt lat="42.73634484" lon="13.40692553">
        <ele>676.00000</ele>
        <time>2024-05-13T13:28:11Z</time>
      </trkpt>
      <trkpt lat="42.73632992" lon="13.40717992">
        <ele>679.00000</ele>
        <time>2024-05-13T13:28:14Z</time>
      </trkpt>
      <trkpt lat="42.73633997" lon="13.40725997">
        <ele>679.00000</ele>
        <time>2024-05-13T13:28:15Z</time>
      </trkpt>
      <trkpt lat="42.73634995" lon="13.40729995">
        <ele>678.00000</ele>
        <time>2024-05-13T13:28:15Z</time>
      </trkpt>
      <trkpt lat="42.73635992" lon="13.40731998">
        <ele>678.00000</ele>
        <time>2024-05-13T13:28:15Z</time>
      </trkpt>
      <trkpt lat="42.73636998" lon="13.40732996">
        <ele>677.00000</ele>
        <time>2024-05-13T13:28:15Z</time>
      </trkpt>
      <trkpt lat="42.73639999" lon="13.40732996">
        <ele>675.00000</ele>
        <time>2024-05-13T13:28:16Z</time>
      </trkpt>
      <trkpt lat="42.73642991" lon="13.40731998">
        <ele>673.00000</ele>
        <time>2024-05-13T13:28:16Z</time>
      </trkpt>
      <trkpt lat="42.73644994" lon="13.40727992">
        <ele>672.00000</ele>
        <time>2024-05-13T13:28:17Z</time>
      </trkpt>
      <trkpt lat="42.73662504" lon="13.40704975">
        <ele>666.00000</ele>
        <time>2024-05-13T13:28:21Z</time>
      </trkpt>
      <trkpt lat="42.73679997" lon="13.40681992">
        <ele>666.00000</ele>
        <time>2024-05-13T13:28:25Z</time>
      </trkpt>
      <trkpt lat="42.73687994" lon="13.40666997">
        <ele>666.00000</ele>
        <time>2024-05-13T13:28:27Z</time>
      </trkpt>
      <trkpt lat="42.73693995" lon="13.40654994">
        <ele>666.00000</ele>
        <time>2024-05-13T13:28:29Z</time>
      </trkpt>
      <trkpt lat="42.73697993" lon="13.40643997">
        <ele>666.00000</ele>
        <time>2024-05-13T13:28:30Z</time>
      </trkpt>
      <trkpt lat="42.73698999" lon="13.40639999">
        <ele>666.00000</ele>
        <time>2024-05-13T13:28:31Z</time>
      </trkpt>
      <trkpt lat="42.73700994" lon="13.40633997">
        <ele>665.00000</ele>
        <time>2024-05-13T13:28:31Z</time>
      </trkpt>
      <trkpt lat="42.73700994" lon="13.40629999">
        <ele>665.00000</ele>
        <time>2024-05-13T13:28:32Z</time>
      </trkpt>
      <trkpt lat="42.73698999" lon="13.40624995">
        <ele>665.00000</ele>
        <time>2024-05-13T13:28:33Z</time>
      </trkpt>
      <trkpt lat="42.73695998" lon="13.40618994">
        <ele>666.00000</ele>
        <time>2024-05-13T13:28:33Z</time>
      </trkpt>
      <trkpt lat="42.73689997" lon="13.40613998">
        <ele>668.00000</ele>
        <time>2024-05-13T13:28:35Z</time>
      </trkpt>
      <trkpt lat="42.73687994" lon="13.40609991">
        <ele>668.00000</ele>
        <time>2024-05-13T13:28:35Z</time>
      </trkpt>
      <trkpt lat="42.73684993" lon="13.40605993">
        <ele>668.00000</ele>
        <time>2024-05-13T13:28:36Z</time>
      </trkpt>
      <trkpt lat="42.73683995" lon="13.40598994">
        <ele>668.00000</ele>
        <time>2024-05-13T13:28:37Z</time>
      </trkpt>
      <trkpt lat="42.73682998" lon="13.40590998">
        <ele>667.00000</ele>
        <time>2024-05-13T13:28:38Z</time>
      </trkpt>
      <trkpt lat="42.73680995" lon="13.40578995">
        <ele>666.00000</ele>
        <time>2024-05-13T13:28:39Z</time>
      </trkpt>
      <trkpt lat="42.73678991" lon="13.40564997">
        <ele>664.00000</ele>
        <time>2024-05-13T13:28:41Z</time>
      </trkpt>
      <trkpt lat="42.73677994" lon="13.40555995">
        <ele>662.00000</ele>
        <time>2024-05-13T13:28:42Z</time>
      </trkpt>
      <trkpt lat="42.73677994" lon="13.40550991">
        <ele>661.00000</ele>
        <time>2024-05-13T13:28:42Z</time>
      </trkpt>
      <trkpt lat="42.73677994" lon="13.40545996">
        <ele>660.00000</ele>
        <time>2024-05-13T13:28:43Z</time>
      </trkpt>
      <trkpt lat="42.73677994" lon="13.40541997">
        <ele>660.00000</ele>
        <time>2024-05-13T13:28:43Z</time>
      </trkpt>
      <trkpt lat="42.73679997" lon="13.40534999">
        <ele>657.00000</ele>
        <time>2024-05-13T13:28:44Z</time>
      </trkpt>
      <trkpt lat="42.73681992" lon="13.40530992">
        <ele>656.00000</ele>
        <time>2024-05-13T13:28:45Z</time>
      </trkpt>
      <trkpt lat="42.73684993" lon="13.40527991">
        <ele>655.00000</ele>
        <time>2024-05-13T13:28:46Z</time>
      </trkpt>
      <trkpt lat="42.73688999" lon="13.40525996">
        <ele>653.00000</ele>
        <time>2024-05-13T13:28:46Z</time>
      </trkpt>
      <trkpt lat="42.73690994" lon="13.40525996">
        <ele>652.00000</ele>
        <time>2024-05-13T13:28:47Z</time>
      </trkpt>
      <trkpt lat="42.73692998" lon="13.40525996">
        <ele>652.00000</ele>
        <time>2024-05-13T13:28:47Z</time>
      </trkpt>
      <trkpt lat="42.73697993" lon="13.40527991">
        <ele>650.00000</ele>
        <time>2024-05-13T13:28:48Z</time>
      </trkpt>
      <trkpt lat="42.73705998" lon="13.40535996">
        <ele>649.00000</ele>
        <time>2024-05-13T13:28:49Z</time>
      </trkpt>
      <trkpt lat="42.73714992" lon="13.40548996">
        <ele>648.00000</ele>
        <time>2024-05-13T13:28:51Z</time>
      </trkpt>
      <trkpt lat="42.73726995" lon="13.40564997">
        <ele>648.00000</ele>
        <time>2024-05-13T13:28:54Z</time>
      </trkpt>
      <trkpt lat="42.73737992" lon="13.40583999">
        <ele>647.00000</ele>
        <time>2024-05-13T13:28:57Z</time>
      </trkpt>
      <trkpt lat="42.73742996" lon="13.40596999">
        <ele>648.00000</ele>
        <time>2024-05-13T13:28:59Z</time>
      </trkpt>
      <trkpt lat="42.73747991" lon="13.40615993">
        <ele>648.00000</ele>
        <time>2024-05-13T13:29:01Z</time>
      </trkpt>
      <trkpt lat="42.73749995" lon="13.40632991">
        <ele>645.00000</ele>
        <time>2024-05-13T13:29:03Z</time>
      </trkpt>
      <trkpt lat="42.73755996" lon="13.40667994">
        <ele>643.00000</ele>
        <time>2024-05-13T13:29:07Z</time>
      </trkpt>
      <trkpt lat="42.73757999" lon="13.40691992">
        <ele>642.00000</ele>
        <time>2024-05-13T13:29:10Z</time>
      </trkpt>
      <trkpt lat="42.73756993" lon="13.40702997">
        <ele>641.00000</ele>
        <time>2024-05-13T13:29:11Z</time>
      </trkpt>
      <trkpt lat="42.73756993" lon="13.40705998">
        <ele>641.00000</ele>
        <time>2024-05-13T13:29:12Z</time>
      </trkpt>
      <trkpt lat="42.73755996" lon="13.40708998">
        <ele>642.00000</ele>
        <time>2024-05-13T13:29:12Z</time>
      </trkpt>
      <trkpt lat="42.73751998" lon="13.40721999">
        <ele>642.00000</ele>
        <time>2024-05-13T13:29:14Z</time>
      </trkpt>
      <trkpt lat="42.73742996" lon="13.40743993">
        <ele>643.00000</ele>
        <time>2024-05-13T13:29:17Z</time>
      </trkpt>
      <trkpt lat="42.73734999" lon="13.40762995">
        <ele>643.00000</ele>
        <time>2024-05-13T13:29:19Z</time>
      </trkpt>
      <trkpt lat="42.73725997" lon="13.40780999">
        <ele>644.00000</ele>
        <time>2024-05-13T13:29:22Z</time>
      </trkpt>
      <trkpt lat="42.73721999" lon="13.40791996">
        <ele>644.00000</ele>
        <time>2024-05-13T13:29:23Z</time>
      </trkpt>
      <trkpt lat="42.73715998" lon="13.40810998">
        <ele>643.00000</ele>
        <time>2024-05-13T13:29:26Z</time>
      </trkpt>
      <trkpt lat="42.73709996" lon="13.40832992">
        <ele>642.00000</ele>
        <time>2024-05-13T13:29:29Z</time>
      </trkpt>
      <trkpt lat="42.73702997" lon="13.40853997">
        <ele>639.00000</ele>
        <time>2024-05-13T13:29:31Z</time>
      </trkpt>
      <trkpt lat="42.73693995" lon="13.40875991">
        <ele>637.00000</ele>
        <time>2024-05-13T13:29:34Z</time>
      </trkpt>
      <trkpt lat="42.73686996" lon="13.40889997">
        <ele>637.00000</ele>
        <time>2024-05-13T13:29:36Z</time>
      </trkpt>
      <trkpt lat="42.73672998" lon="13.40903995">
        <ele>638.00000</ele>
        <time>2024-05-13T13:29:39Z</time>
      </trkpt>
      <trkpt lat="42.73659998" lon="13.40916995">
        <ele>638.00000</ele>
        <time>2024-05-13T13:29:42Z</time>
      </trkpt>
      <trkpt lat="42.73646998" lon="13.40928998">
        <ele>636.00000</ele>
        <time>2024-05-13T13:29:44Z</time>
      </trkpt>
      <trkpt lat="42.73638993" lon="13.40935997">
        <ele>636.00000</ele>
        <time>2024-05-13T13:29:46Z</time>
      </trkpt>
      <trkpt lat="42.73631994" lon="13.40938998">
        <ele>636.00000</ele>
        <time>2024-05-13T13:29:47Z</time>
      </trkpt>
      <trkpt lat="42.73619991" lon="13.40943994">
        <ele>635.00000</ele>
        <time>2024-05-13T13:29:49Z</time>
      </trkpt>
      <trkpt lat="42.73602993" lon="13.40947992">
        <ele>638.00000</ele>
        <time>2024-05-13T13:29:52Z</time>
      </trkpt>
      <trkpt lat="42.73586992" lon="13.40953993">
        <ele>640.00000</ele>
        <time>2024-05-13T13:29:54Z</time>
      </trkpt>
      <trkpt lat="42.73568996" lon="13.40959995">
        <ele>641.00000</ele>
        <time>2024-05-13T13:29:57Z</time>
      </trkpt>
      <trkpt lat="42.73553992" lon="13.40966993">
        <ele>640.00000</ele>
        <time>2024-05-13T13:30:00Z</time>
      </trkpt>
      <trkpt lat="42.73537505" lon="13.40975484">
        <ele>639.00000</ele>
        <time>2024-05-13T13:30:03Z</time>
      </trkpt>
      <trkpt lat="42.73520993" lon="13.40983992">
        <ele>639.00000</ele>
        <time>2024-05-13T13:30:05Z</time>
      </trkpt>
      <trkpt lat="42.73495998" lon="13.40994997">
        <ele>641.00000</ele>
        <time>2024-05-13T13:30:10Z</time>
      </trkpt>
      <trkpt lat="42.73471992" lon="13.41005994">
        <ele>645.00000</ele>
        <time>2024-05-13T13:30:14Z</time>
      </trkpt>
      <trkpt lat="42.73463996" lon="13.41008995">
        <ele>646.00000</ele>
        <time>2024-05-13T13:30:15Z</time>
      </trkpt>
      <trkpt lat="42.73458992" lon="13.41013999">
        <ele>646.00000</ele>
        <time>2024-05-13T13:30:16Z</time>
      </trkpt>
      <trkpt lat="42.73456997" lon="13.41018995">
        <ele>646.00000</ele>
        <time>2024-05-13T13:30:17Z</time>
      </trkpt>
      <trkpt lat="42.73455999" lon="13.41024996">
        <ele>645.00000</ele>
        <time>2024-05-13T13:30:17Z</time>
      </trkpt>
      <trkpt lat="42.73455999" lon="13.41030998">
        <ele>645.00000</ele>
        <time>2024-05-13T13:30:18Z</time>
      </trkpt>
      <trkpt lat="42.73457994" lon="13.41035993">
        <ele>645.00000</ele>
        <time>2024-05-13T13:30:19Z</time>
      </trkpt>
      <trkpt lat="42.73462998" lon="13.41042992">
        <ele>644.00000</ele>
        <time>2024-05-13T13:30:20Z</time>
      </trkpt>
      <trkpt lat="42.73475999" lon="13.41060996">
        <ele>642.00000</ele>
        <time>2024-05-13T13:30:23Z</time>
      </trkpt>
      <trkpt lat="42.73482997" lon="13.41074994">
        <ele>644.00000</ele>
        <time>2024-05-13T13:30:25Z</time>
      </trkpt>
      <trkpt lat="42.73489996" lon="13.41088992">
        <ele>645.00000</ele>
        <time>2024-05-13T13:30:27Z</time>
      </trkpt>
      <trkpt lat="42.73494992" lon="13.41096997">
        <ele>645.00000</ele>
        <time>2024-05-13T13:30:28Z</time>
      </trkpt>
      <trkpt lat="42.73497993" lon="13.41100995">
        <ele>645.00000</ele>
        <time>2024-05-13T13:30:29Z</time>
      </trkpt>
      <trkpt lat="42.73501999" lon="13.41103996">
        <ele>644.00000</ele>
        <time>2024-05-13T13:30:29Z</time>
      </trkpt>
      <trkpt lat="42.73508998" lon="13.41108991">
        <ele>644.00000</ele>
        <time>2024-05-13T13:30:31Z</time>
      </trkpt>
      <trkpt lat="42.73520993" lon="13.41115999">
        <ele>641.00000</ele>
        <time>2024-05-13T13:30:33Z</time>
      </trkpt>
      <trkpt lat="42.73540640" lon="13.41127322">
        <ele>641.00000</ele>
        <time>2024-05-13T13:30:36Z</time>
      </trkpt>
      <trkpt lat="42.73560295" lon="13.41138646">
        <ele>642.00000</ele>
        <time>2024-05-13T13:30:40Z</time>
      </trkpt>
      <trkpt lat="42.73579993" lon="13.41149996">
        <ele>641.00000</ele>
        <time>2024-05-13T13:30:43Z</time>
      </trkpt>
      <trkpt lat="42.73599472" lon="13.41160984">
        <ele>641.00000</ele>
        <time>2024-05-13T13:30:46Z</time>
      </trkpt>
      <trkpt lat="42.73618994" lon="13.41171998">
        <ele>641.00000</ele>
        <time>2024-05-13T13:30:50Z</time>
      </trkpt>
      <trkpt lat="42.73640980" lon="13.41186490">
        <ele>643.00000</ele>
        <time>2024-05-13T13:30:54Z</time>
      </trkpt>
      <trkpt lat="42.73662999" lon="13.41200999">
        <ele>644.00000</ele>
        <time>2024-05-13T13:30:58Z</time>
      </trkpt>
      <trkpt lat="42.73683987" lon="13.41218987">
        <ele>645.00000</ele>
        <time>2024-05-13T13:31:02Z</time>
      </trkpt>
      <trkpt lat="42.73704992" lon="13.41236991">
        <ele>645.00000</ele>
        <time>2024-05-13T13:31:06Z</time>
      </trkpt>
      <trkpt lat="42.73729995" lon="13.41256999">
        <ele>645.00000</ele>
        <time>2024-05-13T13:31:10Z</time>
      </trkpt>
      <trkpt lat="42.73745996" lon="13.41269999">
        <ele>643.00000</ele>
        <time>2024-05-13T13:31:13Z</time>
      </trkpt>
      <trkpt lat="42.73752995" lon="13.41274995">
        <ele>642.00000</ele>
        <time>2024-05-13T13:31:15Z</time>
      </trkpt>
      <trkpt lat="42.73760992" lon="13.41282991">
        <ele>642.00000</ele>
        <time>2024-05-13T13:31:16Z</time>
      </trkpt>
      <trkpt lat="42.73767999" lon="13.41293997">
        <ele>644.00000</ele>
        <time>2024-05-13T13:31:18Z</time>
      </trkpt>
      <trkpt lat="42.73776993" lon="13.41309998">
        <ele>646.00000</ele>
        <time>2024-05-13T13:31:20Z</time>
      </trkpt>
      <trkpt lat="42.73781997" lon="13.41317994">
        <ele>646.00000</ele>
        <time>2024-05-13T13:31:21Z</time>
      </trkpt>
      <trkpt lat="42.73788996" lon="13.41324993">
        <ele>645.00000</ele>
        <time>2024-05-13T13:31:23Z</time>
      </trkpt>
      <trkpt lat="42.73794997" lon="13.41332998">
        <ele>645.00000</ele>
        <time>2024-05-13T13:31:24Z</time>
      </trkpt>
      <trkpt lat="42.73807997" lon="13.41342997">
        <ele>646.00000</ele>
        <time>2024-05-13T13:31:27Z</time>
      </trkpt>
      <trkpt lat="42.73827997" lon="13.41355998">
        <ele>647.00000</ele>
        <time>2024-05-13T13:31:30Z</time>
      </trkpt>
      <trkpt lat="42.73841994" lon="13.41365997">
        <ele>649.00000</ele>
        <time>2024-05-13T13:31:33Z</time>
      </trkpt>
      <trkpt lat="42.73849999" lon="13.41368998">
        <ele>649.00000</ele>
        <time>2024-05-13T13:31:34Z</time>
      </trkpt>
      <trkpt lat="42.73859999" lon="13.41371999">
        <ele>647.00000</ele>
        <time>2024-05-13T13:31:36Z</time>
      </trkpt>
      <trkpt lat="42.73877995" lon="13.41374999">
        <ele>644.00000</ele>
        <time>2024-05-13T13:31:39Z</time>
      </trkpt>
      <trkpt lat="42.73891992" lon="13.41377992">
        <ele>642.00000</ele>
        <time>2024-05-13T13:31:41Z</time>
      </trkpt>
      <trkpt lat="42.73905999" lon="13.41383993">
        <ele>641.00000</ele>
        <time>2024-05-13T13:31:43Z</time>
      </trkpt>
      <trkpt lat="42.73923994" lon="13.41392995">
        <ele>643.00000</ele>
        <time>2024-05-13T13:31:46Z</time>
      </trkpt>
      <trkpt lat="42.73939996" lon="13.41399994">
        <ele>646.00000</ele>
        <time>2024-05-13T13:31:49Z</time>
      </trkpt>
      <trkpt lat="42.73947992" lon="13.41404998">
        <ele>647.00000</ele>
        <time>2024-05-13T13:31:50Z</time>
      </trkpt>
      <trkpt lat="42.73956994" lon="13.41411997">
        <ele>648.00000</ele>
        <time>2024-05-13T13:31:52Z</time>
      </trkpt>
      <trkpt lat="42.73965996" lon="13.41419993">
        <ele>648.00000</ele>
        <time>2024-05-13T13:31:54Z</time>
      </trkpt>
      <trkpt lat="42.73973993" lon="13.41427998">
        <ele>648.00000</ele>
        <time>2024-05-13T13:31:55Z</time>
      </trkpt>
      <trkpt lat="42.73986993" lon="13.41435994">
        <ele>647.00000</ele>
        <time>2024-05-13T13:31:58Z</time>
      </trkpt>
      <trkpt lat="42.73995995" lon="13.41440998">
        <ele>646.00000</ele>
        <time>2024-05-13T13:31:59Z</time>
      </trkpt>
      <trkpt lat="42.74003991" lon="13.41442993">
        <ele>646.00000</ele>
        <time>2024-05-13T13:32:00Z</time>
      </trkpt>
      <trkpt lat="42.74011996" lon="13.41443999">
        <ele>646.00000</ele>
        <time>2024-05-13T13:32:02Z</time>
      </trkpt>
      <trkpt lat="42.74020998" lon="13.41443999">
        <ele>645.00000</ele>
        <time>2024-05-13T13:32:03Z</time>
      </trkpt>
      <trkpt lat="42.74031995" lon="13.41439993">
        <ele>643.00000</ele>
        <time>2024-05-13T13:32:05Z</time>
      </trkpt>
      <trkpt lat="42.74039992" lon="13.41436992">
        <ele>642.00000</ele>
        <time>2024-05-13T13:32:06Z</time>
      </trkpt>
      <trkpt lat="42.74049991" lon="13.41436992">
        <ele>642.00000</ele>
        <time>2024-05-13T13:32:08Z</time>
      </trkpt>
      <trkpt lat="42.74059999" lon="13.41440998">
        <ele>643.00000</ele>
        <time>2024-05-13T13:32:10Z</time>
      </trkpt>
      <trkpt lat="42.74077995" lon="13.41455994">
        <ele>648.00000</ele>
        <time>2024-05-13T13:32:13Z</time>
      </trkpt>
      <trkpt lat="42.74092999" lon="13.41466999">
        <ele>650.00000</ele>
        <time>2024-05-13T13:32:16Z</time>
      </trkpt>
      <trkpt lat="42.74103996" lon="13.41480997">
        <ele>651.00000</ele>
        <time>2024-05-13T13:32:18Z</time>
      </trkpt>
      <trkpt lat="42.74108991" lon="13.41485993">
        <ele>652.00000</ele>
        <time>2024-05-13T13:32:19Z</time>
      </trkpt>
      <trkpt lat="42.74114993" lon="13.41488993">
        <ele>651.00000</ele>
        <time>2024-05-13T13:32:20Z</time>
      </trkpt>
      <trkpt lat="42.74119997" lon="13.41493997">
        <ele>651.00000</ele>
        <time>2024-05-13T13:32:21Z</time>
      </trkpt>
      <trkpt lat="42.74122998" lon="13.41499999">
        <ele>652.00000</ele>
        <time>2024-05-13T13:32:22Z</time>
      </trkpt>
      <trkpt lat="42.74125998" lon="13.41502999">
        <ele>652.00000</ele>
        <time>2024-05-13T13:32:23Z</time>
      </trkpt>
      <trkpt lat="42.74126996" lon="13.41503997">
        <ele>652.00000</ele>
        <time>2024-05-13T13:32:23Z</time>
      </trkpt>
      <trkpt lat="42.74129997" lon="13.41503997">
        <ele>651.00000</ele>
        <time>2024-05-13T13:32:23Z</time>
      </trkpt>
      <trkpt lat="42.74136995" lon="13.41505992">
        <ele>650.00000</ele>
        <time>2024-05-13T13:32:24Z</time>
      </trkpt>
      <trkpt lat="42.74143994" lon="13.41508992">
        <ele>648.00000</ele>
        <time>2024-05-13T13:32:26Z</time>
      </trkpt>
      <trkpt lat="42.74145998" lon="13.41509998">
        <ele>647.00000</ele>
        <time>2024-05-13T13:32:26Z</time>
      </trkpt>
      <trkpt lat="42.74146995" lon="13.41513996">
        <ele>646.00000</ele>
        <time>2024-05-13T13:32:26Z</time>
      </trkpt>
      <trkpt lat="42.74146995" lon="13.41519998">
        <ele>647.00000</ele>
        <time>2024-05-13T13:32:27Z</time>
      </trkpt>
      <trkpt lat="42.74145998" lon="13.41527994">
        <ele>648.00000</ele>
        <time>2024-05-13T13:32:28Z</time>
      </trkpt>
      <trkpt lat="42.74145998" lon="13.41530995">
        <ele>648.00000</ele>
        <time>2024-05-13T13:32:28Z</time>
      </trkpt>
      <trkpt lat="42.74142997" lon="13.41536996">
        <ele>649.00000</ele>
        <time>2024-05-13T13:32:29Z</time>
      </trkpt>
      <trkpt lat="42.74138999" lon="13.41542998">
        <ele>651.00000</ele>
        <time>2024-05-13T13:32:30Z</time>
      </trkpt>
      <trkpt lat="42.74131991" lon="13.41551992">
        <ele>653.00000</ele>
        <time>2024-05-13T13:32:32Z</time>
      </trkpt>
      <trkpt lat="42.74123995" lon="13.41560994">
        <ele>655.00000</ele>
        <time>2024-05-13T13:32:33Z</time>
      </trkpt>
      <trkpt lat="42.74118999" lon="13.41568998">
        <ele>655.00000</ele>
        <time>2024-05-13T13:32:35Z</time>
      </trkpt>
      <trkpt lat="42.74113995" lon="13.41577992">
        <ele>655.00000</ele>
        <time>2024-05-13T13:32:36Z</time>
      </trkpt>
      <trkpt lat="42.74108991" lon="13.41589995">
        <ele>655.00000</ele>
        <time>2024-05-13T13:32:38Z</time>
      </trkpt>
      <trkpt lat="42.74106997" lon="13.41600992">
        <ele>654.00000</ele>
        <time>2024-05-13T13:32:39Z</time>
      </trkpt>
      <trkpt lat="42.74103996" lon="13.41614998">
        <ele>653.00000</ele>
        <time>2024-05-13T13:32:41Z</time>
      </trkpt>
      <trkpt lat="42.74097994" lon="13.41646992">
        <ele>655.00000</ele>
        <time>2024-05-13T13:32:45Z</time>
      </trkpt>
      <trkpt lat="42.74089998" lon="13.41679992">
        <ele>659.00000</ele>
        <time>2024-05-13T13:32:49Z</time>
      </trkpt>
      <trkpt lat="42.74084994" lon="13.41700997">
        <ele>663.00000</ele>
        <time>2024-05-13T13:32:51Z</time>
      </trkpt>
      <trkpt lat="42.74082999" lon="13.41711994">
        <ele>665.00000</ele>
        <time>2024-05-13T13:32:53Z</time>
      </trkpt>
      <trkpt lat="42.74080996" lon="13.41726997">
        <ele>668.00000</ele>
        <time>2024-05-13T13:32:54Z</time>
      </trkpt>
      <trkpt lat="42.74079998" lon="13.41745999">
        <ele>669.00000</ele>
        <time>2024-05-13T13:32:57Z</time>
      </trkpt>
      <trkpt lat="42.74081993" lon="13.41760994">
        <ele>669.00000</ele>
        <time>2024-05-13T13:32:58Z</time>
      </trkpt>
      <trkpt lat="42.74084994" lon="13.41770994">
        <ele>668.00000</ele>
        <time>2024-05-13T13:33:00Z</time>
      </trkpt>
      <trkpt lat="42.74089998" lon="13.41780994">
        <ele>667.00000</ele>
        <time>2024-05-13T13:33:01Z</time>
      </trkpt>
      <trkpt lat="42.74095991" lon="13.41783994">
        <ele>665.00000</ele>
        <time>2024-05-13T13:33:02Z</time>
      </trkpt>
      <trkpt lat="42.74100995" lon="13.41784992">
        <ele>664.00000</ele>
        <time>2024-05-13T13:33:03Z</time>
      </trkpt>
      <trkpt lat="42.74107994" lon="13.41782997">
        <ele>662.00000</ele>
        <time>2024-05-13T13:33:04Z</time>
      </trkpt>
      <trkpt lat="42.74115999" lon="13.41779996">
        <ele>660.00000</ele>
        <time>2024-05-13T13:33:05Z</time>
      </trkpt>
      <trkpt lat="42.74119997" lon="13.41778999">
        <ele>659.00000</ele>
        <time>2024-05-13T13:33:06Z</time>
      </trkpt>
      <trkpt lat="42.74124993" lon="13.41777993">
        <ele>658.00000</ele>
        <time>2024-05-13T13:33:07Z</time>
      </trkpt>
      <trkpt lat="42.74131991" lon="13.41778999">
        <ele>657.00000</ele>
        <time>2024-05-13T13:33:08Z</time>
      </trkpt>
      <trkpt lat="42.74138999" lon="13.41779996">
        <ele>656.00000</ele>
        <time>2024-05-13T13:33:09Z</time>
      </trkpt>
      <trkpt lat="42.74149996" lon="13.41780994">
        <ele>659.00000</ele>
        <time>2024-05-13T13:33:11Z</time>
      </trkpt>
      <trkpt lat="42.74160993" lon="13.41779996">
        <ele>661.00000</ele>
        <time>2024-05-13T13:33:13Z</time>
      </trkpt>
      <trkpt lat="42.74166994" lon="13.41777993">
        <ele>661.00000</ele>
        <time>2024-05-13T13:33:14Z</time>
      </trkpt>
      <trkpt lat="42.74172996" lon="13.41771991">
        <ele>663.00000</ele>
        <time>2024-05-13T13:33:15Z</time>
      </trkpt>
      <trkpt lat="42.74180992" lon="13.41758999">
        <ele>662.00000</ele>
        <time>2024-05-13T13:33:17Z</time>
      </trkpt>
      <trkpt lat="42.74191997" lon="13.41740995">
        <ele>662.00000</ele>
        <time>2024-05-13T13:33:20Z</time>
      </trkpt>
      <trkpt lat="42.74196993" lon="13.41731993">
        <ele>663.00000</ele>
        <time>2024-05-13T13:33:21Z</time>
      </trkpt>
      <trkpt lat="42.74199994" lon="13.41726997">
        <ele>663.00000</ele>
        <time>2024-05-13T13:33:22Z</time>
      </trkpt>
      <trkpt lat="42.74200991" lon="13.41722999">
        <ele>662.00000</ele>
        <time>2024-05-13T13:33:22Z</time>
      </trkpt>
      <trkpt lat="42.74201997" lon="13.41718993">
        <ele>660.00000</ele>
        <time>2024-05-13T13:33:23Z</time>
      </trkpt>
      <trkpt lat="42.74202995" lon="13.41712991">
        <ele>659.00000</ele>
        <time>2024-05-13T13:33:23Z</time>
      </trkpt>
      <trkpt lat="42.74204998" lon="13.41708993">
        <ele>658.00000</ele>
        <time>2024-05-13T13:33:24Z</time>
      </trkpt>
      <trkpt lat="42.74206993" lon="13.41702992">
        <ele>656.00000</ele>
        <time>2024-05-13T13:33:25Z</time>
      </trkpt>
      <trkpt lat="42.74209993" lon="13.41698993">
        <ele>655.00000</ele>
        <time>2024-05-13T13:33:25Z</time>
      </trkpt>
      <trkpt lat="42.74212994" lon="13.41694995">
        <ele>653.00000</ele>
        <time>2024-05-13T13:33:26Z</time>
      </trkpt>
      <trkpt lat="42.74217998" lon="13.41689991">
        <ele>653.00000</ele>
        <time>2024-05-13T13:33:27Z</time>
      </trkpt>
      <trkpt lat="42.74225994" lon="13.41683998">
        <ele>654.00000</ele>
        <time>2024-05-13T13:33:28Z</time>
      </trkpt>
      <trkpt lat="42.74233999" lon="13.41675993">
        <ele>654.00000</ele>
        <time>2024-05-13T13:33:30Z</time>
      </trkpt>
      <trkpt lat="42.74242993" lon="13.41666991">
        <ele>654.00000</ele>
        <time>2024-05-13T13:33:32Z</time>
      </trkpt>
      <trkpt lat="42.74250998" lon="13.41659992">
        <ele>655.00000</ele>
        <time>2024-05-13T13:33:33Z</time>
      </trkpt>
      <trkpt lat="42.74256999" lon="13.41654997">
        <ele>657.00000</ele>
        <time>2024-05-13T13:33:35Z</time>
      </trkpt>
      <trkpt lat="42.74260997" lon="13.41651996">
        <ele>657.00000</ele>
        <time>2024-05-13T13:33:35Z</time>
      </trkpt>
      <trkpt lat="42.74267996" lon="13.41649993">
        <ele>659.00000</ele>
        <time>2024-05-13T13:33:36Z</time>
      </trkpt>
      <trkpt lat="42.74273998" lon="13.41648995">
        <ele>661.00000</ele>
        <time>2024-05-13T13:33:37Z</time>
      </trkpt>
      <trkpt lat="42.74277996" lon="13.41647998">
        <ele>662.00000</ele>
        <time>2024-05-13T13:33:38Z</time>
      </trkpt>
      <trkpt lat="42.74282991" lon="13.41646992">
        <ele>663.00000</ele>
        <time>2024-05-13T13:33:39Z</time>
      </trkpt>
      <trkpt lat="42.74286998" lon="13.41645995">
        <ele>664.00000</ele>
        <time>2024-05-13T13:33:39Z</time>
      </trkpt>
      <trkpt lat="42.74290996" lon="13.41643991">
        <ele>665.00000</ele>
        <time>2024-05-13T13:33:40Z</time>
      </trkpt>
      <trkpt lat="42.74295992" lon="13.41641996">
        <ele>666.00000</ele>
        <time>2024-05-13T13:33:41Z</time>
      </trkpt>
      <trkpt lat="42.74298992" lon="13.41638996">
        <ele>666.00000</ele>
        <time>2024-05-13T13:33:42Z</time>
      </trkpt>
      <trkpt lat="42.74300996" lon="13.41634998">
        <ele>666.00000</ele>
        <time>2024-05-13T13:33:42Z</time>
      </trkpt>
      <trkpt lat="42.74302999" lon="13.41628996">
        <ele>666.00000</ele>
        <time>2024-05-13T13:33:43Z</time>
      </trkpt>
      <trkpt lat="42.74305991" lon="13.41622995">
        <ele>665.00000</ele>
        <time>2024-05-13T13:33:44Z</time>
      </trkpt>
      <trkpt lat="42.74306997" lon="13.41615996">
        <ele>664.00000</ele>
        <time>2024-05-13T13:33:45Z</time>
      </trkpt>
      <trkpt lat="42.74307995" lon="13.41607999">
        <ele>663.00000</ele>
        <time>2024-05-13T13:33:46Z</time>
      </trkpt>
      <trkpt lat="42.74309998" lon="13.41600992">
        <ele>662.00000</ele>
        <time>2024-05-13T13:33:46Z</time>
      </trkpt>
      <trkpt lat="42.74310995" lon="13.41594999">
        <ele>662.00000</ele>
        <time>2024-05-13T13:33:47Z</time>
      </trkpt>
      <trkpt lat="42.74311993" lon="13.41590993">
        <ele>661.00000</ele>
        <time>2024-05-13T13:33:48Z</time>
      </trkpt>
      <trkpt lat="42.74312999" lon="13.41586994">
        <ele>661.00000</ele>
        <time>2024-05-13T13:33:48Z</time>
      </trkpt>
      <trkpt lat="42.74314993" lon="13.41581999">
        <ele>660.00000</ele>
        <time>2024-05-13T13:33:49Z</time>
      </trkpt>
      <trkpt lat="42.74316997" lon="13.41577992">
        <ele>660.00000</ele>
        <time>2024-05-13T13:33:49Z</time>
      </trkpt>
      <trkpt lat="42.74319997" lon="13.41573994">
        <ele>660.00000</ele>
        <time>2024-05-13T13:33:50Z</time>
      </trkpt>
      <trkpt lat="42.74321992" lon="13.41570993">
        <ele>660.00000</ele>
        <time>2024-05-13T13:33:51Z</time>
      </trkpt>
      <trkpt lat="42.74325999" lon="13.41566995">
        <ele>660.00000</ele>
        <time>2024-05-13T13:33:51Z</time>
      </trkpt>
      <trkpt lat="42.74328991" lon="13.41563994">
        <ele>660.00000</ele>
        <time>2024-05-13T13:33:52Z</time>
      </trkpt>
      <trkpt lat="42.74333995" lon="13.41561991">
        <ele>661.00000</ele>
        <time>2024-05-13T13:33:53Z</time>
      </trkpt>
      <trkpt lat="42.74338999" lon="13.41558999">
        <ele>661.00000</ele>
        <time>2024-05-13T13:33:54Z</time>
      </trkpt>
      <trkpt lat="42.74343995" lon="13.41555998">
        <ele>661.00000</ele>
        <time>2024-05-13T13:33:55Z</time>
      </trkpt>
      <trkpt lat="42.74350994" lon="13.41553995">
        <ele>662.00000</ele>
        <time>2024-05-13T13:33:56Z</time>
      </trkpt>
      <trkpt lat="42.74361999" lon="13.41549997">
        <ele>662.00000</ele>
        <time>2024-05-13T13:33:58Z</time>
      </trkpt>
      <trkpt lat="42.74369996" lon="13.41548999">
        <ele>662.00000</ele>
        <time>2024-05-13T13:33:59Z</time>
      </trkpt>
      <trkpt lat="42.74376994" lon="13.41548999">
        <ele>663.00000</ele>
        <time>2024-05-13T13:34:00Z</time>
      </trkpt>
      <trkpt lat="42.74384999" lon="13.41551992">
        <ele>664.00000</ele>
        <time>2024-05-13T13:34:01Z</time>
      </trkpt>
      <trkpt lat="42.74388997" lon="13.41553995">
        <ele>664.00000</ele>
        <time>2024-05-13T13:34:02Z</time>
      </trkpt>
      <trkpt lat="42.74396994" lon="13.41557993">
        <ele>664.00000</ele>
        <time>2024-05-13T13:34:03Z</time>
      </trkpt>
      <trkpt lat="42.74404998" lon="13.41563994">
        <ele>663.00000</ele>
        <time>2024-05-13T13:34:05Z</time>
      </trkpt>
      <trkpt lat="42.74410991" lon="13.41567993">
        <ele>663.00000</ele>
        <time>2024-05-13T13:34:06Z</time>
      </trkpt>
      <trkpt lat="42.74420999" lon="13.41576995">
        <ele>663.00000</ele>
        <time>2024-05-13T13:34:08Z</time>
      </trkpt>
      <trkpt lat="42.74433991" lon="13.41590993">
        <ele>664.00000</ele>
        <time>2024-05-13T13:34:10Z</time>
      </trkpt>
      <trkpt lat="42.74441996" lon="13.41596994">
        <ele>664.00000</ele>
        <time>2024-05-13T13:34:12Z</time>
      </trkpt>
      <trkpt lat="42.74463999" lon="13.41615996">
        <ele>665.00000</ele>
        <time>2024-05-13T13:34:16Z</time>
      </trkpt>
      <trkpt lat="42.74477996" lon="13.41625995">
        <ele>667.00000</ele>
        <time>2024-05-13T13:34:19Z</time>
      </trkpt>
      <trkpt lat="42.74496998" lon="13.41638996">
        <ele>669.00000</ele>
        <time>2024-05-13T13:34:22Z</time>
      </trkpt>
      <trkpt lat="42.74510996" lon="13.41645995">
        <ele>670.00000</ele>
        <time>2024-05-13T13:34:24Z</time>
      </trkpt>
      <trkpt lat="42.74522999" lon="13.41652994">
        <ele>670.00000</ele>
        <time>2024-05-13T13:34:26Z</time>
      </trkpt>
      <trkpt lat="42.74535999" lon="13.41653999">
        <ele>669.00000</ele>
        <time>2024-05-13T13:34:29Z</time>
      </trkpt>
      <trkpt lat="42.74547994" lon="13.41651996">
        <ele>669.00000</ele>
        <time>2024-05-13T13:34:30Z</time>
      </trkpt>
      <trkpt lat="42.74557993" lon="13.41648995">
        <ele>667.00000</ele>
        <time>2024-05-13T13:34:32Z</time>
      </trkpt>
      <trkpt lat="42.74565998" lon="13.41647998">
        <ele>666.00000</ele>
        <time>2024-05-13T13:34:33Z</time>
      </trkpt>
      <trkpt lat="42.74572997" lon="13.41651996">
        <ele>666.00000</ele>
        <time>2024-05-13T13:34:35Z</time>
      </trkpt>
      <trkpt lat="42.74576995" lon="13.41661996">
        <ele>667.00000</ele>
        <time>2024-05-13T13:34:36Z</time>
      </trkpt>
      <trkpt lat="42.74578998" lon="13.41668995">
        <ele>668.00000</ele>
        <time>2024-05-13T13:34:37Z</time>
      </trkpt>
      <trkpt lat="42.74579996" lon="13.41675993">
        <ele>669.00000</ele>
        <time>2024-05-13T13:34:38Z</time>
      </trkpt>
      <trkpt lat="42.74579996" lon="13.41691995">
        <ele>673.00000</ele>
        <time>2024-05-13T13:34:40Z</time>
      </trkpt>
      <trkpt lat="42.74580993" lon="13.41720996">
        <ele>680.00000</ele>
        <time>2024-05-13T13:34:43Z</time>
      </trkpt>
      <trkpt lat="42.74579996" lon="13.41743996">
        <ele>682.00000</ele>
        <time>2024-05-13T13:34:46Z</time>
      </trkpt>
      <trkpt lat="42.74578998" lon="13.41760994">
        <ele>683.00000</ele>
        <time>2024-05-13T13:34:48Z</time>
      </trkpt>
      <trkpt lat="42.74577992" lon="13.41777993">
        <ele>683.00000</ele>
        <time>2024-05-13T13:34:50Z</time>
      </trkpt>
      <trkpt lat="42.74576995" lon="13.41804999">
        <ele>681.00000</ele>
        <time>2024-05-13T13:34:53Z</time>
      </trkpt>
      <trkpt lat="42.74576995" lon="13.41817991">
        <ele>680.00000</ele>
        <time>2024-05-13T13:34:54Z</time>
      </trkpt>
      <trkpt lat="42.74575998" lon="13.41828997">
        <ele>681.00000</ele>
        <time>2024-05-13T13:34:56Z</time>
      </trkpt>
      <trkpt lat="42.74575998" lon="13.41835996">
        <ele>681.00000</ele>
        <time>2024-05-13T13:34:57Z</time>
      </trkpt>
      <trkpt lat="42.74576995" lon="13.41843992">
        <ele>681.00000</ele>
        <time>2024-05-13T13:34:58Z</time>
      </trkpt>
      <trkpt lat="42.74577992" lon="13.41851997">
        <ele>680.00000</ele>
        <time>2024-05-13T13:34:58Z</time>
      </trkpt>
      <trkpt lat="42.74579996" lon="13.41858996">
        <ele>678.00000</ele>
        <time>2024-05-13T13:34:59Z</time>
      </trkpt>
      <trkpt lat="42.74581999" lon="13.41869993">
        <ele>676.00000</ele>
        <time>2024-05-13T13:35:01Z</time>
      </trkpt>
      <trkpt lat="42.74585997" lon="13.41876992">
        <ele>673.00000</ele>
        <time>2024-05-13T13:35:02Z</time>
      </trkpt>
      <trkpt lat="42.74590993" lon="13.41881996">
        <ele>671.00000</ele>
        <time>2024-05-13T13:35:03Z</time>
      </trkpt>
      <trkpt lat="42.74598998" lon="13.41889992">
        <ele>667.00000</ele>
        <time>2024-05-13T13:35:04Z</time>
      </trkpt>
      <trkpt lat="42.74609995" lon="13.41894996">
        <ele>662.00000</ele>
        <time>2024-05-13T13:35:06Z</time>
      </trkpt>
      <trkpt lat="42.74618997" lon="13.41897997">
        <ele>660.00000</ele>
        <time>2024-05-13T13:35:08Z</time>
      </trkpt>
      <trkpt lat="42.74629994" lon="13.41902992">
        <ele>657.00000</ele>
        <time>2024-05-13T13:35:09Z</time>
      </trkpt>
      <trkpt lat="42.74639993" lon="13.41907996">
        <ele>655.00000</ele>
        <time>2024-05-13T13:35:11Z</time>
      </trkpt>
      <trkpt lat="42.74645995" lon="13.41912992">
        <ele>655.00000</ele>
        <time>2024-05-13T13:35:12Z</time>
      </trkpt>
      <trkpt lat="42.74649993" lon="13.41918993">
        <ele>656.00000</ele>
        <time>2024-05-13T13:35:13Z</time>
      </trkpt>
      <trkpt lat="42.74654997" lon="13.41928993">
        <ele>657.00000</ele>
        <time>2024-05-13T13:35:15Z</time>
      </trkpt>
      <trkpt lat="42.74657998" lon="13.41938992">
        <ele>660.00000</ele>
        <time>2024-05-13T13:35:16Z</time>
      </trkpt>
      <trkpt lat="42.74661996" lon="13.41948992">
        <ele>660.00000</ele>
        <time>2024-05-13T13:35:17Z</time>
      </trkpt>
      <trkpt lat="42.74672993" lon="13.41981992">
        <ele>658.00000</ele>
        <time>2024-05-13T13:35:22Z</time>
      </trkpt>
      <trkpt lat="42.74676991" lon="13.41997993">
        <ele>658.00000</ele>
        <time>2024-05-13T13:35:24Z</time>
      </trkpt>
      <trkpt lat="42.74678994" lon="13.42012996">
        <ele>657.00000</ele>
        <time>2024-05-13T13:35:25Z</time>
      </trkpt>
      <trkpt lat="42.74679992" lon="13.42022996">
        <ele>657.00000</ele>
        <time>2024-05-13T13:35:27Z</time>
      </trkpt>
      <trkpt lat="42.74678994" lon="13.42035996">
        <ele>658.00000</ele>
        <time>2024-05-13T13:35:28Z</time>
      </trkpt>
      <trkpt lat="42.74678994" lon="13.42044998">
        <ele>658.00000</ele>
        <time>2024-05-13T13:35:29Z</time>
      </trkpt>
      <trkpt lat="42.74676991" lon="13.42054998">
        <ele>660.00000</ele>
        <time>2024-05-13T13:35:30Z</time>
      </trkpt>
      <trkpt lat="42.74672993" lon="13.42069993">
        <ele>661.00000</ele>
        <time>2024-05-13T13:35:32Z</time>
      </trkpt>
      <trkpt lat="42.74668995" lon="13.42081996">
        <ele>661.00000</ele>
        <time>2024-05-13T13:35:34Z</time>
      </trkpt>
      <trkpt lat="42.74664997" lon="13.42087998">
        <ele>664.00000</ele>
        <time>2024-05-13T13:35:35Z</time>
      </trkpt>
      <trkpt lat="42.74663999" lon="13.42093999">
        <ele>665.00000</ele>
        <time>2024-05-13T13:35:35Z</time>
      </trkpt>
      <trkpt lat="42.74662993" lon="13.42099992">
        <ele>665.00000</ele>
        <time>2024-05-13T13:35:36Z</time>
      </trkpt>
      <trkpt lat="42.74662993" lon="13.42105994">
        <ele>665.00000</ele>
        <time>2024-05-13T13:35:37Z</time>
      </trkpt>
      <trkpt lat="42.74664997" lon="13.42111995">
        <ele>664.00000</ele>
        <time>2024-05-13T13:35:38Z</time>
      </trkpt>
      <trkpt lat="42.74668995" lon="13.42128993">
        <ele>659.00000</ele>
        <time>2024-05-13T13:35:40Z</time>
      </trkpt>
      <trkpt lat="42.74670998" lon="13.42141994">
        <ele>657.00000</ele>
        <time>2024-05-13T13:35:41Z</time>
      </trkpt>
      <trkpt lat="42.74671996" lon="13.42153997">
        <ele>656.00000</ele>
        <time>2024-05-13T13:35:43Z</time>
      </trkpt>
      <trkpt lat="42.74670998" lon="13.42165991">
        <ele>656.00000</ele>
        <time>2024-05-13T13:35:44Z</time>
      </trkpt>
      <trkpt lat="42.74670998" lon="13.42175999">
        <ele>656.00000</ele>
        <time>2024-05-13T13:35:45Z</time>
      </trkpt>
      <trkpt lat="42.74669992" lon="13.42181992">
        <ele>657.00000</ele>
        <time>2024-05-13T13:35:46Z</time>
      </trkpt>
      <trkpt lat="42.74669992" lon="13.42187994">
        <ele>657.00000</ele>
        <time>2024-05-13T13:35:47Z</time>
      </trkpt>
      <trkpt lat="42.74669992" lon="13.42196996">
        <ele>657.00000</ele>
        <time>2024-05-13T13:35:48Z</time>
      </trkpt>
      <trkpt lat="42.74670998" lon="13.42202997">
        <ele>657.00000</ele>
        <time>2024-05-13T13:35:49Z</time>
      </trkpt>
      <trkpt lat="42.74674996" lon="13.42214992">
        <ele>655.00000</ele>
        <time>2024-05-13T13:35:50Z</time>
      </trkpt>
      <trkpt lat="42.74677997" lon="13.42224991">
        <ele>653.00000</ele>
        <time>2024-05-13T13:35:51Z</time>
      </trkpt>
      <trkpt lat="42.74683998" lon="13.42241998">
        <ele>652.00000</ele>
        <time>2024-05-13T13:35:54Z</time>
      </trkpt>
      <trkpt lat="42.74689991" lon="13.42254999">
        <ele>651.00000</ele>
        <time>2024-05-13T13:35:55Z</time>
      </trkpt>
      <trkpt lat="42.74698994" lon="13.42272995">
        <ele>650.00000</ele>
        <time>2024-05-13T13:35:58Z</time>
      </trkpt>
      <trkpt lat="42.74703998" lon="13.42282994">
        <ele>650.00000</ele>
        <time>2024-05-13T13:35:59Z</time>
      </trkpt>
      <trkpt lat="42.74706998" lon="13.42291996">
        <ele>650.00000</ele>
        <time>2024-05-13T13:36:01Z</time>
      </trkpt>
      <trkpt lat="42.74707996" lon="13.42298995">
        <ele>650.00000</ele>
        <time>2024-05-13T13:36:01Z</time>
      </trkpt>
      <trkpt lat="42.74708993" lon="13.42310998">
        <ele>650.00000</ele>
        <time>2024-05-13T13:36:03Z</time>
      </trkpt>
      <trkpt lat="42.74707996" lon="13.42328994">
        <ele>651.00000</ele>
        <time>2024-05-13T13:36:05Z</time>
      </trkpt>
      <trkpt lat="42.74704995" lon="13.42347996">
        <ele>652.00000</ele>
        <time>2024-05-13T13:36:07Z</time>
      </trkpt>
      <trkpt lat="42.74701483" lon="13.42370040">
        <ele>651.00000</ele>
        <time>2024-05-13T13:36:10Z</time>
      </trkpt>
      <trkpt lat="42.74697996" lon="13.42391992">
        <ele>649.00000</ele>
        <time>2024-05-13T13:36:13Z</time>
      </trkpt>
      <trkpt lat="42.74693998" lon="13.42415998">
        <ele>647.00000</ele>
        <time>2024-05-13T13:36:16Z</time>
      </trkpt>
      <trkpt lat="42.74690997" lon="13.42435997">
        <ele>646.00000</ele>
        <time>2024-05-13T13:36:18Z</time>
      </trkpt>
      <trkpt lat="42.74689991" lon="13.42444991">
        <ele>645.00000</ele>
        <time>2024-05-13T13:36:19Z</time>
      </trkpt>
      <trkpt lat="42.74690997" lon="13.42455997">
        <ele>644.00000</ele>
        <time>2024-05-13T13:36:20Z</time>
      </trkpt>
      <trkpt lat="42.74691995" lon="13.42459995">
        <ele>643.00000</ele>
        <time>2024-05-13T13:36:21Z</time>
      </trkpt>
      <trkpt lat="42.74692992" lon="13.42462996">
        <ele>643.00000</ele>
        <time>2024-05-13T13:36:21Z</time>
      </trkpt>
      <trkpt lat="42.74695993" lon="13.42467991">
        <ele>642.00000</ele>
        <time>2024-05-13T13:36:22Z</time>
      </trkpt>
      <trkpt lat="42.74701994" lon="13.42473993">
        <ele>641.00000</ele>
        <time>2024-05-13T13:36:23Z</time>
      </trkpt>
      <trkpt lat="42.74707996" lon="13.42478997">
        <ele>640.00000</ele>
        <time>2024-05-13T13:36:24Z</time>
      </trkpt>
      <trkpt lat="42.74714995" lon="13.42481997">
        <ele>640.00000</ele>
        <time>2024-05-13T13:36:25Z</time>
      </trkpt>
      <trkpt lat="42.74720996" lon="13.42482995">
        <ele>639.00000</ele>
        <time>2024-05-13T13:36:26Z</time>
      </trkpt>
      <trkpt lat="42.74724994" lon="13.42481997">
        <ele>639.00000</ele>
        <time>2024-05-13T13:36:27Z</time>
      </trkpt>
      <trkpt lat="42.74733996" lon="13.42474998">
        <ele>638.00000</ele>
        <time>2024-05-13T13:36:29Z</time>
      </trkpt>
      <trkpt lat="42.74740995" lon="13.42465996">
        <ele>638.00000</ele>
        <time>2024-05-13T13:36:30Z</time>
      </trkpt>
      <trkpt lat="42.74748992" lon="13.42454999">
        <ele>638.00000</ele>
        <time>2024-05-13T13:36:32Z</time>
      </trkpt>
      <trkpt lat="42.74758991" lon="13.42440993">
        <ele>639.00000</ele>
        <time>2024-05-13T13:36:34Z</time>
      </trkpt>
      <trkpt lat="42.74766996" lon="13.42426995">
        <ele>639.00000</ele>
        <time>2024-05-13T13:36:36Z</time>
      </trkpt>
      <trkpt lat="42.74775998" lon="13.42411992">
        <ele>639.00000</ele>
        <time>2024-05-13T13:36:39Z</time>
      </trkpt>
      <trkpt lat="42.74781991" lon="13.42397994">
        <ele>640.00000</ele>
        <time>2024-05-13T13:36:41Z</time>
      </trkpt>
      <trkpt lat="42.74785998" lon="13.42382999">
        <ele>640.00000</ele>
        <time>2024-05-13T13:36:43Z</time>
      </trkpt>
      <trkpt lat="42.74788998" lon="13.42371993">
        <ele>640.00000</ele>
        <time>2024-05-13T13:36:44Z</time>
      </trkpt>
      <trkpt lat="42.74789996" lon="13.42363997">
        <ele>640.00000</ele>
        <time>2024-05-13T13:36:45Z</time>
      </trkpt>
      <trkpt lat="42.74790993" lon="13.42355992">
        <ele>640.00000</ele>
        <time>2024-05-13T13:36:46Z</time>
      </trkpt>
      <trkpt lat="42.74790993" lon="13.42345993">
        <ele>640.00000</ele>
        <time>2024-05-13T13:36:47Z</time>
      </trkpt>
      <trkpt lat="42.74790993" lon="13.42339999">
        <ele>639.00000</ele>
        <time>2024-05-13T13:36:48Z</time>
      </trkpt>
      <trkpt lat="42.74790993" lon="13.42335993">
        <ele>639.00000</ele>
        <time>2024-05-13T13:36:48Z</time>
      </trkpt>
      <trkpt lat="42.74792997" lon="13.42329991">
        <ele>639.00000</ele>
        <time>2024-05-13T13:36:49Z</time>
      </trkpt>
      <trkpt lat="42.74794992" lon="13.42323998">
        <ele>640.00000</ele>
        <time>2024-05-13T13:36:50Z</time>
      </trkpt>
      <trkpt lat="42.74798998" lon="13.42317997">
        <ele>640.00000</ele>
        <time>2024-05-13T13:36:51Z</time>
      </trkpt>
      <trkpt lat="42.74801999" lon="13.42311996">
        <ele>640.00000</ele>
        <time>2024-05-13T13:36:52Z</time>
      </trkpt>
      <trkpt lat="42.74806994" lon="13.42301996">
        <ele>641.00000</ele>
        <time>2024-05-13T13:36:53Z</time>
      </trkpt>
      <trkpt lat="42.74807992" lon="13.42295994">
        <ele>641.00000</ele>
        <time>2024-05-13T13:36:54Z</time>
      </trkpt>
      <trkpt lat="42.74808998" lon="13.42290999">
        <ele>642.00000</ele>
        <time>2024-05-13T13:36:54Z</time>
      </trkpt>
      <trkpt lat="42.74808998" lon="13.42284997">
        <ele>642.00000</ele>
        <time>2024-05-13T13:36:55Z</time>
      </trkpt>
      <trkpt lat="42.74808998" lon="13.42279993">
        <ele>642.00000</ele>
        <time>2024-05-13T13:36:56Z</time>
      </trkpt>
      <trkpt lat="42.74807992" lon="13.42272995">
        <ele>642.00000</ele>
        <time>2024-05-13T13:36:56Z</time>
      </trkpt>
      <trkpt lat="42.74805997" lon="13.42260992">
        <ele>641.00000</ele>
        <time>2024-05-13T13:36:58Z</time>
      </trkpt>
      <trkpt lat="42.74803994" lon="13.42245996">
        <ele>640.00000</ele>
        <time>2024-05-13T13:37:00Z</time>
      </trkpt>
      <trkpt lat="42.74803994" lon="13.42236994">
        <ele>639.00000</ele>
        <time>2024-05-13T13:37:01Z</time>
      </trkpt>
      <trkpt lat="42.74803994" lon="13.42230993">
        <ele>638.00000</ele>
        <time>2024-05-13T13:37:01Z</time>
      </trkpt>
      <trkpt lat="42.74805997" lon="13.42224991">
        <ele>638.00000</ele>
        <time>2024-05-13T13:37:02Z</time>
      </trkpt>
      <trkpt lat="42.74807992" lon="13.42222996">
        <ele>638.00000</ele>
        <time>2024-05-13T13:37:03Z</time>
      </trkpt>
      <trkpt lat="42.74811998" lon="13.42218998">
        <ele>638.00000</ele>
        <time>2024-05-13T13:37:03Z</time>
      </trkpt>
      <trkpt lat="42.74816994" lon="13.42215998">
        <ele>638.00000</ele>
        <time>2024-05-13T13:37:04Z</time>
      </trkpt>
      <trkpt lat="42.74828997" lon="13.42211999">
        <ele>638.00000</ele>
        <time>2024-05-13T13:37:06Z</time>
      </trkpt>
      <trkpt lat="42.74837999" lon="13.42208999">
        <ele>639.00000</ele>
        <time>2024-05-13T13:37:08Z</time>
      </trkpt>
      <trkpt lat="42.74846993" lon="13.42203995">
        <ele>641.00000</ele>
        <time>2024-05-13T13:37:09Z</time>
      </trkpt>
      <trkpt lat="42.74853992" lon="13.42199997">
        <ele>642.00000</ele>
        <time>2024-05-13T13:37:11Z</time>
      </trkpt>
      <trkpt lat="42.74858996" lon="13.42194993">
        <ele>643.00000</ele>
        <time>2024-05-13T13:37:12Z</time>
      </trkpt>
      <trkpt lat="42.74862994" lon="13.42189997">
        <ele>644.00000</ele>
        <time>2024-05-13T13:37:12Z</time>
      </trkpt>
      <trkpt lat="42.74865995" lon="13.42184993">
        <ele>645.00000</ele>
        <time>2024-05-13T13:37:13Z</time>
      </trkpt>
      <trkpt lat="42.74867998" lon="13.42180995">
        <ele>646.00000</ele>
        <time>2024-05-13T13:37:14Z</time>
      </trkpt>
      <trkpt lat="42.74868995" lon="13.42176997">
        <ele>646.00000</ele>
        <time>2024-05-13T13:37:14Z</time>
      </trkpt>
      <trkpt lat="42.74869993" lon="13.42171993">
        <ele>647.00000</ele>
        <time>2024-05-13T13:37:15Z</time>
      </trkpt>
      <trkpt lat="42.74869993" lon="13.42167994">
        <ele>647.00000</ele>
        <time>2024-05-13T13:37:15Z</time>
      </trkpt>
      <trkpt lat="42.74869993" lon="13.42162999">
        <ele>647.00000</ele>
        <time>2024-05-13T13:37:16Z</time>
      </trkpt>
      <trkpt lat="42.74867998" lon="13.42158992">
        <ele>647.00000</ele>
        <time>2024-05-13T13:37:16Z</time>
      </trkpt>
      <trkpt lat="42.74865995" lon="13.42152999">
        <ele>647.00000</ele>
        <time>2024-05-13T13:37:17Z</time>
      </trkpt>
      <trkpt lat="42.74862994" lon="13.42147995">
        <ele>646.00000</ele>
        <time>2024-05-13T13:37:18Z</time>
      </trkpt>
      <trkpt lat="42.74858996" lon="13.42141994">
        <ele>646.00000</ele>
        <time>2024-05-13T13:37:19Z</time>
      </trkpt>
      <trkpt lat="42.74852994" lon="13.42131994">
        <ele>645.00000</ele>
        <time>2024-05-13T13:37:20Z</time>
      </trkpt>
      <trkpt lat="42.74839994" lon="13.42112992">
        <ele>643.00000</ele>
        <time>2024-05-13T13:37:24Z</time>
      </trkpt>
      <trkpt lat="42.74825996" lon="13.42092993">
        <ele>639.00000</ele>
        <time>2024-05-13T13:37:27Z</time>
      </trkpt>
      <trkpt lat="42.74814999" lon="13.42075995">
        <ele>635.00000</ele>
        <time>2024-05-13T13:37:29Z</time>
      </trkpt>
      <trkpt lat="42.74809995" lon="13.42067998">
        <ele>633.00000</ele>
        <time>2024-05-13T13:37:31Z</time>
      </trkpt>
      <trkpt lat="42.74807992" lon="13.42062994">
        <ele>632.00000</ele>
        <time>2024-05-13T13:37:31Z</time>
      </trkpt>
      <trkpt lat="42.74806994" lon="13.42058996">
        <ele>631.00000</ele>
        <time>2024-05-13T13:37:32Z</time>
      </trkpt>
      <trkpt lat="42.74806994" lon="13.42053992">
        <ele>631.00000</ele>
        <time>2024-05-13T13:37:32Z</time>
      </trkpt>
      <trkpt lat="42.74806994" lon="13.42048997">
        <ele>630.00000</ele>
        <time>2024-05-13T13:37:33Z</time>
      </trkpt>
      <trkpt lat="42.74807992" lon="13.42042995">
        <ele>629.00000</ele>
        <time>2024-05-13T13:37:34Z</time>
      </trkpt>
      <trkpt lat="42.74809995" lon="13.42038997">
        <ele>629.00000</ele>
        <time>2024-05-13T13:37:34Z</time>
      </trkpt>
      <trkpt lat="42.74813993" lon="13.42034999">
        <ele>630.00000</ele>
        <time>2024-05-13T13:37:35Z</time>
      </trkpt>
      <trkpt lat="42.74822995" lon="13.42026994">
        <ele>632.00000</ele>
        <time>2024-05-13T13:37:37Z</time>
      </trkpt>
      <trkpt lat="42.74833993" lon="13.42018998">
        <ele>635.00000</ele>
        <time>2024-05-13T13:37:39Z</time>
      </trkpt>
      <trkpt lat="42.74842995" lon="13.42010993">
        <ele>636.00000</ele>
        <time>2024-05-13T13:37:41Z</time>
      </trkpt>
      <trkpt lat="42.74851997" lon="13.42001999">
        <ele>637.00000</ele>
        <time>2024-05-13T13:37:42Z</time>
      </trkpt>
      <trkpt lat="42.74857998" lon="13.41992997">
        <ele>637.00000</ele>
        <time>2024-05-13T13:37:44Z</time>
      </trkpt>
      <trkpt lat="42.74863991" lon="13.41979997">
        <ele>637.00000</ele>
        <time>2024-05-13T13:37:46Z</time>
      </trkpt>
      <trkpt lat="42.74867998" lon="13.41968991">
        <ele>636.00000</ele>
        <time>2024-05-13T13:37:47Z</time>
      </trkpt>
      <trkpt lat="42.74868995" lon="13.41961992">
        <ele>635.00000</ele>
        <time>2024-05-13T13:37:48Z</time>
      </trkpt>
      <trkpt lat="42.74869993" lon="13.41954994">
        <ele>634.00000</ele>
        <time>2024-05-13T13:37:49Z</time>
      </trkpt>
      <trkpt lat="42.74869993" lon="13.41947995">
        <ele>633.00000</ele>
        <time>2024-05-13T13:37:50Z</time>
      </trkpt>
      <trkpt lat="42.74867998" lon="13.41940996">
        <ele>630.00000</ele>
        <time>2024-05-13T13:37:50Z</time>
      </trkpt>
      <trkpt lat="42.74864997" lon="13.41932999">
        <ele>627.00000</ele>
        <time>2024-05-13T13:37:51Z</time>
      </trkpt>
      <trkpt lat="42.74861996" lon="13.41924995">
        <ele>623.00000</ele>
        <time>2024-05-13T13:37:53Z</time>
      </trkpt>
      <trkpt lat="42.74857998" lon="13.41917996">
        <ele>620.00000</ele>
        <time>2024-05-13T13:37:54Z</time>
      </trkpt>
      <trkpt lat="42.74851997" lon="13.41908994">
        <ele>617.00000</ele>
        <time>2024-05-13T13:37:55Z</time>
      </trkpt>
      <trkpt lat="42.74847999" lon="13.41903998">
        <ele>615.00000</ele>
        <time>2024-05-13T13:37:56Z</time>
      </trkpt>
      <trkpt lat="42.74842995" lon="13.41899991">
        <ele>613.00000</ele>
        <time>2024-05-13T13:37:57Z</time>
      </trkpt>
      <trkpt lat="42.74839994" lon="13.41898994">
        <ele>613.00000</ele>
        <time>2024-05-13T13:37:57Z</time>
      </trkpt>
      <trkpt lat="42.74835996" lon="13.41895993">
        <ele>611.00000</ele>
        <time>2024-05-13T13:37:58Z</time>
      </trkpt>
      <trkpt lat="42.74831998" lon="13.41890998">
        <ele>609.00000</ele>
        <time>2024-05-13T13:37:59Z</time>
      </trkpt>
      <trkpt lat="42.74831998" lon="13.41886991">
        <ele>609.00000</ele>
        <time>2024-05-13T13:37:59Z</time>
      </trkpt>
      <trkpt lat="42.74831998" lon="13.41882993">
        <ele>608.00000</ele>
        <time>2024-05-13T13:38:00Z</time>
      </trkpt>
      <trkpt lat="42.74832995" lon="13.41879992">
        <ele>607.00000</ele>
        <time>2024-05-13T13:38:00Z</time>
      </trkpt>
      <trkpt lat="42.74834998" lon="13.41877997">
        <ele>608.00000</ele>
        <time>2024-05-13T13:38:01Z</time>
      </trkpt>
      <trkpt lat="42.74837999" lon="13.41875994">
        <ele>608.00000</ele>
        <time>2024-05-13T13:38:01Z</time>
      </trkpt>
      <trkpt lat="42.74840991" lon="13.41874997">
        <ele>609.00000</ele>
        <time>2024-05-13T13:38:02Z</time>
      </trkpt>
      <trkpt lat="42.74845995" lon="13.41873999">
        <ele>611.00000</ele>
        <time>2024-05-13T13:38:02Z</time>
      </trkpt>
      <trkpt lat="42.74870999" lon="13.41874997">
        <ele>619.00000</ele>
        <time>2024-05-13T13:38:06Z</time>
      </trkpt>
      <trkpt lat="42.74878995" lon="13.41874997">
        <ele>621.00000</ele>
        <time>2024-05-13T13:38:08Z</time>
      </trkpt>
      <trkpt lat="42.74885994" lon="13.41873999">
        <ele>623.00000</ele>
        <time>2024-05-13T13:38:09Z</time>
      </trkpt>
      <trkpt lat="42.74892993" lon="13.41872993">
        <ele>625.00000</ele>
        <time>2024-05-13T13:38:10Z</time>
      </trkpt>
      <trkpt lat="42.74901995" lon="13.41868995">
        <ele>626.00000</ele>
        <time>2024-05-13T13:38:11Z</time>
      </trkpt>
      <trkpt lat="42.74908994" lon="13.41865994">
        <ele>627.00000</ele>
        <time>2024-05-13T13:38:13Z</time>
      </trkpt>
      <trkpt lat="42.74912992" lon="13.41861996">
        <ele>627.00000</ele>
        <time>2024-05-13T13:38:13Z</time>
      </trkpt>
      <trkpt lat="42.74916999" lon="13.41856992">
        <ele>627.00000</ele>
        <time>2024-05-13T13:38:14Z</time>
      </trkpt>
      <trkpt lat="42.74920997" lon="13.41850999">
        <ele>627.00000</ele>
        <time>2024-05-13T13:38:15Z</time>
      </trkpt>
      <trkpt lat="42.74925992" lon="13.41835996">
        <ele>625.00000</ele>
        <time>2024-05-13T13:38:17Z</time>
      </trkpt>
      <trkpt lat="42.74928993" lon="13.41824999">
        <ele>624.00000</ele>
        <time>2024-05-13T13:38:19Z</time>
      </trkpt>
      <trkpt lat="42.74931994" lon="13.41806994">
        <ele>622.00000</ele>
        <time>2024-05-13T13:38:21Z</time>
      </trkpt>
      <trkpt lat="42.74932991" lon="13.41792996">
        <ele>621.00000</ele>
        <time>2024-05-13T13:38:22Z</time>
      </trkpt>
      <trkpt lat="42.74932991" lon="13.41783994">
        <ele>620.00000</ele>
        <time>2024-05-13T13:38:23Z</time>
      </trkpt>
      <trkpt lat="42.74931994" lon="13.41777993">
        <ele>619.00000</ele>
        <time>2024-05-13T13:38:24Z</time>
      </trkpt>
      <trkpt lat="42.74931994" lon="13.41772997">
        <ele>618.00000</ele>
        <time>2024-05-13T13:38:25Z</time>
      </trkpt>
      <trkpt lat="42.74932991" lon="13.41768999">
        <ele>618.00000</ele>
        <time>2024-05-13T13:38:25Z</time>
      </trkpt>
      <trkpt lat="42.74933997" lon="13.41761992">
        <ele>618.00000</ele>
        <time>2024-05-13T13:38:26Z</time>
      </trkpt>
      <trkpt lat="42.74935992" lon="13.41751992">
        <ele>618.00000</ele>
        <time>2024-05-13T13:38:27Z</time>
      </trkpt>
      <trkpt lat="42.74937995" lon="13.41742998">
        <ele>620.00000</ele>
        <time>2024-05-13T13:38:28Z</time>
      </trkpt>
      <trkpt lat="42.74938993" lon="13.41736997">
        <ele>621.00000</ele>
        <time>2024-05-13T13:38:29Z</time>
      </trkpt>
      <trkpt lat="42.74939998" lon="13.41730996">
        <ele>623.00000</ele>
        <time>2024-05-13T13:38:30Z</time>
      </trkpt>
      <trkpt lat="42.74939998" lon="13.41724994">
        <ele>624.00000</ele>
        <time>2024-05-13T13:38:31Z</time>
      </trkpt>
      <trkpt lat="42.74937995" lon="13.41719998">
        <ele>624.00000</ele>
        <time>2024-05-13T13:38:31Z</time>
      </trkpt>
      <trkpt lat="42.74933997" lon="13.41711994">
        <ele>624.00000</ele>
        <time>2024-05-13T13:38:32Z</time>
      </trkpt>
      <trkpt lat="42.74928993" lon="13.41705992">
        <ele>623.00000</ele>
        <time>2024-05-13T13:38:34Z</time>
      </trkpt>
      <trkpt lat="42.74922992" lon="13.41700997">
        <ele>620.00000</ele>
        <time>2024-05-13T13:38:35Z</time>
      </trkpt>
      <trkpt lat="42.74917996" lon="13.41696999">
        <ele>618.00000</ele>
        <time>2024-05-13T13:38:36Z</time>
      </trkpt>
      <trkpt lat="42.74913998" lon="13.41692992">
        <ele>617.00000</ele>
        <time>2024-05-13T13:38:36Z</time>
      </trkpt>
      <trkpt lat="42.74906999" lon="13.41685993">
        <ele>617.00000</ele>
        <time>2024-05-13T13:38:38Z</time>
      </trkpt>
      <trkpt lat="42.74903998" lon="13.41683998">
        <ele>616.00000</ele>
        <time>2024-05-13T13:38:38Z</time>
      </trkpt>
      <trkpt lat="42.74901995" lon="13.41677997">
        <ele>617.00000</ele>
        <time>2024-05-13T13:38:39Z</time>
      </trkpt>
      <trkpt lat="42.74901995" lon="13.41672993">
        <ele>618.00000</ele>
        <time>2024-05-13T13:38:40Z</time>
      </trkpt>
      <trkpt lat="42.74900997" lon="13.41665994">
        <ele>620.00000</ele>
        <time>2024-05-13T13:38:40Z</time>
      </trkpt>
      <trkpt lat="42.74898994" lon="13.41655994">
        <ele>620.00000</ele>
        <time>2024-05-13T13:38:42Z</time>
      </trkpt>
      <trkpt lat="42.74896999" lon="13.41647998">
        <ele>620.00000</ele>
        <time>2024-05-13T13:38:43Z</time>
      </trkpt>
      <trkpt lat="42.74894996" lon="13.41642994">
        <ele>620.00000</ele>
        <time>2024-05-13T13:38:43Z</time>
      </trkpt>
      <trkpt lat="42.74892993" lon="13.41636992">
        <ele>619.00000</ele>
        <time>2024-05-13T13:38:44Z</time>
      </trkpt>
      <trkpt lat="42.74888995" lon="13.41629994">
        <ele>618.00000</ele>
        <time>2024-05-13T13:38:45Z</time>
      </trkpt>
      <trkpt lat="42.74881996" lon="13.41619994">
        <ele>613.00000</ele>
        <time>2024-05-13T13:38:47Z</time>
      </trkpt>
      <trkpt lat="42.74867998" lon="13.41600992">
        <ele>597.00000</ele>
        <time>2024-05-13T13:38:50Z</time>
      </trkpt>
      <trkpt lat="42.74864997" lon="13.41596994">
        <ele>593.00000</ele>
        <time>2024-05-13T13:38:51Z</time>
      </trkpt>
      <trkpt lat="42.74860999" lon="13.41588998">
        <ele>586.00000</ele>
        <time>2024-05-13T13:38:52Z</time>
      </trkpt>
      <trkpt lat="42.74859993" lon="13.41584991">
        <ele>583.00000</ele>
        <time>2024-05-13T13:38:52Z</time>
      </trkpt>
      <trkpt lat="42.74860999" lon="13.41580993">
        <ele>584.00000</ele>
        <time>2024-05-13T13:38:53Z</time>
      </trkpt>
      <trkpt lat="42.74861996" lon="13.41575997">
        <ele>585.00000</ele>
        <time>2024-05-13T13:38:53Z</time>
      </trkpt>
      <trkpt lat="42.74862994" lon="13.41569996">
        <ele>587.00000</ele>
        <time>2024-05-13T13:38:54Z</time>
      </trkpt>
      <trkpt lat="42.74866992" lon="13.41559996">
        <ele>591.00000</ele>
        <time>2024-05-13T13:38:55Z</time>
      </trkpt>
      <trkpt lat="42.74871996" lon="13.41551992">
        <ele>595.00000</ele>
        <time>2024-05-13T13:38:57Z</time>
      </trkpt>
      <trkpt lat="42.74876992" lon="13.41545999">
        <ele>597.00000</ele>
        <time>2024-05-13T13:38:58Z</time>
      </trkpt>
      <trkpt lat="42.74883999" lon="13.41540995">
        <ele>601.00000</ele>
        <time>2024-05-13T13:38:59Z</time>
      </trkpt>
      <trkpt lat="42.74889992" lon="13.41535999">
        <ele>604.00000</ele>
        <time>2024-05-13T13:39:00Z</time>
      </trkpt>
      <trkpt lat="42.74893999" lon="13.41530995">
        <ele>607.00000</ele>
        <time>2024-05-13T13:39:01Z</time>
      </trkpt>
      <trkpt lat="42.74895993" lon="13.41525999">
        <ele>607.00000</ele>
        <time>2024-05-13T13:39:02Z</time>
      </trkpt>
      <trkpt lat="42.74897997" lon="13.41521993">
        <ele>608.00000</ele>
        <time>2024-05-13T13:39:02Z</time>
      </trkpt>
      <trkpt lat="42.74897997" lon="13.41519998">
        <ele>607.00000</ele>
        <time>2024-05-13T13:39:03Z</time>
      </trkpt>
      <trkpt lat="42.74897997" lon="13.41515991">
        <ele>606.00000</ele>
        <time>2024-05-13T13:39:03Z</time>
      </trkpt>
      <trkpt lat="42.74896999" lon="13.41507995">
        <ele>602.00000</ele>
        <time>2024-05-13T13:39:04Z</time>
      </trkpt>
      <trkpt lat="42.74895993" lon="13.41501994">
        <ele>598.00000</ele>
        <time>2024-05-13T13:39:05Z</time>
      </trkpt>
      <trkpt lat="42.74891995" lon="13.41486998">
        <ele>590.00000</ele>
        <time>2024-05-13T13:39:07Z</time>
      </trkpt>
      <trkpt lat="42.74889992" lon="13.41475993">
        <ele>586.00000</ele>
        <time>2024-05-13T13:39:08Z</time>
      </trkpt>
      <trkpt lat="42.74887997" lon="13.41468994">
        <ele>583.00000</ele>
        <time>2024-05-13T13:39:09Z</time>
      </trkpt>
      <trkpt lat="42.74887997" lon="13.41461995">
        <ele>582.00000</ele>
        <time>2024-05-13T13:39:10Z</time>
      </trkpt>
      <trkpt lat="42.74888995" lon="13.41453999">
        <ele>582.00000</ele>
        <time>2024-05-13T13:39:11Z</time>
      </trkpt>
      <trkpt lat="42.74890998" lon="13.41443999">
        <ele>583.00000</ele>
        <time>2024-05-13T13:39:12Z</time>
      </trkpt>
      <trkpt lat="42.74894996" lon="13.41436992">
        <ele>584.00000</ele>
        <time>2024-05-13T13:39:13Z</time>
      </trkpt>
      <trkpt lat="42.74898994" lon="13.41427998">
        <ele>584.00000</ele>
        <time>2024-05-13T13:39:14Z</time>
      </trkpt>
      <trkpt lat="42.74906999" lon="13.41416993">
        <ele>585.00000</ele>
        <time>2024-05-13T13:39:16Z</time>
      </trkpt>
      <trkpt lat="42.74911995" lon="13.41410991">
        <ele>584.00000</ele>
        <time>2024-05-13T13:39:17Z</time>
      </trkpt>
      <trkpt lat="42.74917996" lon="13.41403992">
        <ele>584.00000</ele>
        <time>2024-05-13T13:39:18Z</time>
      </trkpt>
      <trkpt lat="42.74926998" lon="13.41396993">
        <ele>586.00000</ele>
        <time>2024-05-13T13:39:20Z</time>
      </trkpt>
      <trkpt lat="42.74935992" lon="13.41390992">
        <ele>588.00000</ele>
        <time>2024-05-13T13:39:21Z</time>
      </trkpt>
      <trkpt lat="42.74944994" lon="13.41387991">
        <ele>591.00000</ele>
        <time>2024-05-13T13:39:23Z</time>
      </trkpt>
      <trkpt lat="42.74951993" lon="13.41385996">
        <ele>592.00000</ele>
        <time>2024-05-13T13:39:24Z</time>
      </trkpt>
      <trkpt lat="42.74960995" lon="13.41385996">
        <ele>593.00000</ele>
        <time>2024-05-13T13:39:26Z</time>
      </trkpt>
      <trkpt lat="42.74972998" lon="13.41387991">
        <ele>595.00000</ele>
        <time>2024-05-13T13:39:27Z</time>
      </trkpt>
      <trkpt lat="42.74978999" lon="13.41387991">
        <ele>596.00000</ele>
        <time>2024-05-13T13:39:28Z</time>
      </trkpt>
      <trkpt lat="42.74982998" lon="13.41386994">
        <ele>596.00000</ele>
        <time>2024-05-13T13:39:29Z</time>
      </trkpt>
      <trkpt lat="42.74985998" lon="13.41383993">
        <ele>596.00000</ele>
        <time>2024-05-13T13:39:30Z</time>
      </trkpt>
      <trkpt lat="42.74988999" lon="13.41380992">
        <ele>596.00000</ele>
        <time>2024-05-13T13:39:30Z</time>
      </trkpt>
      <trkpt lat="42.74991991" lon="13.41375997">
        <ele>595.00000</ele>
        <time>2024-05-13T13:39:31Z</time>
      </trkpt>
      <trkpt lat="42.74992997" lon="13.41371999">
        <ele>595.00000</ele>
        <time>2024-05-13T13:39:32Z</time>
      </trkpt>
      <trkpt lat="42.74994992" lon="13.41363994">
        <ele>593.00000</ele>
        <time>2024-05-13T13:39:33Z</time>
      </trkpt>
      <trkpt lat="42.74995998" lon="13.41357992">
        <ele>593.00000</ele>
        <time>2024-05-13T13:39:33Z</time>
      </trkpt>
      <trkpt lat="42.74995998" lon="13.41353994">
        <ele>592.00000</ele>
        <time>2024-05-13T13:39:34Z</time>
      </trkpt>
      <trkpt lat="42.74994992" lon="13.41345998">
        <ele>590.00000</ele>
        <time>2024-05-13T13:39:35Z</time>
      </trkpt>
      <trkpt lat="42.74991991" lon="13.41330994">
        <ele>587.00000</ele>
        <time>2024-05-13T13:39:36Z</time>
      </trkpt>
      <trkpt lat="42.74985998" lon="13.41311993">
        <ele>582.00000</ele>
        <time>2024-05-13T13:39:39Z</time>
      </trkpt>
      <trkpt lat="42.74983995" lon="13.41302999">
        <ele>579.00000</ele>
        <time>2024-05-13T13:39:40Z</time>
      </trkpt>
      <trkpt lat="42.74983995" lon="13.41293997">
        <ele>575.00000</ele>
        <time>2024-05-13T13:39:41Z</time>
      </trkpt>
      <trkpt lat="42.74984993" lon="13.41285992">
        <ele>573.00000</ele>
        <time>2024-05-13T13:39:42Z</time>
      </trkpt>
      <trkpt lat="42.74987993" lon="13.41280996">
        <ele>573.00000</ele>
        <time>2024-05-13T13:39:43Z</time>
      </trkpt>
      <trkpt lat="42.74991991" lon="13.41276998">
        <ele>574.00000</ele>
        <time>2024-05-13T13:39:44Z</time>
      </trkpt>
      <trkpt lat="42.74998999" lon="13.41271994">
        <ele>576.00000</ele>
        <time>2024-05-13T13:39:45Z</time>
      </trkpt>
      <trkpt lat="42.75009996" lon="13.41266999">
        <ele>578.00000</ele>
        <time>2024-05-13T13:39:47Z</time>
      </trkpt>
      <trkpt lat="42.75018998" lon="13.41263998">
        <ele>579.00000</ele>
        <time>2024-05-13T13:39:48Z</time>
      </trkpt>
      <trkpt lat="42.75026994" lon="13.41260997">
        <ele>581.00000</ele>
        <time>2024-05-13T13:39:50Z</time>
      </trkpt>
      <trkpt lat="42.75032996" lon="13.41255993">
        <ele>583.00000</ele>
        <time>2024-05-13T13:39:51Z</time>
      </trkpt>
      <trkpt lat="42.75038997" lon="13.41247997">
        <ele>584.00000</ele>
        <time>2024-05-13T13:39:52Z</time>
      </trkpt>
      <trkpt lat="42.75043993" lon="13.41237997">
        <ele>583.00000</ele>
        <time>2024-05-13T13:39:53Z</time>
      </trkpt>
      <trkpt lat="42.75046993" lon="13.41227998">
        <ele>582.00000</ele>
        <time>2024-05-13T13:39:55Z</time>
      </trkpt>
      <trkpt lat="42.75052995" lon="13.41189994">
        <ele>572.00000</ele>
        <time>2024-05-13T13:39:59Z</time>
      </trkpt>
      <trkpt lat="42.75054998" lon="13.41179994">
        <ele>570.00000</ele>
        <time>2024-05-13T13:40:01Z</time>
      </trkpt>
      <trkpt lat="42.75057999" lon="13.41169995">
        <ele>568.00000</ele>
        <time>2024-05-13T13:40:02Z</time>
      </trkpt>
      <trkpt lat="42.75060991" lon="13.41163993">
        <ele>567.00000</ele>
        <time>2024-05-13T13:40:03Z</time>
      </trkpt>
      <trkpt lat="42.75064998" lon="13.41159995">
        <ele>568.00000</ele>
        <time>2024-05-13T13:40:03Z</time>
      </trkpt>
      <trkpt lat="42.75068996" lon="13.41157992">
        <ele>569.00000</ele>
        <time>2024-05-13T13:40:04Z</time>
      </trkpt>
      <trkpt lat="42.75072994" lon="13.41155997">
        <ele>570.00000</ele>
        <time>2024-05-13T13:40:05Z</time>
      </trkpt>
      <trkpt lat="42.75083991" lon="13.41155997">
        <ele>575.00000</ele>
        <time>2024-05-13T13:40:07Z</time>
      </trkpt>
      <trkpt lat="42.75093999" lon="13.41155997">
        <ele>574.00000</ele>
        <time>2024-05-13T13:40:08Z</time>
      </trkpt>
      <trkpt lat="42.75104996" lon="13.41157992">
        <ele>574.00000</ele>
        <time>2024-05-13T13:40:10Z</time>
      </trkpt>
      <trkpt lat="42.75117997" lon="13.41166994">
        <ele>578.00000</ele>
        <time>2024-05-13T13:40:12Z</time>
      </trkpt>
      <trkpt lat="42.75127996" lon="13.41176994">
        <ele>581.00000</ele>
        <time>2024-05-13T13:40:14Z</time>
      </trkpt>
      <trkpt lat="42.75140997" lon="13.41192995">
        <ele>585.00000</ele>
        <time>2024-05-13T13:40:17Z</time>
      </trkpt>
      <trkpt lat="42.75157995" lon="13.41213991">
        <ele>579.00000</ele>
        <time>2024-05-13T13:40:21Z</time>
      </trkpt>
      <trkpt lat="42.75169998" lon="13.41223999">
        <ele>575.00000</ele>
        <time>2024-05-13T13:40:23Z</time>
      </trkpt>
      <trkpt lat="42.75176997" lon="13.41228995">
        <ele>574.00000</ele>
        <time>2024-05-13T13:40:24Z</time>
      </trkpt>
      <trkpt lat="42.75184993" lon="13.41233999">
        <ele>574.00000</ele>
        <time>2024-05-13T13:40:26Z</time>
      </trkpt>
      <trkpt lat="42.75190995" lon="13.41236991">
        <ele>573.00000</ele>
        <time>2024-05-13T13:40:27Z</time>
      </trkpt>
      <trkpt lat="42.75196996" lon="13.41237997">
        <ele>573.00000</ele>
        <time>2024-05-13T13:40:28Z</time>
      </trkpt>
      <trkpt lat="42.75219996" lon="13.41240998">
        <ele>569.00000</ele>
        <time>2024-05-13T13:40:31Z</time>
      </trkpt>
      <trkpt lat="42.75243993" lon="13.41241995">
        <ele>567.00000</ele>
        <time>2024-05-13T13:40:35Z</time>
      </trkpt>
      <trkpt lat="42.75272458" lon="13.41243990">
        <ele>566.00000</ele>
        <time>2024-05-13T13:40:40Z</time>
      </trkpt>
      <trkpt lat="42.75300999" lon="13.41245993">
        <ele>561.00000</ele>
        <time>2024-05-13T13:40:44Z</time>
      </trkpt>
      <trkpt lat="42.75310998" lon="13.41247997">
        <ele>559.00000</ele>
        <time>2024-05-13T13:40:46Z</time>
      </trkpt>
      <trkpt lat="42.75320998" lon="13.41251995">
        <ele>557.00000</ele>
        <time>2024-05-13T13:40:48Z</time>
      </trkpt>
      <trkpt lat="42.75326999" lon="13.41256999">
        <ele>557.00000</ele>
        <time>2024-05-13T13:40:49Z</time>
      </trkpt>
      <trkpt lat="42.75331995" lon="13.41260997">
        <ele>557.00000</ele>
        <time>2024-05-13T13:40:50Z</time>
      </trkpt>
      <trkpt lat="42.75336999" lon="13.41267996">
        <ele>558.00000</ele>
        <time>2024-05-13T13:40:51Z</time>
      </trkpt>
      <trkpt lat="42.75341995" lon="13.41276998">
        <ele>559.00000</ele>
        <time>2024-05-13T13:40:52Z</time>
      </trkpt>
      <trkpt lat="42.75345993" lon="13.41284994">
        <ele>559.00000</ele>
        <time>2024-05-13T13:40:53Z</time>
      </trkpt>
      <trkpt lat="42.75350997" lon="13.41301993">
        <ele>560.00000</ele>
        <time>2024-05-13T13:40:55Z</time>
      </trkpt>
      <trkpt lat="42.75352992" lon="13.41312998">
        <ele>560.00000</ele>
        <time>2024-05-13T13:40:57Z</time>
      </trkpt>
      <trkpt lat="42.75354995" lon="13.41319997">
        <ele>560.00000</ele>
        <time>2024-05-13T13:40:58Z</time>
      </trkpt>
      <trkpt lat="42.75356998" lon="13.41328999">
        <ele>560.00000</ele>
        <time>2024-05-13T13:40:59Z</time>
      </trkpt>
      <trkpt lat="42.75357996" lon="13.41333995">
        <ele>560.00000</ele>
        <time>2024-05-13T13:40:59Z</time>
      </trkpt>
      <trkpt lat="42.75359999" lon="13.41337993">
        <ele>559.00000</ele>
        <time>2024-05-13T13:41:00Z</time>
      </trkpt>
      <trkpt lat="42.75363997" lon="13.41343995">
        <ele>557.00000</ele>
        <time>2024-05-13T13:41:01Z</time>
      </trkpt>
      <trkpt lat="42.75366998" lon="13.41348999">
        <ele>556.00000</ele>
        <time>2024-05-13T13:41:02Z</time>
      </trkpt>
      <trkpt lat="42.75368993" lon="13.41354992">
        <ele>555.00000</ele>
        <time>2024-05-13T13:41:02Z</time>
      </trkpt>
      <trkpt lat="42.75370996" lon="13.41362996">
        <ele>555.00000</ele>
        <time>2024-05-13T13:41:03Z</time>
      </trkpt>
      <trkpt lat="42.75371993" lon="13.41368998">
        <ele>555.00000</ele>
        <time>2024-05-13T13:41:04Z</time>
      </trkpt>
      <trkpt lat="42.75372999" lon="13.41376994">
        <ele>555.00000</ele>
        <time>2024-05-13T13:41:05Z</time>
      </trkpt>
      <trkpt lat="42.75372999" lon="13.41386994">
        <ele>556.00000</ele>
        <time>2024-05-13T13:41:06Z</time>
      </trkpt>
      <trkpt lat="42.75371993" lon="13.41392995">
        <ele>557.00000</ele>
        <time>2024-05-13T13:41:07Z</time>
      </trkpt>
      <trkpt lat="42.75371993" lon="13.41398997">
        <ele>557.00000</ele>
        <time>2024-05-13T13:41:08Z</time>
      </trkpt>
      <trkpt lat="42.75372999" lon="13.41404998">
        <ele>558.00000</ele>
        <time>2024-05-13T13:41:08Z</time>
      </trkpt>
      <trkpt lat="42.75374994" lon="13.41409994">
        <ele>557.00000</ele>
        <time>2024-05-13T13:41:09Z</time>
      </trkpt>
      <trkpt lat="42.75376997" lon="13.41413992">
        <ele>557.00000</ele>
        <time>2024-05-13T13:41:10Z</time>
      </trkpt>
      <trkpt lat="42.75381993" lon="13.41418996">
        <ele>556.00000</ele>
        <time>2024-05-13T13:41:11Z</time>
      </trkpt>
      <trkpt lat="42.75389998" lon="13.41426992">
        <ele>554.00000</ele>
        <time>2024-05-13T13:41:12Z</time>
      </trkpt>
      <trkpt lat="42.75403995" lon="13.41437998">
        <ele>554.00000</ele>
        <time>2024-05-13T13:41:15Z</time>
      </trkpt>
      <trkpt lat="42.75423995" lon="13.41452993">
        <ele>556.00000</ele>
        <time>2024-05-13T13:41:18Z</time>
      </trkpt>
      <trkpt lat="42.75429996" lon="13.41455994">
        <ele>557.00000</ele>
        <time>2024-05-13T13:41:20Z</time>
      </trkpt>
      <trkpt lat="42.75435998" lon="13.41457997">
        <ele>557.00000</ele>
        <time>2024-05-13T13:41:20Z</time>
      </trkpt>
      <trkpt lat="42.75441999" lon="13.41458994">
        <ele>558.00000</ele>
        <time>2024-05-13T13:41:21Z</time>
      </trkpt>
      <trkpt lat="42.75447992" lon="13.41458994">
        <ele>559.00000</ele>
        <time>2024-05-13T13:41:22Z</time>
      </trkpt>
      <trkpt lat="42.75451999" lon="13.41457997">
        <ele>559.00000</ele>
        <time>2024-05-13T13:41:23Z</time>
      </trkpt>
      <trkpt lat="42.75455997" lon="13.41454996">
        <ele>559.00000</ele>
        <time>2024-05-13T13:41:24Z</time>
      </trkpt>
      <trkpt lat="42.75459995" lon="13.41449992">
        <ele>560.00000</ele>
        <time>2024-05-13T13:41:25Z</time>
      </trkpt>
      <trkpt lat="42.75461998" lon="13.41444997">
        <ele>559.00000</ele>
        <time>2024-05-13T13:41:25Z</time>
      </trkpt>
      <trkpt lat="42.75463993" lon="13.41438995">
        <ele>559.00000</ele>
        <time>2024-05-13T13:41:26Z</time>
      </trkpt>
      <trkpt lat="42.75464999" lon="13.41432994">
        <ele>559.00000</ele>
        <time>2024-05-13T13:41:27Z</time>
      </trkpt>
      <trkpt lat="42.75464999" lon="13.41427998">
        <ele>559.00000</ele>
        <time>2024-05-13T13:41:27Z</time>
      </trkpt>
      <trkpt lat="42.75463993" lon="13.41421997">
        <ele>558.00000</ele>
        <time>2024-05-13T13:41:28Z</time>
      </trkpt>
      <trkpt lat="42.75462996" lon="13.41417999">
        <ele>558.00000</ele>
        <time>2024-05-13T13:41:29Z</time>
      </trkpt>
      <trkpt lat="42.75460992" lon="13.41413992">
        <ele>557.00000</ele>
        <time>2024-05-13T13:41:29Z</time>
      </trkpt>
      <trkpt lat="42.75458998" lon="13.41409994">
        <ele>556.00000</ele>
        <time>2024-05-13T13:41:30Z</time>
      </trkpt>
      <trkpt lat="42.75456994" lon="13.41406993">
        <ele>556.00000</ele>
        <time>2024-05-13T13:41:30Z</time>
      </trkpt>
      <trkpt lat="42.75453994" lon="13.41403992">
        <ele>554.00000</ele>
        <time>2024-05-13T13:41:31Z</time>
      </trkpt>
      <trkpt lat="42.75450993" lon="13.41400992">
        <ele>553.00000</ele>
        <time>2024-05-13T13:41:31Z</time>
      </trkpt>
      <trkpt lat="42.75446995" lon="13.41397999">
        <ele>552.00000</ele>
        <time>2024-05-13T13:41:32Z</time>
      </trkpt>
      <trkpt lat="42.75441999" lon="13.41393993">
        <ele>550.00000</ele>
        <time>2024-05-13T13:41:33Z</time>
      </trkpt>
      <trkpt lat="42.75437992" lon="13.41389995">
        <ele>549.00000</ele>
        <time>2024-05-13T13:41:34Z</time>
      </trkpt>
      <trkpt lat="42.75432997" lon="13.41385996">
        <ele>548.00000</ele>
        <time>2024-05-13T13:41:35Z</time>
      </trkpt>
      <trkpt lat="42.75429996" lon="13.41381998">
        <ele>547.00000</ele>
        <time>2024-05-13T13:41:36Z</time>
      </trkpt>
      <trkpt lat="42.75427993" lon="13.41377992">
        <ele>546.00000</ele>
        <time>2024-05-13T13:41:36Z</time>
      </trkpt>
      <trkpt lat="42.75426995" lon="13.41373994">
        <ele>546.00000</ele>
        <time>2024-05-13T13:41:37Z</time>
      </trkpt>
      <trkpt lat="42.75425998" lon="13.41369995">
        <ele>545.00000</ele>
        <time>2024-05-13T13:41:37Z</time>
      </trkpt>
      <trkpt lat="42.75425998" lon="13.41365997">
        <ele>545.00000</ele>
        <time>2024-05-13T13:41:38Z</time>
      </trkpt>
      <trkpt lat="42.75426995" lon="13.41361999">
        <ele>544.00000</ele>
        <time>2024-05-13T13:41:38Z</time>
      </trkpt>
      <trkpt lat="42.75427993" lon="13.41356995">
        <ele>544.00000</ele>
        <time>2024-05-13T13:41:39Z</time>
      </trkpt>
      <trkpt lat="42.75429996" lon="13.41351999">
        <ele>544.00000</ele>
        <time>2024-05-13T13:41:39Z</time>
      </trkpt>
      <trkpt lat="42.75433994" lon="13.41346995">
        <ele>544.00000</ele>
        <time>2024-05-13T13:41:40Z</time>
      </trkpt>
      <trkpt lat="42.75439996" lon="13.41338999">
        <ele>543.00000</ele>
        <time>2024-05-13T13:41:42Z</time>
      </trkpt>
      <trkpt lat="42.75443994" lon="13.41331992">
        <ele>542.00000</ele>
        <time>2024-05-13T13:41:43Z</time>
      </trkpt>
      <trkpt lat="42.75446995" lon="13.41325999">
        <ele>543.00000</ele>
        <time>2024-05-13T13:41:43Z</time>
      </trkpt>
      <trkpt lat="42.75447992" lon="13.41320995">
        <ele>543.00000</ele>
        <time>2024-05-13T13:41:44Z</time>
      </trkpt>
      <trkpt lat="42.75449995" lon="13.41311993">
        <ele>543.00000</ele>
        <time>2024-05-13T13:41:45Z</time>
      </trkpt>
      <trkpt lat="42.75449995" lon="13.41302999">
        <ele>542.00000</ele>
        <time>2024-05-13T13:41:46Z</time>
      </trkpt>
      <trkpt lat="42.75449995" lon="13.41290996">
        <ele>540.00000</ele>
        <time>2024-05-13T13:41:48Z</time>
      </trkpt>
      <trkpt lat="42.75449995" lon="13.41278993">
        <ele>538.00000</ele>
        <time>2024-05-13T13:41:49Z</time>
      </trkpt>
      <trkpt lat="42.75450993" lon="13.41269999">
        <ele>537.00000</ele>
        <time>2024-05-13T13:41:50Z</time>
      </trkpt>
      <trkpt lat="42.75452996" lon="13.41261995">
        <ele>536.00000</ele>
        <time>2024-05-13T13:41:51Z</time>
      </trkpt>
      <trkpt lat="42.75454999" lon="13.41253998">
        <ele>536.00000</ele>
        <time>2024-05-13T13:41:52Z</time>
      </trkpt>
      <trkpt lat="42.75456994" lon="13.41249992">
        <ele>536.00000</ele>
        <time>2024-05-13T13:41:53Z</time>
      </trkpt>
      <trkpt lat="42.75458998" lon="13.41246999">
        <ele>536.00000</ele>
        <time>2024-05-13T13:41:53Z</time>
      </trkpt>
      <trkpt lat="42.75460992" lon="13.41244996">
        <ele>536.00000</ele>
        <time>2024-05-13T13:41:54Z</time>
      </trkpt>
      <trkpt lat="42.75462996" lon="13.41242993">
        <ele>536.00000</ele>
        <time>2024-05-13T13:41:54Z</time>
      </trkpt>
      <trkpt lat="42.75467991" lon="13.41240998">
        <ele>537.00000</ele>
        <time>2024-05-13T13:41:55Z</time>
      </trkpt>
      <trkpt lat="42.75473993" lon="13.41240998">
        <ele>538.00000</ele>
        <time>2024-05-13T13:41:56Z</time>
      </trkpt>
      <trkpt lat="42.75480992" lon="13.41240998">
        <ele>538.00000</ele>
        <time>2024-05-13T13:41:57Z</time>
      </trkpt>
      <trkpt lat="42.75488996" lon="13.41241995">
        <ele>539.00000</ele>
        <time>2024-05-13T13:41:58Z</time>
      </trkpt>
      <trkpt lat="42.75498996" lon="13.41243999">
        <ele>540.00000</ele>
        <time>2024-05-13T13:42:00Z</time>
      </trkpt>
      <trkpt lat="42.75508996" lon="13.41243999">
        <ele>542.00000</ele>
        <time>2024-05-13T13:42:01Z</time>
      </trkpt>
      <trkpt lat="42.75514997" lon="13.41243999">
        <ele>543.00000</ele>
        <time>2024-05-13T13:42:02Z</time>
      </trkpt>
      <trkpt lat="42.75528995" lon="13.41237997">
        <ele>542.00000</ele>
        <time>2024-05-13T13:42:05Z</time>
      </trkpt>
      <trkpt lat="42.75542993" lon="13.41231996">
        <ele>542.00000</ele>
        <time>2024-05-13T13:42:07Z</time>
      </trkpt>
      <trkpt lat="42.75558994" lon="13.41226992">
        <ele>543.00000</ele>
        <time>2024-05-13T13:42:10Z</time>
      </trkpt>
      <trkpt lat="42.75569999" lon="13.41222994">
        <ele>543.00000</ele>
        <time>2024-05-13T13:42:11Z</time>
      </trkpt>
      <trkpt lat="42.75581994" lon="13.41221996">
        <ele>544.00000</ele>
        <time>2024-05-13T13:42:13Z</time>
      </trkpt>
      <trkpt lat="42.75594994" lon="13.41222994">
        <ele>544.00000</ele>
        <time>2024-05-13T13:42:15Z</time>
      </trkpt>
      <trkpt lat="42.75606997" lon="13.41224997">
        <ele>544.00000</ele>
        <time>2024-05-13T13:42:17Z</time>
      </trkpt>
      <trkpt lat="42.75617994" lon="13.41225994">
        <ele>543.00000</ele>
        <time>2024-05-13T13:42:19Z</time>
      </trkpt>
      <trkpt lat="42.75627993" lon="13.41225994">
        <ele>542.00000</ele>
        <time>2024-05-13T13:42:21Z</time>
      </trkpt>
      <trkpt lat="42.75639996" lon="13.41224997">
        <ele>541.00000</ele>
        <time>2024-05-13T13:42:23Z</time>
      </trkpt>
      <trkpt lat="42.75647993" lon="13.41222994">
        <ele>540.00000</ele>
        <time>2024-05-13T13:42:24Z</time>
      </trkpt>
      <trkpt lat="42.75657992" lon="13.41218995">
        <ele>539.00000</ele>
        <time>2024-05-13T13:42:26Z</time>
      </trkpt>
      <trkpt lat="42.75664991" lon="13.41215995">
        <ele>537.00000</ele>
        <time>2024-05-13T13:42:27Z</time>
      </trkpt>
      <trkpt lat="42.75671998" lon="13.41210999">
        <ele>536.00000</ele>
        <time>2024-05-13T13:42:28Z</time>
      </trkpt>
      <trkpt lat="42.75676994" lon="13.41205995">
        <ele>535.00000</ele>
        <time>2024-05-13T13:42:29Z</time>
      </trkpt>
      <trkpt lat="42.75681998" lon="13.41201997">
        <ele>535.00000</ele>
        <time>2024-05-13T13:42:30Z</time>
      </trkpt>
      <trkpt lat="42.75687991" lon="13.41196993">
        <ele>535.00000</ele>
        <time>2024-05-13T13:42:31Z</time>
      </trkpt>
      <trkpt lat="42.75694998" lon="13.41191997">
        <ele>536.00000</ele>
        <time>2024-05-13T13:42:32Z</time>
      </trkpt>
      <trkpt lat="42.75704998" lon="13.41187999">
        <ele>537.00000</ele>
        <time>2024-05-13T13:42:34Z</time>
      </trkpt>
      <trkpt lat="42.75714998" lon="13.41182995">
        <ele>538.00000</ele>
        <time>2024-05-13T13:42:36Z</time>
      </trkpt>
      <trkpt lat="42.75724997" lon="13.41179994">
        <ele>539.00000</ele>
        <time>2024-05-13T13:42:37Z</time>
      </trkpt>
      <trkpt lat="42.75735994" lon="13.41176994">
        <ele>541.00000</ele>
        <time>2024-05-13T13:42:39Z</time>
      </trkpt>
      <trkpt lat="42.75744996" lon="13.41174999">
        <ele>542.00000</ele>
        <time>2024-05-13T13:42:41Z</time>
      </trkpt>
      <trkpt lat="42.75751995" lon="13.41171998">
        <ele>543.00000</ele>
        <time>2024-05-13T13:42:42Z</time>
      </trkpt>
      <trkpt lat="42.75758994" lon="13.41167991">
        <ele>543.00000</ele>
        <time>2024-05-13T13:42:43Z</time>
      </trkpt>
      <trkpt lat="42.75773998" lon="13.41153994">
        <ele>540.00000</ele>
        <time>2024-05-13T13:42:46Z</time>
      </trkpt>
      <trkpt lat="42.75800996" lon="13.41132997">
        <ele>537.00000</ele>
        <time>2024-05-13T13:42:51Z</time>
      </trkpt>
      <trkpt lat="42.75821993" lon="13.41117993">
        <ele>537.00000</ele>
        <time>2024-05-13T13:42:55Z</time>
      </trkpt>
      <trkpt lat="42.75838991" lon="13.41109997">
        <ele>538.00000</ele>
        <time>2024-05-13T13:42:58Z</time>
      </trkpt>
      <trkpt lat="42.75854992" lon="13.41102998">
        <ele>538.00000</ele>
        <time>2024-05-13T13:43:00Z</time>
      </trkpt>
      <trkpt lat="42.75867993" lon="13.41099997">
        <ele>538.00000</ele>
        <time>2024-05-13T13:43:02Z</time>
      </trkpt>
      <trkpt lat="42.75883994" lon="13.41097994">
        <ele>536.00000</ele>
        <time>2024-05-13T13:43:05Z</time>
      </trkpt>
      <trkpt lat="42.75896994" lon="13.41097994">
        <ele>534.00000</ele>
        <time>2024-05-13T13:43:07Z</time>
      </trkpt>
      <trkpt lat="42.75911998" lon="13.41098992">
        <ele>532.00000</ele>
        <time>2024-05-13T13:43:09Z</time>
      </trkpt>
      <trkpt lat="42.75924998" lon="13.41100995">
        <ele>533.00000</ele>
        <time>2024-05-13T13:43:12Z</time>
      </trkpt>
      <trkpt lat="42.75938996" lon="13.41102998">
        <ele>535.00000</ele>
        <time>2024-05-13T13:43:14Z</time>
      </trkpt>
      <trkpt lat="42.75956992" lon="13.41107994">
        <ele>536.00000</ele>
        <time>2024-05-13T13:43:17Z</time>
      </trkpt>
      <trkpt lat="42.75970998" lon="13.41110995">
        <ele>536.00000</ele>
        <time>2024-05-13T13:43:19Z</time>
      </trkpt>
      <trkpt lat="42.75984995" lon="13.41113995">
        <ele>536.00000</ele>
        <time>2024-05-13T13:43:21Z</time>
      </trkpt>
      <trkpt lat="42.75999999" lon="13.41114993">
        <ele>535.00000</ele>
        <time>2024-05-13T13:43:24Z</time>
      </trkpt>
      <trkpt lat="42.76015992" lon="13.41114993">
        <ele>537.00000</ele>
        <time>2024-05-13T13:43:26Z</time>
      </trkpt>
      <trkpt lat="42.76027995" lon="13.41112998">
        <ele>537.00000</ele>
        <time>2024-05-13T13:43:28Z</time>
      </trkpt>
      <trkpt lat="42.76037994" lon="13.41108991">
        <ele>537.00000</ele>
        <time>2024-05-13T13:43:30Z</time>
      </trkpt>
      <trkpt lat="42.76049997" lon="13.41100995">
        <ele>536.00000</ele>
        <time>2024-05-13T13:43:32Z</time>
      </trkpt>
      <trkpt lat="42.76059997" lon="13.41093996">
        <ele>534.00000</ele>
        <time>2024-05-13T13:43:34Z</time>
      </trkpt>
      <trkpt lat="42.76069996" lon="13.41085991">
        <ele>533.00000</ele>
        <time>2024-05-13T13:43:36Z</time>
      </trkpt>
      <trkpt lat="42.76080993" lon="13.41076998">
        <ele>532.00000</ele>
        <time>2024-05-13T13:43:38Z</time>
      </trkpt>
      <trkpt lat="42.76088998" lon="13.41069999">
        <ele>531.00000</ele>
        <time>2024-05-13T13:43:39Z</time>
      </trkpt>
      <trkpt lat="42.76094991" lon="13.41061994">
        <ele>528.00000</ele>
        <time>2024-05-13T13:43:41Z</time>
      </trkpt>
      <trkpt lat="42.76102996" lon="13.41053998">
        <ele>527.00000</ele>
        <time>2024-05-13T13:43:42Z</time>
      </trkpt>
      <trkpt lat="42.76110992" lon="13.41043998">
        <ele>527.00000</ele>
        <time>2024-05-13T13:43:44Z</time>
      </trkpt>
      <trkpt lat="42.76117991" lon="13.41035993">
        <ele>528.00000</ele>
        <time>2024-05-13T13:43:45Z</time>
      </trkpt>
      <trkpt lat="42.76123993" lon="13.41026999">
        <ele>528.00000</ele>
        <time>2024-05-13T13:43:47Z</time>
      </trkpt>
      <trkpt lat="42.76129994" lon="13.41022993">
        <ele>528.00000</ele>
        <time>2024-05-13T13:43:48Z</time>
      </trkpt>
      <trkpt lat="42.76134998" lon="13.41019992">
        <ele>529.00000</ele>
        <time>2024-05-13T13:43:49Z</time>
      </trkpt>
      <trkpt lat="42.76142994" lon="13.41018995">
        <ele>529.00000</ele>
        <time>2024-05-13T13:43:50Z</time>
      </trkpt>
      <trkpt lat="42.76154997" lon="13.41016991">
        <ele>528.00000</ele>
        <time>2024-05-13T13:43:52Z</time>
      </trkpt>
      <trkpt lat="42.76172993" lon="13.41015994">
        <ele>525.00000</ele>
        <time>2024-05-13T13:43:55Z</time>
      </trkpt>
      <trkpt lat="42.76188994" lon="13.41015994">
        <ele>523.00000</ele>
        <time>2024-05-13T13:43:57Z</time>
      </trkpt>
      <trkpt lat="42.76206999" lon="13.41016991">
        <ele>521.00000</ele>
        <time>2024-05-13T13:44:00Z</time>
      </trkpt>
      <trkpt lat="42.76226998" lon="13.41017997">
        <ele>520.00000</ele>
        <time>2024-05-13T13:44:03Z</time>
      </trkpt>
      <trkpt lat="42.76245991" lon="13.41021995">
        <ele>518.00000</ele>
        <time>2024-05-13T13:44:07Z</time>
      </trkpt>
      <trkpt lat="42.76267994" lon="13.41023999">
        <ele>515.00000</ele>
        <time>2024-05-13T13:44:10Z</time>
      </trkpt>
      <trkpt lat="42.76287993" lon="13.41024996">
        <ele>513.00000</ele>
        <time>2024-05-13T13:44:13Z</time>
      </trkpt>
      <trkpt lat="42.76302997" lon="13.41022993">
        <ele>512.00000</ele>
        <time>2024-05-13T13:44:16Z</time>
      </trkpt>
      <trkpt lat="42.76321998" lon="13.41019992">
        <ele>511.00000</ele>
        <time>2024-05-13T13:44:19Z</time>
      </trkpt>
      <trkpt lat="42.76337999" lon="13.41016991">
        <ele>511.00000</ele>
        <time>2024-05-13T13:44:21Z</time>
      </trkpt>
      <trkpt lat="42.76348996" lon="13.41013999">
        <ele>512.00000</ele>
        <time>2024-05-13T13:44:23Z</time>
      </trkpt>
      <trkpt lat="42.76356993" lon="13.41011996">
        <ele>512.00000</ele>
        <time>2024-05-13T13:44:24Z</time>
      </trkpt>
      <trkpt lat="42.76362994" lon="13.41008995">
        <ele>512.00000</ele>
        <time>2024-05-13T13:44:25Z</time>
      </trkpt>
      <trkpt lat="42.76375995" lon="13.40998996">
        <ele>511.00000</ele>
        <time>2024-05-13T13:44:28Z</time>
      </trkpt>
      <trkpt lat="42.76384997" lon="13.40988996">
        <ele>509.00000</ele>
        <time>2024-05-13T13:44:30Z</time>
      </trkpt>
      <trkpt lat="42.76399992" lon="13.40972995">
        <ele>504.00000</ele>
        <time>2024-05-13T13:44:33Z</time>
      </trkpt>
      <trkpt lat="42.76408994" lon="13.40963993">
        <ele>501.00000</ele>
        <time>2024-05-13T13:44:35Z</time>
      </trkpt>
      <trkpt lat="42.76419991" lon="13.40955996">
        <ele>499.00000</ele>
        <time>2024-05-13T13:44:37Z</time>
      </trkpt>
      <trkpt lat="42.76431994" lon="13.40947992">
        <ele>497.00000</ele>
        <time>2024-05-13T13:44:39Z</time>
      </trkpt>
      <trkpt lat="42.76446998" lon="13.40939995">
        <ele>495.00000</ele>
        <time>2024-05-13T13:44:41Z</time>
      </trkpt>
      <trkpt lat="42.76461993" lon="13.40934991">
        <ele>493.00000</ele>
        <time>2024-05-13T13:44:44Z</time>
      </trkpt>
      <trkpt lat="42.76473996" lon="13.40931999">
        <ele>492.00000</ele>
        <time>2024-05-13T13:44:46Z</time>
      </trkpt>
      <trkpt lat="42.76495998" lon="13.40930993">
        <ele>492.00000</ele>
        <time>2024-05-13T13:44:49Z</time>
      </trkpt>
      <trkpt lat="42.76515997" lon="13.40928998">
        <ele>491.00000</ele>
        <time>2024-05-13T13:44:52Z</time>
      </trkpt>
      <trkpt lat="42.76533993" lon="13.40926995">
        <ele>490.00000</ele>
        <time>2024-05-13T13:44:55Z</time>
      </trkpt>
      <trkpt lat="42.76549994" lon="13.40927992">
        <ele>489.00000</ele>
        <time>2024-05-13T13:44:58Z</time>
      </trkpt>
      <trkpt lat="42.76557999" lon="13.40930993">
        <ele>490.00000</ele>
        <time>2024-05-13T13:44:59Z</time>
      </trkpt>
      <trkpt lat="42.76564998" lon="13.40934991">
        <ele>490.00000</ele>
        <time>2024-05-13T13:45:00Z</time>
      </trkpt>
      <trkpt lat="42.76572994" lon="13.40941999">
        <ele>492.00000</ele>
        <time>2024-05-13T13:45:02Z</time>
      </trkpt>
      <trkpt lat="42.76580999" lon="13.40949995">
        <ele>492.00000</ele>
        <time>2024-05-13T13:45:03Z</time>
      </trkpt>
      <trkpt lat="42.76589993" lon="13.40958997">
        <ele>491.00000</ele>
        <time>2024-05-13T13:45:05Z</time>
      </trkpt>
      <trkpt lat="42.76598995" lon="13.40969994">
        <ele>491.00000</ele>
        <time>2024-05-13T13:45:07Z</time>
      </trkpt>
      <trkpt lat="42.76607997" lon="13.40978996">
        <ele>490.00000</ele>
        <time>2024-05-13T13:45:09Z</time>
      </trkpt>
      <trkpt lat="42.76615994" lon="13.40986993">
        <ele>489.00000</ele>
        <time>2024-05-13T13:45:11Z</time>
      </trkpt>
      <trkpt lat="42.76623998" lon="13.40994997">
        <ele>488.00000</ele>
        <time>2024-05-13T13:45:12Z</time>
      </trkpt>
      <trkpt lat="42.76633998" lon="13.41001996">
        <ele>487.00000</ele>
        <time>2024-05-13T13:45:14Z</time>
      </trkpt>
      <trkpt lat="42.76641994" lon="13.41008995">
        <ele>485.00000</ele>
        <time>2024-05-13T13:45:16Z</time>
      </trkpt>
      <trkpt lat="42.76645992" lon="13.41012993">
        <ele>484.00000</ele>
        <time>2024-05-13T13:45:16Z</time>
      </trkpt>
      <trkpt lat="42.76648993" lon="13.41016991">
        <ele>484.00000</ele>
        <time>2024-05-13T13:45:17Z</time>
      </trkpt>
      <trkpt lat="42.76651994" lon="13.41019992">
        <ele>483.00000</ele>
        <time>2024-05-13T13:45:18Z</time>
      </trkpt>
      <trkpt lat="42.76653997" lon="13.41024996">
        <ele>483.00000</ele>
        <time>2024-05-13T13:45:18Z</time>
      </trkpt>
      <trkpt lat="42.76655992" lon="13.41030998">
        <ele>483.00000</ele>
        <time>2024-05-13T13:45:19Z</time>
      </trkpt>
      <trkpt lat="42.76657995" lon="13.41042992">
        <ele>483.00000</ele>
        <time>2024-05-13T13:45:20Z</time>
      </trkpt>
      <trkpt lat="42.76658993" lon="13.41049999">
        <ele>484.00000</ele>
        <time>2024-05-13T13:45:21Z</time>
      </trkpt>
      <trkpt lat="42.76657995" lon="13.41056998">
        <ele>485.00000</ele>
        <time>2024-05-13T13:45:22Z</time>
      </trkpt>
      <trkpt lat="42.76657995" lon="13.41061994">
        <ele>486.00000</ele>
        <time>2024-05-13T13:45:23Z</time>
      </trkpt>
      <trkpt lat="42.76657995" lon="13.41067995">
        <ele>487.00000</ele>
        <time>2024-05-13T13:45:23Z</time>
      </trkpt>
      <trkpt lat="42.76657995" lon="13.41075992">
        <ele>488.00000</ele>
        <time>2024-05-13T13:45:24Z</time>
      </trkpt>
      <trkpt lat="42.76657995" lon="13.41081993">
        <ele>488.00000</ele>
        <time>2024-05-13T13:45:25Z</time>
      </trkpt>
      <trkpt lat="42.76658993" lon="13.41088992">
        <ele>488.00000</ele>
        <time>2024-05-13T13:45:26Z</time>
      </trkpt>
      <trkpt lat="42.76662999" lon="13.41107994">
        <ele>486.00000</ele>
        <time>2024-05-13T13:45:28Z</time>
      </trkpt>
      <trkpt lat="42.76664994" lon="13.41117993">
        <ele>485.00000</ele>
        <time>2024-05-13T13:45:29Z</time>
      </trkpt>
      <trkpt lat="42.76665992" lon="13.41123995">
        <ele>485.00000</ele>
        <time>2024-05-13T13:45:30Z</time>
      </trkpt>
      <trkpt lat="42.76666997" lon="13.41129996">
        <ele>485.00000</ele>
        <time>2024-05-13T13:45:31Z</time>
      </trkpt>
      <trkpt lat="42.76668992" lon="13.41138998">
        <ele>484.00000</ele>
        <time>2024-05-13T13:45:32Z</time>
      </trkpt>
      <trkpt lat="42.76669998" lon="13.41148998">
        <ele>483.00000</ele>
        <time>2024-05-13T13:45:33Z</time>
      </trkpt>
      <trkpt lat="42.76669998" lon="13.41157992">
        <ele>483.00000</ele>
        <time>2024-05-13T13:45:34Z</time>
      </trkpt>
      <trkpt lat="42.76669998" lon="13.41169995">
        <ele>483.00000</ele>
        <time>2024-05-13T13:45:36Z</time>
      </trkpt>
      <trkpt lat="42.76669998" lon="13.41178997">
        <ele>484.00000</ele>
        <time>2024-05-13T13:45:37Z</time>
      </trkpt>
      <trkpt lat="42.76667995" lon="13.41186993">
        <ele>486.00000</ele>
        <time>2024-05-13T13:45:38Z</time>
      </trkpt>
      <trkpt lat="42.76667995" lon="13.41194998">
        <ele>487.00000</ele>
        <time>2024-05-13T13:45:39Z</time>
      </trkpt>
      <trkpt lat="42.76666997" lon="13.41201997">
        <ele>488.00000</ele>
        <time>2024-05-13T13:45:40Z</time>
      </trkpt>
      <trkpt lat="42.76666997" lon="13.41210999">
        <ele>488.00000</ele>
        <time>2024-05-13T13:45:41Z</time>
      </trkpt>
      <trkpt lat="42.76665992" lon="13.41219993">
        <ele>489.00000</ele>
        <time>2024-05-13T13:45:42Z</time>
      </trkpt>
      <trkpt lat="42.76664994" lon="13.41227998">
        <ele>490.00000</ele>
        <time>2024-05-13T13:45:43Z</time>
      </trkpt>
      <trkpt lat="42.76664994" lon="13.41235994">
        <ele>490.00000</ele>
        <time>2024-05-13T13:45:44Z</time>
      </trkpt>
      <trkpt lat="42.76665992" lon="13.41241995">
        <ele>489.00000</ele>
        <time>2024-05-13T13:45:44Z</time>
      </trkpt>
      <trkpt lat="42.76666997" lon="13.41247997">
        <ele>487.00000</ele>
        <time>2024-05-13T13:45:45Z</time>
      </trkpt>
      <trkpt lat="42.76667995" lon="13.41251995">
        <ele>487.00000</ele>
        <time>2024-05-13T13:45:46Z</time>
      </trkpt>
      <trkpt lat="42.76669998" lon="13.41254996">
        <ele>486.00000</ele>
        <time>2024-05-13T13:45:46Z</time>
      </trkpt>
      <trkpt lat="42.76671993" lon="13.41257996">
        <ele>485.00000</ele>
        <time>2024-05-13T13:45:46Z</time>
      </trkpt>
      <trkpt lat="42.76676997" lon="13.41263998">
        <ele>483.00000</ele>
        <time>2024-05-13T13:45:48Z</time>
      </trkpt>
      <trkpt lat="42.76682998" lon="13.41268993">
        <ele>481.00000</ele>
        <time>2024-05-13T13:45:49Z</time>
      </trkpt>
      <trkpt lat="42.76688992" lon="13.41273997">
        <ele>478.00000</ele>
        <time>2024-05-13T13:45:50Z</time>
      </trkpt>
      <trkpt lat="42.76698991" lon="13.41281994">
        <ele>475.00000</ele>
        <time>2024-05-13T13:45:52Z</time>
      </trkpt>
      <trkpt lat="42.76708999" lon="13.41289998">
        <ele>474.00000</ele>
        <time>2024-05-13T13:45:54Z</time>
      </trkpt>
      <trkpt lat="42.76720994" lon="13.41301993">
        <ele>475.00000</ele>
        <time>2024-05-13T13:45:56Z</time>
      </trkpt>
      <trkpt lat="42.76730993" lon="13.41311993">
        <ele>475.00000</ele>
        <time>2024-05-13T13:45:58Z</time>
      </trkpt>
      <trkpt lat="42.76739995" lon="13.41322998">
        <ele>475.00000</ele>
        <time>2024-05-13T13:46:00Z</time>
      </trkpt>
      <trkpt lat="42.76748998" lon="13.41334993">
        <ele>476.00000</ele>
        <time>2024-05-13T13:46:02Z</time>
      </trkpt>
      <trkpt lat="42.76755996" lon="13.41345998">
        <ele>468.00000</ele>
        <time>2024-05-13T13:46:04Z</time>
      </trkpt>
      <trkpt lat="42.76762995" lon="13.41358998">
        <ele>460.00000</ele>
        <time>2024-05-13T13:46:05Z</time>
      </trkpt>
      <trkpt lat="42.76765996" lon="13.41368998">
        <ele>457.00000</ele>
        <time>2024-05-13T13:46:07Z</time>
      </trkpt>
      <trkpt lat="42.76767999" lon="13.41378998">
        <ele>454.00000</ele>
        <time>2024-05-13T13:46:08Z</time>
      </trkpt>
      <trkpt lat="42.76767999" lon="13.41395996">
        <ele>455.00000</ele>
        <time>2024-05-13T13:46:10Z</time>
      </trkpt>
      <trkpt lat="42.76767999" lon="13.41406993">
        <ele>456.00000</ele>
        <time>2024-05-13T13:46:11Z</time>
      </trkpt>
      <trkpt lat="42.76766994" lon="13.41421997">
        <ele>458.00000</ele>
        <time>2024-05-13T13:46:13Z</time>
      </trkpt>
      <trkpt lat="42.76764999" lon="13.41437998">
        <ele>459.00000</ele>
        <time>2024-05-13T13:46:15Z</time>
      </trkpt>
      <trkpt lat="42.76762995" lon="13.41454996">
        <ele>460.00000</ele>
        <time>2024-05-13T13:46:17Z</time>
      </trkpt>
      <trkpt lat="42.76759995" lon="13.41464996">
        <ele>461.00000</ele>
        <time>2024-05-13T13:46:18Z</time>
      </trkpt>
      <trkpt lat="42.76757991" lon="13.41470997">
        <ele>462.00000</ele>
        <time>2024-05-13T13:46:19Z</time>
      </trkpt>
      <trkpt lat="42.76756994" lon="13.41477996">
        <ele>461.00000</ele>
        <time>2024-05-13T13:46:20Z</time>
      </trkpt>
      <trkpt lat="42.76755996" lon="13.41483998">
        <ele>460.00000</ele>
        <time>2024-05-13T13:46:21Z</time>
      </trkpt>
      <trkpt lat="42.76754999" lon="13.41489999">
        <ele>459.00000</ele>
        <time>2024-05-13T13:46:21Z</time>
      </trkpt>
      <trkpt lat="42.76754999" lon="13.41496998">
        <ele>457.00000</ele>
        <time>2024-05-13T13:46:22Z</time>
      </trkpt>
      <trkpt lat="42.76753993" lon="13.41501994">
        <ele>457.00000</ele>
        <time>2024-05-13T13:46:23Z</time>
      </trkpt>
      <trkpt lat="42.76753993" lon="13.41506998">
        <ele>456.00000</ele>
        <time>2024-05-13T13:46:23Z</time>
      </trkpt>
      <trkpt lat="42.76753993" lon="13.41512999">
        <ele>455.00000</ele>
        <time>2024-05-13T13:46:24Z</time>
      </trkpt>
      <trkpt lat="42.76752996" lon="13.41516997">
        <ele>455.00000</ele>
        <time>2024-05-13T13:46:25Z</time>
      </trkpt>
      <trkpt lat="42.76749995" lon="13.41523996">
        <ele>455.00000</ele>
        <time>2024-05-13T13:46:25Z</time>
      </trkpt>
      <trkpt lat="42.76746994" lon="13.41531992">
        <ele>456.00000</ele>
        <time>2024-05-13T13:46:27Z</time>
      </trkpt>
      <trkpt lat="42.76740993" lon="13.41542998">
        <ele>457.00000</ele>
        <time>2024-05-13T13:46:28Z</time>
      </trkpt>
      <trkpt lat="42.76734991" lon="13.41550994">
        <ele>459.00000</ele>
        <time>2024-05-13T13:46:29Z</time>
      </trkpt>
      <trkpt lat="42.76731999" lon="13.41555998">
        <ele>460.00000</ele>
        <time>2024-05-13T13:46:30Z</time>
      </trkpt>
      <trkpt lat="42.76728998" lon="13.41560994">
        <ele>461.00000</ele>
        <time>2024-05-13T13:46:31Z</time>
      </trkpt>
      <trkpt lat="42.76725998" lon="13.41565998">
        <ele>461.00000</ele>
        <time>2024-05-13T13:46:32Z</time>
      </trkpt>
      <trkpt lat="42.76721999" lon="13.41576995">
        <ele>462.00000</ele>
        <time>2024-05-13T13:46:33Z</time>
      </trkpt>
      <trkpt lat="42.76717993" lon="13.41589995">
        <ele>462.00000</ele>
        <time>2024-05-13T13:46:35Z</time>
      </trkpt>
      <trkpt lat="42.76711991" lon="13.41603993">
        <ele>464.00000</ele>
        <time>2024-05-13T13:46:37Z</time>
      </trkpt>
      <trkpt lat="42.76708999" lon="13.41612995">
        <ele>465.00000</ele>
        <time>2024-05-13T13:46:38Z</time>
      </trkpt>
      <trkpt lat="42.76703995" lon="13.41623992">
        <ele>465.00000</ele>
        <time>2024-05-13T13:46:39Z</time>
      </trkpt>
      <trkpt lat="42.76701992" lon="13.41632994">
        <ele>464.00000</ele>
        <time>2024-05-13T13:46:41Z</time>
      </trkpt>
      <trkpt lat="42.76701992" lon="13.41637998">
        <ele>463.00000</ele>
        <time>2024-05-13T13:46:41Z</time>
      </trkpt>
      <trkpt lat="42.76703995" lon="13.41640999">
        <ele>462.00000</ele>
        <time>2024-05-13T13:46:42Z</time>
      </trkpt>
      <trkpt lat="42.76705998" lon="13.41643991">
        <ele>462.00000</ele>
        <time>2024-05-13T13:46:42Z</time>
      </trkpt>
      <trkpt lat="42.76708999" lon="13.41645995">
        <ele>461.00000</ele>
        <time>2024-05-13T13:46:43Z</time>
      </trkpt>
      <trkpt lat="42.76711991" lon="13.41646992">
        <ele>460.00000</ele>
        <time>2024-05-13T13:46:43Z</time>
      </trkpt>
      <trkpt lat="42.76716995" lon="13.41646992">
        <ele>459.00000</ele>
        <time>2024-05-13T13:46:44Z</time>
      </trkpt>
      <trkpt lat="42.76720994" lon="13.41644997">
        <ele>458.00000</ele>
        <time>2024-05-13T13:46:45Z</time>
      </trkpt>
      <trkpt lat="42.76723994" lon="13.41642994">
        <ele>457.00000</ele>
        <time>2024-05-13T13:46:45Z</time>
      </trkpt>
      <trkpt lat="42.76718999" lon="13.41667997">
        <ele>460.00000</ele>
        <time>2024-05-13T13:46:48Z</time>
      </trkpt>
      <trkpt lat="42.76714992" lon="13.41682992">
        <ele>462.00000</ele>
        <time>2024-05-13T13:46:50Z</time>
      </trkpt>
      <trkpt lat="42.76709997" lon="13.41695993">
        <ele>463.00000</ele>
        <time>2024-05-13T13:46:52Z</time>
      </trkpt>
      <trkpt lat="42.76704993" lon="13.41701994">
        <ele>464.00000</ele>
        <time>2024-05-13T13:46:53Z</time>
      </trkpt>
      <trkpt lat="42.76697994" lon="13.41708993">
        <ele>464.00000</ele>
        <time>2024-05-13T13:46:54Z</time>
      </trkpt>
      <trkpt lat="42.76688992" lon="13.41717995">
        <ele>465.00000</ele>
        <time>2024-05-13T13:46:56Z</time>
      </trkpt>
      <trkpt lat="42.76682998" lon="13.41726997">
        <ele>467.00000</ele>
        <time>2024-05-13T13:46:57Z</time>
      </trkpt>
      <trkpt lat="42.76678992" lon="13.41732999">
        <ele>468.00000</ele>
        <time>2024-05-13T13:46:58Z</time>
      </trkpt>
      <trkpt lat="42.76678992" lon="13.41737994">
        <ele>468.00000</ele>
        <time>2024-05-13T13:46:59Z</time>
      </trkpt>
      <trkpt lat="42.76679998" lon="13.41743996">
        <ele>469.00000</ele>
        <time>2024-05-13T13:47:00Z</time>
      </trkpt>
      <trkpt lat="42.76680995" lon="13.41751992">
        <ele>470.00000</ele>
        <time>2024-05-13T13:47:01Z</time>
      </trkpt>
      <trkpt lat="42.76682998" lon="13.41758999">
        <ele>472.00000</ele>
        <time>2024-05-13T13:47:02Z</time>
      </trkpt>
      <trkpt lat="42.76682998" lon="13.41765998">
        <ele>473.00000</ele>
        <time>2024-05-13T13:47:02Z</time>
      </trkpt>
      <trkpt lat="42.76682998" lon="13.41773995">
        <ele>475.00000</ele>
        <time>2024-05-13T13:47:03Z</time>
      </trkpt>
      <trkpt lat="42.76681993" lon="13.41779996">
        <ele>476.00000</ele>
        <time>2024-05-13T13:47:04Z</time>
      </trkpt>
      <trkpt lat="42.76678992" lon="13.41785998">
        <ele>477.00000</ele>
        <time>2024-05-13T13:47:05Z</time>
      </trkpt>
      <trkpt lat="42.76675991" lon="13.41792996">
        <ele>478.00000</ele>
        <time>2024-05-13T13:47:06Z</time>
      </trkpt>
      <trkpt lat="42.76673996" lon="13.41796995">
        <ele>479.00000</ele>
        <time>2024-05-13T13:47:06Z</time>
      </trkpt>
      <trkpt lat="42.76672999" lon="13.41799995">
        <ele>479.00000</ele>
        <time>2024-05-13T13:47:07Z</time>
      </trkpt>
      <trkpt lat="42.76672999" lon="13.41802996">
        <ele>480.00000</ele>
        <time>2024-05-13T13:47:07Z</time>
      </trkpt>
      <trkpt lat="42.76673996" lon="13.41804999">
        <ele>481.00000</ele>
        <time>2024-05-13T13:47:07Z</time>
      </trkpt>
      <trkpt lat="42.76674994" lon="13.41806994">
        <ele>481.00000</ele>
        <time>2024-05-13T13:47:08Z</time>
      </trkpt>
      <trkpt lat="42.76676997" lon="13.41807992">
        <ele>482.00000</ele>
        <time>2024-05-13T13:47:08Z</time>
      </trkpt>
      <trkpt lat="42.76679998" lon="13.41807992">
        <ele>483.00000</ele>
        <time>2024-05-13T13:47:09Z</time>
      </trkpt>
      <trkpt lat="42.76681993" lon="13.41807992">
        <ele>483.00000</ele>
        <time>2024-05-13T13:47:09Z</time>
      </trkpt>
      <trkpt lat="42.76684993" lon="13.41806994">
        <ele>483.00000</ele>
        <time>2024-05-13T13:47:09Z</time>
      </trkpt>
      <trkpt lat="42.76687994" lon="13.41804999">
        <ele>483.00000</ele>
        <time>2024-05-13T13:47:10Z</time>
      </trkpt>
      <trkpt lat="42.76689997" lon="13.41800993">
        <ele>483.00000</ele>
        <time>2024-05-13T13:47:11Z</time>
      </trkpt>
      <trkpt lat="42.76692998" lon="13.41793994">
        <ele>481.00000</ele>
        <time>2024-05-13T13:47:11Z</time>
      </trkpt>
      <trkpt lat="42.76693996" lon="13.41787992">
        <ele>480.00000</ele>
        <time>2024-05-13T13:47:12Z</time>
      </trkpt>
      <trkpt lat="42.76694993" lon="13.41782997">
        <ele>479.00000</ele>
        <time>2024-05-13T13:47:13Z</time>
      </trkpt>
      <trkpt lat="42.76695999" lon="13.41776995">
        <ele>478.00000</ele>
        <time>2024-05-13T13:47:14Z</time>
      </trkpt>
      <trkpt lat="42.76696996" lon="13.41772997">
        <ele>477.00000</ele>
        <time>2024-05-13T13:47:14Z</time>
      </trkpt>
      <trkpt lat="42.76700994" lon="13.41766996">
        <ele>477.00000</ele>
        <time>2024-05-13T13:47:15Z</time>
      </trkpt>
      <trkpt lat="42.76702998" lon="13.41761992">
        <ele>477.00000</ele>
        <time>2024-05-13T13:47:16Z</time>
      </trkpt>
      <trkpt lat="42.76708999" lon="13.41757994">
        <ele>478.00000</ele>
        <time>2024-05-13T13:47:17Z</time>
      </trkpt>
      <trkpt lat="42.76714992" lon="13.41753995">
        <ele>479.00000</ele>
        <time>2024-05-13T13:47:18Z</time>
      </trkpt>
      <trkpt lat="42.76722997" lon="13.41750995">
        <ele>480.00000</ele>
        <time>2024-05-13T13:47:19Z</time>
      </trkpt>
      <trkpt lat="42.76731999" lon="13.41748991">
        <ele>483.00000</ele>
        <time>2024-05-13T13:47:21Z</time>
      </trkpt>
      <trkpt lat="42.76739995" lon="13.41744993">
        <ele>485.00000</ele>
        <time>2024-05-13T13:47:22Z</time>
      </trkpt>
      <trkpt lat="42.76743994" lon="13.41742998">
        <ele>486.00000</ele>
        <time>2024-05-13T13:47:23Z</time>
      </trkpt>
      <trkpt lat="42.76748998" lon="13.41738992">
        <ele>487.00000</ele>
        <time>2024-05-13T13:47:24Z</time>
      </trkpt>
      <trkpt lat="42.76752996" lon="13.41734994">
        <ele>487.00000</ele>
        <time>2024-05-13T13:47:24Z</time>
      </trkpt>
      <trkpt lat="42.76757991" lon="13.41728992">
        <ele>486.00000</ele>
        <time>2024-05-13T13:47:25Z</time>
      </trkpt>
      <trkpt lat="42.76763993" lon="13.41720996">
        <ele>486.00000</ele>
        <time>2024-05-13T13:47:27Z</time>
      </trkpt>
      <trkpt lat="42.76765996" lon="13.41716998">
        <ele>485.00000</ele>
        <time>2024-05-13T13:47:27Z</time>
      </trkpt>
      <trkpt lat="42.76769994" lon="13.41710996">
        <ele>485.00000</ele>
        <time>2024-05-13T13:47:28Z</time>
      </trkpt>
      <trkpt lat="42.76772995" lon="13.41705992">
        <ele>485.00000</ele>
        <time>2024-05-13T13:47:29Z</time>
      </trkpt>
      <trkpt lat="42.76777999" lon="13.41701994">
        <ele>485.00000</ele>
        <time>2024-05-13T13:47:30Z</time>
      </trkpt>
      <trkpt lat="42.76785995" lon="13.41696999">
        <ele>486.00000</ele>
        <time>2024-05-13T13:47:31Z</time>
      </trkpt>
      <trkpt lat="42.76807998" lon="13.41680997">
        <ele>488.00000</ele>
        <time>2024-05-13T13:47:35Z</time>
      </trkpt>
      <trkpt lat="42.76817997" lon="13.41673999">
        <ele>489.00000</ele>
        <time>2024-05-13T13:47:37Z</time>
      </trkpt>
      <trkpt lat="42.76826991" lon="13.41666991">
        <ele>489.00000</ele>
        <time>2024-05-13T13:47:39Z</time>
      </trkpt>
      <trkpt lat="42.76840997" lon="13.41654997">
        <ele>490.00000</ele>
        <time>2024-05-13T13:47:41Z</time>
      </trkpt>
      <trkpt lat="42.76848994" lon="13.41647998">
        <ele>490.00000</ele>
        <time>2024-05-13T13:47:43Z</time>
      </trkpt>
      <trkpt lat="42.76851994" lon="13.41645995">
        <ele>490.00000</ele>
        <time>2024-05-13T13:47:44Z</time>
      </trkpt>
      <trkpt lat="42.76855993" lon="13.41642994">
        <ele>490.00000</ele>
        <time>2024-05-13T13:47:44Z</time>
      </trkpt>
      <trkpt lat="42.76860997" lon="13.41638996">
        <ele>490.00000</ele>
        <time>2024-05-13T13:47:45Z</time>
      </trkpt>
      <trkpt lat="42.76884994" lon="13.41615996">
        <ele>495.00000</ele>
        <time>2024-05-13T13:47:50Z</time>
      </trkpt>
      <trkpt lat="42.76888992" lon="13.41610992">
        <ele>496.00000</ele>
        <time>2024-05-13T13:47:51Z</time>
      </trkpt>
      <trkpt lat="42.76906996" lon="13.41590993">
        <ele>497.00000</ele>
        <time>2024-05-13T13:47:54Z</time>
      </trkpt>
      <trkpt lat="42.76916996" lon="13.41577992">
        <ele>498.00000</ele>
        <time>2024-05-13T13:47:57Z</time>
      </trkpt>
      <trkpt lat="42.76923995" lon="13.41566995">
        <ele>498.00000</ele>
        <time>2024-05-13T13:47:58Z</time>
      </trkpt>
      <trkpt lat="42.76929996" lon="13.41550994">
        <ele>498.00000</ele>
        <time>2024-05-13T13:48:01Z</time>
      </trkpt>
      <trkpt lat="42.76938010" lon="13.41530459">
        <ele>498.00000</ele>
        <time>2024-05-13T13:48:03Z</time>
      </trkpt>
      <trkpt lat="42.76945997" lon="13.41509998">
        <ele>500.00000</ele>
        <time>2024-05-13T13:48:06Z</time>
      </trkpt>
      <trkpt lat="42.76958998" lon="13.41482992">
        <ele>500.00000</ele>
        <time>2024-05-13T13:48:10Z</time>
      </trkpt>
      <trkpt lat="42.76973993" lon="13.41462993">
        <ele>501.00000</ele>
        <time>2024-05-13T13:48:13Z</time>
      </trkpt>
      <trkpt lat="42.76986993" lon="13.41440998">
        <ele>501.00000</ele>
        <time>2024-05-13T13:48:16Z</time>
      </trkpt>
      <trkpt lat="42.76997001" lon="13.41423472">
        <ele>501.00000</ele>
        <time>2024-05-13T13:48:19Z</time>
      </trkpt>
      <trkpt lat="42.77006993" lon="13.41405996">
        <ele>501.00000</ele>
        <time>2024-05-13T13:48:22Z</time>
      </trkpt>
      <trkpt lat="42.77011997" lon="13.41396993">
        <ele>500.00000</ele>
        <time>2024-05-13T13:48:23Z</time>
      </trkpt>
      <trkpt lat="42.77013991" lon="13.41387991">
        <ele>500.00000</ele>
        <time>2024-05-13T13:48:24Z</time>
      </trkpt>
      <trkpt lat="42.77014997" lon="13.41379995">
        <ele>500.00000</ele>
        <time>2024-05-13T13:48:25Z</time>
      </trkpt>
      <trkpt lat="42.77015995" lon="13.41371999">
        <ele>500.00000</ele>
        <time>2024-05-13T13:48:26Z</time>
      </trkpt>
      <trkpt lat="42.77018995" lon="13.41363994">
        <ele>500.00000</ele>
        <time>2024-05-13T13:48:27Z</time>
      </trkpt>
      <trkpt lat="42.77019993" lon="13.41359996">
        <ele>500.00000</ele>
        <time>2024-05-13T13:48:28Z</time>
      </trkpt>
      <trkpt lat="42.77021996" lon="13.41357992">
        <ele>500.00000</ele>
        <time>2024-05-13T13:48:28Z</time>
      </trkpt>
      <trkpt lat="42.77022994" lon="13.41355998">
        <ele>500.00000</ele>
        <time>2024-05-13T13:48:28Z</time>
      </trkpt>
      <trkpt lat="42.77024997" lon="13.41354992">
        <ele>500.00000</ele>
        <time>2024-05-13T13:48:29Z</time>
      </trkpt>
      <trkpt lat="42.77025994" lon="13.41353994">
        <ele>500.00000</ele>
        <time>2024-05-13T13:48:29Z</time>
      </trkpt>
      <trkpt lat="42.77027998" lon="13.41353994">
        <ele>500.00000</ele>
        <time>2024-05-13T13:48:29Z</time>
      </trkpt>
      <trkpt lat="42.77029993" lon="13.41353994">
        <ele>500.00000</ele>
        <time>2024-05-13T13:48:29Z</time>
      </trkpt>
      <trkpt lat="42.77037997" lon="13.41354992">
        <ele>500.00000</ele>
        <time>2024-05-13T13:48:31Z</time>
      </trkpt>
      <trkpt lat="42.77056999" lon="13.41355998">
        <ele>500.00000</ele>
        <time>2024-05-13T13:48:34Z</time>
      </trkpt>
      <trkpt lat="42.77077996" lon="13.41362996">
        <ele>499.00000</ele>
        <time>2024-05-13T13:48:37Z</time>
      </trkpt>
      <trkpt lat="42.77096997" lon="13.41369995">
        <ele>498.00000</ele>
        <time>2024-05-13T13:48:40Z</time>
      </trkpt>
      <trkpt lat="42.77121992" lon="13.41381998">
        <ele>498.00000</ele>
        <time>2024-05-13T13:48:45Z</time>
      </trkpt>
      <trkpt lat="42.77137474" lon="13.41389483">
        <ele>499.00000</ele>
        <time>2024-05-13T13:48:47Z</time>
      </trkpt>
      <trkpt lat="42.77152997" lon="13.41396993">
        <ele>497.00000</ele>
        <time>2024-05-13T13:48:50Z</time>
      </trkpt>
      <trkpt lat="42.77153994" lon="13.41397999">
        <ele>497.00000</ele>
        <time>2024-05-13T13:48:50Z</time>
      </trkpt>
      <trkpt lat="42.77176994" lon="13.41407999">
        <ele>494.00000</ele>
        <time>2024-05-13T13:48:54Z</time>
      </trkpt>
      <trkpt lat="42.77200304" lon="13.41420320">
        <ele>492.00000</ele>
        <time>2024-05-13T13:48:58Z</time>
      </trkpt>
      <trkpt lat="42.77223623" lon="13.41432642">
        <ele>492.00000</ele>
        <time>2024-05-13T13:49:02Z</time>
      </trkpt>
      <trkpt lat="42.77246992" lon="13.41444997">
        <ele>493.00000</ele>
        <time>2024-05-13T13:49:06Z</time>
      </trkpt>
      <trkpt lat="42.77264971" lon="13.41454988">
        <ele>494.00000</ele>
        <time>2024-05-13T13:49:09Z</time>
      </trkpt>
      <trkpt lat="42.77282992" lon="13.41464996">
        <ele>495.00000</ele>
        <time>2024-05-13T13:49:12Z</time>
      </trkpt>
      <trkpt lat="42.77304475" lon="13.41474979">
        <ele>496.00000</ele>
        <time>2024-05-13T13:49:16Z</time>
      </trkpt>
      <trkpt lat="42.77325999" lon="13.41484995">
        <ele>495.00000</ele>
        <time>2024-05-13T13:49:19Z</time>
      </trkpt>
      <trkpt lat="42.77344993" lon="13.41496998">
        <ele>493.00000</ele>
        <time>2024-05-13T13:49:23Z</time>
      </trkpt>
      <trkpt lat="42.77358999" lon="13.41506998">
        <ele>490.00000</ele>
        <time>2024-05-13T13:49:25Z</time>
      </trkpt>
      <trkpt lat="42.77371999" lon="13.41517995">
        <ele>487.00000</ele>
        <time>2024-05-13T13:49:28Z</time>
      </trkpt>
      <trkpt lat="42.77388998" lon="13.41530995">
        <ele>484.00000</ele>
        <time>2024-05-13T13:49:31Z</time>
      </trkpt>
      <trkpt lat="42.77402996" lon="13.41542998">
        <ele>481.00000</ele>
        <time>2024-05-13T13:49:34Z</time>
      </trkpt>
      <trkpt lat="42.77407991" lon="13.41548999">
        <ele>480.00000</ele>
        <time>2024-05-13T13:49:35Z</time>
      </trkpt>
      <trkpt lat="42.77410992" lon="13.41551992">
        <ele>479.00000</ele>
        <time>2024-05-13T13:49:35Z</time>
      </trkpt>
      <trkpt lat="42.77413993" lon="13.41555998">
        <ele>478.00000</ele>
        <time>2024-05-13T13:49:36Z</time>
      </trkpt>
      <trkpt lat="42.77414998" lon="13.41556996">
        <ele>478.00000</ele>
        <time>2024-05-13T13:49:36Z</time>
      </trkpt>
      <trkpt lat="42.77427999" lon="13.41584991">
        <ele>475.00000</ele>
        <time>2024-05-13T13:49:40Z</time>
      </trkpt>
      <trkpt lat="42.77437680" lon="13.41619717">
        <ele>474.00000</ele>
        <time>2024-05-13T13:49:44Z</time>
      </trkpt>
      <trkpt lat="42.77447361" lon="13.41654452">
        <ele>473.00000</ele>
        <time>2024-05-13T13:49:49Z</time>
      </trkpt>
      <trkpt lat="42.77456992" lon="13.41688994">
        <ele>473.00000</ele>
        <time>2024-05-13T13:49:53Z</time>
      </trkpt>
      <trkpt lat="42.77462993" lon="13.41714994">
        <ele>474.00000</ele>
        <time>2024-05-13T13:49:56Z</time>
      </trkpt>
      <trkpt lat="42.77468995" lon="13.41733996">
        <ele>474.00000</ele>
        <time>2024-05-13T13:49:59Z</time>
      </trkpt>
      <trkpt lat="42.77477997" lon="13.41760994">
        <ele>474.00000</ele>
        <time>2024-05-13T13:50:02Z</time>
      </trkpt>
      <trkpt lat="42.77490997" lon="13.41780994">
        <ele>471.00000</ele>
        <time>2024-05-13T13:50:05Z</time>
      </trkpt>
      <trkpt lat="42.77504995" lon="13.41795997">
        <ele>467.00000</ele>
        <time>2024-05-13T13:50:08Z</time>
      </trkpt>
      <trkpt lat="42.77518993" lon="13.41806994">
        <ele>465.00000</ele>
        <time>2024-05-13T13:50:11Z</time>
      </trkpt>
      <trkpt lat="42.77542999" lon="13.41828997">
        <ele>464.00000</ele>
        <time>2024-05-13T13:50:15Z</time>
      </trkpt>
      <trkpt lat="42.77559997" lon="13.41840991">
        <ele>464.00000</ele>
        <time>2024-05-13T13:50:19Z</time>
      </trkpt>
      <trkpt lat="42.77575998" lon="13.41850999">
        <ele>464.00000</ele>
        <time>2024-05-13T13:50:21Z</time>
      </trkpt>
      <trkpt lat="42.77596995" lon="13.41855995">
        <ele>464.00000</ele>
        <time>2024-05-13T13:50:25Z</time>
      </trkpt>
      <trkpt lat="42.77617991" lon="13.41858996">
        <ele>465.00000</ele>
        <time>2024-05-13T13:50:28Z</time>
      </trkpt>
      <trkpt lat="42.77640991" lon="13.41859993">
        <ele>463.00000</ele>
        <time>2024-05-13T13:50:32Z</time>
      </trkpt>
      <trkpt lat="42.77650999" lon="13.41861996">
        <ele>461.00000</ele>
        <time>2024-05-13T13:50:33Z</time>
      </trkpt>
      <trkpt lat="42.77676992" lon="13.41872993">
        <ele>459.00000</ele>
        <time>2024-05-13T13:50:38Z</time>
      </trkpt>
      <trkpt lat="42.77691978" lon="13.41881484">
        <ele>458.00000</ele>
        <time>2024-05-13T13:50:40Z</time>
      </trkpt>
      <trkpt lat="42.77706999" lon="13.41889992">
        <ele>457.00000</ele>
        <time>2024-05-13T13:50:43Z</time>
      </trkpt>
      <trkpt lat="42.77726998" lon="13.41905993">
        <ele>458.00000</ele>
        <time>2024-05-13T13:50:47Z</time>
      </trkpt>
      <trkpt lat="42.77746997" lon="13.41924995">
        <ele>458.00000</ele>
        <time>2024-05-13T13:50:51Z</time>
      </trkpt>
      <trkpt lat="42.77764339" lon="13.41950677">
        <ele>461.00000</ele>
        <time>2024-05-13T13:50:55Z</time>
      </trkpt>
      <trkpt lat="42.77781690" lon="13.41976367">
        <ele>461.00000</ele>
        <time>2024-05-13T13:50:59Z</time>
      </trkpt>
      <trkpt lat="42.77798999" lon="13.42001999">
        <ele>459.00000</ele>
        <time>2024-05-13T13:51:03Z</time>
      </trkpt>
      <trkpt lat="42.77813005" lon="13.42025016">
        <ele>456.00000</ele>
        <time>2024-05-13T13:51:06Z</time>
      </trkpt>
      <trkpt lat="42.77826994" lon="13.42047999">
        <ele>454.00000</ele>
        <time>2024-05-13T13:51:10Z</time>
      </trkpt>
      <trkpt lat="42.77846993" lon="13.42078995">
        <ele>453.00000</ele>
        <time>2024-05-13T13:51:15Z</time>
      </trkpt>
      <trkpt lat="42.77861997" lon="13.42100998">
        <ele>451.00000</ele>
        <time>2024-05-13T13:51:18Z</time>
      </trkpt>
      <trkpt lat="42.77879993" lon="13.42124995">
        <ele>452.00000</ele>
        <time>2024-05-13T13:51:22Z</time>
      </trkpt>
      <trkpt lat="42.77883999" lon="13.42129999">
        <ele>452.00000</ele>
        <time>2024-05-13T13:51:23Z</time>
      </trkpt>
      <trkpt lat="42.77895994" lon="13.42141994">
        <ele>451.00000</ele>
        <time>2024-05-13T13:51:26Z</time>
      </trkpt>
      <trkpt lat="42.77899992" lon="13.42146998">
        <ele>452.00000</ele>
        <time>2024-05-13T13:51:26Z</time>
      </trkpt>
      <trkpt lat="42.77902993" lon="13.42150996">
        <ele>452.00000</ele>
        <time>2024-05-13T13:51:27Z</time>
      </trkpt>
      <trkpt lat="42.77905994" lon="13.42154994">
        <ele>452.00000</ele>
        <time>2024-05-13T13:51:28Z</time>
      </trkpt>
      <trkpt lat="42.77907997" lon="13.42158992">
        <ele>452.00000</ele>
        <time>2024-05-13T13:51:28Z</time>
      </trkpt>
      <trkpt lat="42.77908994" lon="13.42162999">
        <ele>452.00000</ele>
        <time>2024-05-13T13:51:29Z</time>
      </trkpt>
      <trkpt lat="42.77909992" lon="13.42165991">
        <ele>452.00000</ele>
        <time>2024-05-13T13:51:29Z</time>
      </trkpt>
      <trkpt lat="42.77924995" lon="13.42165991">
        <ele>451.00000</ele>
        <time>2024-05-13T13:51:32Z</time>
      </trkpt>
      <trkpt lat="42.77936998" lon="13.42163996">
        <ele>451.00000</ele>
        <time>2024-05-13T13:51:34Z</time>
      </trkpt>
      <trkpt lat="42.77948993" lon="13.42160996">
        <ele>451.00000</ele>
        <time>2024-05-13T13:51:36Z</time>
      </trkpt>
      <trkpt lat="42.77956997" lon="13.42157995">
        <ele>451.00000</ele>
        <time>2024-05-13T13:51:37Z</time>
      </trkpt>
      <trkpt lat="42.77963996" lon="13.42154994">
        <ele>451.00000</ele>
        <time>2024-05-13T13:51:38Z</time>
      </trkpt>
      <trkpt lat="42.77970995" lon="13.42155992">
        <ele>451.00000</ele>
        <time>2024-05-13T13:51:39Z</time>
      </trkpt>
      <trkpt lat="42.77977994" lon="13.42157995">
        <ele>451.00000</ele>
        <time>2024-05-13T13:51:40Z</time>
      </trkpt>
      <trkpt lat="42.77987994" lon="13.42159998">
        <ele>451.00000</ele>
        <time>2024-05-13T13:51:42Z</time>
      </trkpt>
      <trkpt lat="42.77991992" lon="13.42161993">
        <ele>451.00000</ele>
        <time>2024-05-13T13:51:43Z</time>
      </trkpt>
      <trkpt lat="42.77996996" lon="13.42162999">
        <ele>451.00000</ele>
        <time>2024-05-13T13:51:43Z</time>
      </trkpt>
      <trkpt lat="42.77999997" lon="13.42162999">
        <ele>451.00000</ele>
        <time>2024-05-13T13:51:44Z</time>
      </trkpt>
      <trkpt lat="42.78002997" lon="13.42162999">
        <ele>451.00000</ele>
        <time>2024-05-13T13:51:44Z</time>
      </trkpt>
      <trkpt lat="42.78005998" lon="13.42161993">
        <ele>451.00000</ele>
        <time>2024-05-13T13:51:45Z</time>
      </trkpt>
      <trkpt lat="42.78008999" lon="13.42160996">
        <ele>450.00000</ele>
        <time>2024-05-13T13:51:45Z</time>
      </trkpt>
      <trkpt lat="42.78011991" lon="13.42158992">
        <ele>450.00000</ele>
        <time>2024-05-13T13:51:46Z</time>
      </trkpt>
      <trkpt lat="42.78013994" lon="13.42156997">
        <ele>449.00000</ele>
        <time>2024-05-13T13:51:46Z</time>
      </trkpt>
      <trkpt lat="42.78014992" lon="13.42155992">
        <ele>449.00000</ele>
        <time>2024-05-13T13:51:46Z</time>
      </trkpt>
      <trkpt lat="42.78015998" lon="13.42153997">
        <ele>449.00000</ele>
        <time>2024-05-13T13:51:47Z</time>
      </trkpt>
      <trkpt lat="42.78015998" lon="13.42149998">
        <ele>449.00000</ele>
        <time>2024-05-13T13:51:47Z</time>
      </trkpt>
      <trkpt lat="42.78020993" lon="13.42151993">
        <ele>448.00000</ele>
        <time>2024-05-13T13:51:48Z</time>
      </trkpt>
      <trkpt lat="42.78030993" lon="13.42155992">
        <ele>448.00000</ele>
        <time>2024-05-13T13:51:50Z</time>
      </trkpt>
      <trkpt lat="42.78037992" lon="13.42159998">
        <ele>448.00000</ele>
        <time>2024-05-13T13:51:51Z</time>
      </trkpt>
      <trkpt lat="42.78053993" lon="13.42166997">
        <ele>448.00000</ele>
        <time>2024-05-13T13:51:54Z</time>
      </trkpt>
      <trkpt lat="42.78053993" lon="13.42167994">
        <ele>448.00000</ele>
        <time>2024-05-13T13:51:54Z</time>
      </trkpt>
      <trkpt lat="42.78066993" lon="13.42170995">
        <ele>447.00000</ele>
        <time>2024-05-13T13:51:56Z</time>
      </trkpt>
      <trkpt lat="42.78070991" lon="13.42171993">
        <ele>447.00000</ele>
        <time>2024-05-13T13:51:57Z</time>
      </trkpt>
      <trkpt lat="42.78078996" lon="13.42172998">
        <ele>447.00000</ele>
        <time>2024-05-13T13:51:58Z</time>
      </trkpt>
      <trkpt lat="42.78087998" lon="13.42174993">
        <ele>446.00000</ele>
        <time>2024-05-13T13:51:59Z</time>
      </trkpt>
      <trkpt lat="42.78092994" lon="13.42176997">
        <ele>445.00000</ele>
        <time>2024-05-13T13:52:00Z</time>
      </trkpt>
      <trkpt lat="42.78094997" lon="13.42177994">
        <ele>445.00000</ele>
        <time>2024-05-13T13:52:00Z</time>
      </trkpt>
      <trkpt lat="42.78096992" lon="13.42179997">
        <ele>445.00000</ele>
        <time>2024-05-13T13:52:01Z</time>
      </trkpt>
      <trkpt lat="42.78098995" lon="13.42184993">
        <ele>445.00000</ele>
        <time>2024-05-13T13:52:02Z</time>
      </trkpt>
      <trkpt lat="42.78107997" lon="13.42205998">
        <ele>443.00000</ele>
        <time>2024-05-13T13:52:04Z</time>
      </trkpt>
      <trkpt lat="42.78112993" lon="13.42219996">
        <ele>440.00000</ele>
        <time>2024-05-13T13:52:06Z</time>
      </trkpt>
      <trkpt lat="42.78112993" lon="13.42222996">
        <ele>440.00000</ele>
        <time>2024-05-13T13:52:07Z</time>
      </trkpt>
      <trkpt lat="42.78112993" lon="13.42226995">
        <ele>439.00000</ele>
        <time>2024-05-13T13:52:07Z</time>
      </trkpt>
      <trkpt lat="42.78112993" lon="13.42230993">
        <ele>439.00000</ele>
        <time>2024-05-13T13:52:08Z</time>
      </trkpt>
      <trkpt lat="42.78111996" lon="13.42233994">
        <ele>439.00000</ele>
        <time>2024-05-13T13:52:08Z</time>
      </trkpt>
      <trkpt lat="42.78110998" lon="13.42236994">
        <ele>439.00000</ele>
        <time>2024-05-13T13:52:08Z</time>
      </trkpt>
      <trkpt lat="42.78107997" lon="13.42239995">
        <ele>439.00000</ele>
        <time>2024-05-13T13:52:09Z</time>
      </trkpt>
      <trkpt lat="42.78105994" lon="13.42241998">
        <ele>439.00000</ele>
        <time>2024-05-13T13:52:09Z</time>
      </trkpt>
      <trkpt lat="42.78102993" lon="13.42244999">
        <ele>440.00000</ele>
        <time>2024-05-13T13:52:10Z</time>
      </trkpt>
      <trkpt lat="42.78097998" lon="13.42250992">
        <ele>440.00000</ele>
        <time>2024-05-13T13:52:11Z</time>
      </trkpt>
      <trkpt lat="42.78095995" lon="13.42252995">
        <ele>441.00000</ele>
        <time>2024-05-13T13:52:11Z</time>
      </trkpt>
      <trkpt lat="42.78094997" lon="13.42253993">
        <ele>441.00000</ele>
        <time>2024-05-13T13:52:12Z</time>
      </trkpt>
      <trkpt lat="42.78094997" lon="13.42254999">
        <ele>441.00000</ele>
        <time>2024-05-13T13:52:12Z</time>
      </trkpt>
      <trkpt lat="42.78094997" lon="13.42255996">
        <ele>441.00000</ele>
        <time>2024-05-13T13:52:12Z</time>
      </trkpt>
      <trkpt lat="42.78094997" lon="13.42256993">
        <ele>441.00000</ele>
        <time>2024-05-13T13:52:12Z</time>
      </trkpt>
      <trkpt lat="42.78095995" lon="13.42257999">
        <ele>440.00000</ele>
        <time>2024-05-13T13:52:12Z</time>
      </trkpt>
      <trkpt lat="42.78096992" lon="13.42257999">
        <ele>440.00000</ele>
        <time>2024-05-13T13:52:12Z</time>
      </trkpt>
      <trkpt lat="42.78097998" lon="13.42260992">
        <ele>440.00000</ele>
        <time>2024-05-13T13:52:13Z</time>
      </trkpt>
      <trkpt lat="42.78099993" lon="13.42263992">
        <ele>439.00000</ele>
        <time>2024-05-13T13:52:13Z</time>
      </trkpt>
      <trkpt lat="42.78101996" lon="13.42270991">
        <ele>438.00000</ele>
        <time>2024-05-13T13:52:14Z</time>
      </trkpt>
      <trkpt lat="42.78104997" lon="13.42281997">
        <ele>436.00000</ele>
        <time>2024-05-13T13:52:15Z</time>
      </trkpt>
      <trkpt lat="42.78104997" lon="13.42290999">
        <ele>435.00000</ele>
        <time>2024-05-13T13:52:16Z</time>
      </trkpt>
      <trkpt lat="42.78105994" lon="13.42305994">
        <ele>434.00000</ele>
        <time>2024-05-13T13:52:18Z</time>
      </trkpt>
      <trkpt lat="42.78105994" lon="13.42346998">
        <ele>428.00000</ele>
        <time>2024-05-13T13:52:23Z</time>
      </trkpt>
      <trkpt lat="42.78107997" lon="13.42383996">
        <ele>422.00000</ele>
        <time>2024-05-13T13:52:27Z</time>
      </trkpt>
      <trkpt lat="42.78107997" lon="13.42392998">
        <ele>421.00000</ele>
        <time>2024-05-13T13:52:28Z</time>
      </trkpt>
      <trkpt lat="42.78107997" lon="13.42397994">
        <ele>421.00000</ele>
        <time>2024-05-13T13:52:29Z</time>
      </trkpt>
      <trkpt lat="42.78108995" lon="13.42413995">
        <ele>420.00000</ele>
        <time>2024-05-13T13:52:31Z</time>
      </trkpt>
      <trkpt lat="42.78110998" lon="13.42424992">
        <ele>419.00000</ele>
        <time>2024-05-13T13:52:32Z</time>
      </trkpt>
      <trkpt lat="42.78109992" lon="13.42444991">
        <ele>418.00000</ele>
        <time>2024-05-13T13:52:35Z</time>
      </trkpt>
      <trkpt lat="42.78106992" lon="13.42465996">
        <ele>417.00000</ele>
        <time>2024-05-13T13:52:37Z</time>
      </trkpt>
      <trkpt lat="42.78100999" lon="13.42491997">
        <ele>416.00000</ele>
        <time>2024-05-13T13:52:40Z</time>
      </trkpt>
      <trkpt lat="42.78099993" lon="13.42521996">
        <ele>414.00000</ele>
        <time>2024-05-13T13:52:44Z</time>
      </trkpt>
      <trkpt lat="42.78098995" lon="13.42540998">
        <ele>412.00000</ele>
        <time>2024-05-13T13:52:46Z</time>
      </trkpt>
      <trkpt lat="42.78095995" lon="13.42556999">
        <ele>411.00000</ele>
        <time>2024-05-13T13:52:48Z</time>
      </trkpt>
      <trkpt lat="42.78095995" lon="13.42567996">
        <ele>409.00000</ele>
        <time>2024-05-13T13:52:49Z</time>
      </trkpt>
      <trkpt lat="42.78096992" lon="13.42577995">
        <ele>408.00000</ele>
        <time>2024-05-13T13:52:51Z</time>
      </trkpt>
      <trkpt lat="42.78099993" lon="13.42584994">
        <ele>407.00000</ele>
        <time>2024-05-13T13:52:52Z</time>
      </trkpt>
      <trkpt lat="42.78104997" lon="13.42593996">
        <ele>406.00000</ele>
        <time>2024-05-13T13:52:53Z</time>
      </trkpt>
      <trkpt lat="42.78107997" lon="13.42597994">
        <ele>406.00000</ele>
        <time>2024-05-13T13:52:54Z</time>
      </trkpt>
      <trkpt lat="42.78118995" lon="13.42606997">
        <ele>404.00000</ele>
        <time>2024-05-13T13:52:56Z</time>
      </trkpt>
      <trkpt lat="42.78124996" lon="13.42613996">
        <ele>402.00000</ele>
        <time>2024-05-13T13:52:57Z</time>
      </trkpt>
      <trkpt lat="42.78128994" lon="13.42623995">
        <ele>402.00000</ele>
        <time>2024-05-13T13:52:58Z</time>
      </trkpt>
      <trkpt lat="42.78133998" lon="13.42636995">
        <ele>400.00000</ele>
        <time>2024-05-13T13:53:00Z</time>
      </trkpt>
      <trkpt lat="42.78137996" lon="13.42647993">
        <ele>399.00000</ele>
        <time>2024-05-13T13:53:01Z</time>
      </trkpt>
      <trkpt lat="42.78141994" lon="13.42657992">
        <ele>398.00000</ele>
        <time>2024-05-13T13:53:03Z</time>
      </trkpt>
      <trkpt lat="42.78145993" lon="13.42663994">
        <ele>397.00000</ele>
        <time>2024-05-13T13:53:04Z</time>
      </trkpt>
      <trkpt lat="42.78149999" lon="13.42666994">
        <ele>396.00000</ele>
        <time>2024-05-13T13:53:04Z</time>
      </trkpt>
      <trkpt lat="42.78156998" lon="13.42671998">
        <ele>395.00000</ele>
        <time>2024-05-13T13:53:06Z</time>
      </trkpt>
      <trkpt lat="42.78163997" lon="13.42674999">
        <ele>394.00000</ele>
        <time>2024-05-13T13:53:07Z</time>
      </trkpt>
      <trkpt lat="42.78168993" lon="13.42674999">
        <ele>394.00000</ele>
        <time>2024-05-13T13:53:08Z</time>
      </trkpt>
      <trkpt lat="42.78175991" lon="13.42673993">
        <ele>394.00000</ele>
        <time>2024-05-13T13:53:09Z</time>
      </trkpt>
      <trkpt lat="42.78186997" lon="13.42669995">
        <ele>394.00000</ele>
        <time>2024-05-13T13:53:11Z</time>
      </trkpt>
      <trkpt lat="42.78195999" lon="13.42665997">
        <ele>394.00000</ele>
        <time>2024-05-13T13:53:12Z</time>
      </trkpt>
      <trkpt lat="42.78207994" lon="13.42660993">
        <ele>394.00000</ele>
        <time>2024-05-13T13:53:14Z</time>
      </trkpt>
      <trkpt lat="42.78214992" lon="13.42654991">
        <ele>394.00000</ele>
        <time>2024-05-13T13:53:15Z</time>
      </trkpt>
      <trkpt lat="42.78218999" lon="13.42649996">
        <ele>393.00000</ele>
        <time>2024-05-13T13:53:16Z</time>
      </trkpt>
      <trkpt lat="42.78225998" lon="13.42637993">
        <ele>392.00000</ele>
        <time>2024-05-13T13:53:18Z</time>
      </trkpt>
      <trkpt lat="42.78236995" lon="13.42613996">
        <ele>391.00000</ele>
        <time>2024-05-13T13:53:21Z</time>
      </trkpt>
      <trkpt lat="42.78244991" lon="13.42596997">
        <ele>389.00000</ele>
        <time>2024-05-13T13:53:24Z</time>
      </trkpt>
      <trkpt lat="42.78260506" lon="13.42567962">
        <ele>387.00000</ele>
        <time>2024-05-13T13:53:28Z</time>
      </trkpt>
      <trkpt lat="42.78275996" lon="13.42538994">
        <ele>385.00000</ele>
        <time>2024-05-13T13:53:32Z</time>
      </trkpt>
      <trkpt lat="42.78279994" lon="13.42531995">
        <ele>385.00000</ele>
        <time>2024-05-13T13:53:33Z</time>
      </trkpt>
      <trkpt lat="42.78282995" lon="13.42520998">
        <ele>384.00000</ele>
        <time>2024-05-13T13:53:35Z</time>
      </trkpt>
      <trkpt lat="42.78282995" lon="13.42511996">
        <ele>384.00000</ele>
        <time>2024-05-13T13:53:36Z</time>
      </trkpt>
      <trkpt lat="42.78281997" lon="13.42508995">
        <ele>384.00000</ele>
        <time>2024-05-13T13:53:36Z</time>
      </trkpt>
      <trkpt lat="42.78280992" lon="13.42506992">
        <ele>384.00000</ele>
        <time>2024-05-13T13:53:36Z</time>
      </trkpt>
      <trkpt lat="42.78279994" lon="13.42502994">
        <ele>384.00000</ele>
        <time>2024-05-13T13:53:37Z</time>
      </trkpt>
      <trkpt lat="42.78273993" lon="13.42494998">
        <ele>385.00000</ele>
        <time>2024-05-13T13:53:38Z</time>
      </trkpt>
      <trkpt lat="42.78271998" lon="13.42490999">
        <ele>385.00000</ele>
        <time>2024-05-13T13:53:39Z</time>
      </trkpt>
      <trkpt lat="42.78270992" lon="13.42486993">
        <ele>385.00000</ele>
        <time>2024-05-13T13:53:39Z</time>
      </trkpt>
      <trkpt lat="42.78270992" lon="13.42483992">
        <ele>385.00000</ele>
        <time>2024-05-13T13:53:40Z</time>
      </trkpt>
      <trkpt lat="42.78271998" lon="13.42479994">
        <ele>385.00000</ele>
        <time>2024-05-13T13:53:40Z</time>
      </trkpt>
      <trkpt lat="42.78274999" lon="13.42472995">
        <ele>385.00000</ele>
        <time>2024-05-13T13:53:41Z</time>
      </trkpt>
      <trkpt lat="42.78278997" lon="13.42466994">
        <ele>384.00000</ele>
        <time>2024-05-13T13:53:42Z</time>
      </trkpt>
      <trkpt lat="42.78292994" lon="13.42486993">
        <ele>384.00000</ele>
        <time>2024-05-13T13:53:45Z</time>
      </trkpt>
      <trkpt lat="42.78308995" lon="13.42505995">
        <ele>384.00000</ele>
        <time>2024-05-13T13:53:49Z</time>
      </trkpt>
      <trkpt lat="42.78309993" lon="13.42506992">
        <ele>384.00000</ele>
        <time>2024-05-13T13:53:49Z</time>
      </trkpt>
      <trkpt lat="42.78318995" lon="13.42515994">
        <ele>384.00000</ele>
        <time>2024-05-13T13:53:51Z</time>
      </trkpt>
      <trkpt lat="42.78327997" lon="13.42520998">
        <ele>384.00000</ele>
        <time>2024-05-13T13:53:52Z</time>
      </trkpt>
      <trkpt lat="42.78341995" lon="13.42528995">
        <ele>385.00000</ele>
        <time>2024-05-13T13:53:55Z</time>
      </trkpt>
      <trkpt lat="42.78353998" lon="13.42532993">
        <ele>385.00000</ele>
        <time>2024-05-13T13:53:57Z</time>
      </trkpt>
      <trkpt lat="42.78357996" lon="13.42534996">
        <ele>385.00000</ele>
        <time>2024-05-13T13:53:57Z</time>
      </trkpt>
      <trkpt lat="42.78376998" lon="13.42535994">
        <ele>384.00000</ele>
        <time>2024-05-13T13:54:00Z</time>
      </trkpt>
      <trkpt lat="42.78393996" lon="13.42535994">
        <ele>384.00000</ele>
        <time>2024-05-13T13:54:03Z</time>
      </trkpt>
      <trkpt lat="42.78413996" lon="13.42533999">
        <ele>384.00000</ele>
        <time>2024-05-13T13:54:06Z</time>
      </trkpt>
      <trkpt lat="42.78418991" lon="13.42532993">
        <ele>384.00000</ele>
        <time>2024-05-13T13:54:07Z</time>
      </trkpt>
      <trkpt lat="42.78439996" lon="13.42529992">
        <ele>384.00000</ele>
        <time>2024-05-13T13:54:10Z</time>
      </trkpt>
      <trkpt lat="42.78455997" lon="13.42528995">
        <ele>384.00000</ele>
        <time>2024-05-13T13:54:13Z</time>
      </trkpt>
      <trkpt lat="42.78468998" lon="13.42531995">
        <ele>384.00000</ele>
        <time>2024-05-13T13:54:15Z</time>
      </trkpt>
      <trkpt lat="42.78480992" lon="13.42534996">
        <ele>382.00000</ele>
        <time>2024-05-13T13:54:17Z</time>
      </trkpt>
      <trkpt lat="42.78491998" lon="13.42540998">
        <ele>381.00000</ele>
        <time>2024-05-13T13:54:19Z</time>
      </trkpt>
      <trkpt lat="42.78516992" lon="13.42563997">
        <ele>379.00000</ele>
        <time>2024-05-13T13:54:24Z</time>
      </trkpt>
      <trkpt lat="42.78521996" lon="13.42568993">
        <ele>379.00000</ele>
        <time>2024-05-13T13:54:25Z</time>
      </trkpt>
      <trkpt lat="42.78545994" lon="13.42593996">
        <ele>379.00000</ele>
        <time>2024-05-13T13:54:30Z</time>
      </trkpt>
      <trkpt lat="42.78565331" lon="13.42614993">
        <ele>378.00000</ele>
        <time>2024-05-13T13:54:34Z</time>
      </trkpt>
      <trkpt lat="42.78584668" lon="13.42635998">
        <ele>378.00000</ele>
        <time>2024-05-13T13:54:38Z</time>
      </trkpt>
      <trkpt lat="42.78603997" lon="13.42656995">
        <ele>377.00000</ele>
        <time>2024-05-13T13:54:42Z</time>
      </trkpt>
      <trkpt lat="42.78625991" lon="13.42679995">
        <ele>376.00000</ele>
        <time>2024-05-13T13:54:46Z</time>
      </trkpt>
      <trkpt lat="42.78647993" lon="13.42702995">
        <ele>376.00000</ele>
        <time>2024-05-13T13:54:50Z</time>
      </trkpt>
      <trkpt lat="42.78669996" lon="13.42725994">
        <ele>376.00000</ele>
        <time>2024-05-13T13:54:55Z</time>
      </trkpt>
      <trkpt lat="42.78680993" lon="13.42730998">
        <ele>376.00000</ele>
        <time>2024-05-13T13:54:57Z</time>
      </trkpt>
      <trkpt lat="42.78692996" lon="13.42734997">
        <ele>376.00000</ele>
        <time>2024-05-13T13:54:59Z</time>
      </trkpt>
      <trkpt lat="42.78707999" lon="13.42733999">
        <ele>376.00000</ele>
        <time>2024-05-13T13:55:01Z</time>
      </trkpt>
      <trkpt lat="42.78722994" lon="13.42729993">
        <ele>375.00000</ele>
        <time>2024-05-13T13:55:04Z</time>
      </trkpt>
      <trkpt lat="42.78734997" lon="13.42725994">
        <ele>375.00000</ele>
        <time>2024-05-13T13:55:06Z</time>
      </trkpt>
      <trkpt lat="42.78755969" lon="13.42718996">
        <ele>374.00000</ele>
        <time>2024-05-13T13:55:09Z</time>
      </trkpt>
      <trkpt lat="42.78776949" lon="13.42712005">
        <ele>372.00000</ele>
        <time>2024-05-13T13:55:12Z</time>
      </trkpt>
      <trkpt lat="42.78797996" lon="13.42704998">
        <ele>371.00000</ele>
        <time>2024-05-13T13:55:16Z</time>
      </trkpt>
      <trkpt lat="42.78828212" lon="13.42695250">
        <ele>370.00000</ele>
        <time>2024-05-13T13:55:21Z</time>
      </trkpt>
      <trkpt lat="42.78858429" lon="13.42685510">
        <ele>367.00000</ele>
        <time>2024-05-13T13:55:26Z</time>
      </trkpt>
      <trkpt lat="42.78888646" lon="13.42675770">
        <ele>365.00000</ele>
        <time>2024-05-13T13:55:31Z</time>
      </trkpt>
      <trkpt lat="42.78918997" lon="13.42665997">
        <ele>365.00000</ele>
        <time>2024-05-13T13:55:36Z</time>
      </trkpt>
      <trkpt lat="42.78936993" lon="13.42660993">
        <ele>365.00000</ele>
        <time>2024-05-13T13:55:39Z</time>
      </trkpt>
      <trkpt lat="42.78954469" lon="13.42655494">
        <ele>365.00000</ele>
        <time>2024-05-13T13:55:42Z</time>
      </trkpt>
      <trkpt lat="42.78971996" lon="13.42649996">
        <ele>365.00000</ele>
        <time>2024-05-13T13:55:44Z</time>
      </trkpt>
      <trkpt lat="42.78989472" lon="13.42645000">
        <ele>363.00000</ele>
        <time>2024-05-13T13:55:47Z</time>
      </trkpt>
      <trkpt lat="42.79006998" lon="13.42639996">
        <ele>361.00000</ele>
        <time>2024-05-13T13:55:50Z</time>
      </trkpt>
      <trkpt lat="42.79017996" lon="13.42637993">
        <ele>359.00000</ele>
        <time>2024-05-13T13:55:52Z</time>
      </trkpt>
      <trkpt lat="42.79039998" lon="13.42640994">
        <ele>358.00000</ele>
        <time>2024-05-13T13:55:56Z</time>
      </trkpt>
      <trkpt lat="42.79065999" lon="13.42643994">
        <ele>356.00000</ele>
        <time>2024-05-13T13:56:00Z</time>
      </trkpt>
      <trkpt lat="42.79081991" lon="13.42644992">
        <ele>354.00000</ele>
        <time>2024-05-13T13:56:02Z</time>
      </trkpt>
      <trkpt lat="42.79090994" lon="13.42646995">
        <ele>353.00000</ele>
        <time>2024-05-13T13:56:04Z</time>
      </trkpt>
      <trkpt lat="42.79099996" lon="13.42649996">
        <ele>352.00000</ele>
        <time>2024-05-13T13:56:05Z</time>
      </trkpt>
      <trkpt lat="42.79109995" lon="13.42656995">
        <ele>351.00000</ele>
        <time>2024-05-13T13:56:07Z</time>
      </trkpt>
      <trkpt lat="42.79135996" lon="13.42677991">
        <ele>351.00000</ele>
        <time>2024-05-13T13:56:12Z</time>
      </trkpt>
      <trkpt lat="42.79148996" lon="13.42688997">
        <ele>353.00000</ele>
        <time>2024-05-13T13:56:14Z</time>
      </trkpt>
      <trkpt lat="42.79157998" lon="13.42698996">
        <ele>354.00000</ele>
        <time>2024-05-13T13:56:16Z</time>
      </trkpt>
      <trkpt lat="42.79169993" lon="13.42709993">
        <ele>355.00000</ele>
        <time>2024-05-13T13:56:18Z</time>
      </trkpt>
      <trkpt lat="42.79179993" lon="13.42724997">
        <ele>356.00000</ele>
        <time>2024-05-13T13:56:21Z</time>
      </trkpt>
      <trkpt lat="42.79184997" lon="13.42734997">
        <ele>356.00000</ele>
        <time>2024-05-13T13:56:22Z</time>
      </trkpt>
      <trkpt lat="42.79190998" lon="13.42758994">
        <ele>356.00000</ele>
        <time>2024-05-13T13:56:25Z</time>
      </trkpt>
      <trkpt lat="42.79194996" lon="13.42790996">
        <ele>355.00000</ele>
        <time>2024-05-13T13:56:29Z</time>
      </trkpt>
      <trkpt lat="42.79194996" lon="13.42801993">
        <ele>354.00000</ele>
        <time>2024-05-13T13:56:30Z</time>
      </trkpt>
      <trkpt lat="42.79195491" lon="13.42823543">
        <ele>354.00000</ele>
        <time>2024-05-13T13:56:33Z</time>
      </trkpt>
      <trkpt lat="42.79195994" lon="13.42844992">
        <ele>354.00000</ele>
        <time>2024-05-13T13:56:35Z</time>
      </trkpt>
      <trkpt lat="42.79197326" lon="13.42881412">
        <ele>354.00000</ele>
        <time>2024-05-13T13:56:40Z</time>
      </trkpt>
      <trkpt lat="42.79198659" lon="13.42917831">
        <ele>354.00000</ele>
        <time>2024-05-13T13:56:44Z</time>
      </trkpt>
      <trkpt lat="42.79199992" lon="13.42953999">
        <ele>354.00000</ele>
        <time>2024-05-13T13:56:48Z</time>
      </trkpt>
      <trkpt lat="42.79201995" lon="13.42986571">
        <ele>353.00000</ele>
        <time>2024-05-13T13:56:52Z</time>
      </trkpt>
      <trkpt lat="42.79203998" lon="13.43018992">
        <ele>352.00000</ele>
        <time>2024-05-13T13:56:56Z</time>
      </trkpt>
      <trkpt lat="42.79203998" lon="13.43043996">
        <ele>351.00000</ele>
        <time>2024-05-13T13:56:59Z</time>
      </trkpt>
      <trkpt lat="42.79204996" lon="13.43078998">
        <ele>348.00000</ele>
        <time>2024-05-13T13:57:03Z</time>
      </trkpt>
      <trkpt lat="42.79202993" lon="13.43120992">
        <ele>347.00000</ele>
        <time>2024-05-13T13:57:08Z</time>
      </trkpt>
      <trkpt lat="42.79198994" lon="13.43139993">
        <ele>346.00000</ele>
        <time>2024-05-13T13:57:10Z</time>
      </trkpt>
      <trkpt lat="42.79191995" lon="13.43160999">
        <ele>345.00000</ele>
        <time>2024-05-13T13:57:13Z</time>
      </trkpt>
      <trkpt lat="42.79183982" lon="13.43180520">
        <ele>345.00000</ele>
        <time>2024-05-13T13:57:16Z</time>
      </trkpt>
      <trkpt lat="42.79175994" lon="13.43199991">
        <ele>345.00000</ele>
        <time>2024-05-13T13:57:18Z</time>
      </trkpt>
      <trkpt lat="42.79161997" lon="13.43226998">
        <ele>345.00000</ele>
        <time>2024-05-13T13:57:22Z</time>
      </trkpt>
      <trkpt lat="42.79148477" lon="13.43258539">
        <ele>344.00000</ele>
        <time>2024-05-13T13:57:26Z</time>
      </trkpt>
      <trkpt lat="42.79134999" lon="13.43289996">
        <ele>343.00000</ele>
        <time>2024-05-13T13:57:31Z</time>
      </trkpt>
      <trkpt lat="42.79122970" lon="13.43326055">
        <ele>345.00000</ele>
        <time>2024-05-13T13:57:35Z</time>
      </trkpt>
      <trkpt lat="42.79110993" lon="13.43361997">
        <ele>347.00000</ele>
        <time>2024-05-13T13:57:40Z</time>
      </trkpt>
      <trkpt lat="42.79104229" lon="13.43397318">
        <ele>347.00000</ele>
        <time>2024-05-13T13:57:44Z</time>
      </trkpt>
      <trkpt lat="42.79097464" lon="13.43432648">
        <ele>346.00000</ele>
        <time>2024-05-13T13:57:49Z</time>
      </trkpt>
      <trkpt lat="42.79090700" lon="13.43467969">
        <ele>345.00000</ele>
        <time>2024-05-13T13:57:53Z</time>
      </trkpt>
      <trkpt lat="42.79083995" lon="13.43502997">
        <ele>343.00000</ele>
        <time>2024-05-13T13:57:57Z</time>
      </trkpt>
      <trkpt lat="42.79076979" lon="13.43539567">
        <ele>343.00000</ele>
        <time>2024-05-13T13:58:02Z</time>
      </trkpt>
      <trkpt lat="42.79069997" lon="13.43575995">
        <ele>344.00000</ele>
        <time>2024-05-13T13:58:06Z</time>
      </trkpt>
      <trkpt lat="42.79063995" lon="13.43603999">
        <ele>345.00000</ele>
        <time>2024-05-13T13:58:10Z</time>
      </trkpt>
      <trkpt lat="42.79057994" lon="13.43632992">
        <ele>344.00000</ele>
        <time>2024-05-13T13:58:13Z</time>
      </trkpt>
      <trkpt lat="42.79052982" lon="13.43658045">
        <ele>343.00000</ele>
        <time>2024-05-13T13:58:16Z</time>
      </trkpt>
      <trkpt lat="42.79047994" lon="13.43682998">
        <ele>343.00000</ele>
        <time>2024-05-13T13:58:19Z</time>
      </trkpt>
      <trkpt lat="42.79044994" lon="13.43710994">
        <ele>344.00000</ele>
        <time>2024-05-13T13:58:23Z</time>
      </trkpt>
      <trkpt lat="42.79044994" lon="13.43727992">
        <ele>345.00000</ele>
        <time>2024-05-13T13:58:25Z</time>
      </trkpt>
      <trkpt lat="42.79049998" lon="13.43745997">
        <ele>345.00000</ele>
        <time>2024-05-13T13:58:27Z</time>
      </trkpt>
      <trkpt lat="42.79059997" lon="13.43762995">
        <ele>344.00000</ele>
        <time>2024-05-13T13:58:29Z</time>
      </trkpt>
      <trkpt lat="42.79080994" lon="13.43780991">
        <ele>340.00000</ele>
        <time>2024-05-13T13:58:33Z</time>
      </trkpt>
      <trkpt lat="42.79106995" lon="13.43789993">
        <ele>338.00000</ele>
        <time>2024-05-13T13:58:38Z</time>
      </trkpt>
      <trkpt lat="42.79120992" lon="13.43791997">
        <ele>337.00000</ele>
        <time>2024-05-13T13:58:40Z</time>
      </trkpt>
      <trkpt lat="42.79123993" lon="13.43791997">
        <ele>337.00000</ele>
        <time>2024-05-13T13:58:40Z</time>
      </trkpt>
      <trkpt lat="42.79132995" lon="13.43791997">
        <ele>336.00000</ele>
        <time>2024-05-13T13:58:42Z</time>
      </trkpt>
      <trkpt lat="42.79137999" lon="13.43790999">
        <ele>335.00000</ele>
        <time>2024-05-13T13:58:43Z</time>
      </trkpt>
      <trkpt lat="42.79139994" lon="13.43790999">
        <ele>335.00000</ele>
        <time>2024-05-13T13:58:43Z</time>
      </trkpt>
      <trkpt lat="42.79151997" lon="13.43789993">
        <ele>336.00000</ele>
        <time>2024-05-13T13:58:45Z</time>
      </trkpt>
      <trkpt lat="42.79175969" lon="13.43777504">
        <ele>335.00000</ele>
        <time>2024-05-13T13:58:49Z</time>
      </trkpt>
      <trkpt lat="42.79199992" lon="13.43764998">
        <ele>335.00000</ele>
        <time>2024-05-13T13:58:53Z</time>
      </trkpt>
      <trkpt lat="42.79227996" lon="13.43748997">
        <ele>333.00000</ele>
        <time>2024-05-13T13:58:58Z</time>
      </trkpt>
      <trkpt lat="42.79231994" lon="13.43746994">
        <ele>333.00000</ele>
        <time>2024-05-13T13:58:59Z</time>
      </trkpt>
      <trkpt lat="42.79257995" lon="13.43731999">
        <ele>331.00000</ele>
        <time>2024-05-13T13:59:03Z</time>
      </trkpt>
      <trkpt lat="42.79277969" lon="13.43722670">
        <ele>331.00000</ele>
        <time>2024-05-13T13:59:07Z</time>
      </trkpt>
      <trkpt lat="42.79297951" lon="13.43713341">
        <ele>330.00000</ele>
        <time>2024-05-13T13:59:10Z</time>
      </trkpt>
      <trkpt lat="42.79317992" lon="13.43703995">
        <ele>327.00000</ele>
        <time>2024-05-13T13:59:13Z</time>
      </trkpt>
      <trkpt lat="42.79328998" lon="13.43704992">
        <ele>327.00000</ele>
        <time>2024-05-13T13:59:15Z</time>
      </trkpt>
      <trkpt lat="42.79342995" lon="13.43712997">
        <ele>327.00000</ele>
        <time>2024-05-13T13:59:18Z</time>
      </trkpt>
      <trkpt lat="42.79362995" lon="13.43729996">
        <ele>327.00000</ele>
        <time>2024-05-13T13:59:21Z</time>
      </trkpt>
      <trkpt lat="42.79365995" lon="13.43732996">
        <ele>327.00000</ele>
        <time>2024-05-13T13:59:22Z</time>
      </trkpt>
      <trkpt lat="42.79381494" lon="13.43748494">
        <ele>328.00000</ele>
        <time>2024-05-13T13:59:25Z</time>
      </trkpt>
      <trkpt lat="42.79396992" lon="13.43763993">
        <ele>328.00000</ele>
        <time>2024-05-13T13:59:28Z</time>
      </trkpt>
      <trkpt lat="42.79411492" lon="13.43781000">
        <ele>327.00000</ele>
        <time>2024-05-13T13:59:31Z</time>
      </trkpt>
      <trkpt lat="42.79425993" lon="13.43797998">
        <ele>327.00000</ele>
        <time>2024-05-13T13:59:34Z</time>
      </trkpt>
      <trkpt lat="42.79441994" lon="13.43812993">
        <ele>325.00000</ele>
        <time>2024-05-13T13:59:37Z</time>
      </trkpt>
      <trkpt lat="42.79446998" lon="13.43820998">
        <ele>325.00000</ele>
        <time>2024-05-13T13:59:39Z</time>
      </trkpt>
      <trkpt lat="42.79449999" lon="13.43827997">
        <ele>325.00000</ele>
        <time>2024-05-13T13:59:39Z</time>
      </trkpt>
      <trkpt lat="42.79451994" lon="13.43836999">
        <ele>325.00000</ele>
        <time>2024-05-13T13:59:41Z</time>
      </trkpt>
      <trkpt lat="42.79451994" lon="13.43844995">
        <ele>325.00000</ele>
        <time>2024-05-13T13:59:42Z</time>
      </trkpt>
      <trkpt lat="42.79451994" lon="13.43853997">
        <ele>326.00000</ele>
        <time>2024-05-13T13:59:43Z</time>
      </trkpt>
      <trkpt lat="42.79448993" lon="13.43861994">
        <ele>327.00000</ele>
        <time>2024-05-13T13:59:44Z</time>
      </trkpt>
      <trkpt lat="42.79443997" lon="13.43871993">
        <ele>328.00000</ele>
        <time>2024-05-13T13:59:45Z</time>
      </trkpt>
      <trkpt lat="42.79430997" lon="13.43889998">
        <ele>327.00000</ele>
        <time>2024-05-13T13:59:48Z</time>
      </trkpt>
      <trkpt lat="42.79418483" lon="13.43905999">
        <ele>325.00000</ele>
        <time>2024-05-13T13:59:51Z</time>
      </trkpt>
      <trkpt lat="42.79405994" lon="13.43921991">
        <ele>323.00000</ele>
        <time>2024-05-13T13:59:54Z</time>
      </trkpt>
      <trkpt lat="42.79385995" lon="13.43939996">
        <ele>321.00000</ele>
        <time>2024-05-13T13:59:57Z</time>
      </trkpt>
      <trkpt lat="42.79363992" lon="13.43952996">
        <ele>321.00000</ele>
        <time>2024-05-13T14:00:01Z</time>
      </trkpt>
      <trkpt lat="42.79343993" lon="13.43959995">
        <ele>324.00000</ele>
        <time>2024-05-13T14:00:04Z</time>
      </trkpt>
      <trkpt lat="42.79329995" lon="13.43966994">
        <ele>326.00000</ele>
        <time>2024-05-13T14:00:07Z</time>
      </trkpt>
      <trkpt lat="42.79318998" lon="13.43974999">
        <ele>328.00000</ele>
        <time>2024-05-13T14:00:09Z</time>
      </trkpt>
      <trkpt lat="42.79309996" lon="13.43986993">
        <ele>329.00000</ele>
        <time>2024-05-13T14:00:11Z</time>
      </trkpt>
      <trkpt lat="42.79290994" lon="13.44018995">
        <ele>328.00000</ele>
        <time>2024-05-13T14:00:16Z</time>
      </trkpt>
      <trkpt lat="42.79281975" lon="13.44041526">
        <ele>326.00000</ele>
        <time>2024-05-13T14:00:19Z</time>
      </trkpt>
      <trkpt lat="42.79272998" lon="13.44063998">
        <ele>325.00000</ele>
        <time>2024-05-13T14:00:22Z</time>
      </trkpt>
      <trkpt lat="42.79264993" lon="13.44080996">
        <ele>325.00000</ele>
        <time>2024-05-13T14:00:24Z</time>
      </trkpt>
      <trkpt lat="42.79259998" lon="13.44100995">
        <ele>325.00000</ele>
        <time>2024-05-13T14:00:27Z</time>
      </trkpt>
      <trkpt lat="42.79253996" lon="13.44134992">
        <ele>326.00000</ele>
        <time>2024-05-13T14:00:31Z</time>
      </trkpt>
      <trkpt lat="42.79255991" lon="13.44166995">
        <ele>324.00000</ele>
        <time>2024-05-13T14:00:35Z</time>
      </trkpt>
      <trkpt lat="42.79256494" lon="13.44194060">
        <ele>326.00000</ele>
        <time>2024-05-13T14:00:38Z</time>
      </trkpt>
      <trkpt lat="42.79256997" lon="13.44220999">
        <ele>326.00000</ele>
        <time>2024-05-13T14:00:41Z</time>
      </trkpt>
      <trkpt lat="42.79254994" lon="13.44253999">
        <ele>325.00000</ele>
        <time>2024-05-13T14:00:45Z</time>
      </trkpt>
      <trkpt lat="42.79250996" lon="13.44293997">
        <ele>319.00000</ele>
        <time>2024-05-13T14:00:50Z</time>
      </trkpt>
      <trkpt lat="42.79245992" lon="13.44321993">
        <ele>318.00000</ele>
        <time>2024-05-13T14:00:53Z</time>
      </trkpt>
      <trkpt lat="42.79238976" lon="13.44343023">
        <ele>319.00000</ele>
        <time>2024-05-13T14:00:56Z</time>
      </trkpt>
      <trkpt lat="42.79231994" lon="13.44363994">
        <ele>319.00000</ele>
        <time>2024-05-13T14:00:58Z</time>
      </trkpt>
      <trkpt lat="42.79222472" lon="13.44388034">
        <ele>319.00000</ele>
        <time>2024-05-13T14:01:02Z</time>
      </trkpt>
      <trkpt lat="42.79212992" lon="13.44411998">
        <ele>317.00000</ele>
        <time>2024-05-13T14:01:05Z</time>
      </trkpt>
      <trkpt lat="42.79200972" lon="13.44443044">
        <ele>316.00000</ele>
        <time>2024-05-13T14:01:09Z</time>
      </trkpt>
      <trkpt lat="42.79188995" lon="13.44473998">
        <ele>316.00000</ele>
        <time>2024-05-13T14:01:13Z</time>
      </trkpt>
      <trkpt lat="42.79177470" lon="13.44506043">
        <ele>314.00000</ele>
        <time>2024-05-13T14:01:17Z</time>
      </trkpt>
      <trkpt lat="42.79165995" lon="13.44537994">
        <ele>313.00000</ele>
        <time>2024-05-13T14:01:21Z</time>
      </trkpt>
      <trkpt lat="42.79157998" lon="13.44570994">
        <ele>310.00000</ele>
        <time>2024-05-13T14:01:26Z</time>
      </trkpt>
      <trkpt lat="42.79153992" lon="13.44604999">
        <ele>308.00000</ele>
        <time>2024-05-13T14:01:30Z</time>
      </trkpt>
      <trkpt lat="42.79152994" lon="13.44635996">
        <ele>308.00000</ele>
        <time>2024-05-13T14:01:33Z</time>
      </trkpt>
      <trkpt lat="42.79155995" lon="13.44660999">
        <ele>305.00000</ele>
        <time>2024-05-13T14:01:36Z</time>
      </trkpt>
      <trkpt lat="42.79159993" lon="13.44677997">
        <ele>301.00000</ele>
        <time>2024-05-13T14:01:38Z</time>
      </trkpt>
      <trkpt lat="42.79164997" lon="13.44706999">
        <ele>298.00000</ele>
        <time>2024-05-13T14:01:42Z</time>
      </trkpt>
      <trkpt lat="42.79169993" lon="13.44732999">
        <ele>298.00000</ele>
        <time>2024-05-13T14:01:45Z</time>
      </trkpt>
      <trkpt lat="42.79178006" lon="13.44755530">
        <ele>298.00000</ele>
        <time>2024-05-13T14:01:48Z</time>
      </trkpt>
      <trkpt lat="42.79185994" lon="13.44777993">
        <ele>298.00000</ele>
        <time>2024-05-13T14:01:51Z</time>
      </trkpt>
      <trkpt lat="42.79196999" lon="13.44795503">
        <ele>300.00000</ele>
        <time>2024-05-13T14:01:54Z</time>
      </trkpt>
      <trkpt lat="42.79207997" lon="13.44812996">
        <ele>301.00000</ele>
        <time>2024-05-13T14:01:56Z</time>
      </trkpt>
      <trkpt lat="42.79227493" lon="13.44829986">
        <ele>300.00000</ele>
        <time>2024-05-13T14:02:00Z</time>
      </trkpt>
      <trkpt lat="42.79246998" lon="13.44846993">
        <ele>299.00000</ele>
        <time>2024-05-13T14:02:04Z</time>
      </trkpt>
      <trkpt lat="42.79269310" lon="13.44857982">
        <ele>296.00000</ele>
        <time>2024-05-13T14:02:08Z</time>
      </trkpt>
      <trkpt lat="42.79291623" lon="13.44868971">
        <ele>294.00000</ele>
        <time>2024-05-13T14:02:11Z</time>
      </trkpt>
      <trkpt lat="42.79313994" lon="13.44879993">
        <ele>293.00000</ele>
        <time>2024-05-13T14:02:15Z</time>
      </trkpt>
      <trkpt lat="42.79342627" lon="13.44888978">
        <ele>290.00000</ele>
        <time>2024-05-13T14:02:20Z</time>
      </trkpt>
      <trkpt lat="42.79371259" lon="13.44897972">
        <ele>287.00000</ele>
        <time>2024-05-13T14:02:25Z</time>
      </trkpt>
      <trkpt lat="42.79399992" lon="13.44906999">
        <ele>284.00000</ele>
        <time>2024-05-13T14:02:29Z</time>
      </trkpt>
      <trkpt lat="42.79421299" lon="13.44911660">
        <ele>283.00000</ele>
        <time>2024-05-13T14:02:33Z</time>
      </trkpt>
      <trkpt lat="42.79442606" lon="13.44916320">
        <ele>284.00000</ele>
        <time>2024-05-13T14:02:36Z</time>
      </trkpt>
      <trkpt lat="42.79463997" lon="13.44920997">
        <ele>285.00000</ele>
        <time>2024-05-13T14:02:40Z</time>
      </trkpt>
      <trkpt lat="42.79474994" lon="13.44923998">
        <ele>285.00000</ele>
        <time>2024-05-13T14:02:41Z</time>
      </trkpt>
      <trkpt lat="42.79495999" lon="13.44935992">
        <ele>287.00000</ele>
        <time>2024-05-13T14:02:45Z</time>
      </trkpt>
      <trkpt lat="42.79509996" lon="13.44953997">
        <ele>288.00000</ele>
        <time>2024-05-13T14:02:48Z</time>
      </trkpt>
      <trkpt lat="42.79517993" lon="13.44975999">
        <ele>288.00000</ele>
        <time>2024-05-13T14:02:51Z</time>
      </trkpt>
      <trkpt lat="42.79521999" lon="13.45003995">
        <ele>287.00000</ele>
        <time>2024-05-13T14:02:54Z</time>
      </trkpt>
      <trkpt lat="42.79524992" lon="13.45028998">
        <ele>286.00000</ele>
        <time>2024-05-13T14:02:57Z</time>
      </trkpt>
      <trkpt lat="42.79526995" lon="13.45046994">
        <ele>286.00000</ele>
        <time>2024-05-13T14:02:59Z</time>
      </trkpt>
      <trkpt lat="42.79526995" lon="13.45048997">
        <ele>286.00000</ele>
        <time>2024-05-13T14:03:00Z</time>
      </trkpt>
      <trkpt lat="42.79530993" lon="13.45079993">
        <ele>286.00000</ele>
        <time>2024-05-13T14:03:03Z</time>
      </trkpt>
      <trkpt lat="42.79535251" lon="13.45121836">
        <ele>282.00000</ele>
        <time>2024-05-13T14:03:08Z</time>
      </trkpt>
      <trkpt lat="42.79539509" lon="13.45163687">
        <ele>282.00000</ele>
        <time>2024-05-13T14:03:13Z</time>
      </trkpt>
      <trkpt lat="42.79543767" lon="13.45205529">
        <ele>284.00000</ele>
        <time>2024-05-13T14:03:18Z</time>
      </trkpt>
      <trkpt lat="42.79547992" lon="13.45246994">
        <ele>289.00000</ele>
        <time>2024-05-13T14:03:23Z</time>
      </trkpt>
      <trkpt lat="42.79549995" lon="13.45262995">
        <ele>292.00000</ele>
        <time>2024-05-13T14:03:25Z</time>
      </trkpt>
      <trkpt lat="42.79557991" lon="13.45288996">
        <ele>292.00000</ele>
        <time>2024-05-13T14:03:29Z</time>
      </trkpt>
      <trkpt lat="42.79563993" lon="13.45305995">
        <ele>290.00000</ele>
        <time>2024-05-13T14:03:31Z</time>
      </trkpt>
      <trkpt lat="42.79574998" lon="13.45327997">
        <ele>286.00000</ele>
        <time>2024-05-13T14:03:34Z</time>
      </trkpt>
      <trkpt lat="42.79589993" lon="13.45350997">
        <ele>284.00000</ele>
        <time>2024-05-13T14:03:38Z</time>
      </trkpt>
      <trkpt lat="42.79598996" lon="13.45366998">
        <ele>285.00000</ele>
        <time>2024-05-13T14:03:40Z</time>
      </trkpt>
      <trkpt lat="42.79618995" lon="13.45391993">
        <ele>284.00000</ele>
        <time>2024-05-13T14:03:44Z</time>
      </trkpt>
      <trkpt lat="42.79634501" lon="13.45410995">
        <ele>284.00000</ele>
        <time>2024-05-13T14:03:48Z</time>
      </trkpt>
      <trkpt lat="42.79649999" lon="13.45429996">
        <ele>282.00000</ele>
        <time>2024-05-13T14:03:51Z</time>
      </trkpt>
      <trkpt lat="42.79666998" lon="13.45450499">
        <ele>279.00000</ele>
        <time>2024-05-13T14:03:55Z</time>
      </trkpt>
      <trkpt lat="42.79683996" lon="13.45470992">
        <ele>279.00000</ele>
        <time>2024-05-13T14:03:58Z</time>
      </trkpt>
      <trkpt lat="42.79699997" lon="13.45493992">
        <ele>283.00000</ele>
        <time>2024-05-13T14:04:02Z</time>
      </trkpt>
      <trkpt lat="42.79717993" lon="13.45519993">
        <ele>284.00000</ele>
        <time>2024-05-13T14:04:06Z</time>
      </trkpt>
      <trkpt lat="42.79727993" lon="13.45534997">
        <ele>282.00000</ele>
        <time>2024-05-13T14:04:08Z</time>
      </trkpt>
      <trkpt lat="42.79738998" lon="13.45561995">
        <ele>280.00000</ele>
        <time>2024-05-13T14:04:12Z</time>
      </trkpt>
      <trkpt lat="42.79751999" lon="13.45599998">
        <ele>279.00000</ele>
        <time>2024-05-13T14:04:17Z</time>
      </trkpt>
      <trkpt lat="42.79761998" lon="13.45625999">
        <ele>279.00000</ele>
        <time>2024-05-13T14:04:21Z</time>
      </trkpt>
      <trkpt lat="42.79765502" lon="13.45647540">
        <ele>278.00000</ele>
        <time>2024-05-13T14:04:23Z</time>
      </trkpt>
      <trkpt lat="42.79768997" lon="13.45668998">
        <ele>277.00000</ele>
        <time>2024-05-13T14:04:26Z</time>
      </trkpt>
      <trkpt lat="42.79769995" lon="13.45703992">
        <ele>277.00000</ele>
        <time>2024-05-13T14:04:30Z</time>
      </trkpt>
      <trkpt lat="42.79767489" lon="13.45729046">
        <ele>278.00000</ele>
        <time>2024-05-13T14:04:33Z</time>
      </trkpt>
      <trkpt lat="42.79764999" lon="13.45753999">
        <ele>280.00000</ele>
        <time>2024-05-13T14:04:36Z</time>
      </trkpt>
      <trkpt lat="42.79761998" lon="13.45794995">
        <ele>283.00000</ele>
        <time>2024-05-13T14:04:41Z</time>
      </trkpt>
      <trkpt lat="42.79760993" lon="13.45828740">
        <ele>285.00000</ele>
        <time>2024-05-13T14:04:45Z</time>
      </trkpt>
      <trkpt lat="42.79759987" lon="13.45862486">
        <ele>284.00000</ele>
        <time>2024-05-13T14:04:49Z</time>
      </trkpt>
      <trkpt lat="42.79758998" lon="13.45895997">
        <ele>282.00000</ele>
        <time>2024-05-13T14:04:53Z</time>
      </trkpt>
      <trkpt lat="42.79757489" lon="13.45924059">
        <ele>281.00000</ele>
        <time>2024-05-13T14:04:56Z</time>
      </trkpt>
      <trkpt lat="42.79755997" lon="13.45951996">
        <ele>279.00000</ele>
        <time>2024-05-13T14:04:59Z</time>
      </trkpt>
      <trkpt lat="42.79756994" lon="13.45988575">
        <ele>277.00000</ele>
        <time>2024-05-13T14:05:03Z</time>
      </trkpt>
      <trkpt lat="42.79757992" lon="13.46024994">
        <ele>278.00000</ele>
        <time>2024-05-13T14:05:08Z</time>
      </trkpt>
      <trkpt lat="42.79762996" lon="13.46052998">
        <ele>277.00000</ele>
        <time>2024-05-13T14:05:11Z</time>
      </trkpt>
      <trkpt lat="42.79767991" lon="13.46070994">
        <ele>276.00000</ele>
        <time>2024-05-13T14:05:13Z</time>
      </trkpt>
      <trkpt lat="42.79769995" lon="13.46074992">
        <ele>275.00000</ele>
        <time>2024-05-13T14:05:14Z</time>
      </trkpt>
      <trkpt lat="42.79778997" lon="13.46089996">
        <ele>273.00000</ele>
        <time>2024-05-13T14:05:16Z</time>
      </trkpt>
      <trkpt lat="42.79786993" lon="13.46102996">
        <ele>272.00000</ele>
        <time>2024-05-13T14:05:18Z</time>
      </trkpt>
      <trkpt lat="42.79798996" lon="13.46111998">
        <ele>270.00000</ele>
        <time>2024-05-13T14:05:20Z</time>
      </trkpt>
      <trkpt lat="42.79812986" lon="13.46123993">
        <ele>269.00000</ele>
        <time>2024-05-13T14:05:23Z</time>
      </trkpt>
      <trkpt lat="42.79826992" lon="13.46135996">
        <ele>271.00000</ele>
        <time>2024-05-13T14:05:26Z</time>
      </trkpt>
      <trkpt lat="42.79842993" lon="13.46153992">
        <ele>275.00000</ele>
        <time>2024-05-13T14:05:29Z</time>
      </trkpt>
      <trkpt lat="42.79844996" lon="13.46165995">
        <ele>275.00000</ele>
        <time>2024-05-13T14:05:31Z</time>
      </trkpt>
      <trkpt lat="42.79843999" lon="13.46173999">
        <ele>274.00000</ele>
        <time>2024-05-13T14:05:31Z</time>
      </trkpt>
      <trkpt lat="42.79841995" lon="13.46180998">
        <ele>273.00000</ele>
        <time>2024-05-13T14:05:32Z</time>
      </trkpt>
      <trkpt lat="42.79834477" lon="13.46215565">
        <ele>269.00000</ele>
        <time>2024-05-13T14:05:37Z</time>
      </trkpt>
      <trkpt lat="42.79826992" lon="13.46249998">
        <ele>269.00000</ele>
        <time>2024-05-13T14:05:41Z</time>
      </trkpt>
      <trkpt lat="42.79818308" lon="13.46284062">
        <ele>272.00000</ele>
        <time>2024-05-13T14:05:45Z</time>
      </trkpt>
      <trkpt lat="42.79809624" lon="13.46318126">
        <ele>273.00000</ele>
        <time>2024-05-13T14:05:49Z</time>
      </trkpt>
      <trkpt lat="42.79800941" lon="13.46352199">
        <ele>271.00000</ele>
        <time>2024-05-13T14:05:54Z</time>
      </trkpt>
      <trkpt lat="42.79792257" lon="13.46386263">
        <ele>271.00000</ele>
        <time>2024-05-13T14:05:58Z</time>
      </trkpt>
      <trkpt lat="42.79783573" lon="13.46420335">
        <ele>270.00000</ele>
        <time>2024-05-13T14:06:02Z</time>
      </trkpt>
      <trkpt lat="42.79774999" lon="13.46453997">
        <ele>269.00000</ele>
        <time>2024-05-13T14:06:06Z</time>
      </trkpt>
      <trkpt lat="42.79773993" lon="13.46464994">
        <ele>270.00000</ele>
        <time>2024-05-13T14:06:08Z</time>
      </trkpt>
      <trkpt lat="42.79773993" lon="13.46475999">
        <ele>270.00000</ele>
        <time>2024-05-13T14:06:09Z</time>
      </trkpt>
      <trkpt lat="42.79776994" lon="13.46484993">
        <ele>270.00000</ele>
        <time>2024-05-13T14:06:10Z</time>
      </trkpt>
      <trkpt lat="42.79779994" lon="13.46491992">
        <ele>270.00000</ele>
        <time>2024-05-13T14:06:11Z</time>
      </trkpt>
      <trkpt lat="42.79783993" lon="13.46497993">
        <ele>270.00000</ele>
        <time>2024-05-13T14:06:12Z</time>
      </trkpt>
      <trkpt lat="42.79788997" lon="13.46502997">
        <ele>270.00000</ele>
        <time>2024-05-13T14:06:13Z</time>
      </trkpt>
      <trkpt lat="42.79792995" lon="13.46505998">
        <ele>270.00000</ele>
        <time>2024-05-13T14:06:14Z</time>
      </trkpt>
      <trkpt lat="42.79802994" lon="13.46506996">
        <ele>270.00000</ele>
        <time>2024-05-13T14:06:15Z</time>
      </trkpt>
      <trkpt lat="42.79810999" lon="13.46503995">
        <ele>271.00000</ele>
        <time>2024-05-13T14:06:17Z</time>
      </trkpt>
      <trkpt lat="42.79815995" lon="13.46500994">
        <ele>271.00000</ele>
        <time>2024-05-13T14:06:17Z</time>
      </trkpt>
      <trkpt lat="42.79823999" lon="13.46491992">
        <ele>272.00000</ele>
        <time>2024-05-13T14:06:19Z</time>
      </trkpt>
      <trkpt lat="42.79830998" lon="13.46482998">
        <ele>273.00000</ele>
        <time>2024-05-13T14:06:21Z</time>
      </trkpt>
      <trkpt lat="42.79844996" lon="13.46465991">
        <ele>273.00000</ele>
        <time>2024-05-13T14:06:24Z</time>
      </trkpt>
      <trkpt lat="42.79858994" lon="13.46450996">
        <ele>272.00000</ele>
        <time>2024-05-13T14:06:27Z</time>
      </trkpt>
      <trkpt lat="42.79879999" lon="13.46426999">
        <ele>273.00000</ele>
        <time>2024-05-13T14:06:31Z</time>
      </trkpt>
      <trkpt lat="42.79899998" lon="13.46402482">
        <ele>276.00000</ele>
        <time>2024-05-13T14:06:35Z</time>
      </trkpt>
      <trkpt lat="42.79919997" lon="13.46377998">
        <ele>278.00000</ele>
        <time>2024-05-13T14:06:40Z</time>
      </trkpt>
      <trkpt lat="42.79936996" lon="13.46358996">
        <ele>277.00000</ele>
        <time>2024-05-13T14:06:43Z</time>
      </trkpt>
      <trkpt lat="42.79949996" lon="13.46344999">
        <ele>279.00000</ele>
        <time>2024-05-13T14:06:46Z</time>
      </trkpt>
      <trkpt lat="42.79968998" lon="13.46329995">
        <ele>281.00000</ele>
        <time>2024-05-13T14:06:49Z</time>
      </trkpt>
      <trkpt lat="42.79984974" lon="13.46323499">
        <ele>281.00000</ele>
        <time>2024-05-13T14:06:52Z</time>
      </trkpt>
      <trkpt lat="42.80000992" lon="13.46316995">
        <ele>280.00000</ele>
        <time>2024-05-13T14:06:55Z</time>
      </trkpt>
      <trkpt lat="42.80020966" lon="13.46311496">
        <ele>279.00000</ele>
        <time>2024-05-13T14:06:58Z</time>
      </trkpt>
      <trkpt lat="42.80040998" lon="13.46305998">
        <ele>276.00000</ele>
        <time>2024-05-13T14:07:01Z</time>
      </trkpt>
      <trkpt lat="42.80055994" lon="13.46302997">
        <ele>274.00000</ele>
        <time>2024-05-13T14:07:04Z</time>
      </trkpt>
      <trkpt lat="42.80071995" lon="13.46297993">
        <ele>273.00000</ele>
        <time>2024-05-13T14:07:06Z</time>
      </trkpt>
      <trkpt lat="42.80096998" lon="13.46294992">
        <ele>271.00000</ele>
        <time>2024-05-13T14:07:10Z</time>
      </trkpt>
      <trkpt lat="42.80106998" lon="13.46294992">
        <ele>270.00000</ele>
        <time>2024-05-13T14:07:12Z</time>
      </trkpt>
      <trkpt lat="42.80116997" lon="13.46299996">
        <ele>270.00000</ele>
        <time>2024-05-13T14:07:13Z</time>
      </trkpt>
      <trkpt lat="42.80130995" lon="13.46308998">
        <ele>271.00000</ele>
        <time>2024-05-13T14:07:16Z</time>
      </trkpt>
      <trkpt lat="42.80145999" lon="13.46323993">
        <ele>273.00000</ele>
        <time>2024-05-13T14:07:19Z</time>
      </trkpt>
      <trkpt lat="42.80152997" lon="13.46330992">
        <ele>273.00000</ele>
        <time>2024-05-13T14:07:20Z</time>
      </trkpt>
      <trkpt lat="42.80157993" lon="13.46345996">
        <ele>271.00000</ele>
        <time>2024-05-13T14:07:22Z</time>
      </trkpt>
      <trkpt lat="42.80177992" lon="13.46375995">
        <ele>268.00000</ele>
        <time>2024-05-13T14:07:27Z</time>
      </trkpt>
      <trkpt lat="42.80180993" lon="13.46381996">
        <ele>267.00000</ele>
        <time>2024-05-13T14:07:28Z</time>
      </trkpt>
      <trkpt lat="42.80185997" lon="13.46390998">
        <ele>265.00000</ele>
        <time>2024-05-13T14:07:29Z</time>
      </trkpt>
      <trkpt lat="42.80195997" lon="13.46419991">
        <ele>262.00000</ele>
        <time>2024-05-13T14:07:33Z</time>
      </trkpt>
      <trkpt lat="42.80203993" lon="13.46443997">
        <ele>261.00000</ele>
        <time>2024-05-13T14:07:36Z</time>
      </trkpt>
      <trkpt lat="42.80215996" lon="13.46481992">
        <ele>261.00000</ele>
        <time>2024-05-13T14:07:41Z</time>
      </trkpt>
      <trkpt lat="42.80217999" lon="13.46490995">
        <ele>261.00000</ele>
        <time>2024-05-13T14:07:42Z</time>
      </trkpt>
      <trkpt lat="42.80224998" lon="13.46511991">
        <ele>259.00000</ele>
        <time>2024-05-13T14:07:45Z</time>
      </trkpt>
      <trkpt lat="42.80238996" lon="13.46538998">
        <ele>259.00000</ele>
        <time>2024-05-13T14:07:49Z</time>
      </trkpt>
      <trkpt lat="42.80244000" lon="13.46562040">
        <ele>257.00000</ele>
        <time>2024-05-13T14:07:51Z</time>
      </trkpt>
      <trkpt lat="42.80248995" lon="13.46584998">
        <ele>257.00000</ele>
        <time>2024-05-13T14:07:54Z</time>
      </trkpt>
      <trkpt lat="42.80251996" lon="13.46606992">
        <ele>258.00000</ele>
        <time>2024-05-13T14:07:57Z</time>
      </trkpt>
      <trkpt lat="42.80254997" lon="13.46629036">
        <ele>261.00000</ele>
        <time>2024-05-13T14:08:00Z</time>
      </trkpt>
      <trkpt lat="42.80257998" lon="13.46650997">
        <ele>264.00000</ele>
        <time>2024-05-13T14:08:02Z</time>
      </trkpt>
      <trkpt lat="42.80257998" lon="13.46656998">
        <ele>265.00000</ele>
        <time>2024-05-13T14:08:03Z</time>
      </trkpt>
      <trkpt lat="42.80258492" lon="13.46696083">
        <ele>268.00000</ele>
        <time>2024-05-13T14:08:07Z</time>
      </trkpt>
      <trkpt lat="42.80258995" lon="13.46734992">
        <ele>268.00000</ele>
        <time>2024-05-13T14:08:12Z</time>
      </trkpt>
      <trkpt lat="42.80255986" lon="13.46762049">
        <ele>267.00000</ele>
        <time>2024-05-13T14:08:15Z</time>
      </trkpt>
      <trkpt lat="42.80252994" lon="13.46788996">
        <ele>268.00000</ele>
        <time>2024-05-13T14:08:19Z</time>
      </trkpt>
      <trkpt lat="42.80248979" lon="13.46811041">
        <ele>268.00000</ele>
        <time>2024-05-13T14:08:21Z</time>
      </trkpt>
      <trkpt lat="42.80244997" lon="13.46832993">
        <ele>267.00000</ele>
        <time>2024-05-13T14:08:24Z</time>
      </trkpt>
      <trkpt lat="42.80236976" lon="13.46874081">
        <ele>262.00000</ele>
        <time>2024-05-13T14:08:29Z</time>
      </trkpt>
      <trkpt lat="42.80228996" lon="13.46914993">
        <ele>260.00000</ele>
        <time>2024-05-13T14:08:34Z</time>
      </trkpt>
      <trkpt lat="42.80221997" lon="13.46948998">
        <ele>256.00000</ele>
        <time>2024-05-13T14:08:38Z</time>
      </trkpt>
      <trkpt lat="42.80217999" lon="13.46967992">
        <ele>256.00000</ele>
        <time>2024-05-13T14:08:40Z</time>
      </trkpt>
      <trkpt lat="42.80210992" lon="13.46998997">
        <ele>257.00000</ele>
        <time>2024-05-13T14:08:44Z</time>
      </trkpt>
      <trkpt lat="42.80202995" lon="13.47038995">
        <ele>258.00000</ele>
        <time>2024-05-13T14:08:49Z</time>
      </trkpt>
      <trkpt lat="42.80198981" lon="13.47060536">
        <ele>258.00000</ele>
        <time>2024-05-13T14:08:52Z</time>
      </trkpt>
      <trkpt lat="42.80194999" lon="13.47081994">
        <ele>260.00000</ele>
        <time>2024-05-13T14:08:54Z</time>
      </trkpt>
      <trkpt lat="42.80194999" lon="13.47082992">
        <ele>261.00000</ele>
        <time>2024-05-13T14:08:54Z</time>
      </trkpt>
      <trkpt lat="42.80188981" lon="13.47119067">
        <ele>260.00000</ele>
        <time>2024-05-13T14:08:59Z</time>
      </trkpt>
      <trkpt lat="42.80182996" lon="13.47154992">
        <ele>259.00000</ele>
        <time>2024-05-13T14:09:03Z</time>
      </trkpt>
      <trkpt lat="42.80179484" lon="13.47189567">
        <ele>259.00000</ele>
        <time>2024-05-13T14:09:07Z</time>
      </trkpt>
      <trkpt lat="42.80175997" lon="13.47223992">
        <ele>258.00000</ele>
        <time>2024-05-13T14:09:11Z</time>
      </trkpt>
      <trkpt lat="42.80175997" lon="13.47259992">
        <ele>257.00000</ele>
        <time>2024-05-13T14:09:16Z</time>
      </trkpt>
      <trkpt lat="42.80178328" lon="13.47288725">
        <ele>257.00000</ele>
        <time>2024-05-13T14:09:19Z</time>
      </trkpt>
      <trkpt lat="42.80180666" lon="13.47317459">
        <ele>257.00000</ele>
        <time>2024-05-13T14:09:22Z</time>
      </trkpt>
      <trkpt lat="42.80182996" lon="13.47345999">
        <ele>256.00000</ele>
        <time>2024-05-13T14:09:26Z</time>
      </trkpt>
      <trkpt lat="42.80186994" lon="13.47383994">
        <ele>255.00000</ele>
        <time>2024-05-13T14:09:30Z</time>
      </trkpt>
      <trkpt lat="42.80191998" lon="13.47417564">
        <ele>256.00000</ele>
        <time>2024-05-13T14:09:34Z</time>
      </trkpt>
      <trkpt lat="42.80196994" lon="13.47450999">
        <ele>254.00000</ele>
        <time>2024-05-13T14:09:38Z</time>
      </trkpt>
      <trkpt lat="42.80200992" lon="13.47475994">
        <ele>250.00000</ele>
        <time>2024-05-13T14:09:41Z</time>
      </trkpt>
      <trkpt lat="42.80202995" lon="13.47494996">
        <ele>248.00000</ele>
        <time>2024-05-13T14:09:44Z</time>
      </trkpt>
      <trkpt lat="42.80206499" lon="13.47516537">
        <ele>247.00000</ele>
        <time>2024-05-13T14:09:46Z</time>
      </trkpt>
      <trkpt lat="42.80209994" lon="13.47537995">
        <ele>247.00000</ele>
        <time>2024-05-13T14:09:49Z</time>
      </trkpt>
      <trkpt lat="42.80214998" lon="13.47572570">
        <ele>248.00000</ele>
        <time>2024-05-13T14:09:53Z</time>
      </trkpt>
      <trkpt lat="42.80219994" lon="13.47606995">
        <ele>248.00000</ele>
        <time>2024-05-13T14:09:57Z</time>
      </trkpt>
      <trkpt lat="42.80224998" lon="13.47642819">
        <ele>247.00000</ele>
        <time>2024-05-13T14:10:01Z</time>
      </trkpt>
      <trkpt lat="42.80230010" lon="13.47678652">
        <ele>248.00000</ele>
        <time>2024-05-13T14:10:06Z</time>
      </trkpt>
      <trkpt lat="42.80235023" lon="13.47714484">
        <ele>247.00000</ele>
        <time>2024-05-13T14:10:10Z</time>
      </trkpt>
      <trkpt lat="42.80239993" lon="13.47749998">
        <ele>247.00000</ele>
        <time>2024-05-13T14:10:14Z</time>
      </trkpt>
      <trkpt lat="42.80245752" lon="13.47788077">
        <ele>247.00000</ele>
        <time>2024-05-13T14:10:19Z</time>
      </trkpt>
      <trkpt lat="42.80251518" lon="13.47826165">
        <ele>250.00000</ele>
        <time>2024-05-13T14:10:23Z</time>
      </trkpt>
      <trkpt lat="42.80257277" lon="13.47864244">
        <ele>254.00000</ele>
        <time>2024-05-13T14:10:28Z</time>
      </trkpt>
      <trkpt lat="42.80262993" lon="13.47901996">
        <ele>257.00000</ele>
        <time>2024-05-13T14:10:32Z</time>
      </trkpt>
      <trkpt lat="42.80267997" lon="13.47939580">
        <ele>256.00000</ele>
        <time>2024-05-13T14:10:37Z</time>
      </trkpt>
      <trkpt lat="42.80273010" lon="13.47977165">
        <ele>253.00000</ele>
        <time>2024-05-13T14:10:41Z</time>
      </trkpt>
      <trkpt lat="42.80278022" lon="13.48014749">
        <ele>251.00000</ele>
        <time>2024-05-13T14:10:46Z</time>
      </trkpt>
      <trkpt lat="42.80282992" lon="13.48051998">
        <ele>249.00000</ele>
        <time>2024-05-13T14:10:50Z</time>
      </trkpt>
      <trkpt lat="42.80290008" lon="13.48089574">
        <ele>246.00000</ele>
        <time>2024-05-13T14:10:55Z</time>
      </trkpt>
      <trkpt lat="42.80297024" lon="13.48127150">
        <ele>247.00000</ele>
        <time>2024-05-13T14:11:00Z</time>
      </trkpt>
      <trkpt lat="42.80304039" lon="13.48164735">
        <ele>247.00000</ele>
        <time>2024-05-13T14:11:04Z</time>
      </trkpt>
      <trkpt lat="42.80310996" lon="13.48201992">
        <ele>245.00000</ele>
        <time>2024-05-13T14:11:09Z</time>
      </trkpt>
      <trkpt lat="42.80316604" lon="13.48238068">
        <ele>244.00000</ele>
        <time>2024-05-13T14:11:13Z</time>
      </trkpt>
      <trkpt lat="42.80322220" lon="13.48274152">
        <ele>244.00000</ele>
        <time>2024-05-13T14:11:17Z</time>
      </trkpt>
      <trkpt lat="42.80327827" lon="13.48310228">
        <ele>242.00000</ele>
        <time>2024-05-13T14:11:22Z</time>
      </trkpt>
      <trkpt lat="42.80333443" lon="13.48346312">
        <ele>239.00000</ele>
        <time>2024-05-13T14:11:26Z</time>
      </trkpt>
      <trkpt lat="42.80338992" lon="13.48381994">
        <ele>237.00000</ele>
        <time>2024-05-13T14:11:30Z</time>
      </trkpt>
      <trkpt lat="42.80344247" lon="13.48416569">
        <ele>239.00000</ele>
        <time>2024-05-13T14:11:34Z</time>
      </trkpt>
      <trkpt lat="42.80349511" lon="13.48451144">
        <ele>238.00000</ele>
        <time>2024-05-13T14:11:39Z</time>
      </trkpt>
      <trkpt lat="42.80354775" lon="13.48485720">
        <ele>237.00000</ele>
        <time>2024-05-13T14:11:43Z</time>
      </trkpt>
      <trkpt lat="42.80359997" lon="13.48519993">
        <ele>237.00000</ele>
        <time>2024-05-13T14:11:47Z</time>
      </trkpt>
      <trkpt lat="42.80367339" lon="13.48547042">
        <ele>238.00000</ele>
        <time>2024-05-13T14:11:50Z</time>
      </trkpt>
      <trkpt lat="42.80374690" lon="13.48574099">
        <ele>238.00000</ele>
        <time>2024-05-13T14:11:54Z</time>
      </trkpt>
      <trkpt lat="42.80381999" lon="13.48600996">
        <ele>240.00000</ele>
        <time>2024-05-13T14:11:57Z</time>
      </trkpt>
      <trkpt lat="42.80394514" lon="13.48638555">
        <ele>241.00000</ele>
        <time>2024-05-13T14:12:02Z</time>
      </trkpt>
      <trkpt lat="42.80406994" lon="13.48675997">
        <ele>239.00000</ele>
        <time>2024-05-13T14:12:07Z</time>
      </trkpt>
      <trkpt lat="42.80419760" lon="13.48704781">
        <ele>238.00000</ele>
        <time>2024-05-13T14:12:11Z</time>
      </trkpt>
      <trkpt lat="42.80432526" lon="13.48733573">
        <ele>237.00000</ele>
        <time>2024-05-13T14:12:15Z</time>
      </trkpt>
      <trkpt lat="42.80445300" lon="13.48762365">
        <ele>235.00000</ele>
        <time>2024-05-13T14:12:19Z</time>
      </trkpt>
      <trkpt lat="42.80457998" lon="13.48790997">
        <ele>235.00000</ele>
        <time>2024-05-13T14:12:23Z</time>
      </trkpt>
      <trkpt lat="42.80474016" lon="13.48826444">
        <ele>236.00000</ele>
        <time>2024-05-13T14:12:27Z</time>
      </trkpt>
      <trkpt lat="42.80490034" lon="13.48861891">
        <ele>238.00000</ele>
        <time>2024-05-13T14:12:32Z</time>
      </trkpt>
      <trkpt lat="42.80506060" lon="13.48897338">
        <ele>242.00000</ele>
        <time>2024-05-13T14:12:37Z</time>
      </trkpt>
      <trkpt lat="42.80522078" lon="13.48932785">
        <ele>244.00000</ele>
        <time>2024-05-13T14:12:42Z</time>
      </trkpt>
      <trkpt lat="42.80537995" lon="13.48967998">
        <ele>246.00000</ele>
        <time>2024-05-13T14:12:47Z</time>
      </trkpt>
      <trkpt lat="42.80554214" lon="13.49002841">
        <ele>239.00000</ele>
        <time>2024-05-13T14:12:52Z</time>
      </trkpt>
      <trkpt lat="42.80570433" lon="13.49037685">
        <ele>237.00000</ele>
        <time>2024-05-13T14:12:57Z</time>
      </trkpt>
      <trkpt lat="42.80586660" lon="13.49072537">
        <ele>238.00000</ele>
        <time>2024-05-13T14:13:02Z</time>
      </trkpt>
      <trkpt lat="42.80602879" lon="13.49107380">
        <ele>238.00000</ele>
        <time>2024-05-13T14:13:06Z</time>
      </trkpt>
      <trkpt lat="42.80618998" lon="13.49141998">
        <ele>239.00000</ele>
        <time>2024-05-13T14:13:11Z</time>
      </trkpt>
      <trkpt lat="42.80631512" lon="13.49169532">
        <ele>241.00000</ele>
        <time>2024-05-13T14:13:15Z</time>
      </trkpt>
      <trkpt lat="42.80644026" lon="13.49197067">
        <ele>243.00000</ele>
        <time>2024-05-13T14:13:19Z</time>
      </trkpt>
      <trkpt lat="42.80656540" lon="13.49224601">
        <ele>245.00000</ele>
        <time>2024-05-13T14:13:23Z</time>
      </trkpt>
      <trkpt lat="42.80668996" lon="13.49251993">
        <ele>244.00000</ele>
        <time>2024-05-13T14:13:26Z</time>
      </trkpt>
      <trkpt lat="42.80685014" lon="13.49286032">
        <ele>242.00000</ele>
        <time>2024-05-13T14:13:31Z</time>
      </trkpt>
      <trkpt lat="42.80700998" lon="13.49319996">
        <ele>240.00000</ele>
        <time>2024-05-13T14:13:36Z</time>
      </trkpt>
      <trkpt lat="42.80704996" lon="13.49330993">
        <ele>241.00000</ele>
        <time>2024-05-13T14:13:37Z</time>
      </trkpt>
      <trkpt lat="42.80718516" lon="13.49365040">
        <ele>242.00000</ele>
        <time>2024-05-13T14:13:42Z</time>
      </trkpt>
      <trkpt lat="42.80731994" lon="13.49398995">
        <ele>242.00000</ele>
        <time>2024-05-13T14:13:47Z</time>
      </trkpt>
      <trkpt lat="42.80731994" lon="13.49400999">
        <ele>242.00000</ele>
        <time>2024-05-13T14:13:47Z</time>
      </trkpt>
      <trkpt lat="42.80737996" lon="13.49416991">
        <ele>242.00000</ele>
        <time>2024-05-13T14:13:49Z</time>
      </trkpt>
      <trkpt lat="42.80747509" lon="13.49445540">
        <ele>242.00000</ele>
        <time>2024-05-13T14:13:53Z</time>
      </trkpt>
      <trkpt lat="42.80756997" lon="13.49473997">
        <ele>242.00000</ele>
        <time>2024-05-13T14:13:56Z</time>
      </trkpt>
      <trkpt lat="42.80765505" lon="13.49498027">
        <ele>239.00000</ele>
        <time>2024-05-13T14:13:59Z</time>
      </trkpt>
      <trkpt lat="42.80773996" lon="13.49521991">
        <ele>239.00000</ele>
        <time>2024-05-13T14:14:03Z</time>
      </trkpt>
      <trkpt lat="42.80782009" lon="13.49551043">
        <ele>239.00000</ele>
        <time>2024-05-13T14:14:06Z</time>
      </trkpt>
      <trkpt lat="42.80789997" lon="13.49579994">
        <ele>242.00000</ele>
        <time>2024-05-13T14:14:10Z</time>
      </trkpt>
      <trkpt lat="42.80800013" lon="13.49614553">
        <ele>241.00000</ele>
        <time>2024-05-13T14:14:14Z</time>
      </trkpt>
      <trkpt lat="42.80810030" lon="13.49649120">
        <ele>236.00000</ele>
        <time>2024-05-13T14:14:19Z</time>
      </trkpt>
      <trkpt lat="42.80820046" lon="13.49683687">
        <ele>232.00000</ele>
        <time>2024-05-13T14:14:23Z</time>
      </trkpt>
      <trkpt lat="42.80830071" lon="13.49718254">
        <ele>228.00000</ele>
        <time>2024-05-13T14:14:27Z</time>
      </trkpt>
      <trkpt lat="42.80840087" lon="13.49752812">
        <ele>224.00000</ele>
        <time>2024-05-13T14:14:32Z</time>
      </trkpt>
      <trkpt lat="42.80849995" lon="13.49786994">
        <ele>221.00000</ele>
        <time>2024-05-13T14:14:36Z</time>
      </trkpt>
      <trkpt lat="42.80857505" lon="13.49812039">
        <ele>221.00000</ele>
        <time>2024-05-13T14:14:39Z</time>
      </trkpt>
      <trkpt lat="42.80864998" lon="13.49836992">
        <ele>223.00000</ele>
        <time>2024-05-13T14:14:42Z</time>
      </trkpt>
      <trkpt lat="42.80867999" lon="13.49845994">
        <ele>225.00000</ele>
        <time>2024-05-13T14:14:44Z</time>
      </trkpt>
      <trkpt lat="42.80874503" lon="13.49868533">
        <ele>228.00000</ele>
        <time>2024-05-13T14:14:46Z</time>
      </trkpt>
      <trkpt lat="42.80880999" lon="13.49890996">
        <ele>230.00000</ele>
        <time>2024-05-13T14:14:49Z</time>
      </trkpt>
      <trkpt lat="42.80890999" lon="13.49921992">
        <ele>233.00000</ele>
        <time>2024-05-13T14:14:53Z</time>
      </trkpt>
      <trkpt lat="42.80901996" lon="13.49953995">
        <ele>233.00000</ele>
        <time>2024-05-13T14:14:57Z</time>
      </trkpt>
      <trkpt lat="42.80914996" lon="13.49987992">
        <ele>234.00000</ele>
        <time>2024-05-13T14:15:02Z</time>
      </trkpt>
      <trkpt lat="42.80924996" lon="13.50009994">
        <ele>238.00000</ele>
        <time>2024-05-13T14:15:05Z</time>
      </trkpt>
      <trkpt lat="42.80940997" lon="13.50039993">
        <ele>242.00000</ele>
        <time>2024-05-13T14:15:09Z</time>
      </trkpt>
      <trkpt lat="42.80957995" lon="13.50068994">
        <ele>243.00000</ele>
        <time>2024-05-13T14:15:14Z</time>
      </trkpt>
      <trkpt lat="42.80970501" lon="13.50086504">
        <ele>240.00000</ele>
        <time>2024-05-13T14:15:17Z</time>
      </trkpt>
      <trkpt lat="42.80982999" lon="13.50103997">
        <ele>237.00000</ele>
        <time>2024-05-13T14:15:19Z</time>
      </trkpt>
      <trkpt lat="42.80996502" lon="13.50119998">
        <ele>235.00000</ele>
        <time>2024-05-13T14:15:22Z</time>
      </trkpt>
      <trkpt lat="42.81009997" lon="13.50135999">
        <ele>234.00000</ele>
        <time>2024-05-13T14:15:25Z</time>
      </trkpt>
      <trkpt lat="42.81022997" lon="13.50150994">
        <ele>234.00000</ele>
        <time>2024-05-13T14:15:28Z</time>
      </trkpt>
      <trkpt lat="42.81044991" lon="13.50171991">
        <ele>235.00000</ele>
        <time>2024-05-13T14:15:32Z</time>
      </trkpt>
      <trkpt lat="42.81061998" lon="13.50183994">
        <ele>235.00000</ele>
        <time>2024-05-13T14:15:35Z</time>
      </trkpt>
      <trkpt lat="42.81084998" lon="13.50200993">
        <ele>236.00000</ele>
        <time>2024-05-13T14:15:39Z</time>
      </trkpt>
      <trkpt lat="42.81103991" lon="13.50212995">
        <ele>236.00000</ele>
        <time>2024-05-13T14:15:43Z</time>
      </trkpt>
      <trkpt lat="42.81109993" lon="13.50217999">
        <ele>235.00000</ele>
        <time>2024-05-13T14:15:44Z</time>
      </trkpt>
      <trkpt lat="42.81130973" lon="13.50229483">
        <ele>237.00000</ele>
        <time>2024-05-13T14:15:48Z</time>
      </trkpt>
      <trkpt lat="42.81151995" lon="13.50240999">
        <ele>237.00000</ele>
        <time>2024-05-13T14:15:51Z</time>
      </trkpt>
      <trkpt lat="42.81171977" lon="13.50253983">
        <ele>236.00000</ele>
        <time>2024-05-13T14:15:55Z</time>
      </trkpt>
      <trkpt lat="42.81191993" lon="13.50266992">
        <ele>235.00000</ele>
        <time>2024-05-13T14:15:58Z</time>
      </trkpt>
      <trkpt lat="42.81209997" lon="13.50278994">
        <ele>235.00000</ele>
        <time>2024-05-13T14:16:01Z</time>
      </trkpt>
      <trkpt lat="42.81226979" lon="13.50287988">
        <ele>235.00000</ele>
        <time>2024-05-13T14:16:04Z</time>
      </trkpt>
      <trkpt lat="42.81243994" lon="13.50296999">
        <ele>235.00000</ele>
        <time>2024-05-13T14:16:07Z</time>
      </trkpt>
      <trkpt lat="42.81266994" lon="13.50307996">
        <ele>236.00000</ele>
        <time>2024-05-13T14:16:11Z</time>
      </trkpt>
      <trkpt lat="42.81283473" lon="13.50313989">
        <ele>237.00000</ele>
        <time>2024-05-13T14:16:14Z</time>
      </trkpt>
      <trkpt lat="42.81299994" lon="13.50319999">
        <ele>236.00000</ele>
        <time>2024-05-13T14:16:17Z</time>
      </trkpt>
      <trkpt lat="42.81324997" lon="13.50324994">
        <ele>235.00000</ele>
        <time>2024-05-13T14:16:21Z</time>
      </trkpt>
      <trkpt lat="42.81349464" lon="13.50326243">
        <ele>233.00000</ele>
        <time>2024-05-13T14:16:25Z</time>
      </trkpt>
      <trkpt lat="42.81373931" lon="13.50327492">
        <ele>230.00000</ele>
        <time>2024-05-13T14:16:29Z</time>
      </trkpt>
      <trkpt lat="42.81398406" lon="13.50328741">
        <ele>228.00000</ele>
        <time>2024-05-13T14:16:32Z</time>
      </trkpt>
      <trkpt lat="42.81422998" lon="13.50329998">
        <ele>229.00000</ele>
        <time>2024-05-13T14:16:36Z</time>
      </trkpt>
      <trkpt lat="42.81449628" lon="13.50330996">
        <ele>230.00000</ele>
        <time>2024-05-13T14:16:41Z</time>
      </trkpt>
      <trkpt lat="42.81476257" lon="13.50331993">
        <ele>227.00000</ele>
        <time>2024-05-13T14:16:45Z</time>
      </trkpt>
      <trkpt lat="42.81502995" lon="13.50332999">
        <ele>227.00000</ele>
        <time>2024-05-13T14:16:49Z</time>
      </trkpt>
      <trkpt lat="42.81533950" lon="13.50336654">
        <ele>230.00000</ele>
        <time>2024-05-13T14:16:54Z</time>
      </trkpt>
      <trkpt lat="42.81564912" lon="13.50340317">
        <ele>228.00000</ele>
        <time>2024-05-13T14:16:59Z</time>
      </trkpt>
      <trkpt lat="42.81595992" lon="13.50343996">
        <ele>228.00000</ele>
        <time>2024-05-13T14:17:04Z</time>
      </trkpt>
      <trkpt lat="42.81626754" lon="13.50349587">
        <ele>226.00000</ele>
        <time>2024-05-13T14:17:09Z</time>
      </trkpt>
      <trkpt lat="42.81657516" lon="13.50355178">
        <ele>224.00000</ele>
        <time>2024-05-13T14:17:14Z</time>
      </trkpt>
      <trkpt lat="42.81688277" lon="13.50360768">
        <ele>222.00000</ele>
        <time>2024-05-13T14:17:19Z</time>
      </trkpt>
      <trkpt lat="42.81719047" lon="13.50366359">
        <ele>223.00000</ele>
        <time>2024-05-13T14:17:24Z</time>
      </trkpt>
      <trkpt lat="42.81749993" lon="13.50371992">
        <ele>225.00000</ele>
        <time>2024-05-13T14:17:29Z</time>
      </trkpt>
      <trkpt lat="42.81778383" lon="13.50377842">
        <ele>223.00000</ele>
        <time>2024-05-13T14:17:34Z</time>
      </trkpt>
      <trkpt lat="42.81806780" lon="13.50383693">
        <ele>225.00000</ele>
        <time>2024-05-13T14:17:38Z</time>
      </trkpt>
      <trkpt lat="42.81835178" lon="13.50389543">
        <ele>228.00000</ele>
        <time>2024-05-13T14:17:43Z</time>
      </trkpt>
      <trkpt lat="42.81863576" lon="13.50395394">
        <ele>228.00000</ele>
        <time>2024-05-13T14:17:47Z</time>
      </trkpt>
      <trkpt lat="42.81891974" lon="13.50401245">
        <ele>223.00000</ele>
        <time>2024-05-13T14:17:52Z</time>
      </trkpt>
      <trkpt lat="42.81920364" lon="13.50407095">
        <ele>222.00000</ele>
        <time>2024-05-13T14:17:57Z</time>
      </trkpt>
      <trkpt lat="42.81948996" lon="13.50412996">
        <ele>221.00000</ele>
        <time>2024-05-13T14:18:01Z</time>
      </trkpt>
      <trkpt lat="42.81972466" lon="13.50422484">
        <ele>221.00000</ele>
        <time>2024-05-13T14:18:05Z</time>
      </trkpt>
      <trkpt lat="42.81995994" lon="13.50431998">
        <ele>222.00000</ele>
        <time>2024-05-13T14:18:09Z</time>
      </trkpt>
      <trkpt lat="42.82018482" lon="13.50447982">
        <ele>225.00000</ele>
        <time>2024-05-13T14:18:13Z</time>
      </trkpt>
      <trkpt lat="42.82040996" lon="13.50463991">
        <ele>229.00000</ele>
        <time>2024-05-13T14:18:17Z</time>
      </trkpt>
      <trkpt lat="42.82042999" lon="13.50465995">
        <ele>229.00000</ele>
        <time>2024-05-13T14:18:18Z</time>
      </trkpt>
      <trkpt lat="42.82047995" lon="13.50475994">
        <ele>227.00000</ele>
        <time>2024-05-13T14:18:19Z</time>
      </trkpt>
      <trkpt lat="42.82071322" lon="13.50496320">
        <ele>225.00000</ele>
        <time>2024-05-13T14:18:23Z</time>
      </trkpt>
      <trkpt lat="42.82094649" lon="13.50516655">
        <ele>224.00000</ele>
        <time>2024-05-13T14:18:28Z</time>
      </trkpt>
      <trkpt lat="42.82117992" lon="13.50536998">
        <ele>222.00000</ele>
        <time>2024-05-13T14:18:32Z</time>
      </trkpt>
      <trkpt lat="42.82135996" lon="13.50554994">
        <ele>220.00000</ele>
        <time>2024-05-13T14:18:36Z</time>
      </trkpt>
      <trkpt lat="42.82139995" lon="13.50560995">
        <ele>219.00000</ele>
        <time>2024-05-13T14:18:37Z</time>
      </trkpt>
      <trkpt lat="42.82146994" lon="13.50572998">
        <ele>218.00000</ele>
        <time>2024-05-13T14:18:39Z</time>
      </trkpt>
      <trkpt lat="42.82150992" lon="13.50579997">
        <ele>218.00000</ele>
        <time>2024-05-13T14:18:40Z</time>
      </trkpt>
      <trkpt lat="42.82155996" lon="13.50593995">
        <ele>217.00000</ele>
        <time>2024-05-13T14:18:41Z</time>
      </trkpt>
      <trkpt lat="42.82163992" lon="13.50623994">
        <ele>214.00000</ele>
        <time>2024-05-13T14:18:45Z</time>
      </trkpt>
      <trkpt lat="42.82169499" lon="13.50649542">
        <ele>213.00000</ele>
        <time>2024-05-13T14:18:48Z</time>
      </trkpt>
      <trkpt lat="42.82174997" lon="13.50674998">
        <ele>210.00000</ele>
        <time>2024-05-13T14:18:51Z</time>
      </trkpt>
      <trkpt lat="42.82180504" lon="13.50699037">
        <ele>208.00000</ele>
        <time>2024-05-13T14:18:54Z</time>
      </trkpt>
      <trkpt lat="42.82185995" lon="13.50722992">
        <ele>207.00000</ele>
        <time>2024-05-13T14:18:57Z</time>
      </trkpt>
      <trkpt lat="42.82186992" lon="13.50729991">
        <ele>207.00000</ele>
        <time>2024-05-13T14:18:58Z</time>
      </trkpt>
      <trkpt lat="42.82194997" lon="13.50743997">
        <ele>207.00000</ele>
        <time>2024-05-13T14:19:00Z</time>
      </trkpt>
      <trkpt lat="42.82197997" lon="13.50757995">
        <ele>208.00000</ele>
        <time>2024-05-13T14:19:02Z</time>
      </trkpt>
      <trkpt lat="42.82197997" lon="13.50759998">
        <ele>208.00000</ele>
        <time>2024-05-13T14:19:02Z</time>
      </trkpt>
      <trkpt lat="42.82203999" lon="13.50779998">
        <ele>209.00000</ele>
        <time>2024-05-13T14:19:05Z</time>
      </trkpt>
      <trkpt lat="42.82204996" lon="13.50781993">
        <ele>209.00000</ele>
        <time>2024-05-13T14:19:05Z</time>
      </trkpt>
      <trkpt lat="42.82210998" lon="13.50793995">
        <ele>209.00000</ele>
        <time>2024-05-13T14:19:07Z</time>
      </trkpt>
      <trkpt lat="42.82218994" lon="13.50803995">
        <ele>209.00000</ele>
        <time>2024-05-13T14:19:09Z</time>
      </trkpt>
      <trkpt lat="42.82219992" lon="13.50804992">
        <ele>209.00000</ele>
        <time>2024-05-13T14:19:09Z</time>
      </trkpt>
      <trkpt lat="42.82228994" lon="13.50811991">
        <ele>209.00000</ele>
        <time>2024-05-13T14:19:10Z</time>
      </trkpt>
      <trkpt lat="42.82245975" lon="13.50817984">
        <ele>208.00000</ele>
        <time>2024-05-13T14:19:13Z</time>
      </trkpt>
      <trkpt lat="42.82262999" lon="13.50823994">
        <ele>207.00000</ele>
        <time>2024-05-13T14:19:16Z</time>
      </trkpt>
      <trkpt lat="42.82279478" lon="13.50829484">
        <ele>207.00000</ele>
        <time>2024-05-13T14:19:19Z</time>
      </trkpt>
      <trkpt lat="42.82295999" lon="13.50834991">
        <ele>206.00000</ele>
        <time>2024-05-13T14:19:21Z</time>
      </trkpt>
      <trkpt lat="42.82320717" lon="13.50841982">
        <ele>206.00000</ele>
        <time>2024-05-13T14:19:25Z</time>
      </trkpt>
      <trkpt lat="42.82345443" lon="13.50848972">
        <ele>205.00000</ele>
        <time>2024-05-13T14:19:30Z</time>
      </trkpt>
      <trkpt lat="42.82370162" lon="13.50855971">
        <ele>206.00000</ele>
        <time>2024-05-13T14:19:34Z</time>
      </trkpt>
      <trkpt lat="42.82394997" lon="13.50862995">
        <ele>208.00000</ele>
        <time>2024-05-13T14:19:38Z</time>
      </trkpt>
      <trkpt lat="42.82412976" lon="13.50872484">
        <ele>208.00000</ele>
        <time>2024-05-13T14:19:41Z</time>
      </trkpt>
      <trkpt lat="42.82430998" lon="13.50881997">
        <ele>208.00000</ele>
        <time>2024-05-13T14:19:44Z</time>
      </trkpt>
      <trkpt lat="42.82446999" lon="13.50885995">
        <ele>208.00000</ele>
        <time>2024-05-13T14:19:46Z</time>
      </trkpt>
      <trkpt lat="42.82456998" lon="13.50889993">
        <ele>208.00000</ele>
        <time>2024-05-13T14:19:48Z</time>
      </trkpt>
      <trkpt lat="42.82464995" lon="13.50894997">
        <ele>207.00000</ele>
        <time>2024-05-13T14:19:49Z</time>
      </trkpt>
      <trkpt lat="42.82495387" lon="13.50905978">
        <ele>207.00000</ele>
        <time>2024-05-13T14:19:54Z</time>
      </trkpt>
      <trkpt lat="42.82525788" lon="13.50916966">
        <ele>211.00000</ele>
        <time>2024-05-13T14:20:00Z</time>
      </trkpt>
      <trkpt lat="42.82556190" lon="13.50927955">
        <ele>213.00000</ele>
        <time>2024-05-13T14:20:05Z</time>
      </trkpt>
      <trkpt lat="42.82586582" lon="13.50938944">
        <ele>209.00000</ele>
        <time>2024-05-13T14:20:10Z</time>
      </trkpt>
      <trkpt lat="42.82616984" lon="13.50949932">
        <ele>205.00000</ele>
        <time>2024-05-13T14:20:15Z</time>
      </trkpt>
      <trkpt lat="42.82647385" lon="13.50960921">
        <ele>207.00000</ele>
        <time>2024-05-13T14:20:20Z</time>
      </trkpt>
      <trkpt lat="42.82677995" lon="13.50971993">
        <ele>207.00000</ele>
        <time>2024-05-13T14:20:25Z</time>
      </trkpt>
      <trkpt lat="42.82686998" lon="13.50974994">
        <ele>207.00000</ele>
        <time>2024-05-13T14:20:26Z</time>
      </trkpt>
      <trkpt lat="42.82712764" lon="13.50983980">
        <ele>204.00000</ele>
        <time>2024-05-13T14:20:30Z</time>
      </trkpt>
      <trkpt lat="42.82738538" lon="13.50992973">
        <ele>203.00000</ele>
        <time>2024-05-13T14:20:35Z</time>
      </trkpt>
      <trkpt lat="42.82764312" lon="13.51001967">
        <ele>203.00000</ele>
        <time>2024-05-13T14:20:39Z</time>
      </trkpt>
      <trkpt lat="42.82790087" lon="13.51010953">
        <ele>204.00000</ele>
        <time>2024-05-13T14:20:43Z</time>
      </trkpt>
      <trkpt lat="42.82815995" lon="13.51019997">
        <ele>204.00000</ele>
        <time>2024-05-13T14:20:48Z</time>
      </trkpt>
      <trkpt lat="42.82839967" lon="13.51027322">
        <ele>202.00000</ele>
        <time>2024-05-13T14:20:51Z</time>
      </trkpt>
      <trkpt lat="42.82863940" lon="13.51034648">
        <ele>202.00000</ele>
        <time>2024-05-13T14:20:55Z</time>
      </trkpt>
      <trkpt lat="42.82887996" lon="13.51041999">
        <ele>200.00000</ele>
        <time>2024-05-13T14:20:59Z</time>
      </trkpt>
      <trkpt lat="42.82915966" lon="13.51051479">
        <ele>200.00000</ele>
        <time>2024-05-13T14:21:04Z</time>
      </trkpt>
      <trkpt lat="42.82943995" lon="13.51060993">
        <ele>201.00000</ele>
        <time>2024-05-13T14:21:09Z</time>
      </trkpt>
      <trkpt lat="42.82965973" lon="13.51070975">
        <ele>200.00000</ele>
        <time>2024-05-13T14:21:12Z</time>
      </trkpt>
      <trkpt lat="42.82987992" lon="13.51080992">
        <ele>201.00000</ele>
        <time>2024-05-13T14:21:16Z</time>
      </trkpt>
      <trkpt lat="42.83005996" lon="13.51090991">
        <ele>202.00000</ele>
        <time>2024-05-13T14:21:19Z</time>
      </trkpt>
      <trkpt lat="42.83008997" lon="13.51101997">
        <ele>200.00000</ele>
        <time>2024-05-13T14:21:20Z</time>
      </trkpt>
      <trkpt lat="42.83010992" lon="13.51108996">
        <ele>199.00000</ele>
        <time>2024-05-13T14:21:21Z</time>
      </trkpt>
      <trkpt lat="42.83011998" lon="13.51116992">
        <ele>197.00000</ele>
        <time>2024-05-13T14:21:22Z</time>
      </trkpt>
      <trkpt lat="42.83014998" lon="13.51136991">
        <ele>193.00000</ele>
        <time>2024-05-13T14:21:25Z</time>
      </trkpt>
      <trkpt lat="42.83017002" lon="13.51164056">
        <ele>193.00000</ele>
        <time>2024-05-13T14:21:28Z</time>
      </trkpt>
      <trkpt lat="42.83018996" lon="13.51190996">
        <ele>195.00000</ele>
        <time>2024-05-13T14:21:31Z</time>
      </trkpt>
      <trkpt lat="42.83020991" lon="13.51213996">
        <ele>198.00000</ele>
        <time>2024-05-13T14:21:34Z</time>
      </trkpt>
      <trkpt lat="42.83024998" lon="13.51246065">
        <ele>200.00000</ele>
        <time>2024-05-13T14:21:38Z</time>
      </trkpt>
      <trkpt lat="42.83028996" lon="13.51277992">
        <ele>201.00000</ele>
        <time>2024-05-13T14:21:41Z</time>
      </trkpt>
      <trkpt lat="42.83034997" lon="13.51303992">
        <ele>202.00000</ele>
        <time>2024-05-13T14:21:45Z</time>
      </trkpt>
      <trkpt lat="42.83036992" lon="13.51313992">
        <ele>202.00000</ele>
        <time>2024-05-13T14:21:46Z</time>
      </trkpt>
      <trkpt lat="42.83043505" lon="13.51344058">
        <ele>203.00000</ele>
        <time>2024-05-13T14:21:50Z</time>
      </trkpt>
      <trkpt lat="42.83049993" lon="13.51373998">
        <ele>204.00000</ele>
        <time>2024-05-13T14:21:53Z</time>
      </trkpt>
      <trkpt lat="42.83050999" lon="13.51375993">
        <ele>204.00000</ele>
        <time>2024-05-13T14:21:54Z</time>
      </trkpt>
      <trkpt lat="42.83061266" lon="13.51410300">
        <ele>205.00000</ele>
        <time>2024-05-13T14:21:58Z</time>
      </trkpt>
      <trkpt lat="42.83071534" lon="13.51444615">
        <ele>208.00000</ele>
        <time>2024-05-13T14:22:02Z</time>
      </trkpt>
      <trkpt lat="42.83081802" lon="13.51478931">
        <ele>207.00000</ele>
        <time>2024-05-13T14:22:07Z</time>
      </trkpt>
      <trkpt lat="42.83091994" lon="13.51512995">
        <ele>207.00000</ele>
        <time>2024-05-13T14:22:11Z</time>
      </trkpt>
      <trkpt lat="42.83105992" lon="13.51548995">
        <ele>208.00000</ele>
        <time>2024-05-13T14:22:16Z</time>
      </trkpt>
      <trkpt lat="42.83107995" lon="13.51551996">
        <ele>208.00000</ele>
        <time>2024-05-13T14:22:16Z</time>
      </trkpt>
      <trkpt lat="42.83111994" lon="13.51558995">
        <ele>208.00000</ele>
        <time>2024-05-13T14:22:17Z</time>
      </trkpt>
      <trkpt lat="42.83129998" lon="13.51584996">
        <ele>206.00000</ele>
        <time>2024-05-13T14:22:21Z</time>
      </trkpt>
      <trkpt lat="42.83152495" lon="13.51606654">
        <ele>204.00000</ele>
        <time>2024-05-13T14:22:26Z</time>
      </trkpt>
      <trkpt lat="42.83174992" lon="13.51628322">
        <ele>206.00000</ele>
        <time>2024-05-13T14:22:30Z</time>
      </trkpt>
      <trkpt lat="42.83197489" lon="13.51649989">
        <ele>209.00000</ele>
        <time>2024-05-13T14:22:35Z</time>
      </trkpt>
      <trkpt lat="42.83219994" lon="13.51671656">
        <ele>213.00000</ele>
        <time>2024-05-13T14:22:39Z</time>
      </trkpt>
      <trkpt lat="42.83242492" lon="13.51693323">
        <ele>215.00000</ele>
        <time>2024-05-13T14:22:44Z</time>
      </trkpt>
      <trkpt lat="42.83264997" lon="13.51714999">
        <ele>216.00000</ele>
        <time>2024-05-13T14:22:48Z</time>
      </trkpt>
      <trkpt lat="42.83288994" lon="13.51733992">
        <ele>219.00000</ele>
        <time>2024-05-13T14:22:52Z</time>
      </trkpt>
      <trkpt lat="42.83317468" lon="13.51748979">
        <ele>218.00000</ele>
        <time>2024-05-13T14:22:57Z</time>
      </trkpt>
      <trkpt lat="42.83345991" lon="13.51763991">
        <ele>216.00000</ele>
        <time>2024-05-13T14:23:02Z</time>
      </trkpt>
      <trkpt lat="42.83364976" lon="13.51774485">
        <ele>216.00000</ele>
        <time>2024-05-13T14:23:05Z</time>
      </trkpt>
      <trkpt lat="42.83383995" lon="13.51784996">
        <ele>217.00000</ele>
        <time>2024-05-13T14:23:09Z</time>
      </trkpt>
      <trkpt lat="42.83401999" lon="13.51794996">
        <ele>219.00000</ele>
        <time>2024-05-13T14:23:12Z</time>
      </trkpt>
      <trkpt lat="42.83421998" lon="13.51804995">
        <ele>219.00000</ele>
        <time>2024-05-13T14:23:15Z</time>
      </trkpt>
      <trkpt lat="42.83429995" lon="13.51810997">
        <ele>220.00000</ele>
        <time>2024-05-13T14:23:17Z</time>
      </trkpt>
      <trkpt lat="42.83441998" lon="13.51819999">
        <ele>220.00000</ele>
        <time>2024-05-13T14:23:19Z</time>
      </trkpt>
      <trkpt lat="42.83450991" lon="13.51829999">
        <ele>220.00000</ele>
        <time>2024-05-13T14:23:21Z</time>
      </trkpt>
      <trkpt lat="42.83459994" lon="13.51840996">
        <ele>220.00000</ele>
        <time>2024-05-13T14:23:23Z</time>
      </trkpt>
      <trkpt lat="42.83468996" lon="13.51854993">
        <ele>220.00000</ele>
        <time>2024-05-13T14:23:25Z</time>
      </trkpt>
      <trkpt lat="42.83469993" lon="13.51857994">
        <ele>221.00000</ele>
        <time>2024-05-13T14:23:25Z</time>
      </trkpt>
      <trkpt lat="42.83484494" lon="13.51876501">
        <ele>221.00000</ele>
        <time>2024-05-13T14:23:28Z</time>
      </trkpt>
      <trkpt lat="42.83498995" lon="13.51894992">
        <ele>222.00000</ele>
        <time>2024-05-13T14:23:32Z</time>
      </trkpt>
      <trkpt lat="42.83516999" lon="13.51919995">
        <ele>224.00000</ele>
        <time>2024-05-13T14:23:36Z</time>
      </trkpt>
      <trkpt lat="42.83525993" lon="13.51929995">
        <ele>225.00000</ele>
        <time>2024-05-13T14:23:38Z</time>
      </trkpt>
      <trkpt lat="42.83536998" lon="13.51939994">
        <ele>226.00000</ele>
        <time>2024-05-13T14:23:40Z</time>
      </trkpt>
      <trkpt lat="42.83557995" lon="13.51953992">
        <ele>226.00000</ele>
        <time>2024-05-13T14:23:43Z</time>
      </trkpt>
      <trkpt lat="42.83571993" lon="13.51960999">
        <ele>226.00000</ele>
        <time>2024-05-13T14:23:46Z</time>
      </trkpt>
      <trkpt lat="42.83584993" lon="13.51963992">
        <ele>224.00000</ele>
        <time>2024-05-13T14:23:48Z</time>
      </trkpt>
      <trkpt lat="42.83600994" lon="13.51964998">
        <ele>222.00000</ele>
        <time>2024-05-13T14:23:51Z</time>
      </trkpt>
      <trkpt lat="42.83615997" lon="13.51963992">
        <ele>220.00000</ele>
        <time>2024-05-13T14:23:53Z</time>
      </trkpt>
      <trkpt lat="42.83630993" lon="13.51963992">
        <ele>219.00000</ele>
        <time>2024-05-13T14:23:55Z</time>
      </trkpt>
      <trkpt lat="42.83645996" lon="13.51965995">
        <ele>218.00000</ele>
        <time>2024-05-13T14:23:58Z</time>
      </trkpt>
      <trkpt lat="42.83663992" lon="13.51970999">
        <ele>217.00000</ele>
        <time>2024-05-13T14:24:01Z</time>
      </trkpt>
      <trkpt lat="42.83674998" lon="13.51978995">
        <ele>217.00000</ele>
        <time>2024-05-13T14:24:03Z</time>
      </trkpt>
      <trkpt lat="42.83689993" lon="13.51993999">
        <ele>219.00000</ele>
        <time>2024-05-13T14:24:06Z</time>
      </trkpt>
      <trkpt lat="42.83704997" lon="13.52013998">
        <ele>220.00000</ele>
        <time>2024-05-13T14:24:09Z</time>
      </trkpt>
      <trkpt lat="42.83717997" lon="13.52030997">
        <ele>221.00000</ele>
        <time>2024-05-13T14:24:12Z</time>
      </trkpt>
      <trkpt lat="42.83730997" lon="13.52042991">
        <ele>221.00000</ele>
        <time>2024-05-13T14:24:14Z</time>
      </trkpt>
      <trkpt lat="42.83743998" lon="13.52048993">
        <ele>220.00000</ele>
        <time>2024-05-13T14:24:17Z</time>
      </trkpt>
      <trkpt lat="42.83763997" lon="13.52054994">
        <ele>218.00000</ele>
        <time>2024-05-13T14:24:20Z</time>
      </trkpt>
      <trkpt lat="42.83782999" lon="13.52062999">
        <ele>216.00000</ele>
        <time>2024-05-13T14:24:23Z</time>
      </trkpt>
      <trkpt lat="42.83789997" lon="13.52068992">
        <ele>214.00000</ele>
        <time>2024-05-13T14:24:24Z</time>
      </trkpt>
      <trkpt lat="42.83796996" lon="13.52075999">
        <ele>213.00000</ele>
        <time>2024-05-13T14:24:26Z</time>
      </trkpt>
      <trkpt lat="42.83799997" lon="13.52081992">
        <ele>212.00000</ele>
        <time>2024-05-13T14:24:27Z</time>
      </trkpt>
      <trkpt lat="42.83802998" lon="13.52095998">
        <ele>211.00000</ele>
        <time>2024-05-13T14:24:28Z</time>
      </trkpt>
      <trkpt lat="42.83807993" lon="13.52116995">
        <ele>210.00000</ele>
        <time>2024-05-13T14:24:31Z</time>
      </trkpt>
      <trkpt lat="42.83812997" lon="13.52138997">
        <ele>209.00000</ele>
        <time>2024-05-13T14:24:34Z</time>
      </trkpt>
      <trkpt lat="42.83819996" lon="13.52158997">
        <ele>207.00000</ele>
        <time>2024-05-13T14:24:36Z</time>
      </trkpt>
      <trkpt lat="42.83824992" lon="13.52168996">
        <ele>206.00000</ele>
        <time>2024-05-13T14:24:38Z</time>
      </trkpt>
      <trkpt lat="42.83833994" lon="13.52185995">
        <ele>205.00000</ele>
        <time>2024-05-13T14:24:40Z</time>
      </trkpt>
      <trkpt lat="42.83842996" lon="13.52198995">
        <ele>206.00000</ele>
        <time>2024-05-13T14:24:42Z</time>
      </trkpt>
      <trkpt lat="42.83854999" lon="13.52216505">
        <ele>206.00000</ele>
        <time>2024-05-13T14:24:45Z</time>
      </trkpt>
      <trkpt lat="42.83866994" lon="13.52233998">
        <ele>206.00000</ele>
        <time>2024-05-13T14:24:48Z</time>
      </trkpt>
      <trkpt lat="42.83887504" lon="13.52259504">
        <ele>206.00000</ele>
        <time>2024-05-13T14:24:52Z</time>
      </trkpt>
      <trkpt lat="42.83907998" lon="13.52284993">
        <ele>206.00000</ele>
        <time>2024-05-13T14:24:57Z</time>
      </trkpt>
      <trkpt lat="42.83919992" lon="13.52293996">
        <ele>205.00000</ele>
        <time>2024-05-13T14:24:59Z</time>
      </trkpt>
      <trkpt lat="42.83933999" lon="13.52298991">
        <ele>204.00000</ele>
        <time>2024-05-13T14:25:01Z</time>
      </trkpt>
      <trkpt lat="42.83955967" lon="13.52300483">
        <ele>202.00000</ele>
        <time>2024-05-13T14:25:05Z</time>
      </trkpt>
      <trkpt lat="42.83977995" lon="13.52301992">
        <ele>199.00000</ele>
        <time>2024-05-13T14:25:08Z</time>
      </trkpt>
      <trkpt lat="42.83981993" lon="13.52301992">
        <ele>199.00000</ele>
        <time>2024-05-13T14:25:09Z</time>
      </trkpt>
      <trkpt lat="42.84010458" lon="13.52301992">
        <ele>197.00000</ele>
        <time>2024-05-13T14:25:13Z</time>
      </trkpt>
      <trkpt lat="42.84038999" lon="13.52301992">
        <ele>199.00000</ele>
        <time>2024-05-13T14:25:18Z</time>
      </trkpt>
      <trkpt lat="42.84066458" lon="13.52304490">
        <ele>200.00000</ele>
        <time>2024-05-13T14:25:22Z</time>
      </trkpt>
      <trkpt lat="42.84093992" lon="13.52306996">
        <ele>200.00000</ele>
        <time>2024-05-13T14:25:27Z</time>
      </trkpt>
      <trkpt lat="42.84103992" lon="13.52309997">
        <ele>199.00000</ele>
        <time>2024-05-13T14:25:29Z</time>
      </trkpt>
      <trkpt lat="42.84111997" lon="13.52314992">
        <ele>199.00000</ele>
        <time>2024-05-13T14:25:30Z</time>
      </trkpt>
      <trkpt lat="42.84119993" lon="13.52320994">
        <ele>200.00000</ele>
        <time>2024-05-13T14:25:31Z</time>
      </trkpt>
      <trkpt lat="42.84125994" lon="13.52324992">
        <ele>200.00000</ele>
        <time>2024-05-13T14:25:32Z</time>
      </trkpt>
      <trkpt lat="42.84137997" lon="13.52338998">
        <ele>199.00000</ele>
        <time>2024-05-13T14:25:35Z</time>
      </trkpt>
      <trkpt lat="42.84144996" lon="13.52350993">
        <ele>198.00000</ele>
        <time>2024-05-13T14:25:37Z</time>
      </trkpt>
      <trkpt lat="42.84151995" lon="13.52366994">
        <ele>197.00000</ele>
        <time>2024-05-13T14:25:39Z</time>
      </trkpt>
      <trkpt lat="42.84162506" lon="13.52391527">
        <ele>197.00000</ele>
        <time>2024-05-13T14:25:42Z</time>
      </trkpt>
      <trkpt lat="42.84172992" lon="13.52415994">
        <ele>198.00000</ele>
        <time>2024-05-13T14:25:46Z</time>
      </trkpt>
      <trkpt lat="42.84178993" lon="13.52430998">
        <ele>199.00000</ele>
        <time>2024-05-13T14:25:48Z</time>
      </trkpt>
      <trkpt lat="42.84186998" lon="13.52443998">
        <ele>200.00000</ele>
        <time>2024-05-13T14:25:50Z</time>
      </trkpt>
      <trkpt lat="42.84189999" lon="13.52447996">
        <ele>201.00000</ele>
        <time>2024-05-13T14:25:50Z</time>
      </trkpt>
      <trkpt lat="42.84191993" lon="13.52450997">
        <ele>201.00000</ele>
        <time>2024-05-13T14:25:51Z</time>
      </trkpt>
      <trkpt lat="42.84204994" lon="13.52460997">
        <ele>201.00000</ele>
        <time>2024-05-13T14:25:53Z</time>
      </trkpt>
      <trkpt lat="42.84219981" lon="13.52468482">
        <ele>198.00000</ele>
        <time>2024-05-13T14:25:56Z</time>
      </trkpt>
      <trkpt lat="42.84234993" lon="13.52475992">
        <ele>195.00000</ele>
        <time>2024-05-13T14:25:58Z</time>
      </trkpt>
      <trkpt lat="42.84255998" lon="13.52483997">
        <ele>192.00000</ele>
        <time>2024-05-13T14:26:02Z</time>
      </trkpt>
      <trkpt lat="42.84266995" lon="13.52491993">
        <ele>193.00000</ele>
        <time>2024-05-13T14:26:04Z</time>
      </trkpt>
      <trkpt lat="42.84276994" lon="13.52501993">
        <ele>195.00000</ele>
        <time>2024-05-13T14:26:06Z</time>
      </trkpt>
      <trkpt lat="42.84287991" lon="13.52513995">
        <ele>198.00000</ele>
        <time>2024-05-13T14:26:08Z</time>
      </trkpt>
      <trkpt lat="42.84297999" lon="13.52522998">
        <ele>199.00000</ele>
        <time>2024-05-13T14:26:10Z</time>
      </trkpt>
      <trkpt lat="42.84310991" lon="13.52536492">
        <ele>199.00000</ele>
        <time>2024-05-13T14:26:13Z</time>
      </trkpt>
      <trkpt lat="42.84323992" lon="13.52549996">
        <ele>196.00000</ele>
        <time>2024-05-13T14:26:15Z</time>
      </trkpt>
      <trkpt lat="42.84337989" lon="13.52562988">
        <ele>192.00000</ele>
        <time>2024-05-13T14:26:18Z</time>
      </trkpt>
      <trkpt lat="42.84351996" lon="13.52575996">
        <ele>190.00000</ele>
        <time>2024-05-13T14:26:21Z</time>
      </trkpt>
      <trkpt lat="42.84367997" lon="13.52589994">
        <ele>190.00000</ele>
        <time>2024-05-13T14:26:24Z</time>
      </trkpt>
      <trkpt lat="42.84382984" lon="13.52601989">
        <ele>191.00000</ele>
        <time>2024-05-13T14:26:26Z</time>
      </trkpt>
      <trkpt lat="42.84397996" lon="13.52613992">
        <ele>193.00000</ele>
        <time>2024-05-13T14:26:29Z</time>
      </trkpt>
      <trkpt lat="42.84419981" lon="13.52630982">
        <ele>194.00000</ele>
        <time>2024-05-13T14:26:33Z</time>
      </trkpt>
      <trkpt lat="42.84441992" lon="13.52647997">
        <ele>191.00000</ele>
        <time>2024-05-13T14:26:37Z</time>
      </trkpt>
      <trkpt lat="42.84465998" lon="13.52664995">
        <ele>191.00000</ele>
        <time>2024-05-13T14:26:42Z</time>
      </trkpt>
      <trkpt lat="42.84487984" lon="13.52681483">
        <ele>190.00000</ele>
        <time>2024-05-13T14:26:46Z</time>
      </trkpt>
      <trkpt lat="42.84509995" lon="13.52697995">
        <ele>189.00000</ele>
        <time>2024-05-13T14:26:50Z</time>
      </trkpt>
      <trkpt lat="42.84531997" lon="13.52717994">
        <ele>189.00000</ele>
        <time>2024-05-13T14:26:54Z</time>
      </trkpt>
      <trkpt lat="42.84543992" lon="13.52735999">
        <ele>189.00000</ele>
        <time>2024-05-13T14:26:57Z</time>
      </trkpt>
      <trkpt lat="42.84554997" lon="13.52755998">
        <ele>189.00000</ele>
        <time>2024-05-13T14:27:00Z</time>
      </trkpt>
      <trkpt lat="42.84566991" lon="13.52779995">
        <ele>188.00000</ele>
        <time>2024-05-13T14:27:03Z</time>
      </trkpt>
      <trkpt lat="42.84576999" lon="13.52793993">
        <ele>186.00000</ele>
        <time>2024-05-13T14:27:05Z</time>
      </trkpt>
      <trkpt lat="42.84583998" lon="13.52803993">
        <ele>184.00000</ele>
        <time>2024-05-13T14:27:07Z</time>
      </trkpt>
      <trkpt lat="42.84601994" lon="13.52820999">
        <ele>186.00000</ele>
        <time>2024-05-13T14:27:11Z</time>
      </trkpt>
      <trkpt lat="42.84622488" lon="13.52838987">
        <ele>185.00000</ele>
        <time>2024-05-13T14:27:14Z</time>
      </trkpt>
      <trkpt lat="42.84642999" lon="13.52856991">
        <ele>184.00000</ele>
        <time>2024-05-13T14:27:18Z</time>
      </trkpt>
      <trkpt lat="42.84655999" lon="13.52867997">
        <ele>184.00000</ele>
        <time>2024-05-13T14:27:21Z</time>
      </trkpt>
      <trkpt lat="42.84673995" lon="13.52881995">
        <ele>184.00000</ele>
        <time>2024-05-13T14:27:24Z</time>
      </trkpt>
      <trkpt lat="42.84678999" lon="13.52885993">
        <ele>184.00000</ele>
        <time>2024-05-13T14:27:25Z</time>
      </trkpt>
      <trkpt lat="42.84700993" lon="13.52904994">
        <ele>186.00000</ele>
        <time>2024-05-13T14:27:29Z</time>
      </trkpt>
      <trkpt lat="42.84722987" lon="13.52923485">
        <ele>187.00000</ele>
        <time>2024-05-13T14:27:33Z</time>
      </trkpt>
      <trkpt lat="42.84744998" lon="13.52941992">
        <ele>187.00000</ele>
        <time>2024-05-13T14:27:37Z</time>
      </trkpt>
      <trkpt lat="42.84769993" lon="13.52961991">
        <ele>190.00000</ele>
        <time>2024-05-13T14:27:42Z</time>
      </trkpt>
      <trkpt lat="42.84788978" lon="13.52974983">
        <ele>191.00000</ele>
        <time>2024-05-13T14:27:46Z</time>
      </trkpt>
      <trkpt lat="42.84807996" lon="13.52987992">
        <ele>190.00000</ele>
        <time>2024-05-13T14:27:49Z</time>
      </trkpt>
      <trkpt lat="42.84827476" lon="13.52995485">
        <ele>191.00000</ele>
        <time>2024-05-13T14:27:52Z</time>
      </trkpt>
      <trkpt lat="42.84846997" lon="13.53002996">
        <ele>192.00000</ele>
        <time>2024-05-13T14:27:55Z</time>
      </trkpt>
      <trkpt lat="42.84869997" lon="13.53012995">
        <ele>194.00000</ele>
        <time>2024-05-13T14:27:59Z</time>
      </trkpt>
      <trkpt lat="42.84894992" lon="13.53023992">
        <ele>195.00000</ele>
        <time>2024-05-13T14:28:03Z</time>
      </trkpt>
      <trkpt lat="42.84907992" lon="13.53030991">
        <ele>194.00000</ele>
        <time>2024-05-13T14:28:06Z</time>
      </trkpt>
      <trkpt lat="42.84918998" lon="13.53039993">
        <ele>193.00000</ele>
        <time>2024-05-13T14:28:08Z</time>
      </trkpt>
      <trkpt lat="42.84926994" lon="13.53048996">
        <ele>192.00000</ele>
        <time>2024-05-13T14:28:09Z</time>
      </trkpt>
      <trkpt lat="42.84935996" lon="13.53058995">
        <ele>192.00000</ele>
        <time>2024-05-13T14:28:11Z</time>
      </trkpt>
      <trkpt lat="42.84941998" lon="13.53070998">
        <ele>193.00000</ele>
        <time>2024-05-13T14:28:13Z</time>
      </trkpt>
      <trkpt lat="42.84948997" lon="13.53086999">
        <ele>196.00000</ele>
        <time>2024-05-13T14:28:15Z</time>
      </trkpt>
      <trkpt lat="42.84958996" lon="13.53115992">
        <ele>199.00000</ele>
        <time>2024-05-13T14:28:19Z</time>
      </trkpt>
      <trkpt lat="42.84967998" lon="13.53141993">
        <ele>198.00000</ele>
        <time>2024-05-13T14:28:22Z</time>
      </trkpt>
      <trkpt lat="42.84973992" lon="13.53169997">
        <ele>198.00000</ele>
        <time>2024-05-13T14:28:26Z</time>
      </trkpt>
      <trkpt lat="42.84978996" lon="13.53190993">
        <ele>195.00000</ele>
        <time>2024-05-13T14:28:28Z</time>
      </trkpt>
      <trkpt lat="42.84983991" lon="13.53218997">
        <ele>195.00000</ele>
        <time>2024-05-13T14:28:32Z</time>
      </trkpt>
      <trkpt lat="42.84987998" lon="13.53242995">
        <ele>196.00000</ele>
        <time>2024-05-13T14:28:35Z</time>
      </trkpt>
      <trkpt lat="42.84989993" lon="13.53269993">
        <ele>197.00000</ele>
        <time>2024-05-13T14:28:38Z</time>
      </trkpt>
      <trkpt lat="42.84990496" lon="13.53303571">
        <ele>196.00000</ele>
        <time>2024-05-13T14:28:42Z</time>
      </trkpt>
      <trkpt lat="42.84990998" lon="13.53336998">
        <ele>191.00000</ele>
        <time>2024-05-13T14:28:46Z</time>
      </trkpt>
      <trkpt lat="42.84989993" lon="13.53377994">
        <ele>187.00000</ele>
        <time>2024-05-13T14:28:51Z</time>
      </trkpt>
      <trkpt lat="42.84989322" lon="13.53407397">
        <ele>184.00000</ele>
        <time>2024-05-13T14:28:54Z</time>
      </trkpt>
      <trkpt lat="42.84988651" lon="13.53436801">
        <ele>183.00000</ele>
        <time>2024-05-13T14:28:57Z</time>
      </trkpt>
      <trkpt lat="42.84987998" lon="13.53465995">
        <ele>183.00000</ele>
        <time>2024-05-13T14:29:01Z</time>
      </trkpt>
      <trkpt lat="42.84985986" lon="13.53499406">
        <ele>183.00000</ele>
        <time>2024-05-13T14:29:05Z</time>
      </trkpt>
      <trkpt lat="42.84983983" lon="13.53532816">
        <ele>186.00000</ele>
        <time>2024-05-13T14:29:09Z</time>
      </trkpt>
      <trkpt lat="42.84981996" lon="13.53565991">
        <ele>189.00000</ele>
        <time>2024-05-13T14:29:13Z</time>
      </trkpt>
      <trkpt lat="42.84978652" lon="13.53597063">
        <ele>190.00000</ele>
        <time>2024-05-13T14:29:16Z</time>
      </trkpt>
      <trkpt lat="42.84975307" lon="13.53628135">
        <ele>188.00000</ele>
        <time>2024-05-13T14:29:20Z</time>
      </trkpt>
      <trkpt lat="42.84971997" lon="13.53658997">
        <ele>185.00000</ele>
        <time>2024-05-13T14:29:24Z</time>
      </trkpt>
      <trkpt lat="42.84965978" lon="13.53696573">
        <ele>185.00000</ele>
        <time>2024-05-13T14:29:28Z</time>
      </trkpt>
      <trkpt lat="42.84959994" lon="13.53733998">
        <ele>187.00000</ele>
        <time>2024-05-13T14:29:33Z</time>
      </trkpt>
      <trkpt lat="42.84954981" lon="13.53761550">
        <ele>187.00000</ele>
        <time>2024-05-13T14:29:36Z</time>
      </trkpt>
      <trkpt lat="42.84949994" lon="13.53788992">
        <ele>187.00000</ele>
        <time>2024-05-13T14:29:40Z</time>
      </trkpt>
      <trkpt lat="42.84945996" lon="13.53813995">
        <ele>184.00000</ele>
        <time>2024-05-13T14:29:43Z</time>
      </trkpt>
      <trkpt lat="42.84942995" lon="13.53822997">
        <ele>184.00000</ele>
        <time>2024-05-13T14:29:44Z</time>
      </trkpt>
      <trkpt lat="42.84938477" lon="13.53864085">
        <ele>182.00000</ele>
        <time>2024-05-13T14:29:49Z</time>
      </trkpt>
      <trkpt lat="42.84933993" lon="13.53904997">
        <ele>184.00000</ele>
        <time>2024-05-13T14:29:53Z</time>
      </trkpt>
      <trkpt lat="42.84933993" lon="13.53927042">
        <ele>185.00000</ele>
        <time>2024-05-13T14:29:56Z</time>
      </trkpt>
      <trkpt lat="42.84933993" lon="13.53948994">
        <ele>187.00000</ele>
        <time>2024-05-13T14:29:59Z</time>
      </trkpt>
      <trkpt lat="42.84933993" lon="13.53958994">
        <ele>187.00000</ele>
        <time>2024-05-13T14:30:00Z</time>
      </trkpt>
      <trkpt lat="42.84934991" lon="13.53985053">
        <ele>187.00000</ele>
        <time>2024-05-13T14:30:03Z</time>
      </trkpt>
      <trkpt lat="42.84935996" lon="13.54010995">
        <ele>186.00000</ele>
        <time>2024-05-13T14:30:06Z</time>
      </trkpt>
      <trkpt lat="42.84937991" lon="13.54038999">
        <ele>185.00000</ele>
        <time>2024-05-13T14:30:09Z</time>
      </trkpt>
      <trkpt lat="42.84937991" lon="13.54052997">
        <ele>185.00000</ele>
        <time>2024-05-13T14:30:11Z</time>
      </trkpt>
      <trkpt lat="42.84937991" lon="13.54069995">
        <ele>184.00000</ele>
        <time>2024-05-13T14:30:13Z</time>
      </trkpt>
      <trkpt lat="42.84936994" lon="13.54080992">
        <ele>184.00000</ele>
        <time>2024-05-13T14:30:14Z</time>
      </trkpt>
      <trkpt lat="42.84937991" lon="13.54085996">
        <ele>183.00000</ele>
        <time>2024-05-13T14:30:15Z</time>
      </trkpt>
      <trkpt lat="42.84935996" lon="13.54097999">
        <ele>182.00000</ele>
        <time>2024-05-13T14:30:16Z</time>
      </trkpt>
      <trkpt lat="42.84933993" lon="13.54113992">
        <ele>181.00000</ele>
        <time>2024-05-13T14:30:18Z</time>
      </trkpt>
      <trkpt lat="42.84929995" lon="13.54128995">
        <ele>181.00000</ele>
        <time>2024-05-13T14:30:20Z</time>
      </trkpt>
      <trkpt lat="42.84922979" lon="13.54151031">
        <ele>182.00000</ele>
        <time>2024-05-13T14:30:23Z</time>
      </trkpt>
      <trkpt lat="42.84915997" lon="13.54172992">
        <ele>181.00000</ele>
        <time>2024-05-13T14:30:26Z</time>
      </trkpt>
      <trkpt lat="42.84910993" lon="13.54185992">
        <ele>182.00000</ele>
        <time>2024-05-13T14:30:27Z</time>
      </trkpt>
      <trkpt lat="42.84904992" lon="13.54192991">
        <ele>182.00000</ele>
        <time>2024-05-13T14:30:29Z</time>
      </trkpt>
      <trkpt lat="42.84897993" lon="13.54209998">
        <ele>182.00000</ele>
        <time>2024-05-13T14:30:31Z</time>
      </trkpt>
      <trkpt lat="42.84893995" lon="13.54225999">
        <ele>181.00000</ele>
        <time>2024-05-13T14:30:33Z</time>
      </trkpt>
      <trkpt lat="42.84889996" lon="13.54245998">
        <ele>180.00000</ele>
        <time>2024-05-13T14:30:35Z</time>
      </trkpt>
      <trkpt lat="42.84886996" lon="13.54266995">
        <ele>178.00000</ele>
        <time>2024-05-13T14:30:38Z</time>
      </trkpt>
      <trkpt lat="42.84884992" lon="13.54276995">
        <ele>178.00000</ele>
        <time>2024-05-13T14:30:39Z</time>
      </trkpt>
      <trkpt lat="42.84883995" lon="13.54287992">
        <ele>177.00000</ele>
        <time>2024-05-13T14:30:40Z</time>
      </trkpt>
      <trkpt lat="42.84886996" lon="13.54307999">
        <ele>176.00000</ele>
        <time>2024-05-13T14:30:43Z</time>
      </trkpt>
      <trkpt lat="42.84890994" lon="13.54336992">
        <ele>174.00000</ele>
        <time>2024-05-13T14:30:46Z</time>
      </trkpt>
      <trkpt lat="42.84896995" lon="13.54358995">
        <ele>171.00000</ele>
        <time>2024-05-13T14:30:49Z</time>
      </trkpt>
      <trkpt lat="42.84903005" lon="13.54382540">
        <ele>170.00000</ele>
        <time>2024-05-13T14:30:52Z</time>
      </trkpt>
      <trkpt lat="42.84908998" lon="13.54405992">
        <ele>169.00000</ele>
        <time>2024-05-13T14:30:55Z</time>
      </trkpt>
      <trkpt lat="42.84909996" lon="13.54410996">
        <ele>169.00000</ele>
        <time>2024-05-13T14:30:56Z</time>
      </trkpt>
      <trkpt lat="42.84916995" lon="13.54427995">
        <ele>167.00000</ele>
        <time>2024-05-13T14:30:58Z</time>
      </trkpt>
      <trkpt lat="42.84924999" lon="13.54460994">
        <ele>168.00000</ele>
        <time>2024-05-13T14:31:02Z</time>
      </trkpt>
      <trkpt lat="42.84935510" lon="13.54492544">
        <ele>169.00000</ele>
        <time>2024-05-13T14:31:06Z</time>
      </trkpt>
      <trkpt lat="42.84945996" lon="13.54523993">
        <ele>169.00000</ele>
        <time>2024-05-13T14:31:10Z</time>
      </trkpt>
      <trkpt lat="42.84953992" lon="13.54551997">
        <ele>169.00000</ele>
        <time>2024-05-13T14:31:14Z</time>
      </trkpt>
      <trkpt lat="42.84959994" lon="13.54573999">
        <ele>170.00000</ele>
        <time>2024-05-13T14:31:16Z</time>
      </trkpt>
      <trkpt lat="42.84963992" lon="13.54599991">
        <ele>170.00000</ele>
        <time>2024-05-13T14:31:19Z</time>
      </trkpt>
      <trkpt lat="42.84965995" lon="13.54620996">
        <ele>170.00000</ele>
        <time>2024-05-13T14:31:22Z</time>
      </trkpt>
      <trkpt lat="42.84967998" lon="13.54632999">
        <ele>169.00000</ele>
        <time>2024-05-13T14:31:23Z</time>
      </trkpt>
      <trkpt lat="42.84971670" lon="13.54673417">
        <ele>167.00000</ele>
        <time>2024-05-13T14:31:28Z</time>
      </trkpt>
      <trkpt lat="42.84975341" lon="13.54713843">
        <ele>166.00000</ele>
        <time>2024-05-13T14:31:33Z</time>
      </trkpt>
      <trkpt lat="42.84978996" lon="13.54753992">
        <ele>169.00000</ele>
        <time>2024-05-13T14:31:38Z</time>
      </trkpt>
      <trkpt lat="42.84981493" lon="13.54784561">
        <ele>170.00000</ele>
        <time>2024-05-13T14:31:41Z</time>
      </trkpt>
      <trkpt lat="42.84983991" lon="13.54814996">
        <ele>172.00000</ele>
        <time>2024-05-13T14:31:45Z</time>
      </trkpt>
      <trkpt lat="42.84984997" lon="13.54824995">
        <ele>173.00000</ele>
        <time>2024-05-13T14:31:46Z</time>
      </trkpt>
      <trkpt lat="42.84986992" lon="13.54832991">
        <ele>173.00000</ele>
        <time>2024-05-13T14:31:47Z</time>
      </trkpt>
      <trkpt lat="42.84990998" lon="13.54839999">
        <ele>172.00000</ele>
        <time>2024-05-13T14:31:48Z</time>
      </trkpt>
      <trkpt lat="42.84994997" lon="13.54848993">
        <ele>172.00000</ele>
        <time>2024-05-13T14:31:49Z</time>
      </trkpt>
      <trkpt lat="42.85002993" lon="13.54860995">
        <ele>172.00000</ele>
        <time>2024-05-13T14:31:51Z</time>
      </trkpt>
      <trkpt lat="42.85025993" lon="13.54881992">
        <ele>171.00000</ele>
        <time>2024-05-13T14:31:56Z</time>
      </trkpt>
      <trkpt lat="42.85041994" lon="13.54897993">
        <ele>172.00000</ele>
        <time>2024-05-13T14:31:59Z</time>
      </trkpt>
      <trkpt lat="42.85055992" lon="13.54912997">
        <ele>173.00000</ele>
        <time>2024-05-13T14:32:02Z</time>
      </trkpt>
      <trkpt lat="42.85066997" lon="13.54928998">
        <ele>172.00000</ele>
        <time>2024-05-13T14:32:04Z</time>
      </trkpt>
      <trkpt lat="42.85072999" lon="13.54941998">
        <ele>172.00000</ele>
        <time>2024-05-13T14:32:06Z</time>
      </trkpt>
      <trkpt lat="42.85075999" lon="13.54952995">
        <ele>173.00000</ele>
        <time>2024-05-13T14:32:08Z</time>
      </trkpt>
      <trkpt lat="42.85083007" lon="13.54988065">
        <ele>176.00000</ele>
        <time>2024-05-13T14:32:12Z</time>
      </trkpt>
      <trkpt lat="42.85089997" lon="13.55022992">
        <ele>178.00000</ele>
        <time>2024-05-13T14:32:16Z</time>
      </trkpt>
      <trkpt lat="42.85095001" lon="13.55046537">
        <ele>177.00000</ele>
        <time>2024-05-13T14:32:19Z</time>
      </trkpt>
      <trkpt lat="42.85099997" lon="13.55069998">
        <ele>175.00000</ele>
        <time>2024-05-13T14:32:22Z</time>
      </trkpt>
      <trkpt lat="42.85104992" lon="13.55093996">
        <ele>174.00000</ele>
        <time>2024-05-13T14:32:25Z</time>
      </trkpt>
      <trkpt lat="42.85110499" lon="13.55118043">
        <ele>174.00000</ele>
        <time>2024-05-13T14:32:28Z</time>
      </trkpt>
      <trkpt lat="42.85115998" lon="13.55141999">
        <ele>175.00000</ele>
        <time>2024-05-13T14:32:31Z</time>
      </trkpt>
      <trkpt lat="42.85119996" lon="13.55157991">
        <ele>176.00000</ele>
        <time>2024-05-13T14:32:33Z</time>
      </trkpt>
      <trkpt lat="42.85128998" lon="13.55190999">
        <ele>178.00000</ele>
        <time>2024-05-13T14:32:37Z</time>
      </trkpt>
      <trkpt lat="42.85132996" lon="13.55201996">
        <ele>179.00000</ele>
        <time>2024-05-13T14:32:38Z</time>
      </trkpt>
      <trkpt lat="42.85134991" lon="13.55206992">
        <ele>179.00000</ele>
        <time>2024-05-13T14:32:39Z</time>
      </trkpt>
      <trkpt lat="42.85137992" lon="13.55210999">
        <ele>178.00000</ele>
        <time>2024-05-13T14:32:40Z</time>
      </trkpt>
      <trkpt lat="42.85146994" lon="13.55222993">
        <ele>178.00000</ele>
        <time>2024-05-13T14:32:42Z</time>
      </trkpt>
      <trkpt lat="42.85155996" lon="13.55231995">
        <ele>177.00000</ele>
        <time>2024-05-13T14:32:43Z</time>
      </trkpt>
      <trkpt lat="42.85165996" lon="13.55246999">
        <ele>174.00000</ele>
        <time>2024-05-13T14:32:46Z</time>
      </trkpt>
      <trkpt lat="42.85170991" lon="13.55255993">
        <ele>174.00000</ele>
        <time>2024-05-13T14:32:47Z</time>
      </trkpt>
      <trkpt lat="42.85174998" lon="13.55268993">
        <ele>175.00000</ele>
        <time>2024-05-13T14:32:49Z</time>
      </trkpt>
      <trkpt lat="42.85176993" lon="13.55286997">
        <ele>176.00000</ele>
        <time>2024-05-13T14:32:51Z</time>
      </trkpt>
      <trkpt lat="42.85176993" lon="13.55315999">
        <ele>180.00000</ele>
        <time>2024-05-13T14:32:54Z</time>
      </trkpt>
      <trkpt lat="42.85176993" lon="13.55342997">
        <ele>182.00000</ele>
        <time>2024-05-13T14:32:58Z</time>
      </trkpt>
      <trkpt lat="42.85178996" lon="13.55367992">
        <ele>181.00000</ele>
        <time>2024-05-13T14:33:00Z</time>
      </trkpt>
      <trkpt lat="42.85182994" lon="13.55386993">
        <ele>180.00000</ele>
        <time>2024-05-13T14:33:03Z</time>
      </trkpt>
      <trkpt lat="42.85186992" lon="13.55398996">
        <ele>179.00000</ele>
        <time>2024-05-13T14:33:04Z</time>
      </trkpt>
      <trkpt lat="42.85198501" lon="13.55425533">
        <ele>179.00000</ele>
        <time>2024-05-13T14:33:08Z</time>
      </trkpt>
      <trkpt lat="42.85209992" lon="13.55451995">
        <ele>180.00000</ele>
        <time>2024-05-13T14:33:12Z</time>
      </trkpt>
      <trkpt lat="42.85223672" lon="13.55479689">
        <ele>179.00000</ele>
        <time>2024-05-13T14:33:16Z</time>
      </trkpt>
      <trkpt lat="42.85237359" lon="13.55507391">
        <ele>176.00000</ele>
        <time>2024-05-13T14:33:19Z</time>
      </trkpt>
      <trkpt lat="42.85250997" lon="13.55534993">
        <ele>174.00000</ele>
        <time>2024-05-13T14:33:23Z</time>
      </trkpt>
      <trkpt lat="42.85267014" lon="13.55570708">
        <ele>175.00000</ele>
        <time>2024-05-13T14:33:28Z</time>
      </trkpt>
      <trkpt lat="42.85283032" lon="13.55606423">
        <ele>175.00000</ele>
        <time>2024-05-13T14:33:33Z</time>
      </trkpt>
      <trkpt lat="42.85298991" lon="13.55641996">
        <ele>175.00000</ele>
        <time>2024-05-13T14:33:38Z</time>
      </trkpt>
      <trkpt lat="42.85313006" lon="13.55672531">
        <ele>176.00000</ele>
        <time>2024-05-13T14:33:42Z</time>
      </trkpt>
      <trkpt lat="42.85326995" lon="13.55702999">
        <ele>178.00000</ele>
        <time>2024-05-13T14:33:47Z</time>
      </trkpt>
      <trkpt lat="42.85330994" lon="13.55712999">
        <ele>178.00000</ele>
        <time>2024-05-13T14:33:48Z</time>
      </trkpt>
      <trkpt lat="42.85336995" lon="13.55736996">
        <ele>175.00000</ele>
        <time>2024-05-13T14:33:51Z</time>
      </trkpt>
      <trkpt lat="42.85340993" lon="13.55752998">
        <ele>172.00000</ele>
        <time>2024-05-13T14:33:53Z</time>
      </trkpt>
      <trkpt lat="42.85343994" lon="13.55785997">
        <ele>170.00000</ele>
        <time>2024-05-13T14:33:57Z</time>
      </trkpt>
      <trkpt lat="42.85348998" lon="13.55825996">
        <ele>168.00000</ele>
        <time>2024-05-13T14:34:02Z</time>
      </trkpt>
      <trkpt lat="42.85349995" lon="13.55833992">
        <ele>168.00000</ele>
        <time>2024-05-13T14:34:03Z</time>
      </trkpt>
      <trkpt lat="42.85351999" lon="13.55861996">
        <ele>166.00000</ele>
        <time>2024-05-13T14:34:06Z</time>
      </trkpt>
      <trkpt lat="42.85357003" lon="13.55888550">
        <ele>167.00000</ele>
        <time>2024-05-13T14:34:09Z</time>
      </trkpt>
      <trkpt lat="42.85361998" lon="13.55914995">
        <ele>167.00000</ele>
        <time>2024-05-13T14:34:12Z</time>
      </trkpt>
      <trkpt lat="42.85369995" lon="13.55940995">
        <ele>166.00000</ele>
        <time>2024-05-13T14:34:16Z</time>
      </trkpt>
      <trkpt lat="42.85389013" lon="13.55973022">
        <ele>167.00000</ele>
        <time>2024-05-13T14:34:20Z</time>
      </trkpt>
      <trkpt lat="42.85407998" lon="13.56004999">
        <ele>165.00000</ele>
        <time>2024-05-13T14:34:25Z</time>
      </trkpt>
      <trkpt lat="42.85426991" lon="13.56022492">
        <ele>161.00000</ele>
        <time>2024-05-13T14:34:29Z</time>
      </trkpt>
      <trkpt lat="42.85445993" lon="13.56039994">
        <ele>159.00000</ele>
        <time>2024-05-13T14:34:33Z</time>
      </trkpt>
      <trkpt lat="42.85454995" lon="13.56047999">
        <ele>159.00000</ele>
        <time>2024-05-13T14:34:34Z</time>
      </trkpt>
      <trkpt lat="42.85464995" lon="13.56053992">
        <ele>159.00000</ele>
        <time>2024-05-13T14:34:36Z</time>
      </trkpt>
      <trkpt lat="42.85488464" lon="13.56063983">
        <ele>157.00000</ele>
        <time>2024-05-13T14:34:40Z</time>
      </trkpt>
      <trkpt lat="42.85511992" lon="13.56073999">
        <ele>155.00000</ele>
        <time>2024-05-13T14:34:44Z</time>
      </trkpt>
      <trkpt lat="42.85540767" lon="13.56087385">
        <ele>149.00000</ele>
        <time>2024-05-13T14:34:49Z</time>
      </trkpt>
      <trkpt lat="42.85569543" lon="13.56100771">
        <ele>144.00000</ele>
        <time>2024-05-13T14:34:54Z</time>
      </trkpt>
      <trkpt lat="42.85598318" lon="13.56114157">
        <ele>143.00000</ele>
        <time>2024-05-13T14:34:59Z</time>
      </trkpt>
      <trkpt lat="42.85627093" lon="13.56127543">
        <ele>147.00000</ele>
        <time>2024-05-13T14:35:03Z</time>
      </trkpt>
      <trkpt lat="42.85655993" lon="13.56140996">
        <ele>154.00000</ele>
        <time>2024-05-13T14:35:08Z</time>
      </trkpt>
      <trkpt lat="42.85661995" lon="13.56142999">
        <ele>155.00000</ele>
        <time>2024-05-13T14:35:09Z</time>
      </trkpt>
      <trkpt lat="42.85668994" lon="13.56146997">
        <ele>156.00000</ele>
        <time>2024-05-13T14:35:11Z</time>
      </trkpt>
      <trkpt lat="42.85694969" lon="13.56159235">
        <ele>156.00000</ele>
        <time>2024-05-13T14:35:15Z</time>
      </trkpt>
      <trkpt lat="42.85720945" lon="13.56171472">
        <ele>158.00000</ele>
        <time>2024-05-13T14:35:19Z</time>
      </trkpt>
      <trkpt lat="42.85746929" lon="13.56183710">
        <ele>159.00000</ele>
        <time>2024-05-13T14:35:24Z</time>
      </trkpt>
      <trkpt lat="42.85772996" lon="13.56195998">
        <ele>158.00000</ele>
        <time>2024-05-13T14:35:28Z</time>
      </trkpt>
      <trkpt lat="42.85777992" lon="13.56200993">
        <ele>158.00000</ele>
        <time>2024-05-13T14:35:29Z</time>
      </trkpt>
      <trkpt lat="42.85779995" lon="13.56201999">
        <ele>158.00000</ele>
        <time>2024-05-13T14:35:29Z</time>
      </trkpt>
      <trkpt lat="42.85795980" lon="13.56210490">
        <ele>159.00000</ele>
        <time>2024-05-13T14:35:32Z</time>
      </trkpt>
      <trkpt lat="42.85811997" lon="13.56218998">
        <ele>159.00000</ele>
        <time>2024-05-13T14:35:35Z</time>
      </trkpt>
      <trkpt lat="42.85818996" lon="13.56222996">
        <ele>159.00000</ele>
        <time>2024-05-13T14:35:36Z</time>
      </trkpt>
      <trkpt lat="42.85841996" lon="13.56239994">
        <ele>161.00000</ele>
        <time>2024-05-13T14:35:40Z</time>
      </trkpt>
      <trkpt lat="42.85850998" lon="13.56242995">
        <ele>162.00000</ele>
        <time>2024-05-13T14:35:42Z</time>
      </trkpt>
      <trkpt lat="42.85855994" lon="13.56246993">
        <ele>162.00000</ele>
        <time>2024-05-13T14:35:43Z</time>
      </trkpt>
      <trkpt lat="42.85872984" lon="13.56260991">
        <ele>164.00000</ele>
        <time>2024-05-13T14:35:46Z</time>
      </trkpt>
      <trkpt lat="42.85889999" lon="13.56274997">
        <ele>166.00000</ele>
        <time>2024-05-13T14:35:49Z</time>
      </trkpt>
      <trkpt lat="42.85908993" lon="13.56293999">
        <ele>166.00000</ele>
        <time>2024-05-13T14:35:53Z</time>
      </trkpt>
      <trkpt lat="42.85913997" lon="13.56300998">
        <ele>166.00000</ele>
        <time>2024-05-13T14:35:54Z</time>
      </trkpt>
      <trkpt lat="42.85926997" lon="13.56318994">
        <ele>166.00000</ele>
        <time>2024-05-13T14:35:57Z</time>
      </trkpt>
      <trkpt lat="42.85929998" lon="13.56322992">
        <ele>166.00000</ele>
        <time>2024-05-13T14:35:58Z</time>
      </trkpt>
      <trkpt lat="42.85942998" lon="13.56340996">
        <ele>166.00000</ele>
        <time>2024-05-13T14:36:01Z</time>
      </trkpt>
      <trkpt lat="42.85955999" lon="13.56358992">
        <ele>168.00000</ele>
        <time>2024-05-13T14:36:04Z</time>
      </trkpt>
      <trkpt lat="42.85972997" lon="13.56386996">
        <ele>167.00000</ele>
        <time>2024-05-13T14:36:08Z</time>
      </trkpt>
      <trkpt lat="42.85992996" lon="13.56416995">
        <ele>166.00000</ele>
        <time>2024-05-13T14:36:13Z</time>
      </trkpt>
      <trkpt lat="42.86000993" lon="13.56431999">
        <ele>166.00000</ele>
        <time>2024-05-13T14:36:15Z</time>
      </trkpt>
      <trkpt lat="42.86007991" lon="13.56441998">
        <ele>166.00000</ele>
        <time>2024-05-13T14:36:16Z</time>
      </trkpt>
      <trkpt lat="42.86018997" lon="13.56457999">
        <ele>165.00000</ele>
        <time>2024-05-13T14:36:19Z</time>
      </trkpt>
      <trkpt lat="42.86027999" lon="13.56471997">
        <ele>164.00000</ele>
        <time>2024-05-13T14:36:21Z</time>
      </trkpt>
      <trkpt lat="42.86026993" lon="13.56489993">
        <ele>163.00000</ele>
        <time>2024-05-13T14:36:23Z</time>
      </trkpt>
      <trkpt lat="42.86026993" lon="13.56498995">
        <ele>163.00000</ele>
        <time>2024-05-13T14:36:24Z</time>
      </trkpt>
      <trkpt lat="42.86027999" lon="13.56503999">
        <ele>163.00000</ele>
        <time>2024-05-13T14:36:25Z</time>
      </trkpt>
      <trkpt lat="42.86028997" lon="13.56510998">
        <ele>163.00000</ele>
        <time>2024-05-13T14:36:26Z</time>
      </trkpt>
      <trkpt lat="42.86030991" lon="13.56523999">
        <ele>163.00000</ele>
        <time>2024-05-13T14:36:27Z</time>
      </trkpt>
      <trkpt lat="42.86033992" lon="13.56528994">
        <ele>163.00000</ele>
        <time>2024-05-13T14:36:28Z</time>
      </trkpt>
      <trkpt lat="42.86036993" lon="13.56533998">
        <ele>163.00000</ele>
        <time>2024-05-13T14:36:29Z</time>
      </trkpt>
      <trkpt lat="42.86041997" lon="13.56538994">
        <ele>164.00000</ele>
        <time>2024-05-13T14:36:30Z</time>
      </trkpt>
      <trkpt lat="42.86063999" lon="13.56555992">
        <ele>165.00000</ele>
        <time>2024-05-13T14:36:34Z</time>
      </trkpt>
      <trkpt lat="42.86077997" lon="13.56571993">
        <ele>166.00000</ele>
        <time>2024-05-13T14:36:37Z</time>
      </trkpt>
      <trkpt lat="42.86089992" lon="13.56588992">
        <ele>168.00000</ele>
        <time>2024-05-13T14:36:40Z</time>
      </trkpt>
      <trkpt lat="42.86096999" lon="13.56601992">
        <ele>169.00000</ele>
        <time>2024-05-13T14:36:42Z</time>
      </trkpt>
      <trkpt lat="42.86103998" lon="13.56618999">
        <ele>169.00000</ele>
        <time>2024-05-13T14:36:44Z</time>
      </trkpt>
      <trkpt lat="42.86114995" lon="13.56646995">
        <ele>171.00000</ele>
        <time>2024-05-13T14:36:48Z</time>
      </trkpt>
      <trkpt lat="42.86120996" lon="13.56642996">
        <ele>172.00000</ele>
        <time>2024-05-13T14:36:49Z</time>
      </trkpt>
      <trkpt lat="42.86126998" lon="13.56637992">
        <ele>174.00000</ele>
        <time>2024-05-13T14:36:50Z</time>
      </trkpt>
      <trkpt lat="42.86128993" lon="13.56636995">
        <ele>175.00000</ele>
        <time>2024-05-13T14:36:50Z</time>
      </trkpt>
      <trkpt lat="42.86134994" lon="13.56631999">
        <ele>177.00000</ele>
        <time>2024-05-13T14:36:51Z</time>
      </trkpt>
      <trkpt lat="42.86136997" lon="13.56629996">
        <ele>178.00000</ele>
        <time>2024-05-13T14:36:52Z</time>
      </trkpt>
      <trkpt lat="42.86138992" lon="13.56628999">
        <ele>178.00000</ele>
        <time>2024-05-13T14:36:52Z</time>
      </trkpt>
      <trkpt lat="42.86138992" lon="13.56626995">
        <ele>178.00000</ele>
        <time>2024-05-13T14:36:52Z</time>
      </trkpt>
      <trkpt lat="42.86139998" lon="13.56624992">
        <ele>179.00000</ele>
        <time>2024-05-13T14:36:53Z</time>
      </trkpt>
      <trkpt lat="42.86139998" lon="13.56619996">
        <ele>179.00000</ele>
        <time>2024-05-13T14:36:53Z</time>
      </trkpt>
      <trkpt lat="42.86138992" lon="13.56615998">
        <ele>179.00000</ele>
        <time>2024-05-13T14:36:54Z</time>
      </trkpt>
    </trkseg>
  </trk>
</gpx>

